# Wetter Temperatur Luftdruck Luftfeuchtigkeit Sichtweite Windgeschwindigkeit Windrichtung Zeit
1 Clouds 21 1020 39 7000 2.1 200 19:56 17.10.2019
2 Clouds 21 1020 39 7000 2.1 200 19:38 17.10.2019
3 Clouds 21 1020 39 7000 2.1 200 19:18 17.10.2019
4 Clear 19 1020 48 10000 2.1 180 18:42 17.10.2019
5 Clear 18 1020 48 10000 2.1 180 18:21 17.10.2019
6 Clear 16 1021 51 10000 2.1 230 17:55 17.10.2019
7 Clear 17 1021 51 10000 2.1 230 17:37 17.10.2019
8 Clear 17 1021 51 10000 2.1 230 17:19 17.10.2019
9 Clouds 17 1021 58 10000 3.054 256 16:55 17.10.2019
10 Clouds 16 1021 58 10000 3.054 256 16:36 17.10.2019
11 Clouds 16 1021 58 10000 3.054 256 16:18 17.10.2019
12 Clouds 15 1021 66 6000 3.054 256 15:41 17.10.2019
13 Clouds 12 1021 66 6000 1.751 247 15:21 17.10.2019
14 Clouds 11 1021 76 7000 1.751 247 14:59 17.10.2019
15 Clouds 11 1021 76 7000 1.751 247 14:59 17.10.2019
16 Clouds 12 1021 76 7000 1.751 247 14:41 17.10.2019
17 Clouds 11 1021 76 7000 1.61 249 14:23 17.10.2019
18 Clouds 12 1021 66 6000 1.61 249 13:54 17.10.2019
19 Clouds 11 1021 66 6000 1.61 249 13:36 17.10.2019
20 Clouds 11 1021 66 6000 1.61 249 13:18 17.10.2019
21 Clouds 11 1020 76 10000 2.6 150 12:41 17.10.2019
22 Clouds 10 1020 76 10000 2.6 150 12:20 17.10.2019
23 Clouds 10 1020 76 10000 2.6 140 11:58 17.10.2019
24 Clouds 10 1020 76 10000 2.6 140 11:40 17.10.2019
25 Clouds 10 1020 76 10000 2.6 140 11:19 17.10.2019
26 Clouds 11 1020 71 10000 2.6 150 10:54 17.10.2019
27 Clouds 11 1020 71 10000 2.6 150 10:54 17.10.2019
28 Clouds 11 1020 71 10000 2.6 150 10:54 17.10.2019
29 Clouds 10 1020 71 10000 2.6 150 10:36 17.10.2019
30 Clouds 10 1020 71 10000 2.6 150 10:18 17.10.2019
31 Clouds 10 1020 71 10000 2.6 150 10:18 17.10.2019
32 Clouds 10 1020 71 10000 2.6 150 10:18 17.10.2019
33 Clouds 11 1020 71 10000 2.1 220 09:41 17.10.2019
34 Clouds 11 1020 71 10000 2.1 220 09:21 17.10.2019
35 -273 0 0 0 0 0 08:58 17.10.2019
36 Clouds 11 1021 71 10000 3.1 160 08:58 17.10.2019
37 Clouds 11 1021 71 10000 3.1 160 08:39 17.10.2019
38 Clouds 11 1021 71 10000 3.1 160 08:20 17.10.2019
39 -273 0 0 0 0 0 07:54 17.10.2019
40 Clouds 11 1021 71 10000 2.6 150 07:54 17.10.2019
41 Clouds 11 1021 71 10000 2.6 150 07:36 17.10.2019
42 Clouds 11 1021 71 10000 2.6 150 07:18 17.10.2019
43 Clouds 10 1021 71 10000 2.1 150 06:39 17.10.2019
44 Clouds 11 1021 71 10000 2.1 150 06:20 17.10.2019
45 Clouds 11 1021 71 10000 3.6 160 05:49 17.10.2019
46 Clouds 10 1021 71 10000 3.6 160 05:30 17.10.2019
47 Clouds 10 1021 76 10000 3.1 140 04:51 17.10.2019
48 Clouds 10 1020 76 10000 4.6 160 03:52 17.10.2019
49 Clouds 11 1020 71 10000 4.6 180 02:36 17.10.2019
50 Clouds 14 1020 54 10000 5.1 250 00:56 17.10.2019
51 Clouds 14 1020 54 10000 5.1 250 00:38 17.10.2019
52 Clouds 14 1020 54 10000 5.1 250 00:18 17.10.2019
53 Clouds 17 1019 48 10000 3.1 200 23:42 16.10.2019
54 Clouds 17 1019 48 10000 3.1 200 23:20 16.10.2019
55 Clouds 17 1019 51 10000 3.1 190 22:55 16.10.2019
56 Clouds 17 1019 51 10000 3.1 190 22:36 16.10.2019
57 Clouds 18 1019 51 10000 3.1 190 22:18 16.10.2019
58 Clouds 18 1019 51 10000 3.6 220 21:55 16.10.2019
59 Clouds 18 1019 51 10000 3.6 220 21:37 16.10.2019
60 Clouds 18 1019 51 10000 3.6 220 21:37 16.10.2019
61 Clouds 18 1019 51 10000 3.6 220 21:18 16.10.2019
62 Clouds 18 1019 48 10000 3.6 240 20:56 16.10.2019
63 Clouds 18 1019 48 10000 3.6 240 20:56 16.10.2019
64 Clouds 18 1019 48 10000 3.6 240 20:56 16.10.2019
65 Clouds 18 1019 48 10000 3.6 240 20:38 16.10.2019
66 Clouds 18 1019 48 10000 3.6 240 20:20 16.10.2019
67 Clouds 18 1019 48 10000 3.6 240 19:56 16.10.2019
68 Clouds 18 1019 48 10000 3.6 240 19:38 16.10.2019
69 Clouds 18 1019 48 10000 3.6 240 19:19 16.10.2019
70 Clouds 19 1018 51 10000 1.5 240 18:39 16.10.2019
71 Clouds 18 1018 51 10000 1.5 240 18:19 16.10.2019
72 Clouds 18 1018 55 10000 3.1 240 17:56 16.10.2019
73 Clouds 18 1018 55 10000 3.1 240 17:38 16.10.2019
74 Clouds 18 1018 55 10000 3.1 240 17:38 16.10.2019
75 Clouds 18 1018 55 10000 3.1 240 17:19 16.10.2019
76 Clouds 18 1018 55 10000 3.1 240 17:19 16.10.2019
77 Clouds 17 1018 58 10000 1 330 16:58 16.10.2019
78 Clouds 18 1018 58 10000 1 330 16:39 16.10.2019
79 Clouds 18 1018 58 10000 1 330 16:20 16.10.2019
80 Clouds 16 1017 62 10000 1 120 15:55 16.10.2019
81 Rain 19 1015 46 0 3.78 255 15:36 16.10.2019
82 Clouds 14 1017 62 10000 1.5 250 15:18 16.10.2019
83 Clouds 14 1017 62 10000 1.5 250 15:18 16.10.2019
84 Clouds 14 1017 62 10000 1.5 250 14:55 16.10.2019
85 Clouds 13 1017 62 10000 1.5 250 14:37 16.10.2019
86 Clouds 14 1017 62 10000 1.5 250 14:18 16.10.2019
87 Clouds 13 1016 71 10000 1.713 258 13:55 16.10.2019
88 Clouds 13 1016 71 10000 1.713 258 13:55 16.10.2019
89 Clouds 12 1016 71 10000 1.713 258 13:36 16.10.2019
90 Clouds 12 1016 71 10000 1.713 258 13:18 16.10.2019
91 Clouds 11 1015 71 10000 2.6 150 12:40 16.10.2019
92 Clouds 11 1015 71 10000 2.6 150 12:18 16.10.2019
93 Clouds 11 1014 66 10000 2.6 170 11:42 16.10.2019
94 Clouds 11 1014 66 10000 2.6 170 11:18 16.10.2019
95 Clouds 11 1014 66 10000 1.5 200 10:39 16.10.2019
96 Clouds 11 1014 66 10000 1.5 200 10:20 16.10.2019
97 Clouds 12 1015 62 10000 3.1 150 09:56 16.10.2019
98 Clouds 12 1015 62 10000 3.1 150 09:38 16.10.2019
99 Clouds 12 1015 62 10000 3.1 150 09:19 16.10.2019
100 Clouds 12 1015 66 10000 2.6 160 08:43 16.10.2019
101 -273 0 0 0 0 0 08:24 16.10.2019
102 Clouds 12 1016 66 10000 3.1 150 07:45 16.10.2019
103 Clouds 13 1016 66 10000 3.1 150 07:25 16.10.2019
104 Clouds 12 1016 66 10000 3.1 150 06:59 16.10.2019
105 Clouds 10 1017 74 0 0.814 298 06:39 16.10.2019
106 Clouds 14 930 99 0 1.05 237 05:48 16.10.2019
107 Clouds 16 1015 55 10000 4.1 170 03:24 16.10.2019
108 Clouds 18 1015 48 10000 4.1 200 02:47 16.10.2019
109 Clouds 19 1016 45 10000 2.1 240 01:19 16.10.2019
110 Clouds 21 1016 40 10000 3.1 250 00:49 16.10.2019
111 Clouds 21 1016 40 10000 3.1 250 00:28 16.10.2019
112 Clouds 23 1016 31 10000 3.1 210 23:41 15.10.2019
113 Clouds 23 1016 31 10000 3.1 210 23:22 15.10.2019
114 Clouds 23 1016 27 10000 3.1 240 22:56 15.10.2019
115 Clouds 23 1016 27 10000 3.1 240 22:38 15.10.2019
116 Clouds 23 1016 27 10000 3.1 240 22:20 15.10.2019
117 Clouds 23 1017 27 10000 3.1 270 21:56 15.10.2019
118 Clouds 23 1017 27 10000 3.1 270 21:56 15.10.2019
119 Clouds 23 1017 27 10000 3.1 270 21:38 15.10.2019
120 Clouds 23 1017 27 10000 3.1 270 21:20 15.10.2019
121 Clouds 23 1017 27 10000 3.1 270 20:57 15.10.2019
122 Clouds 23 1017 31 10000 3.1 240 20:39 15.10.2019
123 Clouds 23 1017 31 10000 3.1 240 20:39 15.10.2019
124 Clouds 23 1017 31 10000 3.1 240 20:39 15.10.2019
125 Clouds 23 1017 31 10000 3.1 240 20:20 15.10.2019
126 Clouds 23 1017 31 10000 3.1 240 20:20 15.10.2019
127 Clouds 22 1017 35 8000 2.6 240 19:58 15.10.2019
128 Clouds 23 1017 35 8000 2.6 240 19:40 15.10.2019
129 Clouds 22 1017 35 8000 2.6 240 19:20 15.10.2019
130 Clouds 21 1018 40 8000 2.1 210 18:47 15.10.2019
131 Clouds 21 1018 40 8000 2.1 210 18:29 15.10.2019
132 Clouds 21 1018 40 8000 2.1 210 17:59 15.10.2019
133 Clouds 20 1018 48 10000 1 70 17:40 15.10.2019
134 Clouds 20 1018 48 10000 1 70 17:40 15.10.2019
135 Clouds 18 1018 48 10000 1 70 17:20 15.10.2019
136 Clouds 16 1019 55 10000 1 60 16:55 15.10.2019
137 Clouds 16 1019 55 10000 1 60 16:55 15.10.2019
138 Clouds 19 1019 55 10000 1 60 16:37 15.10.2019
139 Clouds 19 1019 55 10000 1 60 16:19 15.10.2019
140 Clouds 16 1019 71 10000 1 170 15:42 15.10.2019
141 Clear 14 1019 71 10000 1 170 15:21 15.10.2019
142 Clear 14 1019 71 10000 1 170 14:58 15.10.2019
143 Clear 14 1019 76 7000 1.5 60 14:38 15.10.2019
144 Clear 14 1019 76 7000 1.5 60 14:38 15.10.2019
145 Clear 14 1019 76 7000 1.5 60 14:38 15.10.2019
146 Clear 11 1019 76 7000 1.5 60 14:20 15.10.2019
147 Clear 10 1019 87 10000 0.616 235 13:55 15.10.2019
148 Clear 10 1019 87 10000 0.616 235 13:37 15.10.2019
149 Clear 9 1019 87 10000 0.616 235 13:18 15.10.2019
150 Clear 8 1018 87 6000 1.5 0 12:41 15.10.2019
151 Clear 8 1018 87 6000 1.5 0 12:21 15.10.2019
152 Clear 8 1018 87 8000 1 0 11:56 15.10.2019
153 Clear 8 1018 87 8000 1 0 11:37 15.10.2019
154 Clear 9 1018 87 8000 1 0 11:19 15.10.2019
155 Clear 9 1018 76 10000 1.5 100 10:44 15.10.2019
156 Clear 9 1018 76 10000 1.5 100 10:44 15.10.2019
157 Clear 9 1018 76 10000 1.5 100 10:21 15.10.2019
158 Clear 9 1018 76 10000 1.5 100 09:58 15.10.2019
159 Clear 9 1019 76 10000 0.55 266.535 09:38 15.10.2019
160 Clear 9 1019 76 10000 0.7 52.411 09:19 15.10.2019
161 Clouds 10 1019 76 10000 1 260 08:43 15.10.2019
162 Clouds 10 1019 76 10000 1 260 08:22 15.10.2019
163 Clouds 12 1019 62 10000 2.1 220 07:59 15.10.2019
164 Clouds 11 1019 62 10000 2.1 220 07:41 15.10.2019
165 Clouds 12 1019 62 10000 2.1 220 07:20 15.10.2019
166 Clouds 12 1019 66 10000 2.6 160 06:45 15.10.2019
167 Clouds 13 1019 66 10000 2.6 160 06:26 15.10.2019
168 Clouds 14 1019 62 10000 3.6 160 05:43 15.10.2019
169 -273 0 0 0 0 0 05:24 15.10.2019
170 Clouds 14 1019 67 10000 3.6 150 04:33 15.10.2019
171 Clouds 14 1019 67 10000 3.6 150 03:38 15.10.2019
172 Clouds 14 1018 62 10000 2.6 150 02:42 15.10.2019
173 Clouds 14 1019 71 10000 2.1 190 01:49 15.10.2019
174 Clouds 14 1019 71 10000 2.1 190 01:22 15.10.2019
175 Clouds 15 1018 67 10000 3.1 230 00:49 15.10.2019
176 Clouds 15 1018 67 10000 3.1 230 00:22 15.10.2019
177 Clouds 16 1018 62 10000 1 270 23:45 14.10.2019
178 Clouds 16 1018 62 10000 1 270 23:21 14.10.2019
179 Clouds 16 1018 62 10000 1 270 22:58 14.10.2019
180 Clouds 16 1018 67 10000 2.1 130 22:38 14.10.2019
181 Clouds 16 1018 67 10000 2.1 130 22:19 14.10.2019
182 Clouds 16 1018 67 8000 1 150 21:56 14.10.2019
183 Clouds 16 1018 67 8000 1 150 21:37 14.10.2019
184 Clouds 16 1018 67 8000 1 150 21:19 14.10.2019
185 Clouds 15 1018 82 6000 1 100 20:55 14.10.2019
186 -273 0 0 0 0 0 20:55 14.10.2019
187 -273 0 0 0 0 0 20:54 14.10.2019
188 Clouds 15 1018 82 6000 1 100 20:54 14.10.2019
189 Clouds 15 1018 82 6000 1 100 20:36 14.10.2019
190 Clouds 15 1018 82 6000 1 100 20:36 14.10.2019
191 Clouds 14 1018 82 6000 1 100 20:18 14.10.2019
192 Clouds 15 1018 71 8000 1.5 180 19:41 14.10.2019
193 Clouds 15 1018 71 8000 1.5 180 19:41 14.10.2019
194 Clouds 15 1018 71 8000 1.5 180 19:23 14.10.2019
195 Clouds 15 1018 71 8000 1.5 180 19:23 14.10.2019
196 Clouds 14 1017 62 10000 3.1 180 18:58 14.10.2019
197 Clouds 14 1018 76 8000 1.5 220 18:39 14.10.2019
198 Clouds 14 1018 76 8000 1.5 220 18:19 14.10.2019
199 Rain 13 1018 81 6000 1.07 205.771 17:57 14.10.2019
200 Rain 13 1018 81 6000 1.07 205.771 17:57 14.10.2019
201 Rain 13 1018 81 6000 1.07 205.771 17:38 14.10.2019
202 Rain 13 1018 81 6000 1.07 205.771 17:38 14.10.2019
203 Rain 13 1018 81 6000 1.07 205.771 17:19 14.10.2019
204 Rain 13 1018 87 6000 1.5 350 16:44 14.10.2019
205 Rain 13 1018 87 6000 1.5 350 16:21 14.10.2019
206 Clouds 13 1018 81 6000 2.1 150 15:43 14.10.2019
207 Clouds 13 1018 81 6000 2.1 150 15:24 14.10.2019
208 Clouds 13 1017 76 8000 2.6 180 14:58 14.10.2019
209 Clouds 13 1017 76 8000 2.6 180 14:39 14.10.2019
210 Clouds 12 1017 76 8000 2.6 180 14:20 14.10.2019
211 Clouds 12 1015 71 10000 3.1 270 13:44 14.10.2019
212 Clouds 12 1015 71 10000 3.1 270 13:21 14.10.2019
213 Clouds 12 1015 81 10000 3.6 180 12:55 14.10.2019
214 Clouds 12 1015 81 8000 4.6 140 12:37 14.10.2019
215 Clouds 12 1015 81 8000 4.6 140 12:18 14.10.2019
216 Clouds 13 1012 81 10000 5.7 140 11:44 14.10.2019
217 Clouds 13 1012 81 10000 5.7 140 11:26 14.10.2019
218 Clouds 13 1011 71 10000 3.6 130 10:57 14.10.2019
219 Clouds 13 1011 71 10000 3.6 130 10:38 14.10.2019
220 Clouds 13 1011 71 10000 3.6 130 10:19 14.10.2019
221 Clouds 13 1010 66 10000 3.1 170 09:42 14.10.2019
222 Clouds 14 1010 66 10000 3.1 170 09:21 14.10.2019
223 -273 0 0 0 0 0 08:52 14.10.2019
224 Clouds 14 1011 58 10000 4.1 150 08:23 14.10.2019
225 Clouds 14 1010 51 10000 4.6 140 07:59 14.10.2019
226 Clouds 15 1010 51 10000 4.6 140 07:39 14.10.2019
227 Clouds 15 1010 51 10000 4.6 140 07:18 14.10.2019
228 Clouds 16 1010 54 10000 3.1 120 06:37 14.10.2019
229 Clouds 16 1010 54 10000 3.1 120 06:18 14.10.2019
230 Clouds 17 1009 51 10000 4.1 150 05:42 14.10.2019
231 Clouds 18 1010 48 10000 5.1 180 04:42 14.10.2019
232 Clouds 19 1010 42 10000 1.5 0 03:27 14.10.2019
233 Clouds 20 1010 40 10000 2.1 140 02:36 14.10.2019
234 Clouds 22 1011 35 10000 0.5 0 01:22 14.10.2019
235 Clouds 22 1011 35 8000 2.1 210 00:45 14.10.2019
236 Clouds 23 1011 35 8000 2.1 210 00:19 14.10.2019
237 Clouds 23 1011 31 6000 2.1 240 23:44 13.10.2019
238 Clouds 23 1011 31 6000 2.1 240 23:20 13.10.2019
239 Clouds 24 1011 31 6000 2.1 210 22:58 13.10.2019
240 Clouds 24 1011 31 6000 2.1 210 22:40 13.10.2019
241 Clouds 25 1011 31 6000 2.1 210 22:21 13.10.2019
242 Clouds 25 1011 31 6000 2.1 210 22:21 13.10.2019
243 Clouds 25 1011 23 7000 2.1 270 21:58 13.10.2019
244 Clouds 25 1011 23 7000 2.1 270 21:37 13.10.2019
245 Clouds 26 1011 23 7000 2.1 270 21:18 13.10.2019
246 Clouds 26 1011 23 7000 2.1 270 21:18 13.10.2019
247 Clouds 26 1012 20 8000 2.1 210 20:57 13.10.2019
248 Clouds 26 1012 20 8000 2.1 210 20:57 13.10.2019
249 Clouds 26 1012 20 8000 2.1 210 20:57 13.10.2019
250 Clouds 26 1012 20 8000 2.1 210 20:57 13.10.2019
251 Clouds 26 1012 20 8000 2.1 210 20:38 13.10.2019
252 Clouds 26 1012 20 8000 2.1 210 20:20 13.10.2019
253 Clouds 25 1012 23 8000 1.5 180 19:58 13.10.2019
254 Clouds 25 1012 23 8000 1.5 180 19:57 13.10.2019
255 Clouds 25 1012 23 8000 1.5 180 19:57 13.10.2019
256 Clouds 25 1012 23 8000 1.5 180 19:39 13.10.2019
257 Clouds 25 1012 23 8000 1.5 180 19:39 13.10.2019
258 Clouds 25 1012 23 8000 1.5 180 19:20 13.10.2019
259 Clouds 24 1013 28 8000 1 330 18:55 13.10.2019
260 Clouds 24 1013 28 8000 1 330 18:55 13.10.2019
261 -273 0 0 0 0 0 18:54 13.10.2019
262 Clouds 25 1013 28 8000 1 330 18:36 13.10.2019
263 Clouds 23 1013 28 8000 1 330 18:18 13.10.2019
264 Clouds 21 1013 42 8000 1 300 17:42 13.10.2019
265 Clouds 21 1013 42 8000 1 300 17:24 13.10.2019
266 Clouds 20 1013 45 7000 1.09 188.674 16:45 13.10.2019
267 Clouds 20 1013 45 7000 1.09 188.674 16:45 13.10.2019
268 Clouds 20 1013 45 7000 1.09 188.674 16:20 13.10.2019
269 Clouds 19 1013 55 7000 1.09 188.674 15:59 13.10.2019
270 Clouds 17 1013 55 7000 1.09 188.674 15:39 13.10.2019
271 Clouds 19 1013 55 7000 0.34 304.896 15:21 13.10.2019
272 Clouds 17 1013 58 7000 0.34 304.896 14:59 13.10.2019
273 Clouds 17 1013 58 7000 0.34 304.896 14:40 13.10.2019
274 Clouds 15 1013 58 7000 0.34 304.896 14:22 13.10.2019
275 Clouds 14 1013 76 7000 0.34 304.896 13:59 13.10.2019
276 Clouds 13 1013 76 7000 0.34 304.896 13:38 13.10.2019
277 Clouds 13 1013 76 7000 0.75 266.044 13:20 13.10.2019
278 Clouds 13 1011 76 7000 2.6 150 12:56 13.10.2019
279 Clouds 13 1011 76 7000 2.6 150 12:38 13.10.2019
280 Clouds 13 1011 76 7000 2.6 150 12:19 13.10.2019
281 Clouds 13 1011 76 7000 4.1 150 11:56 13.10.2019
282 Clouds 13 1011 76 7000 4.1 150 11:38 13.10.2019
283 Clouds 14 1011 76 7000 4.1 150 11:18 13.10.2019
284 Clouds 15 1010 76 6000 2.1 160 10:42 13.10.2019
285 Clouds 14 1010 76 6000 2.1 160 10:23 13.10.2019
286 Clouds 14 1010 76 6000 1.5 190 09:56 13.10.2019
287 Clouds 14 1010 76 6000 1.5 190 09:37 13.10.2019
288 Clouds 14 1010 76 6000 1.5 190 09:19 13.10.2019
289 Clouds 14 1011 76 6000 2.1 10 08:42 13.10.2019
290 Clouds 14 1011 76 6000 2.1 10 08:21 13.10.2019
291 Clouds 13 1012 81 6000 3.1 30 07:46 13.10.2019
292 Clouds 13 1012 81 6000 3.1 30 07:21 13.10.2019
293 Clouds 14 1013 71 7000 1.5 0 06:42 13.10.2019
294 Clouds 15 1014 71 8000 1.5 340 05:49 13.10.2019
295 Clouds 15 1014 71 8000 2.1 120 04:49 13.10.2019
296 Clouds 15 1014 71 8000 2.1 120 04:29 13.10.2019
297 Clouds 16 1015 67 8000 2.1 170 02:42 13.10.2019
298 Clouds 16 1015 67 8000 2.1 170 02:42 13.10.2019
299 Clouds 17 1015 59 6000 0.5 0 01:59 13.10.2019
300 Clouds 17 1015 59 6000 0.5 0 01:30 13.10.2019
301 Clouds 18 1015 59 6000 1.5 240 00:49 13.10.2019
302 Clouds 20 1015 59 6000 1.5 240 00:22 13.10.2019
303 Haze 20 1015 55 5000 1 290 23:57 12.10.2019
304 Haze 20 1015 55 5000 1 290 23:39 12.10.2019
305 Haze 20 1015 55 5000 1 290 23:19 12.10.2019
306 Haze 20 1015 52 5000 1.5 250 22:57 12.10.2019
307 Haze 20 1015 52 5000 1.5 250 22:38 12.10.2019
308 Haze 20 1015 52 5000 1.5 250 22:20 12.10.2019
309 Haze 20 1015 48 5000 1 170 21:55 12.10.2019
310 Haze 21 1015 48 5000 1 170 21:37 12.10.2019
311 Haze 21 1015 48 5000 1 170 21:18 12.10.2019
312 Haze 21 1015 48 5000 1 170 21:18 12.10.2019
313 Haze 21 1016 48 5000 1.5 190 20:40 12.10.2019
314 Haze 21 1016 48 5000 1.5 190 20:22 12.10.2019
315 Haze 21 1016 48 5000 1 180 19:39 12.10.2019
316 Haze 21 1016 48 5000 1 180 19:39 12.10.2019
317 Haze 21 1016 48 5000 1 180 19:20 12.10.2019
318 Clouds 20 1016 52 7000 1 210 18:59 12.10.2019
319 Clouds 20 1016 52 7000 1 210 18:40 12.10.2019
320 Clouds 20 1016 52 7000 1 210 18:40 12.10.2019
321 Clouds 19 1016 52 7000 1 210 18:22 12.10.2019
322 Clouds 19 1016 62 8000 1.1 150.905 17:43 12.10.2019
323 Clouds 17 1016 62 8000 1.1 150.905 17:19 12.10.2019
324 Haze 18 1016 67 9000 1.5 200 16:55 12.10.2019
325 Haze 19 1016 67 9000 1.5 200 16:36 12.10.2019
326 Haze 18 1016 67 9000 1.5 200 16:18 12.10.2019
327 Haze 17 1016 71 10000 1 150 15:44 12.10.2019
328 Haze 15 1016 71 10000 1 150 15:25 12.10.2019
329 Haze 13 1015 71 10000 0.17 7.125 14:43 12.10.2019
330 Haze 13 1015 71 10000 0.17 7.125 14:22 12.10.2019
331 Clouds 13 1014 71 10000 1 240 13:59 12.10.2019
332 Clouds 12 1014 71 10000 1 240 13:40 12.10.2019
333 Clouds 12 1014 71 10000 1 240 13:21 12.10.2019
334 Clouds 12 1013 87 8000 1 0 12:40 12.10.2019
335 Clouds 12 1013 87 8000 1 0 12:21 12.10.2019
336 Clouds 12 1013 87 8000 3.6 150 11:59 12.10.2019
337 Clouds 12 1013 87 8000 3.6 150 11:39 12.10.2019
338 Clouds 12 1013 87 8000 3.6 150 11:20 12.10.2019
339 Clouds 12 1013 87 8000 4.1 160 10:44 12.10.2019
340 Clouds 13 1013 87 8000 4.1 160 10:24 12.10.2019
341 Clouds 13 1013 87 8000 2.6 230 09:58 12.10.2019
342 Clouds 13 1013 87 8000 2.6 230 09:58 12.10.2019
343 Clouds 13 1013 87 8000 2.6 230 09:58 12.10.2019
344 Clouds 13 1013 87 8000 2.6 230 09:40 12.10.2019
345 Clouds 13 1013 87 8000 2.6 230 09:22 12.10.2019
346 Clouds 13 1013 81 8000 0.29 48.4 08:58 12.10.2019
347 Clouds 13 1013 81 8000 0.29 48.4 08:38 12.10.2019
348 Clouds 12 1013 81 8000 0.29 48.4 08:20 12.10.2019
349 Clouds 12 1013 81 8000 0.29 48.4 08:20 12.10.2019
350 Clouds 13 1013 81 8000 0.5 0 07:35 12.10.2019
351 Clear 12 1014 87 10000 3.1 160 06:57 12.10.2019
352 Clear 13 1014 81 10000 4.1 160 05:48 12.10.2019
353 Clear 14 1014 81 10000 4.1 160 05:23 12.10.2019
354 Clear 12 1014 76 10000 6.2 160 04:24 12.10.2019
355 Clear 15 1014 71 10000 5.1 150 03:31 12.10.2019
356 Clouds 18 1014 48 10000 1.89 273.123 01:50 12.10.2019
357 Clouds 19 1014 48 10000 1.97 283.458 01:21 12.10.2019
358 Clouds 21 1013 26 10000 1.5 210 00:42 12.10.2019
359 Clouds 23 1013 20 10000 2.1 200 23:59 11.10.2019
360 Clouds 23 1013 20 10000 2.1 200 23:40 11.10.2019
361 Clouds 23 1013 20 10000 2.1 200 23:40 11.10.2019
362 Clouds 24 1013 20 10000 2.1 200 23:20 11.10.2019
363 Clouds 25 1013 44 10000 2.6 180 22:41 11.10.2019
364 Clouds 25 1013 44 10000 2.6 180 22:41 11.10.2019
365 Clouds 25 1013 44 10000 2.6 180 22:22 11.10.2019
366 Clouds 25 1013 44 10000 2.1 200 21:58 11.10.2019
367 Clouds 25 1013 44 10000 2.1 200 21:39 11.10.2019
368 Clouds 25 1013 32 10000 2.1 200 21:21 11.10.2019
369 Clouds 24 1014 31 10000 2.1 200 20:45 11.10.2019
370 Clouds 24 1014 31 10000 2.1 200 20:27 11.10.2019
371 Clouds 24 1014 31 10000 2.1 200 20:27 11.10.2019
372 Clouds 24 1014 24 10000 1 220 19:58 11.10.2019
373 Clouds 24 1014 24 10000 1 220 19:39 11.10.2019
374 Clouds 24 1014 24 10000 1 220 19:39 11.10.2019
375 Clouds 24 1014 24 10000 1 220 19:18 11.10.2019
376 Clouds 24 1014 24 10000 1 220 19:18 11.10.2019
377 Clouds 24 1014 24 10000 1 220 19:18 11.10.2019
378 Clouds 24 1014 24 10000 1 220 19:18 11.10.2019
379 Clouds 23 1014 24 10000 2.1 200 18:59 11.10.2019
380 Clouds 23 1014 24 10000 2.1 200 18:59 11.10.2019
381 Clouds 23 1014 24 10000 2.1 200 18:38 11.10.2019
382 Clouds 23 1014 24 10000 2.1 200 18:19 11.10.2019
383 Clouds 23 1014 35 10000 1 190 17:59 11.10.2019
384 Clouds 23 1014 35 10000 1 190 17:38 11.10.2019
385 Clouds 22 1014 35 10000 1 190 17:19 11.10.2019
386 Clouds 21 1014 29 10000 1.88 224.31 16:58 11.10.2019
387 Clouds 21 1014 29 10000 1.88 224.31 16:39 11.10.2019
388 Clouds 21 1014 29 10000 1.88 224.31 16:19 11.10.2019
389 Clouds 20 1013 36 10000 1.88 224.31 15:42 11.10.2019
390 Clouds 19 1013 36 10000 0.43 222.649 15:21 11.10.2019
391 Clouds 17 1013 44 10000 0.43 222.649 14:59 11.10.2019
392 Clouds 16 1013 44 10000 0.43 222.649 14:40 11.10.2019
393 Clouds 16 1013 44 10000 0.43 222.649 14:20 11.10.2019
394 Clouds 15 1013 54 10000 1 80 13:45 11.10.2019
395 Clouds 15 1013 54 10000 1 80 13:45 11.10.2019
396 Clouds 15 1013 54 10000 1 80 13:25 11.10.2019
397 Clear 14 1011 50 10000 0.5 0 12:57 11.10.2019
398 Clear 14 1011 50 10000 0.5 0 12:39 11.10.2019
399 Clear 14 1011 50 10000 0.5 0 12:20 11.10.2019
400 Clear 14 1011 47 10000 1 0 11:58 11.10.2019
401 Clear 14 1011 47 10000 1 0 11:38 11.10.2019
402 Clear 14 1011 47 10000 1 0 11:20 11.10.2019
403 Clear 15 1011 44 10000 0.67 34.641 10:54 11.10.2019
404 Clear 15 1011 44 10000 0.67 34.641 10:36 11.10.2019
405 Clear 15 1011 44 10000 0.67 34.641 10:18 11.10.2019
406 Clear 14 1011 47 10000 1.5 340 09:41 11.10.2019
407 Clear 14 1011 47 10000 1.5 340 09:20 11.10.2019
408 Clear 15 1012 39 10000 1 160 08:56 11.10.2019
409 Clear 16 1012 39 10000 1 160 08:38 11.10.2019
410 Clear 16 1012 39 10000 1 160 08:20 11.10.2019
411 Clear 16 1013 36 10000 2.6 140 07:51 11.10.2019
412 Clear 16 1013 36 10000 2.6 140 07:33 11.10.2019
413 Clear 16 1013 39 10000 3.6 160 06:49 11.10.2019
414 Clear 17 1013 39 10000 3.6 160 06:25 11.10.2019
415 Clear 18 1013 34 10000 4.6 180 05:46 11.10.2019
416 Clear 19 1013 34 10000 4.6 180 05:27 11.10.2019
417 Clear 20 1013 61 10000 4.1 140 04:47 11.10.2019
418 Clear 22 1013 19 10000 3.6 170 02:59 11.10.2019
419 Clouds 25 1014 16 10000 2.1 190 00:54 11.10.2019
420 Clouds 25 1014 16 10000 2.1 190 00:31 11.10.2019
421 Clouds 26 1013 19 10000 3.1 190 23:57 10.10.2019
422 Clouds 26 1013 19 10000 3.1 190 23:39 10.10.2019
423 Clouds 26 1013 19 10000 3.1 190 23:18 10.10.2019
424 Clouds 26 1013 19 10000 2.6 200 22:54 10.10.2019
425 Clouds 26 1013 19 10000 2.6 200 22:36 10.10.2019
426 Clouds 26 1013 19 10000 2.6 200 22:18 10.10.2019
427 Clouds 28 1012 18 6000 3.6 240 21:42 10.10.2019
428 Clouds 28 1012 18 6000 3.6 240 21:22 10.10.2019
429 Clouds 28 1012 18 6000 3.6 240 21:22 10.10.2019
430 Clouds 27 1011 18 6000 2.04 217.111 20:58 10.10.2019
431 Clouds 27 1011 18 6000 2.04 217.111 20:39 10.10.2019
432 Clouds 27 1011 18 6000 2.04 217.111 20:39 10.10.2019
433 Clouds 26 1011 18 6000 2.04 217.111 20:19 10.10.2019
434 Clouds 27 1012 21 8000 2.04 217.111 19:55 10.10.2019
435 Clouds 27 1012 21 8000 2.04 217.111 19:55 10.10.2019
436 Clouds 28 1012 21 8000 2.04 217.111 19:37 10.10.2019
437 Clouds 28 1012 21 8000 2.04 217.111 19:19 10.10.2019
438 Clouds 26 1013 20 8000 2.1 250 18:42 10.10.2019
439 Clouds 26 1013 20 8000 2.1 250 18:20 10.10.2019
440 Clouds 26 1013 22 8000 2.88 238.36 17:57 10.10.2019
441 Clouds 25 1013 22 8000 2.88 238.36 17:37 10.10.2019
442 Clouds 24 1013 22 8000 2.88 238.36 17:18 10.10.2019
443 Clouds 24 1013 25 8000 1.5 250 16:49 10.10.2019
444 Clouds 24 1013 25 8000 1.5 250 16:27 10.10.2019
445 Clouds 21 1013 32 10000 2.88 238.36 15:59 10.10.2019
446 Clouds 22 1013 32 10000 2.88 238.36 15:39 10.10.2019
447 Clouds 22 1013 32 10000 2.88 238.36 15:39 10.10.2019
448 Clouds 22 1013 32 10000 0.29 93.39 15:20 10.10.2019
449 Clouds 20 1012 48 10000 0.29 93.39 14:56 10.10.2019
450 Clouds 20 1012 48 10000 0.29 93.39 14:37 10.10.2019
451 Clouds 18 1012 48 10000 0.29 93.39 14:19 10.10.2019
452 Clouds 17 1012 42 10000 0.29 93.39 13:55 10.10.2019
453 Clouds 19 1012 42 10000 0.29 93.39 13:37 10.10.2019
454 Clouds 19 1012 42 10000 0.07 335.624 13:18 10.10.2019
455 Clear 18 1010 47 10000 0.07 335.624 12:41 10.10.2019
456 Clear 15 1010 47 10000 0.3 302.896 12:20 10.10.2019
457 Clear 15 1010 50 10000 2.1 50 11:58 10.10.2019
458 Clear 15 1010 50 10000 2.1 50 11:39 10.10.2019
459 Clear 15 1010 50 10000 2.1 50 11:19 10.10.2019
460 Clear 14 1010 46 10000 1 0 10:45 10.10.2019
461 Clear 15 1010 46 10000 1 0 10:27 10.10.2019
462 Clear 16 1010 41 10000 0.3 302.896 09:58 10.10.2019
463 Clear 16 1010 41 10000 0.3 302.896 09:39 10.10.2019
464 Clear 17 1010 41 10000 0.69 49.739 09:21 10.10.2019
465 Clear 16 1011 38 10000 1 0 08:58 10.10.2019
466 Clear 16 1011 38 10000 1 0 08:38 10.10.2019
467 Clear 16 1011 38 10000 1 0 08:19 10.10.2019
468 Clear 16 1011 38 10000 1 0 08:19 10.10.2019
469 Clear 19 1011 29 10000 1 0 07:45 10.10.2019
470 Clear 19 1011 29 10000 1 0 07:23 10.10.2019
471 Clear 17 1012 36 10000 2.6 0 06:49 10.10.2019
472 Clear 17 1012 36 10000 2.6 0 06:49 10.10.2019
473 Clear 17 1012 36 10000 2.6 0 06:29 10.10.2019
474 Clear 20 1012 30 10000 1.5 0 05:28 10.10.2019
475 Clear 20 1012 28 10000 1.5 280 04:54 10.10.2019
476 Clear 20 1012 28 10000 1.5 280 04:33 10.10.2019
477 Clouds 26 1014 22 10000 1 210 01:50 10.10.2019
478 Clouds 26 1014 22 10000 1 210 01:30 10.10.2019
479 Clouds 27 1013 18 10000 2.1 190 01:00 10.10.2019
480 Clouds 27 1013 18 10000 2.1 190 00:24 10.10.2019
481 Clouds 28 1014 11 10000 3.1 200 23:41 09.10.2019
482 Clouds 28 1014 11 10000 3.1 200 23:23 09.10.2019
483 Clear 29 1013 9 10000 3.1 240 22:59 09.10.2019
484 Clear 29 1013 9 10000 3.1 240 22:40 09.10.2019
485 Clear 29 1013 9 10000 3.1 240 22:22 09.10.2019
486 Clouds 29 1013 10 10000 2.6 230 21:41 09.10.2019
487 Clouds 30 1013 10 10000 2.6 230 21:21 09.10.2019
488 Clouds 31 1014 8 10000 1.5 240 20:56 09.10.2019
489 Clouds 31 1014 8 10000 1.5 240 20:38 09.10.2019
490 Clouds 31 1014 8 10000 1.5 240 20:19 09.10.2019
491 Clouds 30 1015 28 10000 1.5 220 19:59 09.10.2019
492 Clouds 30 1015 28 10000 1.5 220 19:59 09.10.2019
493 Clouds 30 1015 28 10000 1.5 220 19:40 09.10.2019
494 Clouds 30 1015 28 10000 1.5 220 19:22 09.10.2019
495 Clouds 29 1015 18 10000 1 240 18:38 09.10.2019
496 Clouds 28 1015 18 10000 1 240 18:20 09.10.2019
497 Clear 27 1016 21 10000 1 190 17:58 09.10.2019
498 Clear 27 1016 21 10000 1 190 17:39 09.10.2019
499 Clear 27 1016 21 10000 1 190 17:21 09.10.2019
500 Clear 24 1016 20 10000 1 240 16:56 09.10.2019
501 Clear 24 1016 20 10000 1 240 16:56 09.10.2019
502 Clear 24 1016 20 10000 1 240 16:56 09.10.2019
503 Clear 26 1016 20 10000 1 240 16:37 09.10.2019
504 Clear 26 1016 20 10000 1 240 16:19 09.10.2019
505 Clear 21 1016 28 10000 1.09 178.049 15:55 09.10.2019
506 Clear 21 1016 28 10000 1.09 178.049 15:55 09.10.2019
507 Clear 23 1016 28 10000 1.09 178.049 15:37 09.10.2019
508 Clear 22 1016 28 10000 1.34 92.99 15:18 09.10.2019
509 Clouds 20 1016 48 10000 1.5 60 14:44 09.10.2019
510 Clouds 20 1016 48 10000 1.5 60 14:19 09.10.2019
511 Clouds 19 1016 63 10000 1.5 60 13:59 09.10.2019
512 Clouds 20 1016 63 10000 1.5 60 13:37 09.10.2019
513 Clouds 19 1016 63 10000 1.5 60 13:18 09.10.2019
514 Clouds 19 1015 47 10000 2.6 30 12:43 09.10.2019
515 Clouds 16 1015 47 10000 2.6 30 12:22 09.10.2019
516 Clear 17 1014 41 10000 1.5 270 11:58 09.10.2019
517 Clear 18 1014 41 10000 1.5 270 11:39 09.10.2019
518 Clear 18 1014 41 10000 1.5 270 11:20 09.10.2019
519 Clear 18 1014 36 10000 1.5 190 10:58 09.10.2019
520 Clear 18 1014 36 10000 1.5 190 10:40 09.10.2019
521 Clear 18 1014 36 10000 1.5 190 10:18 09.10.2019
522 Clear 18 1014 36 10000 2.1 140 09:43 09.10.2019
523 Clear 18 1014 36 10000 2.1 140 09:20 09.10.2019
524 Clear 19 1014 32 10000 1.22 67.712 08:57 09.10.2019
525 Clear 19 1014 32 10000 0.99 71.895 08:37 09.10.2019
526 Clear 19 1014 32 10000 0.99 71.895 08:19 09.10.2019
527 Clear 19 1015 32 10000 0.99 71.895 07:47 09.10.2019
528 Clear 19 1015 32 10000 0.99 71.895 07:24 09.10.2019
529 Clear 21 1015 28 10000 1 0 06:56 09.10.2019
530 Clear 21 1015 28 10000 1 0 06:34 09.10.2019
531 Clear 22 1015 24 10000 2.6 160 05:51 09.10.2019
532 Clear 23 1015 23 10000 2.6 160 04:41 09.10.2019
533 Clear 25 1015 22 10000 4.1 150 03:43 09.10.2019
534 Clear 27 1014 54 10000 5.7 190 02:27 09.10.2019
535 Clouds 27 1015 15 10000 1.5 190 01:22 09.10.2019
536 Clouds 27 1015 15 10000 1.5 190 01:22 09.10.2019
537 Clouds 28 1015 11 10000 2.6 220 00:59 09.10.2019
538 Clouds 28 1015 11 10000 2.6 220 00:40 09.10.2019
539 Clouds 28 1015 11 10000 2.6 220 00:22 09.10.2019
540 Clear 29 1015 10 10000 2.6 220 23:58 08.10.2019
541 Clear 29 1015 10 10000 2.6 220 23:37 08.10.2019
542 Clear 29 1015 10 10000 2.6 220 23:18 08.10.2019
543 Clear 29 1015 10 10000 1 180 22:41 08.10.2019
544 Clear 29 1015 10 10000 1 180 22:22 08.10.2019
545 Clear 29 1015 10 10000 2.6 220 21:58 08.10.2019
546 Clear 29 1015 10 10000 2.6 220 21:39 08.10.2019
547 Clear 29 1015 10 10000 2.6 220 21:20 08.10.2019
548 Clouds 31 1016 37 10000 2.6 170 20:58 08.10.2019
549 Clouds 31 1016 37 10000 2.6 170 20:39 08.10.2019
550 Clouds 31 1016 37 10000 2.6 170 20:21 08.10.2019
551 Clear 30 1017 18 10000 1.5 180 19:59 08.10.2019
552 Clear 29 1017 18 10000 1.5 180 19:41 08.10.2019
553 Clear 29 1017 18 10000 1.5 180 19:23 08.10.2019
554 Clear 27 1018 24 10000 1.5 210 18:57 08.10.2019
555 Clear 28 1018 24 10000 1.5 210 18:39 08.10.2019
556 Clear 25 1018 24 10000 1.5 210 18:19 08.10.2019
557 Clear 24 1018 31 10000 1 280 17:55 08.10.2019
558 Clear 25 1018 31 10000 1 280 17:36 08.10.2019
559 Clear 25 1018 31 10000 1 280 17:18 08.10.2019
560 Clear 23 1018 37 10000 1 290 16:41 08.10.2019
561 Clear 22 1018 37 10000 1 290 16:22 08.10.2019
562 Clear 20 1018 48 10000 1.5 360 15:57 08.10.2019
563 Clear 22 1018 48 10000 1.5 360 15:38 08.10.2019
564 Clear 16 1018 48 10000 1.5 360 15:19 08.10.2019
565 Clear 17 1019 54 10000 1.85 86.32 14:42 08.10.2019
566 Clear 17 1019 54 10000 1.85 86.32 14:42 08.10.2019
567 Clear 17 1019 54 10000 1.85 86.32 14:21 08.10.2019
568 Clear 15 1019 71 10000 1.85 86.32 13:59 08.10.2019
569 Clear 16 1019 71 10000 1.85 86.32 13:39 08.10.2019
570 Clear 16 1019 71 10000 1.85 86.32 13:21 08.10.2019
571 Clouds 16 1018 71 10000 1.75 90.687 12:59 08.10.2019
572 Clouds 16 1018 71 10000 1.75 90.687 12:40 08.10.2019
573 Clouds 12 1018 71 10000 1.69 74.769 12:20 08.10.2019
574 Clear 13 1018 66 10000 0.5 0 11:57 08.10.2019
575 Clear 13 1018 66 10000 0.5 0 11:38 08.10.2019
576 Clear 13 1018 66 10000 0.5 0 11:20 08.10.2019
577 Clear 14 1017 62 10000 1.5 10 10:42 08.10.2019
578 Clear 14 1017 62 10000 1.5 10 10:22 08.10.2019
579 Clear 14 1017 62 10000 1.5 10 10:22 08.10.2019
580 Clear 14 1018 62 10000 1.69 74.769 09:58 08.10.2019
581 Clear 14 1018 62 10000 1.69 74.769 09:40 08.10.2019
582 Clear 14 1018 62 10000 0.91 102.235 09:21 08.10.2019
583 Clear 14 1018 58 10000 1.1 85.534 08:45 08.10.2019
584 Clear 14 1018 58 10000 1.1 85.534 08:25 08.10.2019
585 Clear 16 1019 55 10000 1.1 85.534 07:47 08.10.2019
586 Clear 16 1019 55 10000 1.1 85.534 07:23 08.10.2019
587 Clear 18 1019 45 10000 4.6 180 06:57 08.10.2019
588 Clear 18 1019 45 10000 4.6 180 06:36 08.10.2019
589 Clear 18 1019 45 10000 3.1 150 05:59 08.10.2019
590 Clear 19 1019 45 10000 3.1 150 05:40 08.10.2019
591 Clear 19 1019 45 10000 3.1 150 05:40 08.10.2019
592 Clear 18 1019 45 10000 3.1 160 04:56 08.10.2019
593 Clear 21 1018 40 10000 3.6 190 03:30 08.10.2019
594 Clear 22 1018 37 10000 4.6 200 02:41 08.10.2019
595 Clear 23 1019 33 10000 2.6 240 01:56 08.10.2019
596 Clear 23 1019 33 10000 2.6 240 01:38 08.10.2019
597 Clouds 24 1018 23 10000 2.6 230 00:55 08.10.2019
598 Clouds 24 1018 23 10000 2.6 230 00:23 08.10.2019
599 Clouds 26 1018 15 10000 2.6 230 23:46 07.10.2019
600 Clouds 26 1018 15 10000 2.6 230 23:21 07.10.2019
601 Clouds 26 1018 15 10000 2.6 230 23:21 07.10.2019
602 Clouds 26 1018 15 10000 2.6 230 23:21 07.10.2019
603 Clear 26 1018 18 10000 3.1 220 22:59 07.10.2019
604 Clear 26 1018 18 10000 3.1 220 22:40 07.10.2019
605 Clear 26 1018 18 10000 3.1 220 22:21 07.10.2019
606 Clear 26 1019 19 10000 2.6 0 21:59 07.10.2019
607 Clear 25 1019 19 10000 2.6 0 21:40 07.10.2019
608 Clear 26 1019 19 10000 2.6 0 21:21 07.10.2019
609 Clear 26 1019 23 10000 2.6 0 20:59 07.10.2019
610 Clear 25 1019 23 10000 2.6 0 20:40 07.10.2019
611 Clear 25 1019 23 10000 2.6 0 20:40 07.10.2019
612 Clear 25 1019 23 10000 2.6 0 20:21 07.10.2019
613 Clear 25 1020 25 10000 3.1 0 19:59 07.10.2019
614 Clear 24 1020 25 10000 3.1 0 19:41 07.10.2019
615 Clear 24 1020 25 10000 3.1 0 19:20 07.10.2019
616 Clear 23 1020 28 10000 1.5 0 18:59 07.10.2019
617 Clear 23 1020 28 10000 1.5 0 18:40 07.10.2019
618 Clear 23 1020 28 10000 1.5 0 18:19 07.10.2019
619 Clear 23 1020 28 10000 1.5 0 18:19 07.10.2019
620 Clear 22 1021 32 10000 1.5 0 17:55 07.10.2019
621 Clear 22 1021 32 10000 1.5 0 17:37 07.10.2019
622 Clear 22 1021 32 10000 1.5 0 17:18 07.10.2019
623 Clear 20 1021 39 10000 1.5 0 16:43 07.10.2019
624 Clear 20 1021 39 10000 1.5 0 16:25 07.10.2019
625 -273 0 0 0 0 0 15:46 07.10.2019
626 Clouds 18 1021 47 10000 0.77 99.682 15:27 07.10.2019
627 Clouds 15 1022 66 10000 0.77 99.682 14:59 07.10.2019
628 Clouds 15 1022 66 10000 0.77 99.682 14:40 07.10.2019
629 Clouds 12 1022 66 10000 0.77 99.682 14:22 07.10.2019
630 Clouds 14 1021 61 10000 0.77 99.682 13:44 07.10.2019
631 Clouds 14 1021 61 10000 0.64 110.934 13:21 07.10.2019
632 Clouds 14 1020 61 10000 1 10 12:57 07.10.2019
633 Clouds 14 1020 61 10000 1 10 12:39 07.10.2019
634 Clouds 11 1020 61 10000 1 10 12:20 07.10.2019
635 Clouds 11 1020 61 10000 1 10 12:20 07.10.2019
636 Clear 11 1020 61 10000 2.1 0 11:59 07.10.2019
637 Clear 11 1020 61 10000 2.1 0 11:39 07.10.2019
638 Clear 11 1020 61 10000 2.1 0 11:20 07.10.2019
639 Clear 12 1020 54 10000 1.5 170 10:42 07.10.2019
640 Clear 12 1020 54 10000 1.5 170 10:23 07.10.2019
641 Clear 13 1020 54 10000 0.5 0 09:57 07.10.2019
642 Clear 13 1020 54 10000 0.5 0 09:38 07.10.2019
643 Clear 13 1020 54 10000 0.5 0 09:20 07.10.2019
644 Clear 11 1020 50 10000 0.43 228.903 08:43 07.10.2019
645 Clear 13 1020 50 10000 0.43 228.903 08:20 07.10.2019
646 Clear 13 1021 50 10000 0.43 228.903 07:47 07.10.2019
647 Clear 13 1021 50 10000 0.43 228.903 07:27 07.10.2019
648 Clear 14 1021 50 10000 1 0 06:57 07.10.2019
649 Clear 14 1021 50 10000 1 0 06:38 07.10.2019
650 Clear 17 1021 42 10000 0.82 257.768 05:56 07.10.2019
651 Clear 17 1021 42 10000 0.82 257.768 05:25 07.10.2019
652 Clear 18 1021 39 10000 1.5 20 04:47 07.10.2019
653 Clear 20 1021 32 10000 3.1 170 03:46 07.10.2019
654 Clear 20 1021 32 10000 3.1 170 03:27 07.10.2019
655 Clear 21 1020 30 10000 5.7 210 02:37 07.10.2019
656 Clear 21 1020 30 10000 5.7 210 02:18 07.10.2019
657 Clear 22 1021 26 10000 2.1 240 01:23 07.10.2019
658 Clear 24 1021 22 10000 3.6 240 00:49 07.10.2019
659 Clear 23 1021 22 10000 3.6 240 00:23 07.10.2019
660 Clear 24 1021 17 10000 3.1 230 23:59 06.10.2019
661 Clear 24 1021 17 10000 3.1 230 23:39 06.10.2019
662 Clear 24 1021 17 10000 3.1 230 23:18 06.10.2019
663 -273 0 0 0 0 0 22:54 06.10.2019
664 Clear 24 1021 15 10000 3.6 230 22:36 06.10.2019
665 Clear 24 1021 15 10000 3.6 230 22:18 06.10.2019
666 Clear 24 1021 15 10000 3.6 230 22:18 06.10.2019
667 Clear 25 1021 11 10000 4.1 220 21:55 06.10.2019
668 Clear 25 1021 11 10000 4.1 220 21:54 06.10.2019
669 Clear 25 1021 11 10000 4.1 220 21:36 06.10.2019
670 Clear 25 1021 11 10000 4.1 220 21:36 06.10.2019
671 Clear 25 1021 11 10000 4.1 220 21:18 06.10.2019
672 Clear 25 1021 11 10000 4.1 220 21:18 06.10.2019
673 Clear 25 1021 16 10000 2.1 230 20:54 06.10.2019
674 Clear 25 1021 16 10000 2.1 230 20:36 06.10.2019
675 Clear 25 1021 16 10000 2.1 230 20:36 06.10.2019
676 Clear 25 1021 16 10000 2.1 230 20:36 06.10.2019
677 Clear 24 1021 16 10000 2.1 230 20:18 06.10.2019
678 Clear 24 1022 36 10000 1.5 180 19:54 06.10.2019
679 Clear 24 1022 36 10000 1.5 180 19:36 06.10.2019
680 Clear 24 1022 36 10000 1.5 180 19:18 06.10.2019
681 Clear 22 1023 36 10000 2.1 260 18:54 06.10.2019
682 Clear 22 1023 36 10000 2.1 260 18:36 06.10.2019
683 Clear 22 1023 40 10000 2.1 260 18:18 06.10.2019
684 Clear 21 1023 29 10000 2.1 300 17:42 06.10.2019
685 Clear 21 1023 29 10000 2.1 300 17:20 06.10.2019
686 Clear 19 1023 36 10000 1.5 240 16:55 06.10.2019
687 Clear 19 1023 36 10000 1.5 240 16:55 06.10.2019
688 Clear 19 1023 36 10000 1.5 240 16:36 06.10.2019
689 Clear 18 1023 36 10000 1.5 240 16:18 06.10.2019
690 Clear 16 1024 41 10000 1 170 15:42 06.10.2019
691 Clear 14 1024 41 10000 1 170 15:19 06.10.2019
692 Clear 14 1024 41 10000 1 170 15:19 06.10.2019
693 Clear 14 1024 41 10000 1 170 15:19 06.10.2019
694 Clear 14 1024 41 10000 1 170 15:19 06.10.2019
695 Clear 14 1024 41 10000 1 170 15:19 06.10.2019
696 Clear 13 1024 59 10000 1 310 14:44 06.10.2019
697 Clear 11 1024 59 10000 1 310 14:25 06.10.2019
698 Clear 10 1024 65 10000 1.17 103.37 13:58 06.10.2019
699 Clear 13 1024 65 10000 1.17 103.37 13:39 06.10.2019
700 Clear 12 1024 65 10000 1.4 91.681 13:21 06.10.2019
701 Clear 11 1023 58 10000 2.1 300 12:58 06.10.2019
702 Clear 11 1023 58 10000 2.1 300 12:39 06.10.2019
703 Clear 11 1023 58 10000 2.1 300 12:39 06.10.2019
704 Clear 7 1023 78 10000 2.1 300 12:21 06.10.2019
705 Clear 8 1023 78 10000 1.5 250 11:58 06.10.2019
706 Clear 9 1023 78 10000 1.5 250 11:39 06.10.2019
707 Clear 8 1023 78 10000 1.5 250 11:20 06.10.2019
708 Clear 8 1023 78 10000 1.5 250 11:20 06.10.2019
709 Clear 8 1023 78 10000 2.1 60 10:45 06.10.2019
710 Clear 8 1023 78 10000 2.1 60 10:26 06.10.2019
711 Clear 9 1023 78 10000 1.42 76.921 09:58 06.10.2019
712 Clear 9 1023 78 10000 1.42 76.921 09:40 06.10.2019
713 Clear 9 1023 81 10000 0.27 121.43 09:19 06.10.2019
714 Clear 9 1023 81 10000 0.27 121.43 09:19 06.10.2019
715 Clear 9 1023 57 10000 0.27 121.43 08:45 06.10.2019
716 Clear 10 1023 57 10000 0.29 91.369 08:21 06.10.2019
717 Clear 10 1023 53 10000 2.1 270 07:57 06.10.2019
718 Clear 10 1023 53 10000 2.1 270 07:38 06.10.2019
719 Clear 12 1023 47 10000 1 0 06:38 06.10.2019
720 Clear 12 1023 50 10000 2.1 150 05:35 06.10.2019
721 Clear 13 1023 43 10000 2.6 150 04:27 06.10.2019
722 Clear 17 1022 29 10000 4.1 210 02:48 06.10.2019
723 Clear 17 1022 29 10000 4.1 210 02:28 06.10.2019
724 Clear 18 1023 33 10000 1.5 260 01:46 06.10.2019
725 Clear 18 1023 33 10000 1.5 260 01:27 06.10.2019
726 Clear 18 1023 33 10000 1.5 260 01:27 06.10.2019
727 Clouds 19 1023 80 10000 3.6 230 00:59 06.10.2019
728 Clouds 19 1023 80 10000 3.6 230 00:59 06.10.2019
729 Clouds 19 1023 80 10000 3.6 230 00:31 06.10.2019
730 Clouds 21 1022 16 10000 4.1 210 23:46 05.10.2019
731 Clouds 21 1022 16 10000 4.1 210 23:24 05.10.2019
732 Clear 22 1021 17 10000 3.6 210 22:59 05.10.2019
733 Clear 22 1021 17 10000 3.6 210 22:59 05.10.2019
734 Clear 22 1021 17 10000 3.6 210 22:40 05.10.2019
735 Clear 22 1021 17 10000 3.6 210 22:21 05.10.2019
736 Clear 22 1021 17 10000 3.6 210 22:21 05.10.2019
737 Clear 22 1021 17 10000 3.1 240 21:59 05.10.2019
738 Clear 22 1021 17 10000 3.1 240 21:40 05.10.2019
739 Clear 22 1021 17 10000 3.1 240 21:21 05.10.2019
740 Clear 22 1022 19 10000 3.1 210 20:56 05.10.2019
741 Clear 22 1022 19 10000 3.1 210 20:38 05.10.2019
742 Clear 22 1022 19 10000 3.1 210 20:19 05.10.2019
743 Clear 21 1022 22 10000 2.1 280 19:39 05.10.2019
744 Clear 21 1022 22 10000 2.1 280 19:21 05.10.2019
745 Clear 19 1023 25 10000 1.5 190 18:57 05.10.2019
746 Clear 19 1023 25 10000 1.5 190 18:39 05.10.2019
747 Clear 19 1023 25 10000 1.5 190 18:20 05.10.2019
748 -273 0 0 0 0 0 17:55 05.10.2019
749 Clear 19 1023 29 10000 2.61 229.756 17:55 05.10.2019
750 Clear 19 1023 29 10000 2.61 229.756 17:37 05.10.2019
751 Clear 18 1023 29 10000 2.61 229.756 17:18 05.10.2019
752 Clear 17 1023 45 10000 1.5 210 16:42 05.10.2019
753 Clear 17 1023 45 10000 1.5 210 16:42 05.10.2019
754 Clear 17 1023 45 10000 1.5 210 16:21 05.10.2019
755 Clear 15 1023 45 10000 2.61 229.756 15:57 05.10.2019
756 Clear 15 1023 45 10000 2.61 229.756 15:39 05.10.2019
757 Clear 12 1023 64 10000 0.29 192.137 15:21 05.10.2019
758 Clear 12 1023 64 10000 0.29 192.137 15:21 05.10.2019
759 Clear 8 1023 64 10000 0.29 192.137 14:57 05.10.2019
760 Clear 10 1023 64 10000 0.29 192.137 14:38 05.10.2019
761 Clear 8 1023 64 10000 0.29 192.137 14:20 05.10.2019
762 Clear 8 1022 64 10000 0.29 192.137 13:42 05.10.2019
763 Clear 8 1022 65 10000 0.42 214.756 13:22 05.10.2019
764 Clear 6 1022 65 10000 0.5 0 12:46 05.10.2019
765 Clear 6 1022 65 10000 0.5 0 12:21 05.10.2019
766 Clear 6 1021 79 10000 0.94 74.046 11:59 05.10.2019
767 Clear 7 1021 79 10000 0.94 74.046 11:37 05.10.2019
768 Clear 7 1021 79 10000 0.94 74.046 11:18 05.10.2019
769 Clear 7 1021 79 10000 0.94 74.046 11:18 05.10.2019
770 Clear 6 1021 65 10000 0.5 0 10:45 05.10.2019
771 Clear 7 1021 65 10000 0.5 0 10:26 05.10.2019
772 Clear 7 1021 79 10000 0.94 74.046 09:59 05.10.2019
773 Clear 7 1021 79 10000 0.94 74.046 09:39 05.10.2019
774 Clear 7 1021 79 10000 0.85 53.983 09:20 05.10.2019
775 Clear 9 1022 57 10000 2.1 190 08:40 05.10.2019
776 Clear 9 1022 57 10000 2.1 190 08:20 05.10.2019
777 Clear 9 1022 78 10000 3.6 170 07:57 05.10.2019
778 Clear 9 1022 78 10000 3.6 170 07:35 05.10.2019
779 Clear 11 1022 78 10000 1 0 06:59 05.10.2019
780 Clear 11 1022 78 10000 1 0 06:28 05.10.2019
781 Clear 11 1022 78 10000 1 0 06:28 05.10.2019
782 Clear 11 1022 78 10000 2.1 0 05:51 05.10.2019
783 Clear 12 1022 43 10000 2.6 150 04:21 05.10.2019
784 Clear 14 1022 78 10000 3.1 180 03:28 05.10.2019
785 Clear 16 1022 29 10000 2.1 230 01:42 05.10.2019
786 Clear 16 1022 29 10000 2.1 230 01:20 05.10.2019
787 Clear 19 1022 20 10000 2.6 230 00:43 05.10.2019
788 Clear 19 1022 20 10000 2.6 230 00:25 05.10.2019
789 Clear 19 1022 20 10000 1.5 240 23:44 04.10.2019
790 Clear 20 1022 20 10000 1.5 240 23:26 04.10.2019
791 Clear 20 1022 20 10000 1.5 240 23:26 04.10.2019
792 Clear 20 1022 25 10000 2.6 270 22:59 04.10.2019
793 Clear 20 1022 25 10000 2.6 270 22:39 04.10.2019
794 Clear 20 1022 25 10000 2.6 270 22:20 04.10.2019
795 Clear 20 1022 23 10000 2.6 240 21:57 04.10.2019
796 Clear 19 1022 23 10000 2.6 240 21:38 04.10.2019
797 Clear 19 1022 23 10000 2.6 240 21:19 04.10.2019
798 Clear 19 1023 25 10000 2.1 160 20:55 04.10.2019
799 Clear 19 1023 25 10000 2.1 160 20:36 04.10.2019
800 Clear 19 1023 25 10000 2.1 160 20:18 04.10.2019
801 Clear 18 1024 37 10000 2.6 180 19:45 04.10.2019
802 Clear 18 1024 37 10000 2.6 180 19:27 04.10.2019
803 Clear 17 1024 38 10000 2.1 270 18:58 04.10.2019
804 Clear 17 1024 38 10000 2.1 270 18:38 04.10.2019
805 Clear 17 1024 38 10000 2.1 270 18:19 04.10.2019
806 Clear 17 1024 38 10000 2.1 270 18:19 04.10.2019
807 Clear 16 1024 47 10000 1.5 300 17:54 04.10.2019
808 Clear 16 1024 47 10000 1.5 300 17:36 04.10.2019
809 Clear 15 1024 47 10000 1.5 300 17:18 04.10.2019
810 Clear 14 1025 53 10000 2.1 120 16:41 04.10.2019
811 Clear 14 1025 53 10000 2.1 120 16:19 04.10.2019
812 Clear 13 1025 61 10000 1 210 15:59 04.10.2019
813 Clear 13 1025 61 10000 1 210 15:40 04.10.2019
814 Clear 10 1025 61 10000 1 210 15:21 04.10.2019
815 Clear 8 1024 75 10000 0.71 106.28 14:59 04.10.2019
816 Clear 8 1024 75 10000 0.71 106.28 14:41 04.10.2019
817 Clear 6 1024 75 10000 0.71 106.28 14:22 04.10.2019
818 Clear 6 1024 75 10000 0.71 106.28 13:54 04.10.2019
819 Clear 6 1024 75 10000 0.71 106.28 13:36 04.10.2019
820 Clear 5 1024 75 10000 0.7 121.624 13:18 04.10.2019
821 Clear 4 1023 86 10000 1.5 40 12:42 04.10.2019
822 Clear 4 1023 86 10000 1.5 40 12:24 04.10.2019
823 Clear 5 1023 80 10000 1 0 11:43 04.10.2019
824 Clear 5 1023 80 10000 1 0 11:43 04.10.2019
825 Clear 5 1023 80 10000 1 0 11:43 04.10.2019
826 Clear 5 1023 80 10000 1 0 11:43 04.10.2019
827 Clear 5 1023 80 10000 1 0 11:22 04.10.2019
828 Clear 5 1022 75 10000 1.5 10 10:57 04.10.2019
829 Clear 5 1022 75 10000 1.5 10 10:38 04.10.2019
830 Clear 5 1022 75 10000 1.5 10 10:19 04.10.2019
831 Clear 5 1023 85 10000 1.02 80.825 09:43 04.10.2019
832 Clear 5 1023 86 10000 0.96 80.802 09:25 04.10.2019
833 Clear 6 1023 75 10000 1.5 300 08:46 04.10.2019
834 Clear 6 1023 75 10000 1.5 300 08:27 04.10.2019
835 Clear 6 1023 70 10000 1.5 200 07:56 04.10.2019
836 Clear 6 1023 70 10000 1.5 200 07:37 04.10.2019
837 Clear 6 1023 70 10000 1.5 200 07:18 04.10.2019
838 Clear 7 1023 65 10000 3.1 170 06:40 04.10.2019
839 Clear 7 1023 65 10000 3.1 170 06:21 04.10.2019
840 Clear 8 1023 61 10000 3.1 160 05:22 04.10.2019
841 Clear 10 1024 57 10000 4.1 170 04:53 04.10.2019
842 Clear 11 1024 53 10000 5.7 190 03:42 04.10.2019
843 Clear 11 1023 53 10000 6.2 200 02:53 04.10.2019
844 Clouds 12 1023 43 10000 3.1 230 01:54 04.10.2019
845 Clouds 12 1023 43 10000 3.1 230 01:54 04.10.2019
846 -273 0 0 0 0 0 01:54 04.10.2019
847 Clouds 12 1023 43 10000 3.1 230 01:54 04.10.2019
848 Clouds 13 1023 43 10000 3.1 230 01:26 04.10.2019
849 Clouds 14 1023 87 10000 4.1 230 00:36 04.10.2019
850 Clouds 15 1022 31 10000 3.1 240 23:41 03.10.2019
851 Clouds 16 1022 31 10000 3.1 240 23:22 03.10.2019
852 Clouds 16 1022 31 10000 3.1 240 23:22 03.10.2019
853 Clouds 17 1022 54 10000 2.6 200 22:58 03.10.2019
854 Clouds 17 1022 54 10000 2.6 200 22:39 03.10.2019
855 Clouds 17 1022 54 10000 2.6 200 22:39 03.10.2019
856 Clouds 17 1022 54 10000 2.6 200 22:21 03.10.2019
857 Clouds 17 1022 54 10000 2.6 200 22:21 03.10.2019
858 Clouds 17 1022 33 10000 6.7 240 21:59 03.10.2019
859 Clouds 17 1022 33 10000 6.7 240 21:40 03.10.2019
860 Clouds 17 1023 31 10000 4.1 240 21:20 03.10.2019
861 Clouds 17 1023 31 10000 4.1 240 21:20 03.10.2019
862 Clouds 16 1023 44 10000 2.6 200 20:58 03.10.2019
863 Clouds 17 1023 42 10000 2.6 200 20:40 03.10.2019
864 Clouds 17 1023 42 10000 2.6 200 20:21 03.10.2019
865 Clouds 17 1023 38 8000 2.6 300 19:57 03.10.2019
866 Clouds 18 1023 38 8000 2.6 300 19:39 03.10.2019
867 Clouds 17 1023 38 8000 2.6 300 19:20 03.10.2019
868 Clouds 17 1023 54 8000 2.1 210 18:56 03.10.2019
869 Clouds 16 1023 54 8000 2.1 210 18:38 03.10.2019
870 Clouds 15 1023 54 8000 2.1 210 18:18 03.10.2019
871 Clouds 14 1023 50 10000 2.1 260 17:42 03.10.2019
872 Clouds 14 1023 50 10000 2.1 260 17:22 03.10.2019
873 Clear 16 1023 53 10000 1.5 0 16:58 03.10.2019
874 Clear 16 1023 53 10000 1.5 0 16:39 03.10.2019
875 Clear 13 1023 53 10000 1.5 0 16:21 03.10.2019
876 Clouds 9 1023 70 10000 1 30 15:45 03.10.2019
877 Clouds 9 1023 70 10000 1 30 15:24 03.10.2019
878 Clouds 9 1023 75 10000 3.1 270 14:59 03.10.2019
879 Clouds 9 1023 75 10000 3.1 270 14:37 03.10.2019
880 Clouds 7 1023 75 10000 3.1 270 14:19 03.10.2019
881 Clouds 6 1022 80 10000 1 60 13:45 03.10.2019
882 Clouds 6 1022 80 10000 1 60 13:26 03.10.2019
883 Clear 6 1020 75 10000 1.5 150 12:59 03.10.2019
884 Clear 6 1020 75 10000 1.5 150 12:40 03.10.2019
885 Clear 6 1020 75 10000 1.5 150 12:20 03.10.2019
886 Clear 6 1020 75 10000 1.5 150 12:20 03.10.2019
887 Clear 7 1019 70 10000 1 0 11:58 03.10.2019
888 Clear 7 1019 70 10000 1 0 11:58 03.10.2019
889 Clear 7 1019 70 10000 1 0 11:40 03.10.2019
890 Clear 6 1019 70 10000 1 0 11:21 03.10.2019
891 Clear 7 1019 70 10000 2.6 160 10:58 03.10.2019
892 Clear 7 1019 70 10000 2.6 160 10:38 03.10.2019
893 Clear 6 1019 70 10000 2.6 160 10:18 03.10.2019
894 Clear 6 1018 70 10000 1 0 09:56 03.10.2019
895 Clear 7 1018 70 10000 1 0 09:37 03.10.2019
896 Clear 6 1018 70 10000 1 0 09:19 03.10.2019
897 Clear 7 1019 70 10000 0.65 299.777 08:43 03.10.2019
898 Clear 7 1019 70 10000 0.65 299.777 08:24 03.10.2019
899 Clear 7 1019 70 10000 0.65 299.777 08:24 03.10.2019
900 Clear 7 1019 70 10000 0.65 299.777 08:24 03.10.2019
901 Clear 8 1018 65 10000 2.1 170 07:45 03.10.2019
902 Clear 8 1018 65 10000 2.1 170 07:20 03.10.2019
903 Clear 9 1018 57 10000 2.6 150 06:53 03.10.2019
904 Clear 9 1018 57 10000 2.6 150 06:27 03.10.2019
905 Clear 9 1019 57 10000 3.6 160 05:49 03.10.2019
906 Clear 9 1019 57 10000 3.6 160 05:27 03.10.2019
907 Clear 10 1019 53 10000 3.6 170 04:45 03.10.2019
908 Clear 11 1019 50 10000 6.2 190 03:54 03.10.2019
909 Clear 11 1019 50 10000 6.2 190 03:19 03.10.2019
910 Clear 11 1019 50 10000 6.2 190 03:19 03.10.2019
911 Clear 12 1018 46 10000 7.2 210 02:27 03.10.2019
912 Clouds 13 1019 35 10000 3.1 240 01:40 03.10.2019
913 Clouds 15 1018 86 10000 3.1 230 00:53 03.10.2019
914 Clouds 15 1018 86 10000 3.1 230 00:31 03.10.2019
915 Clouds 15 1018 36 10000 3.6 210 23:57 02.10.2019
916 Clouds 16 1018 36 10000 3.6 210 23:37 02.10.2019
917 Clouds 16 1018 36 10000 3.6 210 23:18 02.10.2019
918 Clouds 17 1018 52 10000 3.1 210 22:42 02.10.2019
919 Clouds 17 1018 52 10000 3.1 210 22:20 02.10.2019
920 Clouds 17 1018 36 7000 3.1 210 21:55 02.10.2019
921 Clouds 17 1018 36 7000 3.1 210 21:37 02.10.2019
922 Clouds 17 1018 36 7000 3.1 210 21:18 02.10.2019
923 Clouds 16 1019 38 8000 3.6 210 20:55 02.10.2019
924 -273 0 0 0 0 0 20:55 02.10.2019
925 Clouds 16 1019 38 8000 3.6 210 20:37 02.10.2019
926 Clouds 16 1019 38 8000 3.6 210 20:19 02.10.2019
927 Clouds 14 1020 47 7000 2.1 170 19:44 02.10.2019
928 Clouds 15 1020 47 7000 2.1 170 19:23 02.10.2019
929 Clouds 14 1020 54 7000 2.1 210 18:58 02.10.2019
930 Clouds 15 1020 54 7000 2.1 210 18:39 02.10.2019
931 Clouds 13 1020 54 7000 2.1 210 18:21 02.10.2019
932 Clouds 12 1020 57 7000 2.28 218.844 17:57 02.10.2019
933 Clouds 12 1020 57 7000 2.28 218.844 17:57 02.10.2019
934 Clouds 12 1020 57 7000 2.28 218.844 17:38 02.10.2019
935 Clouds 12 1020 57 7000 2.28 218.844 17:20 02.10.2019
936 Clouds 13 1021 66 7000 2.28 218.844 16:56 02.10.2019
937 Clouds 13 1021 66 7000 2.28 218.844 16:36 02.10.2019
938 Clouds 12 1021 75 7000 2.28 218.844 16:18 02.10.2019
939 Clouds 11 1021 75 7000 2.28 218.844 15:41 02.10.2019
940 Clouds 9 1021 75 7000 0.36 131.097 15:23 02.10.2019
941 Clouds 6 1021 93 7000 0.36 131.097 14:58 02.10.2019
942 Clouds 6 1021 93 7000 0.36 131.097 14:40 02.10.2019
943 Clouds 6 1021 93 7000 0.36 131.097 14:21 02.10.2019
944 Clouds 6 1021 75 7000 0.36 131.097 13:48 02.10.2019
945 Clouds 6 1021 75 7000 0.08 279.834 13:29 02.10.2019
946 Clouds 6 1021 80 10000 1 0 12:59 02.10.2019
947 Clear 6 1021 80 10000 1 130 12:39 02.10.2019
948 Clear 6 1021 80 10000 1 130 12:20 02.10.2019
949 Clouds 7 1020 75 10000 3.6 160 11:45 02.10.2019
950 Clouds 7 1020 75 10000 3.6 160 11:23 02.10.2019
951 Clouds 6 1020 75 10000 3.1 160 10:55 02.10.2019
952 Clouds 7 1020 75 10000 3.1 160 10:36 02.10.2019
953 Clouds 7 1020 75 10000 3.1 160 10:18 02.10.2019
954 Clouds 7 1020 75 10000 3.1 150 09:39 02.10.2019
955 Clouds 8 1020 75 10000 3.1 150 09:20 02.10.2019
956 Clouds 8 1020 70 10000 3.1 170 08:55 02.10.2019
957 Clouds 8 1020 70 10000 3.1 170 08:36 02.10.2019
958 Clouds 8 1020 70 10000 3.1 170 08:18 02.10.2019
959 Clouds 8 1021 70 10000 3.6 170 07:39 02.10.2019
960 Clouds 8 1021 70 10000 4.1 160 07:20 02.10.2019
961 Clouds 8 1021 70 10000 4.1 160 06:46 02.10.2019
962 Rain 8 1021 70 10000 4.6 160 05:56 02.10.2019
963 Rain 8 1021 70 10000 4.6 160 05:24 02.10.2019
964 Clouds 8 1021 66 10000 3.6 170 04:53 02.10.2019
965 Clouds 8 1021 66 10000 5.1 210 03:52 02.10.2019
966 Rain 9 1020 61 10000 7.2 200 02:43 02.10.2019
967 Rain 9 1020 61 10000 7.2 200 02:23 02.10.2019
968 Clouds 10 1020 61 10000 1.5 270 01:40 02.10.2019
969 Clouds 11 1019 53 10000 1 70 00:51 02.10.2019
970 Clouds 11 1019 53 10000 1 70 00:27 02.10.2019
971 Clouds 11 1019 66 10000 1.5 360 23:45 01.10.2019
972 Clouds 11 1019 66 10000 1.5 360 23:26 01.10.2019
973 Clouds 11 1019 66 10000 2.1 360 22:59 01.10.2019
974 Clouds 11 1019 66 10000 2.1 360 22:40 01.10.2019
975 Clouds 12 1019 66 10000 2.1 360 22:20 01.10.2019
976 Clouds 12 1020 53 10000 3.83 255.089 21:57 01.10.2019
977 Clouds 12 1020 53 10000 3.83 255.089 21:39 01.10.2019
978 Clouds 12 1020 53 10000 1.18 126.092 21:21 01.10.2019
979 Clouds 12 1020 57 10000 1.5 0 20:56 01.10.2019
980 Clouds 12 1020 57 10000 1.5 0 20:38 01.10.2019
981 Clouds 12 1020 57 10000 1.5 0 20:19 01.10.2019
982 Clouds 10 1021 70 6000 1.5 120 19:56 01.10.2019
983 Clouds 10 1021 70 6000 1.5 120 19:38 01.10.2019
984 Clouds 10 1021 70 6000 1.5 120 19:18 01.10.2019
985 Rain 9 1021 75 5000 1 170 18:40 01.10.2019
986 Rain 9 1021 75 5000 1 170 18:22 01.10.2019
987 Rain 8 1021 81 5000 1.5 0 17:58 01.10.2019
988 Rain 8 1021 81 5000 1.5 0 17:40 01.10.2019
989 Rain 7 1021 81 5000 1.5 0 17:19 01.10.2019
990 Rain 7 1020 87 5000 1 160 16:57 01.10.2019
991 Rain 7 1020 87 5000 1 160 16:39 01.10.2019
992 Rain 7 1020 87 5000 1 160 16:21 01.10.2019
993 Rain 7 1020 93 4000 2.1 220 15:46 01.10.2019
994 Rain 7 1020 93 4000 2.1 220 15:23 01.10.2019
995 Drizzle 7 1019 93 3000 1.5 230 14:42 01.10.2019
996 Drizzle 7 1019 93 3000 1.5 230 14:22 01.10.2019
997 Drizzle 7 1018 93 3000 1.5 240 13:59 01.10.2019
998 Drizzle 7 1018 93 3000 1.5 240 13:40 01.10.2019
999 Drizzle 7 1018 93 3000 1.5 240 13:21 01.10.2019
1000 Clouds 8 1018 75 10000 2.1 160 12:59 01.10.2019
1001 Clouds 8 1018 75 10000 2.1 160 12:59 01.10.2019
1002 Clouds 8 1018 75 10000 2.1 160 12:40 01.10.2019
1003 Clouds 8 1017 70 10000 3.6 210 12:19 01.10.2019
1004 Clouds 8 1017 70 10000 3.6 210 11:58 01.10.2019
1005 Clouds 8 1017 70 10000 3.6 210 11:38 01.10.2019
1006 Clouds 8 1017 70 10000 3.6 210 11:19 01.10.2019
1007 Clouds 8 1017 75 10000 2.6 160 10:58 01.10.2019
1008 Clouds 8 1017 75 10000 2.6 160 10:40 01.10.2019
1009 Clouds 8 1017 75 10000 2.6 160 10:21 01.10.2019
1010 Clouds 8 1017 70 10000 3.1 150 09:40 01.10.2019
1011 Clouds 8 1017 70 10000 3.1 150 09:21 01.10.2019
1012 Clouds 8 1018 70 10000 3.1 150 08:42 01.10.2019
1013 Clouds 8 1018 70 10000 3.1 150 08:24 01.10.2019
1014 Clouds 8 1018 70 10000 3.1 160 07:48 01.10.2019
1015 Clouds 8 1018 70 10000 3.1 160 07:25 01.10.2019
1016 Clouds 8 1018 70 10000 3.6 210 06:48 01.10.2019
1017 Clouds 8 1018 70 10000 3.6 210 06:20 01.10.2019
1018 Clouds 9 1018 70 10000 4.1 200 05:46 01.10.2019
1019 Clouds 9 1018 70 10000 4.1 200 05:18 01.10.2019
1020 Clouds 10 1018 71 10000 4.1 200 04:29 01.10.2019
1021 Clouds 10 1018 66 10000 5.7 150 02:29 01.10.2019
1022 Clouds 10 1019 70 10000 2.6 230 01:59 01.10.2019
1023 Clouds 10 1019 76 10000 4.1 180 00:59 01.10.2019
1024 Clouds 10 1019 76 10000 4.1 180 00:37 01.10.2019
1025 Clouds 10 1019 76 10000 4.1 180 00:37 01.10.2019
1026 Clouds 11 1018 71 10000 3.6 220 00:18 01.10.2019
1027 Clouds 11 1018 71 10000 3.6 220 23:41 30.09.2019
1028 Clouds 11 1018 71 10000 3.6 220 23:41 30.09.2019
1029 Clouds 11 1018 71 10000 3.6 220 23:21 30.09.2019
1030 Clouds 13 1018 66 10000 2.6 180 22:43 30.09.2019
1031 Clouds 13 1018 66 10000 2.6 180 22:25 30.09.2019
1032 Clouds 15 1018 62 8000 2.6 230 21:58 30.09.2019
1033 Clouds 15 1018 62 8000 2.6 230 21:58 30.09.2019
1034 Clouds 15 1018 62 8000 2.6 230 21:38 30.09.2019
1035 Clouds 14 1018 62 8000 2.6 230 21:19 30.09.2019
1036 Clouds 16 1018 62 10000 3.1 180 20:58 30.09.2019
1037 Clouds 16 1018 62 10000 3.1 180 20:39 30.09.2019
1038 Clouds 16 1018 62 10000 3.1 180 20:20 30.09.2019
1039 Clouds 16 1019 66 10000 2.1 200 19:57 30.09.2019
1040 Clouds 16 1019 66 10000 2.1 200 19:39 30.09.2019
1041 Haze 15 1019 76 5000 2.6 150 19:19 30.09.2019
1042 Haze 15 1019 76 5000 2.6 150 18:57 30.09.2019
1043 Haze 15 1019 76 5000 2.6 150 18:57 30.09.2019
1044 Haze 15 1019 76 5000 2.6 150 18:57 30.09.2019
1045 Haze 15 1019 76 5000 2.6 150 18:37 30.09.2019
1046 Haze 12 1019 87 3000 2.1 220 18:19 30.09.2019
1047 Haze 12 1019 87 3000 2.1 220 17:43 30.09.2019
1048 Haze 13 1019 87 3000 2.1 220 17:23 30.09.2019
1049 Clouds 12 1017 76 8000 4.6 200 16:57 30.09.2019
1050 Clouds 14 932 99 0 3.15 243.329 16:39 30.09.2019
1051 Clouds 11 1017 87 6000 2.1 230 16:19 30.09.2019
1052 Clouds 11 1017 87 6000 2.1 230 15:58 30.09.2019
1053 Clouds 11 1017 87 6000 2.1 230 15:37 30.09.2019
1054 Clouds 11 1017 87 6000 2.1 230 15:19 30.09.2019
1055 Clouds 11 1016 87 6000 2.6 250 14:57 30.09.2019
1056 Clouds 11 1016 87 6000 2.6 250 14:37 30.09.2019
1057 Clouds 11 1016 87 6000 2.6 250 14:18 30.09.2019
1058 Clouds 11 1016 87 6000 2.6 250 14:18 30.09.2019
1059 Clouds 12 1016 71 6000 1.31 261.137 13:56 30.09.2019
1060 Clouds 11 1016 71 6000 1.31 261.137 13:37 30.09.2019
1061 Clouds 11 1016 71 6000 1.08 251.331 13:19 30.09.2019
1062 Clouds 11 1015 87 10000 2.1 160 12:42 30.09.2019
1063 Clouds 11 1015 87 10000 2.1 160 12:22 30.09.2019
1064 Clouds 11 1015 81 10000 2.1 160 11:57 30.09.2019
1065 Clouds 11 1015 81 10000 2.1 160 11:57 30.09.2019
1066 Clouds 11 1015 81 10000 2.1 160 11:57 30.09.2019
1067 Clouds 11 1015 81 10000 2.1 160 11:38 30.09.2019
1068 Clouds 11 1015 81 10000 2.1 160 11:19 30.09.2019
1069 Clouds 11 1015 81 10000 2.1 160 11:19 30.09.2019
1070 Clouds 11 1015 81 10000 2.1 130 10:41 30.09.2019
1071 Clouds 11 1015 81 10000 2.1 130 10:20 30.09.2019
1072 Clouds 11 1015 87 8000 3.6 160 09:59 30.09.2019
1073 Clouds 11 1015 87 8000 3.6 160 09:39 30.09.2019
1074 Clouds 11 1015 87 8000 3.6 160 09:20 30.09.2019
1075 Clouds 11 1016 81 8000 2.6 180 08:47 30.09.2019
1076 Clouds 11 1016 81 8000 2.6 180 08:47 30.09.2019
1077 Clouds 11 1016 81 8000 2.6 180 08:29 30.09.2019
1078 Clouds 11 1017 81 10000 2.6 160 07:46 30.09.2019
1079 Clouds 11 1017 81 10000 2.6 160 07:28 30.09.2019
1080 Clouds 11 1017 81 10000 4.1 190 06:57 30.09.2019
1081 Clouds 11 1017 81 10000 4.1 190 06:57 30.09.2019
1082 Clouds 11 1017 81 10000 4.1 190 06:34 30.09.2019
1083 Clouds 11 1017 81 10000 3.1 140 05:48 30.09.2019
1084 Clouds 11 1017 81 10000 3.1 140 05:24 30.09.2019
1085 Clouds 12 1018 76 8000 5.7 190 02:49 30.09.2019
1086 Clouds 13 1018 66 10000 2.6 230 01:39 30.09.2019
1087 Clear 14 1017 62 10000 4.1 240 00:44 30.09.2019
1088 Clear 15 1017 62 10000 4.1 240 00:24 30.09.2019
1089 Dust 17 1016 45 10000 4.1 250 23:57 29.09.2019
1090 Dust 17 1016 45 10000 4.1 250 23:39 29.09.2019
1091 Dust 18 1016 45 10000 4.1 250 23:19 29.09.2019
1092 Dust 19 1016 39 10000 5.1 230 22:43 29.09.2019
1093 Dust 20 1016 39 10000 5.1 230 22:23 29.09.2019
1094 Dust 21 1015 45 10000 4.6 240 21:58 29.09.2019
1095 Dust 22 1015 45 10000 4.6 240 21:38 29.09.2019
1096 Dust 22 1015 45 10000 4.6 240 21:19 29.09.2019
1097 Clear 23 1016 37 10000 3.1 230 20:58 29.09.2019
1098 Clear 23 1016 37 10000 3.1 230 20:40 29.09.2019
1099 Clear 22 1016 37 10000 3.1 230 20:19 29.09.2019
1100 Clear 22 1016 40 10000 3.6 240 19:55 29.09.2019
1101 Clear 22 1016 40 10000 3.6 240 19:36 29.09.2019
1102 Clear 22 1016 40 10000 3.6 240 19:36 29.09.2019
1103 Clear 21 1017 42 10000 3.1 240 19:18 29.09.2019
1104 -273 0 0 0 0 0 18:55 29.09.2019
1105 -273 0 0 0 0 0 18:54 29.09.2019
1106 Clear 22 1017 42 10000 3.1 240 18:36 29.09.2019
1107 Clear 21 1016 42 10000 2.6 240 18:18 29.09.2019
1108 Clear 21 1016 42 10000 2.6 240 17:54 29.09.2019
1109 Clear 21 1016 42 10000 2.6 240 17:54 29.09.2019
1110 Clear 21 1016 42 10000 2.6 240 17:36 29.09.2019
1111 Clear 20 1016 42 10000 2.6 240 17:18 29.09.2019
1112 Clear 20 1016 45 10000 2.6 240.323 16:41 29.09.2019
1113 Clear 20 1016 45 10000 2.6 240.323 16:20 29.09.2019
1114 Clear 17 1016 62 10000 2.6 240.323 15:58 29.09.2019
1115 Clear 17 1016 62 10000 2.6 240.323 15:38 29.09.2019
1116 Clear 16 1016 62 10000 0.55 305.513 15:19 29.09.2019
1117 Clear 13 1016 76 10000 0.55 305.513 14:58 29.09.2019
1118 Clear 13 1016 76 10000 0.55 305.513 14:38 29.09.2019
1119 Clear 13 1016 76 10000 0.55 305.513 14:19 29.09.2019
1120 Clear 12 1015 71 10000 0.55 305.513 13:56 29.09.2019
1121 Clear 12 1015 71 10000 0.55 305.513 13:37 29.09.2019
1122 Clear 11 1015 71 10000 0.56 301.088 13:18 29.09.2019
1123 Clear 11 1014 81 8000 2.1 0 12:56 29.09.2019
1124 Clear 11 1014 81 8000 2.1 0 12:38 29.09.2019
1125 Clear 10 1014 81 8000 2.1 0 12:20 29.09.2019
1126 Clear 11 1013 81 7000 2.6 150 11:41 29.09.2019
1127 Clear 11 1013 81 7000 2.6 150 11:20 29.09.2019
1128 Clear 10 1013 81 7000 1 340 10:58 29.09.2019
1129 Clear 10 1013 81 7000 1 340 10:39 29.09.2019
1130 Clear 11 1013 81 7000 1 340 10:20 29.09.2019
1131 Clear 11 1013 81 7000 1 340 10:20 29.09.2019
1132 Clear 11 1015 81 10000 1 290 09:57 29.09.2019
1133 Clear 12 1015 81 10000 1 290 09:39 29.09.2019
1134 Clear 12 1015 81 10000 1 290 09:19 29.09.2019
1135 Clear 12 1015 71 10000 2.1 150 08:43 29.09.2019
1136 Clear 13 1015 71 10000 2.1 150 08:22 29.09.2019
1137 Clear 13 1016 71 10000 3.1 160 07:45 29.09.2019
1138 Clear 13 1016 71 10000 3.1 160 07:27 29.09.2019
1139 Clear 13 1016 71 10000 1 0 06:50 29.09.2019
1140 Clear 14 1016 71 10000 1 0 06:22 29.09.2019
1141 Clear 15 1016 59 10000 3.6 150 04:52 29.09.2019
1142 Clear 15 1016 59 10000 3.6 150 04:24 29.09.2019
1143 Clear 17 1016 51 10000 4.1 150 03:42 29.09.2019
1144 Clear 21 1015 42 10000 4.1 190 02:19 29.09.2019
1145 Clear 21 1015 42 10000 4.1 190 02:19 29.09.2019
1146 Clear 21 1016 33 10000 2.1 250 01:45 29.09.2019
1147 Clear 21 1016 33 10000 2.1 250 01:19 29.09.2019
1148 Clear 24 1016 88 10000 2.6 210 00:40 29.09.2019
1149 Clear 24 1016 58 10000 2.6 210 00:19 29.09.2019
1150 Clear 25 1016 22 10000 3.1 230 23:39 28.09.2019
1151 Clear 25 1016 22 10000 3.1 230 23:20 28.09.2019
1152 Clear 26 1015 21 10000 3.1 220 22:41 28.09.2019
1153 Clear 26 1015 21 10000 3.1 220 22:23 28.09.2019
1154 Clear 25 1016 22 10000 2.6 0 21:58 28.09.2019
1155 Clear 26 1016 22 10000 2.6 0 21:40 28.09.2019
1156 Clear 26 1016 22 10000 2.6 0 21:21 28.09.2019
1157 Clear 25 1016 19 10000 2.6 240 20:58 28.09.2019
1158 Clear 25 1016 19 10000 2.6 240 20:58 28.09.2019
1159 Clear 25 1016 19 10000 2.6 240 20:39 28.09.2019
1160 Clear 25 1016 19 10000 2.6 240 20:20 28.09.2019
1161 Clear 23 1017 27 10000 2.1 0 19:57 28.09.2019
1162 Clear 25 1017 27 10000 2.1 0 19:38 28.09.2019
1163 Clear 23 1018 33 10000 1 230 19:20 28.09.2019
1164 Clear 23 1018 33 10000 1 230 18:57 28.09.2019
1165 Clear 23 1018 33 10000 1 230 18:39 28.09.2019
1166 Clear 22 1018 33 10000 1 230 18:20 28.09.2019
1167 Clear 20 1018 32 10000 1.5 180 17:56 28.09.2019
1168 Clear 20 1018 32 10000 1.5 180 17:37 28.09.2019
1169 Clear 20 1018 32 10000 1.5 180 17:19 28.09.2019
1170 Clear 19 1018 51 10000 2.31 229.064 16:42 28.09.2019
1171 Clear 18 1018 51 10000 2.31 229.064 16:23 28.09.2019
1172 Clear 17 1019 62 10000 2.31 229.064 15:42 28.09.2019
1173 Clear 15 1019 62 10000 1.54 84.441 15:23 28.09.2019
1174 Clear 15 1019 62 10000 1.54 84.441 15:23 28.09.2019
1175 Clear 11 1018 81 10000 1.54 84.441 14:58 28.09.2019
1176 Clear 11 1018 81 10000 1.54 84.441 14:39 28.09.2019
1177 Clear 11 1018 81 10000 1.54 84.441 14:21 28.09.2019
1178 Clear 9 1019 70 10000 1 50 13:57 28.09.2019
1179 Clear 9 1019 70 10000 1 50 13:38 28.09.2019
1180 Clear 9 1019 70 10000 1 50 13:38 28.09.2019
1181 Clear 9 1018 81 10000 1.5 140 13:19 28.09.2019
1182 Clear 8 1018 81 10000 1.5 140 12:45 28.09.2019
1183 Clear 8 1018 81 10000 1.5 140 12:20 28.09.2019
1184 Clear 8 1018 81 10000 3.1 160 11:56 28.09.2019
1185 Clear 8 1018 81 10000 3.1 160 11:37 28.09.2019
1186 Clear 9 1018 81 10000 3.1 160 11:18 28.09.2019
1187 Clear 8 1017 81 10000 2.1 170 10:43 28.09.2019
1188 Clear 9 1017 81 10000 2.1 170 10:20 28.09.2019
1189 Clear 9 1018 81 10000 0.5 0 09:57 28.09.2019
1190 Clear 9 1018 81 10000 0.5 0 09:39 28.09.2019
1191 Clear 9 1018 81 10000 0.5 0 09:18 28.09.2019
1192 Clear 9 1018 81 10000 1.5 270 08:46 28.09.2019
1193 Clear 9 1018 81 10000 1.5 270 08:28 28.09.2019
1194 Clear 10 1019 76 8000 0.73 92.741 07:45 28.09.2019
1195 Clear 10 1019 76 8000 0.73 92.741 07:23 28.09.2019
1196 Clear 11 1019 71 10000 1.5 160 06:55 28.09.2019
1197 Clear 11 1019 71 10000 1.5 160 06:32 28.09.2019
1198 Clear 11 1019 71 10000 2.1 150 05:55 28.09.2019
1199 Clear 12 1019 71 10000 2.1 150 05:21 28.09.2019
1200 Clear 12 1019 66 10000 2.6 180 04:40 28.09.2019
1201 Clear 13 1019 62 10000 4.6 140 03:58 28.09.2019
1202 Clear 14 1019 62 10000 4.6 140 03:24 28.09.2019
1203 Clear 15 1018 58 10000 3.6 170 02:57 28.09.2019
1204 Clear 16 1018 58 10000 3.6 170 02:34 28.09.2019
1205 Clear 17 1019 51 10000 3.6 210 01:50 28.09.2019
1206 Clear 17 1019 51 10000 3.6 210 01:27 28.09.2019
1207 Clear 18 1017 54 10000 6.7 220 00:58 28.09.2019
1208 Clear 19 1018 40 8000 3.1 260 00:38 28.09.2019
1209 Clear 20 1018 40 8000 3.1 260 00:18 28.09.2019
1210 Clear 21 1018 37 10000 2.6 260 23:37 27.09.2019
1211 Clear 21 1018 37 10000 2.6 260 23:19 27.09.2019
1212 Clear 21 1018 40 8000 1.5 220 22:47 27.09.2019
1213 Clear 21 1018 40 8000 1.5 220 22:20 27.09.2019
1214 Clear 21 1019 45 8000 1.5 270 21:58 27.09.2019
1215 Clear 21 1019 45 8000 1.5 270 21:39 27.09.2019
1216 Clouds 21 1019 45 8000 1.5 270 21:20 27.09.2019
1217 Clouds 20 1019 52 8000 1.5 310 20:58 27.09.2019
1218 Clouds 20 1019 52 8000 1.5 310 20:39 27.09.2019
1219 Clouds 20 1019 52 8000 1.5 310 20:19 27.09.2019
1220 Clouds 19 1020 58 10000 2.1 30 19:57 27.09.2019
1221 Clouds 19 1020 58 10000 2.1 30 19:57 27.09.2019
1222 Clouds 17 1020 58 10000 2.1 30 19:37 27.09.2019
1223 Clouds 16 1021 71 8000 1 190 19:18 27.09.2019
1224 Clouds 16 1021 71 8000 1 190 18:41 27.09.2019
1225 Clouds 14 1021 71 8000 1 190 18:22 27.09.2019
1226 Clouds 15 1021 71 8000 1 190 18:22 27.09.2019
1227 Haze 13 1021 87 5000 1 180 17:56 27.09.2019
1228 Haze 12 1021 87 5000 1 180 17:37 27.09.2019
1229 Haze 13 1021 87 5000 1 180 17:18 27.09.2019
1230 Mist 11 1021 93 4000 1 190 16:57 27.09.2019
1231 Mist 11 1021 93 4000 1 190 16:37 27.09.2019
1232 Mist 11 1021 93 4000 1 190 16:18 27.09.2019
1233 Mist 11 1021 93 4000 1 190 16:18 27.09.2019
1234 Drizzle 10 1021 93 800 2.1 220 15:45 27.09.2019
1235 Drizzle 10 1021 93 800 2.1 220 15:45 27.09.2019
1236 Drizzle 10 1021 93 800 2.1 220 15:21 27.09.2019
1237 Drizzle 10 1020 81 5000 4.1 170 14:58 27.09.2019
1238 Drizzle 10 1020 100 800 2.6 220 14:39 27.09.2019
1239 Drizzle 10 1020 100 800 2.6 220 14:20 27.09.2019
1240 Fog 10 1019 100 800 2.1 220 13:57 27.09.2019
1241 Fog 10 1019 100 800 2.1 220 13:39 27.09.2019
1242 Fog 10 1019 100 800 2.1 220 13:20 27.09.2019
1243 Drizzle 10 1018 93 4000 4.6 170 12:52 27.09.2019
1244 Drizzle 11 1017 93 5000 3.6 210 12:23 27.09.2019
1245 Clouds 10 1015 93 8000 2.6 250 11:57 27.09.2019
1246 Clouds 10 1015 93 8000 2.6 250 11:38 27.09.2019
1247 Clouds 10 1015 93 8000 2.6 250 11:19 27.09.2019
1248 Clouds 10 1015 93 8000 4.1 140 10:43 27.09.2019
1249 Clouds 10 1015 93 8000 4.1 140 10:21 27.09.2019
1250 Clouds 10 1014 93 6000 4.1 150 09:56 27.09.2019
1251 Clouds 10 1014 93 6000 4.1 150 09:38 27.09.2019
1252 Clouds 10 1014 93 6000 4.1 150 09:18 27.09.2019
1253 Mist 10 1013 93 5000 3.6 210 08:41 27.09.2019
1254 Mist 10 1013 93 5000 3.6 210 08:21 27.09.2019
1255 Mist 10 1013 93 5000 2.3 260.783 07:49 27.09.2019
1256 Mist 10 1013 93 5000 2.3 260.783 07:26 27.09.2019
1257 Clouds 10 1014 93 6000 4.1 150 06:46 27.09.2019
1258 Clouds 10 1014 93 6000 4.1 150 06:28 27.09.2019
1259 Clouds 11 1014 93 6000 5.7 160 05:54 27.09.2019
1260 Clouds 11 1014 93 6000 5.7 160 05:54 27.09.2019
1261 Clouds 11 1014 93 7000 6.2 160 05:33 27.09.2019
1262 Clouds 13 1013 81 8000 5.7 160 04:24 27.09.2019
1263 Clear 13 1012 76 10000 5.1 150 03:38 27.09.2019
1264 Clear 17 1013 55 10000 1.5 250 01:55 27.09.2019
1265 Clear 17 1013 55 10000 1.5 250 01:30 27.09.2019
1266 Clear 20 1013 37 10000 3.1 230 00:40 27.09.2019
1267 Clear 22 1012 55 10000 6.2 170 23:57 26.09.2019
1268 Clear 22 1012 55 10000 6.2 170 23:57 26.09.2019
1269 Clouds 22 1013 40 6000 2.1 240 23:39 26.09.2019
1270 Clouds 23 1013 40 6000 2.1 240 23:19 26.09.2019
1271 Clouds 23 1013 40 6000 2.1 240 23:19 26.09.2019
1272 Haze 23 1013 40 5000 3.1 220 22:58 26.09.2019
1273 Haze 23 1013 40 5000 3.1 220 22:39 26.09.2019
1274 Haze 23 1013 40 5000 3.1 220 22:18 26.09.2019
1275 Haze 24 1013 36 4000 2.6 0 21:58 26.09.2019
1276 Haze 23 1013 36 4000 2.6 0 21:37 26.09.2019
1277 Haze 24 1013 36 4000 2.6 0 21:19 26.09.2019
1278 Haze 24 1013 40 3000 2.6 0 20:58 26.09.2019
1279 Haze 24 1013 40 3000 2.6 0 20:39 26.09.2019
1280 Haze 24 1013 40 3000 2.6 0 20:21 26.09.2019
1281 Haze 22 1014 46 3000 2.1 220 19:56 26.09.2019
1282 Haze 22 1014 46 3000 2.1 220 19:38 26.09.2019
1283 Haze 22 1013 55 6000 2.6 210 19:18 26.09.2019
1284 Haze 20 1014 55 3000 1.5 270 18:43 26.09.2019
1285 Haze 20 1014 55 3000 1.5 270 18:22 26.09.2019
1286 Haze 18 1015 67 2000 1.5 250 17:59 26.09.2019
1287 Haze 18 1015 67 2000 1.5 250 17:59 26.09.2019
1288 Haze 18 1015 67 2000 1.5 250 17:38 26.09.2019
1289 Haze 18 1015 67 2000 1.5 250 17:19 26.09.2019
1290 Mist 13 1016 87 2000 1 300 16:56 26.09.2019
1291 Mist 13 1016 87 2000 1 300 16:37 26.09.2019
1292 Mist 13 1016 87 2000 1 300 16:18 26.09.2019
1293 Fog 9 1017 93 800 0.5 250 15:42 26.09.2019
1294 Fog 11 1017 93 800 0.5 250 15:23 26.09.2019
1295 Fog 10 1016 100 200 1 40 14:59 26.09.2019
1296 Fog 10 1016 100 200 1 40 14:41 26.09.2019
1297 Fog 10 1016 100 200 1 40 14:41 26.09.2019
1298 Fog 9 1016 100 200 1 40 14:22 26.09.2019
1299 Fog 10 1015 87 200 1 190 13:57 26.09.2019
1300 Fog 9 1015 87 200 1 190 13:39 26.09.2019
1301 Fog 9 1015 87 200 1 190 13:19 26.09.2019
1302 Mist 9 1015 100 2000 1 0 12:44 26.09.2019
1303 Mist 9 1015 100 2000 1 0 12:23 26.09.2019
1304 Mist 9 1015 100 2000 1 0 11:57 26.09.2019
1305 Mist 9 1015 100 2000 1 0 11:39 26.09.2019
1306 Mist 9 1015 100 2000 1 0 11:39 26.09.2019
1307 Mist 9 1015 100 2000 1 0 11:19 26.09.2019
1308 Mist 9 1015 100 1500 2.1 160 11:19 26.09.2019
1309 Mist 9 1015 100 1500 2.1 160 10:42 26.09.2019
1310 Mist 9 1015 100 1500 2.1 160 10:24 26.09.2019
1311 Mist 10 1015 100 1500 4.1 160 09:59 26.09.2019
1312 Mist 10 1015 100 1500 4.1 160 09:40 26.09.2019
1313 Mist 10 1015 100 1500 4.1 160 09:20 26.09.2019
1314 Mist 10 1016 100 2500 4.1 170 08:51 26.09.2019
1315 Mist 10 1016 100 2500 4.1 170 08:31 26.09.2019
1316 Mist 11 1016 100 3000 4.1 170 07:48 26.09.2019
1317 Mist 11 1016 100 3000 4.1 170 07:23 26.09.2019
1318 Mist 11 1016 100 4000 4.6 150 06:56 26.09.2019
1319 Mist 11 1016 100 4000 4.6 150 06:29 26.09.2019
1320 Mist 12 1016 100 4000 5.1 160 06:00 26.09.2019
1321 Clouds 12 1016 87 6000 4.1 160 05:32 26.09.2019
1322 Clouds 13 1016 81 8000 4.1 160 04:56 26.09.2019
1323 Clear 18 1015 67 10000 5.7 150 02:34 26.09.2019
1324 Clear 19 1016 40 10000 2.1 250 01:48 26.09.2019
1325 Clear 19 1016 40 10000 2.1 250 01:26 26.09.2019
1326 Clear 24 1015 31 10000 2.6 240 00:46 26.09.2019
1327 Clear 24 1015 31 10000 2.6 240 00:28 26.09.2019
1328 Clear 25 1013 24 10000 6.2 170 23:44 25.09.2019
1329 Clear 27 1013 24 10000 6.2 170 23:25 25.09.2019
1330 Clear 27 1015 24 7000 3.1 270 22:56 25.09.2019
1331 Clear 26 1015 24 7000 3.1 270 22:37 25.09.2019
1332 Clear 26 1015 24 7000 3.1 270 22:37 25.09.2019
1333 Clear 26 1015 24 7000 3.1 270 22:19 25.09.2019
1334 Haze 27 1015 21 5000 2.6 230 21:56 25.09.2019
1335 Haze 27 1015 21 5000 2.6 230 21:56 25.09.2019
1336 Haze 27 1015 21 5000 2.6 230 21:37 25.09.2019
1337 Haze 27 1015 21 5000 2.6 230 21:18 25.09.2019
1338 Haze 26 1015 23 5000 1.5 320 20:56 25.09.2019
1339 Haze 26 1015 23 5000 1.5 320 20:37 25.09.2019
1340 Haze 25 1016 26 5000 2.1 270 20:19 25.09.2019
1341 Haze 27 1016 26 5000 2.1 270 19:41 25.09.2019
1342 Haze 27 1016 26 5000 2.1 270 19:21 25.09.2019
1343 Haze 26 1016 29 5000 2.1 200 18:57 25.09.2019
1344 Haze 26 1016 29 5000 2.1 200 18:57 25.09.2019
1345 Haze 26 1016 29 5000 2.1 200 18:38 25.09.2019
1346 Clear 22 1016 33 8000 1.5 220 18:20 25.09.2019
1347 -273 0 0 0 0 0 17:55 25.09.2019
1348 Clear 22 1016 33 8000 1.5 220 17:36 25.09.2019
1349 Clear 22 1016 33 8000 1.5 220 17:18 25.09.2019
1350 Clear 22 1016 37 8000 1 200 16:42 25.09.2019
1351 Clear 21 1016 37 8000 1 200 16:24 25.09.2019
1352 Haze 19 1017 44 10000 1 200 15:57 25.09.2019
1353 Haze 19 1017 44 10000 1 200 15:39 25.09.2019
1354 Haze 17 1017 44 10000 1 200 15:20 25.09.2019
1355 Smoke 14 1017 71 10000 1 20 14:43 25.09.2019
1356 Smoke 14 1017 71 10000 1 20 14:25 25.09.2019
1357 Smoke 12 1016 66 10000 1 20 13:58 25.09.2019
1358 Smoke 12 1016 66 10000 1 20 13:40 25.09.2019
1359 Clear 8 1015 87 6000 1 0 13:20 25.09.2019
1360 Clear 11 1015 87 6000 1 0 12:57 25.09.2019
1361 Clear 12 1015 87 6000 1 0 12:37 25.09.2019
1362 Clear 12 1015 81 7000 0.34 167.435 12:19 25.09.2019
1363 Clear 12 1015 81 7000 0.34 167.435 11:41 25.09.2019
1364 Clear 11 1015 81 7000 0.34 167.435 11:20 25.09.2019
1365 Clear 12 1016 81 8000 0.5 0 10:48 25.09.2019
1366 Clear 12 1016 81 8000 0.5 0 10:27 25.09.2019
1367 Clear 13 1016 81 10000 2.1 190 09:59 25.09.2019
1368 Clear 12 1016 81 10000 2.1 190 09:41 25.09.2019
1369 Clear 13 1016 81 10000 2.1 190 09:23 25.09.2019
1370 Clear 13 1016 76 10000 3.1 140 08:59 25.09.2019
1371 Clear 13 1016 76 10000 3.1 140 08:40 25.09.2019
1372 Clear 14 1016 76 10000 3.1 140 08:20 25.09.2019
1373 Clear 13 1017 81 10000 1.47 77.973 07:41 25.09.2019
1374 Clear 13 1017 81 10000 1.47 77.973 07:23 25.09.2019
1375 Clear 13 1017 81 10000 1.47 77.973 06:56 25.09.2019
1376 Clear 15 1017 71 10000 1.47 77.973 06:36 25.09.2019
1377 Clear 15 1017 67 10000 2.1 160 05:43 25.09.2019
1378 Clear 15 1017 67 10000 2.1 160 05:19 25.09.2019
1379 Clear 17 1017 59 10000 3.6 130 03:21 25.09.2019
1380 Clear 20 1017 37 10000 2.1 210 01:36 25.09.2019
1381 Clear 23 1016 29 10000 2.6 210 00:41 25.09.2019
1382 Clear 23 1016 29 10000 2.6 210 00:22 25.09.2019
1383 Clear 24 1016 36 10000 2.6 230 23:43 24.09.2019
1384 Clear 24 1016 36 10000 2.6 230 23:22 24.09.2019
1385 Clear 25 1016 36 10000 2.6 0 22:58 24.09.2019
1386 Clear 24 1016 36 10000 2.6 0 22:38 24.09.2019
1387 Clear 24 1016 36 10000 2.6 0 22:19 24.09.2019
1388 Clear 24 1016 36 10000 2.6 0 22:19 24.09.2019
1389 Clear 24 1015 36 8000 2.1 210 21:55 24.09.2019
1390 Clear 24 1015 36 8000 2.1 210 21:37 24.09.2019
1391 Clear 24 1015 36 8000 2.1 210 21:18 24.09.2019
1392 Clear 24 1017 35 7000 2.1 240 21:18 24.09.2019
1393 Clear 24 1017 35 7000 2.1 240 20:56 24.09.2019
1394 Clear 24 1017 35 7000 2.1 240 20:38 24.09.2019
1395 Clear 24 1017 35 7000 2.1 240 20:19 24.09.2019
1396 Clear 23 1017 35 6000 2.6 230 19:43 24.09.2019
1397 Clear 22 1016 37 10000 2.6 180 19:20 24.09.2019
1398 Clear 22 1016 37 10000 2.6 180 18:58 24.09.2019
1399 Clear 21 1017 40 7000 2.1 280 18:39 24.09.2019
1400 Clear 21 1017 40 7000 2.1 280 18:20 24.09.2019
1401 Clear 21 1017 40 7000 2.1 280 18:20 24.09.2019
1402 Clear 20 1017 48 8000 2.1 240 17:57 24.09.2019
1403 Clear 20 1017 48 8000 2.1 240 17:38 24.09.2019
1404 Clear 20 1017 48 8000 2.1 240 17:19 24.09.2019
1405 Clear 18 1017 59 10000 2.1 210 16:42 24.09.2019
1406 Clear 15 1017 59 10000 2.1 210 16:21 24.09.2019
1407 Clear 14 1017 58 10000 0.5 210 15:59 24.09.2019
1408 Clear 15 1017 58 10000 0.5 210 15:41 24.09.2019
1409 Clear 14 1017 58 10000 0.5 210 15:22 24.09.2019
1410 Clear 13 1017 71 10000 0.5 300 14:40 24.09.2019
1411 Clear 12 1017 71 10000 0.5 300 14:19 24.09.2019
1412 Clear 9 1017 75 10000 0.5 50 13:45 24.09.2019
1413 Clear 9 1017 75 10000 0.5 50 13:24 24.09.2019
1414 Clear 7 1016 86 10000 1.5 0 12:59 24.09.2019
1415 Clear 7 1016 86 10000 1.5 0 12:39 24.09.2019
1416 Clear 8 1016 93 10000 0.26 256.018 12:18 24.09.2019
1417 Clear 8 1016 93 10000 0.26 256.018 12:18 24.09.2019
1418 Clear 8 1016 93 10000 0.26 256.018 11:42 24.09.2019
1419 Clear 9 1016 93 10000 0.26 256.018 11:21 24.09.2019
1420 Clear 9 1016 87 10000 2.1 170 10:56 24.09.2019
1421 Clear 9 1016 87 10000 2.1 170 10:36 24.09.2019
1422 Clear 9 1016 87 10000 2.1 170 10:18 24.09.2019
1423 Clear 10 1016 81 10000 3.1 170 09:45 24.09.2019
1424 Clear 10 1016 81 10000 3.1 170 09:27 24.09.2019
1425 Clear 10 1017 81 10000 2.6 160 08:57 24.09.2019
1426 Clear 10 1017 81 10000 2.6 160 08:38 24.09.2019
1427 Clear 10 1017 81 10000 2.6 160 08:19 24.09.2019
1428 Clear 10 1017 81 10000 2.6 160 08:19 24.09.2019
1429 Clear 11 1017 76 10000 2.1 160 07:47 24.09.2019
1430 Clear 11 1017 76 10000 2.1 160 07:25 24.09.2019
1431 Clear 11 1018 76 10000 2.6 160 06:56 24.09.2019
1432 Clear 11 1018 76 10000 2.6 160 06:32 24.09.2019
1433 Clear 12 1018 71 10000 2.1 150 05:51 24.09.2019
1434 Clear 12 1018 71 10000 2.1 150 05:20 24.09.2019
1435 Clear 14 1017 58 10000 5.1 150 03:44 24.09.2019
1436 Clear 16 1017 55 10000 3.1 160 02:48 24.09.2019
1437 Clear 17 1017 55 10000 3.1 160 02:30 24.09.2019
1438 Clear 20 1018 37 10000 2.6 250 00:44 24.09.2019
1439 Clear 21 1018 37 10000 2.6 250 00:26 24.09.2019
1440 Clear 22 1016 37 10000 4.6 200 23:58 23.09.2019
1441 Clear 22 1018 33 10000 3.1 240 23:40 23.09.2019
1442 Clear 22 1018 33 10000 3.1 240 23:20 23.09.2019
1443 Clear 22 1017 35 10000 3.1 230 22:39 23.09.2019
1444 Clear 22 1017 35 10000 3.1 230 22:21 23.09.2019
1445 Clear 23 1018 35 10000 2.6 0 21:58 23.09.2019
1446 Clear 22 1018 35 10000 2.6 0 21:40 23.09.2019
1447 Clear 23 1018 35 10000 2.6 0 21:19 23.09.2019
1448 Clear 22 1019 40 8000 3.6 240 20:55 23.09.2019
1449 Clear 22 1019 40 8000 3.6 240 20:36 23.09.2019
1450 Clear 22 1019 40 8000 3.6 240 20:18 23.09.2019
1451 Clear 22 1019 40 8000 3.6 240 20:18 23.09.2019
1452 Clear 21 1019 42 7000 2.6 230 19:39 23.09.2019
1453 Clear 20 1018 45 10000 3.1 190 19:21 23.09.2019
1454 Clear 20 1018 45 10000 3.1 190 18:57 23.09.2019
1455 Clear 19 1020 42 8000 1.5 0 18:38 23.09.2019
1456 Clear 17 1020 54 7000 2.1 0 18:18 23.09.2019
1457 Clear 17 1020 54 7000 2.1 0 17:56 23.09.2019
1458 Clear 17 1020 54 7000 2.1 0 17:37 23.09.2019
1459 Clear 17 1020 54 7000 2.1 0 17:18 23.09.2019
1460 Haze 14 1021 76 5000 2.1 240 16:40 23.09.2019
1461 Haze 12 1021 76 5000 2.1 240 16:22 23.09.2019
1462 Haze 11 1020 87 6000 3.1 170 15:59 23.09.2019
1463 Haze 12 1020 81 5000 3.1 240 15:41 23.09.2019
1464 Haze 11 1020 81 5000 3.1 240 15:20 23.09.2019
1465 Haze 11 1020 81 5000 3.1 240 15:20 23.09.2019
1466 Mist 10 1019 81 10000 1 240 14:59 23.09.2019
1467 Mist 10 1019 81 10000 1 240 14:39 23.09.2019
1468 Mist 10 1019 81 10000 1 240 14:19 23.09.2019
1469 Mist 9 1019 75 10000 0.71 318.487 13:58 23.09.2019
1470 Mist 9 1019 75 10000 0.71 318.487 13:37 23.09.2019
1471 Mist 9 1019 100 3000 2.6 160 13:18 23.09.2019
1472 Mist 7 1018 100 4000 3.6 170 12:41 23.09.2019
1473 Mist 7 1018 100 4000 3.6 170 12:22 23.09.2019
1474 Mist 7 1018 100 4000 3.6 170 11:55 23.09.2019
1475 Clouds 8 1018 100 7000 3.6 180 11:37 23.09.2019
1476 Clouds 8 1018 100 7000 3.6 180 11:19 23.09.2019
1477 Clouds 8 1017 87 8000 2.1 170 10:48 23.09.2019
1478 Clouds 9 1017 87 8000 2.1 170 10:21 23.09.2019
1479 Clear 9 1017 87 10000 4.1 160 09:55 23.09.2019
1480 Clear 9 1017 87 10000 4.1 160 09:37 23.09.2019
1481 Clear 9 1017 87 10000 4.1 160 09:19 23.09.2019
1482 Clear 10 1017 87 10000 4.6 160 08:42 23.09.2019
1483 Clear 10 1017 87 10000 4.6 160 08:22 23.09.2019
1484 Clear 11 1017 76 10000 4.1 160 07:47 23.09.2019
1485 Clear 11 1017 76 10000 4.1 160 07:24 23.09.2019
1486 Clear 12 1017 71 10000 2.6 170 06:21 23.09.2019
1487 Clear 12 1017 66 10000 3.1 160 05:46 23.09.2019
1488 Clear 13 1017 66 10000 3.1 160 05:19 23.09.2019
1489 Clear 13 1017 62 10000 5.1 150 04:53 23.09.2019
1490 Clear 16 1016 55 10000 5.7 170 02:36 23.09.2019
1491 Clear 23 1017 31 10000 3.1 240 00:42 23.09.2019
1492 Clear 23 1017 31 10000 3.1 240 00:22 23.09.2019
1493 Clear 24 1016 58 10000 3.1 210 23:50 22.09.2019
1494 Clear 24 1016 58 10000 3.1 210 23:32 22.09.2019
1495 Clear 26 1016 58 10000 3.6 220 22:57 22.09.2019
1496 Clear 25 1016 58 10000 3.6 220 22:38 22.09.2019
1497 Clear 25 1016 58 10000 3.6 220 22:20 22.09.2019
1498 Clear 26 1017 15 10000 3.6 240 21:43 22.09.2019
1499 Clear 26 1017 15 10000 3.6 240 21:43 22.09.2019
1500 Clear 26 1017 15 10000 3.6 240 21:22 22.09.2019
1501 Clear 25 1017 14 10000 1.5 220 20:55 22.09.2019
1502 Clear 25 1017 14 10000 1.5 220 20:36 22.09.2019
1503 Clear 25 1017 14 10000 1.5 220 20:18 22.09.2019
1504 Clear 25 1017 14 10000 2.1 260 19:41 22.09.2019
1505 Clear 25 1017 14 10000 2.1 260 19:22 22.09.2019
1506 Clear 24 1016 17 10000 3.6 180 18:59 22.09.2019
1507 Clear 24 1018 17 10000 2.1 270 18:39 22.09.2019
1508 Clear 24 1018 17 10000 2.1 270 18:39 22.09.2019
1509 Clear 21 1018 18 10000 2.1 240 18:19 22.09.2019
1510 Clear 21 1018 18 10000 2.1 240 17:57 22.09.2019
1511 Clear 21 1018 18 10000 2.1 240 17:39 22.09.2019
1512 Clear 21 1018 18 10000 2.1 240 17:18 22.09.2019
1513 Clear 20 1018 22 10000 1.99 234.019 16:44 22.09.2019
1514 Clear 20 1018 22 10000 1.99 234.019 16:25 22.09.2019
1515 Clear 18 1018 26 10000 1.99 234.019 15:47 22.09.2019
1516 Clear 18 1018 26 10000 1.99 234.019 15:29 22.09.2019
1517 Clear 13 1018 45 10000 0.25 247.81 14:59 22.09.2019
1518 Clear 13 1018 45 10000 0.25 247.81 14:59 22.09.2019
1519 Clear 15 1018 45 10000 0.25 247.81 14:40 22.09.2019
1520 Clear 10 1018 45 10000 0.25 247.81 14:22 22.09.2019
1521 Clear 13 1017 45 10000 1 30 13:55 22.09.2019
1522 Clear 12 1017 45 10000 1 30 13:36 22.09.2019
1523 Clear 13 1017 56 10000 0.22 229.427 13:18 22.09.2019
1524 Clear 12 1017 56 10000 0.22 229.427 12:42 22.09.2019
1525 Clear 8 1017 56 10000 0.67 276.189 12:22 22.09.2019
1526 Clear 10 1016 52 10000 0.67 276.189 11:56 22.09.2019
1527 Clear 10 1016 52 10000 0.67 276.189 11:38 22.09.2019
1528 Clear 10 1016 49 10000 0.67 276.189 11:19 22.09.2019
1529 Clear 11 1016 49 10000 0.67 276.189 10:44 22.09.2019
1530 Clear 8 1016 49 10000 0.67 276.189 10:20 22.09.2019
1531 Clear 9 1016 39 10000 0.67 276.189 09:57 22.09.2019
1532 Clear 9 1016 39 10000 0.67 276.189 09:38 22.09.2019
1533 Clear 9 1016 39 10000 0.11 353.437 09:19 22.09.2019
1534 Clear 10 1016 43 10000 0.13 300.735 08:44 22.09.2019
1535 Clear 10 1016 43 10000 0.13 300.735 08:24 22.09.2019
1536 Clear 13 1016 32 10000 0.13 300.735 07:54 22.09.2019
1537 Clear 13 1016 32 10000 0.13 300.735 07:36 22.09.2019
1538 Clear 13 1016 32 10000 0.13 300.735 07:18 22.09.2019
1539 Clear 12 1017 34 10000 1 0 06:46 22.09.2019
1540 Clear 13 1017 32 10000 0.95 67.906 05:23 22.09.2019
1541 Clear 18 1016 20 10000 2.6 150 02:59 22.09.2019
1542 Clear 21 1016 20 10000 2.6 150 02:36 22.09.2019
1543 Clear 21 1016 20 10000 2.6 150 02:18 22.09.2019
1544 Clear 22 1016 19 10000 3.6 210 00:57 22.09.2019
1545 Clear 24 1017 11 10000 3.1 200 00:33 22.09.2019
1546 Clear 24 1015 14 10000 6.7 170 23:57 21.09.2019
1547 Clear 24 1016 11 10000 3.1 210 23:39 21.09.2019
1548 Clear 25 1016 10 10000 2.1 190 22:59 21.09.2019
1549 Clear 24 1016 10 10000 2.1 190 22:38 21.09.2019
1550 Clear 24 1016 11 10000 2.1 230 22:20 21.09.2019
1551 Clear 24 1016 10 10000 2.1 190 22:20 21.09.2019
1552 Clear 24 1016 11 10000 2.1 230 21:42 21.09.2019
1553 Clear 25 1016 11 10000 2.1 230 21:20 21.09.2019
1554 Clear 24 1017 15 10000 2.1 220 20:58 21.09.2019
1555 Clear 24 1017 15 10000 2.1 220 20:38 21.09.2019
1556 Clear 24 1017 15 10000 2.1 220 20:38 21.09.2019
1557 Clear 24 1017 15 10000 2.1 220 20:19 21.09.2019
1558 Clear 24 1017 16 10000 2.1 280 19:46 21.09.2019
1559 Clear 22 1016 13 10000 2.1 150 19:22 21.09.2019
1560 Clear 21 1018 19 10000 1.5 280 18:42 21.09.2019
1561 Clear 21 1018 19 10000 1.5 280 18:22 21.09.2019
1562 Clear 21 1017 15 10000 1 0 17:56 21.09.2019
1563 Clear 19 1019 20 10000 1.5 270 17:38 21.09.2019
1564 Clear 19 1019 20 10000 1.5 270 17:19 21.09.2019
1565 Clear 17 1019 26 10000 1.5 190 16:42 21.09.2019
1566 Clear 17 1019 26 10000 1.5 190 16:24 21.09.2019
1567 Clear 15 1019 34 10000 1.36 136.074 15:45 21.09.2019
1568 Clear 10 1019 34 10000 1.36 136.074 15:25 21.09.2019
1569 Clear 10 1019 60 10000 2.18 78.328 14:50 21.09.2019
1570 Clear 9 1019 60 10000 2.18 78.328 14:32 21.09.2019
1571 Clear 8 1019 48 10000 2.18 78.328 13:57 21.09.2019
1572 Clear 8 1019 48 10000 2.18 78.328 13:39 21.09.2019
1573 Clear 7 1019 55 10000 1.98 78.792 13:20 21.09.2019
1574 Clear 6 1019 55 10000 1.98 78.792 12:55 21.09.2019
1575 Clear 5 1019 59 10000 1.5 30 12:37 21.09.2019
1576 Clear 5 1019 55 10000 1 0 12:19 21.09.2019
1577 Clear 5 1019 55 10000 1 0 12:19 21.09.2019
1578 Clear 6 1019 55 10000 1 0 11:43 21.09.2019
1579 Clear 5 1019 55 10000 1 0 11:24 21.09.2019
1580 Clear 7 1019 48 10000 1 0 10:45 21.09.2019
1581 Clear 7 1019 48 10000 1 0 10:25 21.09.2019
1582 Clear 7 1019 52 10000 1.76 82.354 09:59 21.09.2019
1583 Clear 7 1019 52 10000 1.76 82.354 09:39 21.09.2019
1584 Clear 7 1019 52 10000 2 74.534 09:20 21.09.2019
1585 Clear 8 1020 49 10000 2 74.534 08:52 21.09.2019
1586 Clear 9 1020 49 10000 2.15 74.242 08:29 21.09.2019
1587 Clear 9 1020 42 10000 1 0 07:42 21.09.2019
1588 Clear 9 1020 42 10000 1 0 07:24 21.09.2019
1589 Clear 9 1020 39 10000 2.15 74.242 06:58 21.09.2019
1590 Clear 10 1020 39 10000 2.15 74.242 06:33 21.09.2019
1591 Clear 11 1021 34 10000 2.1 200 05:36 21.09.2019
1592 Clear 11 1021 34 10000 2.1 200 05:36 21.09.2019
1593 Clear 14 1021 30 10000 5.1 190 04:37 21.09.2019
1594 Clear 13 1021 28 10000 4.1 160 03:22 21.09.2019
1595 Clear 16 1021 24 10000 4.1 200 02:21 21.09.2019
1596 Clear 17 1022 17 10000 1.5 190 01:46 21.09.2019
1597 Clear 20 1021 14 10000 2.6 220 00:52 21.09.2019
1598 Clear 19 1021 14 10000 2.6 220 00:20 21.09.2019
1599 Clear 20 1020 13 10000 3.1 200 23:46 20.09.2019
1600 Clear 20 1020 13 10000 3.1 200 23:28 20.09.2019
1601 Clear 20 1021 14 10000 3.1 210 22:42 20.09.2019
1602 Clear 21 1021 14 10000 3.1 210 22:24 20.09.2019
1603 Clear 20 1021 16 10000 3.1 210 21:57 20.09.2019
1604 Clear 20 1021 16 10000 3.1 210 21:38 20.09.2019
1605 Clear 20 1021 16 10000 3.1 210 21:20 20.09.2019
1606 Clear 19 1022 22 10000 3.1 0 20:57 20.09.2019
1607 Clear 19 1022 22 10000 3.1 0 20:38 20.09.2019
1608 Clear 19 1022 22 10000 3.1 0 20:38 20.09.2019
1609 Clear 19 1022 22 10000 3.1 0 20:19 20.09.2019
1610 Clear 19 1022 41 10000 2.6 200 19:45 20.09.2019
1611 Clear 18 1022 41 10000 2.6 200 19:26 20.09.2019
1612 Clear 18 1022 25 10000 3.6 170 18:58 20.09.2019
1613 Clear 17 1023 36 10000 1.5 210 18:38 20.09.2019
1614 Clear 17 1023 36 10000 1.5 210 18:38 20.09.2019
1615 Clear 16 1023 43 10000 2.1 260 18:18 20.09.2019
1616 Clear 16 1023 43 10000 2.1 260 17:45 20.09.2019
1617 Clear 16 1023 43 10000 2.1 260 17:45 20.09.2019
1618 Clear 16 1023 43 10000 2.1 260 17:45 20.09.2019
1619 Clear 14 1023 43 10000 2.1 260 17:26 20.09.2019
1620 Clear 14 1023 48 10000 1.14 190.789 16:44 20.09.2019
1621 Clear 14 1023 48 10000 1.14 190.789 16:23 20.09.2019
1622 Clear 12 1023 61 10000 1.14 190.789 15:59 20.09.2019
1623 Clear 12 1023 61 10000 1.14 190.789 15:41 20.09.2019
1624 Clear 8 1023 61 10000 1.23 91.439 15:22 20.09.2019
1625 Clear 8 1023 61 10000 1.23 91.439 15:22 20.09.2019
1626 Clear 7 1023 80 10000 1.23 91.439 14:44 20.09.2019
1627 Clear 7 1023 80 10000 1.23 91.439 14:44 20.09.2019
1628 Clear 5 1023 80 10000 1.23 91.439 14:20 20.09.2019
1629 Clear 5 1023 80 10000 1.23 91.439 14:20 20.09.2019
1630 Clear 10 936 96 0 1.23 91.439 13:57 20.09.2019
1631 Clear 9 936 98 0 1.23 91.439 13:38 20.09.2019
1632 Clear 6 1022 65 10000 1.5 50 13:20 20.09.2019
1633 Clear 5 1022 65 10000 1.5 50 12:38 20.09.2019
1634 Clear 5 1022 65 10000 1.5 50 12:19 20.09.2019
1635 Clear 5 1022 65 10000 1.5 50 11:50 20.09.2019
1636 Clear 5 1022 65 10000 1 0 11:25 20.09.2019
1637 Clear 5 1022 64 10000 1 0 10:58 20.09.2019
1638 Clear 5 1022 64 10000 1 0 10:39 20.09.2019
1639 Clear 5 1022 64 10000 1 0 10:20 20.09.2019
1640 Clear 6 1022 84 10000 2.6 180 09:38 20.09.2019
1641 Clear 6 1022 82 10000 2.6 180 09:18 20.09.2019
1642 Clear 7 1022 82 10000 3.1 160 08:47 20.09.2019
1643 Clear 7 1022 82 10000 3.1 160 08:27 20.09.2019
1644 Clear 8 1023 49 10000 5.1 180 07:51 20.09.2019
1645 Clear 7 1023 49 10000 5.1 180 07:29 20.09.2019
1646 Clear 8 1022 49 10000 5.1 170 06:50 20.09.2019
1647 Clear 9 1022 49 10000 5.1 170 06:32 20.09.2019
1648 Clear 9 1022 49 10000 5.1 170 05:58 20.09.2019
1649 Clear 10 1022 50 10000 2.6 140 04:28 20.09.2019
1650 Clouds 12 1022 50 10000 4.6 200 03:26 20.09.2019
1651 Clouds 13 1021 47 10000 3.1 230 01:50 20.09.2019
1652 Clouds 13 1021 47 10000 3.1 230 01:31 20.09.2019
1653 Clouds 14 1020 41 10000 3.6 220 00:32 20.09.2019
1654 Clouds 15 1020 44 10000 3.6 210 23:46 19.09.2019
1655 Clouds 15 1020 44 10000 3.6 210 23:27 19.09.2019
1656 Clouds 17 1019 51 8000 4.1 210 22:58 19.09.2019
1657 Clouds 17 1019 51 8000 4.1 210 22:38 19.09.2019
1658 Clouds 17 1019 51 8000 4.1 210 22:20 19.09.2019
1659 Clouds 17 1019 48 8000 3.6 220 21:56 19.09.2019
1660 Clouds 18 1019 48 8000 3.6 220 21:38 19.09.2019
1661 Clouds 17 1019 48 8000 3.6 220 21:19 19.09.2019
1662 Clouds 17 1019 48 8000 1.5 60 20:43 19.09.2019
1663 Clouds 17 1019 48 8000 1.5 60 20:23 19.09.2019
1664 Clouds 17 1020 62 8000 2.06 260.854 19:57 19.09.2019
1665 Clouds 16 1020 62 8000 2.06 260.854 19:39 19.09.2019
1666 Clouds 16 1020 62 8000 2.06 260.854 19:21 19.09.2019
1667 Clouds 15 1020 62 8000 1 280 18:56 19.09.2019
1668 Clouds 15 1020 62 8000 1 280 18:38 19.09.2019
1669 Clouds 13 1019 58 10000 3.6 170 18:18 19.09.2019
1670 Clouds 13 1020 66 8000 1.5 230 17:42 19.09.2019
1671 Clouds 12 1020 66 8000 1.5 230 17:23 19.09.2019
1672 Clouds 13 1019 71 8000 1.5 190 16:58 19.09.2019
1673 Clouds 14 1019 71 8000 1.5 190 16:39 19.09.2019
1674 Clouds 13 1019 71 8000 1.5 190 16:19 19.09.2019
1675 Clouds 13 1019 70 7000 1.46 243.576 15:39 19.09.2019
1676 Clouds 11 1019 70 7000 1.11 286.541 15:20 19.09.2019
1677 Clouds 10 1018 76 7000 1.11 286.541 14:42 19.09.2019
1678 Clouds 10 1018 76 7000 1.11 286.541 14:24 19.09.2019
1679 Clouds 9 1017 71 7000 1 230 13:59 19.09.2019
1680 Clouds 9 1017 71 7000 1 230 13:40 19.09.2019
1681 Clouds 8 1017 81 10000 0.5 200 13:20 19.09.2019
1682 Clouds 8 1017 81 10000 0.5 200 12:40 19.09.2019
1683 Clouds 9 1016 81 10000 2.1 140 12:20 19.09.2019
1684 Clouds 8 1016 81 10000 2.1 140 11:58 19.09.2019
1685 Clouds 8 1016 81 10000 2.1 140 11:39 19.09.2019
1686 Clouds 9 1016 81 10000 2.1 140 11:21 19.09.2019
1687 Clear 8 1016 81 10000 2.6 160 10:56 19.09.2019
1688 Clear 8 1016 81 10000 2.6 160 10:56 19.09.2019
1689 Clear 8 1016 81 10000 2.6 160 10:36 19.09.2019
1690 Clear 9 1016 81 10000 2.6 160 10:18 19.09.2019
1691 Clear 9 1016 81 10000 1 0 09:42 19.09.2019
1692 Clear 9 1016 81 10000 1 0 09:22 19.09.2019
1693 Clear 10 1016 76 10000 0.5 0 08:56 19.09.2019
1694 Clear 10 1016 76 10000 0.5 0 08:56 19.09.2019
1695 Clear 9 1016 76 10000 0.5 0 08:29 19.09.2019
1696 Clear 10 1015 81 10000 2.1 140 07:58 19.09.2019
1697 Clear 10 1015 81 10000 2.1 140 07:40 19.09.2019
1698 Clear 10 1015 81 10000 2.1 140 07:21 19.09.2019
1699 Clear 10 1014 76 10000 2.1 160 06:45 19.09.2019
1700 Clear 10 1014 76 10000 2.1 160 06:27 19.09.2019
1701 Clear 11 1014 71 10000 2.1 160 05:51 19.09.2019
1702 Clear 12 1013 66 10000 3.1 170 04:43 19.09.2019
1703 Clear 14 1013 62 10000 3.1 140 03:51 19.09.2019
1704 Clear 15 1012 58 10000 5.7 200 02:30 19.09.2019
1705 Clear 16 1014 51 10000 2.6 240 01:23 19.09.2019
1706 Clear 18 1014 39 10000 3.1 240 00:49 19.09.2019
1707 Clear 18 1014 39 10000 3.1 240 00:25 19.09.2019
1708 Clear 18 1014 39 10000 3.1 240 00:25 19.09.2019
1709 Clear 20 1013 39 10000 3.1 230 23:39 18.09.2019
1710 Clear 20 1013 39 10000 3.1 230 23:21 18.09.2019
1711 Clear 21 1014 40 10000 2.6 230 22:44 18.09.2019
1712 Clear 21 1014 40 10000 2.6 230 22:23 18.09.2019
1713 Clear 21 1014 37 8000 1.5 190 21:59 18.09.2019
1714 Clear 21 1014 37 8000 1.5 190 21:40 18.09.2019
1715 Clear 21 1014 37 8000 1.5 190 21:19 18.09.2019
1716 Clear 20 1013 37 10000 4.6 170 20:58 18.09.2019
1717 Clear 20 1015 42 10000 1.5 210 20:40 18.09.2019
1718 Clear 20 1014 37 10000 3.1 190 20:22 18.09.2019
1719 Clear 20 1014 37 10000 3.1 190 19:58 18.09.2019
1720 Clear 20 1014 37 10000 3.1 190 19:58 18.09.2019
1721 Clear 19 1016 45 10000 2.6 270 19:40 18.09.2019
1722 Clear 19 1015 42 10000 3.1 0 19:19 18.09.2019
1723 Clear 19 1015 42 10000 3.1 0 18:56 18.09.2019
1724 Clear 18 1016 48 10000 2.1 230 18:37 18.09.2019
1725 Clear 18 1016 48 10000 2.1 230 18:37 18.09.2019
1726 Clear 17 1016 48 10000 2.1 230 18:19 18.09.2019
1727 Clear 17 1016 50 10000 1.5 20 17:58 18.09.2019
1728 Clear 16 1016 50 10000 1.5 20 17:39 18.09.2019
1729 Clear 14 1017 62 10000 1 150 17:19 18.09.2019
1730 Clear 14 1017 62 10000 1 150 17:19 18.09.2019
1731 Clear 15 1017 62 10000 1 150 16:56 18.09.2019
1732 Clear 15 1017 62 10000 1 150 16:38 18.09.2019
1733 Clear 15 1017 62 10000 1 150 16:18 18.09.2019
1734 Clear 13 1017 66 10000 1 180 15:55 18.09.2019
1735 Clear 14 1017 66 10000 1 180 15:55 18.09.2019
1736 Clear 13 1017 66 10000 1 180 15:37 18.09.2019
1737 Clear 13 1017 66 10000 1 180 15:37 18.09.2019
1738 Clear 11 1017 66 10000 1 180 15:18 18.09.2019
1739 Clear 9 1018 70 10000 0.84 120.041 14:57 18.09.2019
1740 Clear 9 1018 70 10000 0.84 120.041 14:38 18.09.2019
1741 Clear 9 1018 70 10000 0.84 120.041 14:20 18.09.2019
1742 Clear 7 1018 75 10000 1 150 13:43 18.09.2019
1743 Clear 6 1019 80 10000 1.02 103.724 13:19 18.09.2019
1744 Clear 5 1019 80 10000 1.02 103.724 12:55 18.09.2019
1745 Clear 6 1019 80 10000 1.02 103.724 12:37 18.09.2019
1746 Clear 6 1019 80 10000 0.73 94.848 12:18 18.09.2019
1747 Clear 6 1019 80 8000 2.1 330 11:39 18.09.2019
1748 Clear 6 1019 80 8000 2.1 330 11:19 18.09.2019
1749 Clear 7 1019 81 10000 2.1 150 10:41 18.09.2019
1750 Clear 7 1019 81 10000 2.1 150 10:22 18.09.2019
1751 Clear 7 1020 81 10000 1 0 09:59 18.09.2019
1752 Clear 7 1020 81 10000 1 0 09:41 18.09.2019
1753 Clear 7 1020 81 10000 1 0 09:22 18.09.2019
1754 Clear 8 1021 75 10000 2.6 160 08:55 18.09.2019
1755 Clear 8 1021 75 10000 2.6 160 08:37 18.09.2019
1756 Clear 8 1021 75 10000 2.6 160 08:18 18.09.2019
1757 Clear 8 1021 75 10000 0.5 0 07:41 18.09.2019
1758 Clear 8 1021 75 10000 0.5 0 07:23 18.09.2019
1759 Clear 8 1020 66 10000 0.5 0 06:41 18.09.2019
1760 Clear 9 1021 66 10000 2.1 150 05:58 18.09.2019
1761 Clear 9 1021 66 10000 2.1 150 05:22 18.09.2019
1762 Clear 11 1020 58 10000 3.6 150 03:25 18.09.2019
1763 Clear 12 1019 54 10000 5.7 200 02:40 18.09.2019
1764 Clear 14 1019 51 10000 2.1 240 01:35 18.09.2019
1765 Clear 14 1018 54 10000 5.7 210 00:51 18.09.2019
1766 Clouds 15 1019 48 10000 3.6 240 00:28 18.09.2019
1767 Clear 17 1018 45 10000 3.1 250 23:47 17.09.2019
1768 Clear 17 1018 45 10000 3.1 250 23:23 17.09.2019
1769 Clouds 18 1018 39 10000 4.1 220 22:45 17.09.2019
1770 Clouds 18 1018 39 10000 4.1 220 22:25 17.09.2019
1771 Clouds 18 1018 39 10000 4.1 230 21:56 17.09.2019
1772 Clouds 18 1018 39 10000 4.1 230 21:37 17.09.2019
1773 Clouds 18 1018 39 10000 4.1 230 21:19 17.09.2019
1774 Clouds 18 1018 39 10000 4.1 230 21:19 17.09.2019
1775 Clouds 18 1018 42 10000 3.6 230 20:59 17.09.2019
1776 Clouds 18 1018 42 10000 3.6 230 20:41 17.09.2019
1777 Clouds 18 1018 42 10000 3.6 230 20:22 17.09.2019
1778 Clouds 18 1018 42 10000 3.6 230 20:22 17.09.2019
1779 Clear 18 1018 39 10000 2.1 210 19:59 17.09.2019
1780 Clear 19 1018 39 10000 2.1 210 19:39 17.09.2019
1781 Clear 18 1018 48 10000 4.6 190 19:20 17.09.2019
1782 Clear 18 1018 48 10000 4.6 190 18:58 17.09.2019
1783 Clear 18 1018 48 10000 4.6 190 18:58 17.09.2019
1784 Clear 18 1019 45 10000 2.6 220 18:40 17.09.2019
1785 Clear 16 1019 45 10000 2.6 220 18:21 17.09.2019
1786 Clear 15 1019 50 10000 1.5 230 17:46 17.09.2019
1787 Clear 14 1019 50 10000 1.5 230 17:21 17.09.2019
1788 Clear 14 1019 50 10000 1.5 230 17:21 17.09.2019
1789 Clear 15 1019 54 10000 2.1 270 16:59 17.09.2019
1790 Clear 15 1019 54 10000 2.1 270 16:40 17.09.2019
1791 Clear 15 1019 54 10000 2.1 270 16:22 17.09.2019
1792 Clear 14 1019 54 10000 1.5 230 15:54 17.09.2019
1793 Clear 14 1019 54 10000 1.5 230 15:36 17.09.2019
1794 Clear 10 1019 66 10000 1 50 15:18 17.09.2019
1795 Clear 10 1019 66 10000 1 50 14:54 17.09.2019
1796 Clear 10 1019 66 10000 1 50 14:36 17.09.2019
1797 Clear 9 1019 66 10000 1 50 14:18 17.09.2019
1798 Clear 8 1018 76 10000 1 20 13:41 17.09.2019
1799 Clear 8 1018 76 10000 1 20 13:22 17.09.2019
1800 Clear 6 1017 80 10000 0.5 190 12:43 17.09.2019
1801 Clear 7 1016 75 10000 1 0 12:20 17.09.2019
1802 Clear 6 1016 75 10000 1 0 11:58 17.09.2019
1803 Clear 6 1016 75 10000 1 0 11:58 17.09.2019
1804 Clear 6 1016 75 10000 1 0 11:40 17.09.2019
1805 Clear 6 1016 75 10000 1 0 11:18 17.09.2019
1806 Clear 6 1016 75 10000 1 0 11:18 17.09.2019
1807 Clear 9 1016 66 10000 2.6 140 10:42 17.09.2019
1808 Clear 8 1016 66 10000 2.6 140 10:22 17.09.2019
1809 Clear 8 1016 70 10000 3.6 160 09:58 17.09.2019
1810 Clear 8 1016 70 10000 3.6 160 09:39 17.09.2019
1811 Clear 8 1016 70 10000 3.6 160 09:19 17.09.2019
1812 Clear 10 1016 57 10000 3.1 150 08:44 17.09.2019
1813 Clear 10 1016 57 10000 3.1 150 08:25 17.09.2019
1814 Clear 10 1016 57 10000 2.1 160 07:46 17.09.2019
1815 Clear 10 1016 57 10000 2.1 160 07:28 17.09.2019
1816 Clear 10 1016 57 10000 2.1 160 06:59 17.09.2019
1817 Clear 10 1016 57 10000 2.6 160 06:40 17.09.2019
1818 Clear 11 1016 57 10000 2.6 160 05:58 17.09.2019
1819 Clear 12 1016 54 10000 4.1 180 05:33 17.09.2019
1820 Clear 13 1016 50 10000 2.6 130 04:20 17.09.2019
1821 Clear 15 1015 44 10000 3.6 200 02:41 17.09.2019
1822 Clear 16 1015 44 10000 4.6 230 01:53 17.09.2019
1823 Clear 19 1016 32 10000 2.6 210 00:59 17.09.2019
1824 Clear 19 1015 39 10000 5.1 230 23:57 16.09.2019
1825 Clear 20 1016 30 10000 2.1 240 23:36 16.09.2019
1826 Clear 20 1016 30 10000 2.1 240 23:36 16.09.2019
1827 Clear 20 1016 30 10000 2.1 240 23:36 16.09.2019
1828 Clear 20 1016 30 10000 2.1 240 23:18 16.09.2019
1829 Clear 20 1017 34 10000 2.1 240 22:42 16.09.2019
1830 Clear 20 1017 34 10000 2.1 240 22:42 16.09.2019
1831 Clear 20 1017 34 10000 2.1 240 22:24 16.09.2019
1832 Clear 20 1017 42 10000 1.5 210 21:59 16.09.2019
1833 Clear 20 1017 42 10000 1.5 210 21:59 16.09.2019
1834 Clear 19 1017 42 10000 1.5 210 21:38 16.09.2019
1835 Clear 19 1017 42 10000 1.5 210 21:20 16.09.2019
1836 Clear 18 1018 48 10000 1.5 90 20:55 16.09.2019
1837 Clear 18 1018 48 10000 1.5 90 20:37 16.09.2019
1838 Clear 17 1020 51 10000 1.5 60 20:18 16.09.2019
1839 Clear 17 1020 51 10000 1.5 60 19:54 16.09.2019
1840 Clear 17 1020 51 10000 1.5 60 19:54 16.09.2019
1841 Clear 17 1020 51 10000 1.5 60 19:36 16.09.2019
1842 Clear 17 1020 51 10000 1.5 60 19:36 16.09.2019
1843 Clear 16 1019 44 10000 2.1 0 19:18 16.09.2019
1844 Clouds 15 1020 58 10000 1.5 230 18:42 16.09.2019
1845 Clouds 14 1020 58 10000 1.5 230 18:24 16.09.2019
1846 Clouds 12 1021 66 10000 1.5 180 17:43 16.09.2019
1847 Clouds 12 1021 66 10000 1.5 180 17:24 16.09.2019
1848 Clouds 14 1020 66 10000 3.1 190 16:59 16.09.2019
1849 Clouds 13 1021 70 10000 2.1 250 16:40 16.09.2019
1850 Clouds 13 1021 70 10000 2.1 250 16:21 16.09.2019
1851 Clouds 13 1021 76 10000 2.1 110 15:57 16.09.2019
1852 Clouds 12 1021 76 10000 2.1 110 15:38 16.09.2019
1853 Clouds 10 1021 76 10000 2.1 110 15:20 16.09.2019
1854 Clouds 9 1020 70 10000 1 0 14:57 16.09.2019
1855 Clouds 9 1020 75 10000 0.7 219.226 14:38 16.09.2019
1856 Clouds 9 1020 75 10000 0.7 219.226 14:38 16.09.2019
1857 Clouds 9 1020 75 10000 0.7 219.226 14:19 16.09.2019
1858 Clouds 9 1019 70 10000 0.7 219.226 13:40 16.09.2019
1859 Clouds 9 1019 70 10000 0.71 32.272 13:22 16.09.2019
1860 Clouds 8 1020 70 10000 4.1 180 12:54 16.09.2019
1861 Clouds 8 1020 70 10000 4.1 180 12:54 16.09.2019
1862 Clouds 8 1020 70 10000 4.1 180 12:54 16.09.2019
1863 Clouds 9 1020 70 10000 4.1 180 12:36 16.09.2019
1864 Clouds 9 1020 70 10000 4.1 200 12:18 16.09.2019
1865 Clouds 9 1020 70 10000 4.1 200 11:44 16.09.2019
1866 Clouds 9 1020 70 10000 4.1 200 11:21 16.09.2019
1867 Clouds 9 1021 71 10000 3.6 200 10:40 16.09.2019
1868 Clouds 9 1021 71 10000 3.6 200 10:21 16.09.2019
1869 Clouds 9 1022 71 10000 2.6 210 09:58 16.09.2019
1870 Clouds 9 1022 71 10000 2.6 210 09:40 16.09.2019
1871 Clouds 9 1022 71 10000 2.6 210 09:20 16.09.2019
1872 Clouds 9 1022 66 10000 5.1 170 08:48 16.09.2019
1873 Clouds 9 1022 66 10000 5.1 170 08:29 16.09.2019
1874 Clouds 9 1022 71 10000 3.6 160 07:58 16.09.2019
1875 Clouds 10 1022 71 10000 3.6 160 07:40 16.09.2019
1876 Clouds 10 1022 66 10000 5.7 190 07:20 16.09.2019
1877 Clouds 10 1022 66 10000 5.7 190 06:49 16.09.2019
1878 Clouds 10 1022 66 10000 5.7 190 06:31 16.09.2019
1879 Clouds 10 1022 71 10000 6.2 180 05:57 16.09.2019
1880 Clouds 10 1022 71 10000 6.2 180 05:39 16.09.2019
1881 Clouds 11 1022 66 10000 4.6 190 04:57 16.09.2019
1882 Clouds 10 1022 66 10000 7.7 200 03:35 16.09.2019
1883 Clouds 13 1021 50 9000 3.6 220 00:57 16.09.2019
1884 Clouds 14 1021 50 9000 3.6 220 00:36 16.09.2019
1885 Clouds 14 1020 62 10000 3.1 220 00:18 16.09.2019
1886 Clouds 15 1020 62 10000 3.1 220 23:37 15.09.2019
1887 Clouds 15 1020 62 10000 3.1 220 23:18 15.09.2019
1888 Clouds 16 1020 47 10000 3.6 190 22:39 15.09.2019
1889 Clouds 16 1020 47 10000 3.6 190 22:20 15.09.2019
1890 Clouds 17 1020 44 10000 3.1 220 21:56 15.09.2019
1891 Clouds 17 1020 44 10000 3.1 220 21:38 15.09.2019
1892 Clouds 17 1020 44 10000 3.1 220 21:38 15.09.2019
1893 Clouds 17 1020 44 10000 3.1 220 21:19 15.09.2019
1894 Clouds 17 1020 48 8000 3.1 220 20:45 15.09.2019
1895 Clouds 16 1020 48 8000 3.1 220 20:26 15.09.2019
1896 Clouds 17 1021 51 8000 2.6 0 19:56 15.09.2019
1897 Clouds 17 1021 51 8000 2.6 0 19:56 15.09.2019
1898 Clouds 16 1021 51 8000 2.6 0 19:38 15.09.2019
1899 Clouds 16 1021 51 8000 2.6 0 19:38 15.09.2019
1900 Clouds 15 1020 58 10000 5.1 160 19:19 15.09.2019
1901 Clouds 15 1021 62 8000 2.1 20 18:40 15.09.2019
1902 Clouds 14 1021 62 8000 2.1 20 18:22 15.09.2019
1903 Clouds 12 1021 71 8000 1.71 234.649 17:43 15.09.2019
1904 Clouds 12 1021 71 8000 1.71 234.649 17:23 15.09.2019
1905 Clouds 11 1021 76 7000 1 150 16:59 15.09.2019
1906 Clouds 13 1021 76 7000 1 150 16:41 15.09.2019
1907 Clouds 13 1021 76 7000 1 150 16:22 15.09.2019
1908 Clouds 12 1020 81 7000 2.1 210 15:56 15.09.2019
1909 Clouds 12 1020 81 7000 2.1 210 15:38 15.09.2019
1910 Clouds 9 1019 81 7000 2.1 210 15:19 15.09.2019
1911 Clouds 9 1019 81 7000 2.1 210 14:55 15.09.2019
1912 Clouds 9 1019 81 7000 2.1 210 14:37 15.09.2019
1913 Clouds 9 1019 81 7000 2.1 210 14:19 15.09.2019
1914 Clouds 9 1018 76 8000 3.1 310 13:43 15.09.2019
1915 Clouds 8 1018 76 8000 3.1 310 13:22 15.09.2019
1916 Clouds 8 1018 76 8000 3.1 310 13:22 15.09.2019
1917 Clouds 8 1018 87 10000 0.5 0 12:43 15.09.2019
1918 Clouds 8 1018 87 10000 0.5 0 12:24 15.09.2019
1919 Clouds 9 1017 81 10000 3.6 150 11:58 15.09.2019
1920 Clouds 9 1017 81 10000 3.6 150 11:40 15.09.2019
1921 Clouds 9 1017 81 10000 3.6 150 11:21 15.09.2019
1922 Clouds 8 1017 87 10000 2.6 150 10:46 15.09.2019
1923 Clouds 8 1017 87 10000 2.6 150 10:23 15.09.2019
1924 Clouds 8 1017 87 10000 3.1 150 09:58 15.09.2019
1925 Clouds 8 1017 87 10000 3.1 150 09:37 15.09.2019
1926 Clouds 8 1017 81 10000 3.1 150 09:19 15.09.2019
1927 Clouds 8 1017 81 10000 3.1 150 08:46 15.09.2019
1928 Clouds 8 1017 81 10000 3.1 150 08:26 15.09.2019
1929 Clouds 7 1017 87 10000 3.1 160 07:48 15.09.2019
1930 Clouds 7 1017 87 10000 3.1 160 07:26 15.09.2019
1931 Clear 8 1017 81 10000 0.5 0 06:42 15.09.2019
1932 Clouds 11 1017 66 10000 3.6 140 03:31 15.09.2019
1933 Clear 12 1017 62 10000 4.1 190 02:34 15.09.2019
1934 Clear 12 1016 66 10000 6.7 210 01:40 15.09.2019
1935 Clear 12 1016 66 10000 6.7 210 01:40 15.09.2019
1936 Clear 14 1016 66 10000 6.7 210 01:19 15.09.2019
1937 Clouds 15 1016 51 8000 2.1 210 00:43 15.09.2019
1938 Clear 15 1015 54 10000 6.2 220 00:21 15.09.2019
1939 Clear 16 1015 54 10000 6.2 220 23:58 14.09.2019
1940 Clouds 16 1016 51 8000 2.1 230 23:39 14.09.2019
1941 Clouds 17 1016 51 8000 2.1 230 23:21 14.09.2019
1942 Haze 16 1016 58 5000 2.6 200 22:59 14.09.2019
1943 Haze 16 1016 58 5000 2.6 200 22:40 14.09.2019
1944 Haze 16 1016 58 5000 2.6 200 22:20 14.09.2019
1945 Haze 15 1016 66 5000 3.1 220 21:55 14.09.2019
1946 Haze 15 1016 66 5000 3.1 220 21:36 14.09.2019
1947 Haze 15 1016 66 5000 3.1 220 21:36 14.09.2019
1948 Haze 15 1016 66 5000 3.1 220 21:36 14.09.2019
1949 Haze 15 1016 62 10000 2.1 0 21:18 14.09.2019
1950 Haze 15 1016 62 10000 2.1 0 20:40 14.09.2019
1951 Haze 15 1016 62 10000 2.1 0 20:40 14.09.2019
1952 Haze 15 1016 62 10000 2.1 0 20:22 14.09.2019
1953 Haze 15 1017 71 3000 3.1 230 19:59 14.09.2019
1954 Haze 15 1017 71 3000 3.1 230 19:40 14.09.2019
1955 Mist 15 1017 71 10000 3.6 170 19:19 14.09.2019
1956 Mist 14 1017 71 3000 2.1 250 18:41 14.09.2019
1957 Mist 12 1017 81 3000 2.6 240 18:21 14.09.2019
1958 Mist 11 1017 81 3000 2.6 240 17:59 14.09.2019
1959 Mist 11 1017 81 3000 2.6 240 17:39 14.09.2019
1960 Mist 11 1017 81 3000 2.6 240 17:21 14.09.2019
1961 Mist 11 1017 81 3000 2.6 240 17:21 14.09.2019
1962 Mist 11 1017 81 3000 2.6 240 17:21 14.09.2019
1963 Mist 10 1017 76 3000 2.1 250 16:44 14.09.2019
1964 Mist 10 1017 76 3000 2.1 250 16:22 14.09.2019
1965 Mist 9 1018 87 3000 1.5 230 15:56 14.09.2019
1966 Mist 9 1018 87 3000 1.5 230 15:56 14.09.2019
1967 Mist 9 1018 87 3000 1.5 230 15:37 14.09.2019
1968 Mist 9 1018 87 3000 1.5 230 15:18 14.09.2019
1969 Mist 8 1017 87 2000 0.5 250 14:43 14.09.2019
1970 Mist 8 1017 87 2000 0.5 250 14:43 14.09.2019
1971 Mist 8 1017 87 2000 0.5 250 14:19 14.09.2019
1972 Mist 9 1017 76 2000 1.98 237.467 13:48 14.09.2019
1973 Mist 9 1017 76 2000 1.73 232.16 13:22 14.09.2019
1974 Mist 8 1015 87 5000 1 0 12:48 14.09.2019
1975 Mist 8 1015 87 5000 1 0 12:27 14.09.2019
1976 Clouds 8 1015 87 6000 2.6 140 11:56 14.09.2019
1977 Clouds 7 1015 87 6000 2.6 140 11:37 14.09.2019
1978 Clouds 8 1015 87 6000 2.6 140 11:19 14.09.2019
1979 Mist 8 1014 93 5000 3.1 140 10:37 14.09.2019
1980 Mist 8 1014 93 5000 3.1 140 10:19 14.09.2019
1981 Mist 8 1014 93 5000 3.1 150 09:56 14.09.2019
1982 Mist 8 1014 93 5000 3.1 150 09:38 14.09.2019
1983 Mist 9 1014 93 5000 3.1 150 09:19 14.09.2019
1984 Mist 8 1015 93 5000 3.6 160 08:46 14.09.2019
1985 Mist 9 1015 93 5000 3.6 160 08:23 14.09.2019
1986 Mist 9 1015 93 5000 5.7 160 07:46 14.09.2019
1987 Mist 9 1015 93 5000 5.7 160 07:28 14.09.2019
1988 Clouds 10 1015 87 8000 4.6 160 06:44 14.09.2019
1989 Clouds 10 1015 87 8000 4.6 160 06:25 14.09.2019
1990 Clear 11 1015 76 10000 4.6 160 05:25 14.09.2019
1991 Clear 13 1014 71 10000 4.6 150 03:46 14.09.2019
1992 Clear 15 1013 58 10000 5.7 170 02:54 14.09.2019
1993 Clear 15 1013 58 10000 5.7 170 02:54 14.09.2019
1994 Clear 17 1012 55 10000 5.1 210 01:51 14.09.2019
1995 Clear 19 1012 55 10000 5.1 210 01:23 14.09.2019
1996 Clear 19 1012 55 10000 5.1 210 00:58 14.09.2019
1997 Clear 20 1013 32 10000 2.6 240 00:38 14.09.2019
1998 Clear 21 1011 48 10000 5.7 210 00:20 14.09.2019
1999 Clear 22 1013 25 10000 3.6 260 23:38 13.09.2019
2000 Clear 23 1013 25 10000 3.6 260 23:19 13.09.2019
2001 Clear 23 1013 25 10000 3.6 260 23:19 13.09.2019
2002 Clear 24 1013 23 10000 3.6 240 22:58 13.09.2019
2003 Clear 23 1013 23 10000 3.6 240 22:38 13.09.2019
2004 Clear 23 1013 23 10000 3.6 240 22:38 13.09.2019
2005 Clear 24 1013 20 8000 3.1 240 22:20 13.09.2019
2006 Clear 24 1013 20 8000 3.1 240 21:42 13.09.2019
2007 Clear 24 1013 20 8000 3.1 240 21:20 13.09.2019
2008 Clear 24 1014 19 7000 1.5 210 20:59 13.09.2019
2009 Clear 24 1014 19 7000 1.5 210 20:40 13.09.2019
2010 Clear 24 1014 19 7000 1.5 210 20:21 13.09.2019
2011 Clear 23 1015 20 8000 1.5 180 19:58 13.09.2019
2012 Clear 23 1015 20 8000 1.5 180 19:40 13.09.2019
2013 Clear 23 1013 23 10000 4.1 170 19:19 13.09.2019
2014 Clear 23 1013 23 10000 4.1 170 18:56 13.09.2019
2015 Clear 22 1015 22 10000 2.1 280 18:37 13.09.2019
2016 Clear 20 1014 53 10000 2.1 180 18:18 13.09.2019
2017 Clear 19 1015 24 10000 1.5 210 17:39 13.09.2019
2018 Clear 19 1015 24 10000 1.5 210 17:39 13.09.2019
2019 Clear 19 1015 24 10000 1.5 210 17:19 13.09.2019
2020 Clear 20 1015 25 10000 1 200 16:42 13.09.2019
2021 Clear 19 1015 25 10000 1 200 16:22 13.09.2019
2022 Clear 17 1015 33 10000 1 150 15:58 13.09.2019
2023 Clear 17 1015 33 10000 1 150 15:39 13.09.2019
2024 Clear 13 1015 33 10000 1 150 15:20 13.09.2019
2025 Clear 8 1015 57 10000 1 60 14:44 13.09.2019
2026 Clear 8 1015 57 10000 1 60 14:22 13.09.2019
2027 Clear 9 1015 56 10000 1.5 30 13:56 13.09.2019
2028 Clear 8 1015 56 10000 1.5 30 13:37 13.09.2019
2029 Clear 9 1014 75 8000 0.9 238.51 13:18 13.09.2019
2030 Clear 8 1014 70 10000 0.9 238.51 12:41 13.09.2019
2031 Clear 8 1014 70 10000 0.55 54.619 12:23 13.09.2019
2032 Clear 10 1013 71 10000 0.55 54.619 11:56 13.09.2019
2033 Clear 10 1013 71 10000 0.55 54.619 11:20 13.09.2019
2034 Clear 7 1013 65 10000 0.55 54.619 10:40 13.09.2019
2035 Clear 9 1013 65 10000 0.55 54.619 10:20 13.09.2019
2036 Clear 9 1013 61 10000 0.55 54.619 09:46 13.09.2019
2037 Clear 10 1013 61 10000 0.55 54.619 09:25 13.09.2019
2038 Clear 10 1013 57 10000 0.1 1.193 08:59 13.09.2019
2039 Clear 10 1013 57 10000 0.17 81.333 08:41 13.09.2019
2040 Clear 11 1013 57 10000 0.17 81.333 08:21 13.09.2019
2041 Clear 11 1013 50 10000 0.17 81.333 07:56 13.09.2019
2042 Clear 12 1013 50 10000 0.17 81.333 07:38 13.09.2019
2043 Clear 13 1013 71 10000 1.5 170 06:49 13.09.2019
2044 Clear 15 1013 28 10000 1 0 05:50 13.09.2019
2045 Clear 15 1013 28 10000 1 0 05:18 13.09.2019
2046 Clear 18 1013 31 10000 4.1 160 03:40 13.09.2019
2047 Clear 18 1013 31 10000 2.6 170 02:22 13.09.2019
2048 Clear 21 1012 74 10000 4.1 210 01:59 13.09.2019
2049 Clear 23 1012 74 10000 4.1 210 01:35 13.09.2019
2050 Clear 23 1012 74 10000 4.1 210 00:58 13.09.2019
2051 Clear 24 1013 12 10000 1.5 180 00:31 13.09.2019
2052 Clear 24 1014 10 10000 2.6 220 23:40 12.09.2019
2053 Clear 24 1014 10 10000 2.6 220 23:20 12.09.2019
2054 Clear 24 1014 12 10000 2.6 240 22:43 12.09.2019
2055 Clear 24 1014 12 10000 2.6 240 22:24 12.09.2019
2056 Clear 24 1015 16 10000 2.1 230 21:58 12.09.2019
2057 Clear 24 1015 16 10000 2.1 230 21:39 12.09.2019
2058 Clear 24 1015 16 10000 2.1 230 21:20 12.09.2019
2059 Clear 22 1015 18 10000 1.5 0 20:57 12.09.2019
2060 Clear 22 1015 18 10000 1.5 0 20:39 12.09.2019
2061 Clear 23 1015 18 10000 1.5 0 20:20 12.09.2019
2062 Clear 23 1016 21 10000 1.31 194.45 19:56 12.09.2019
2063 Clear 23 1016 21 10000 1.31 194.45 19:36 12.09.2019
2064 Clear 22 1015 24 10000 1 0 19:18 12.09.2019
2065 Clear 21 1018 24 10000 1.5 170 18:38 12.09.2019
2066 Clear 19 1016 32 10000 1.5 350 18:20 12.09.2019
2067 Clear 19 1016 32 10000 1.5 350 17:57 12.09.2019
2068 Clear 18 1018 31 10000 1.46 120.559 17:38 12.09.2019
2069 Clear 18 1018 31 10000 1.46 120.559 17:19 12.09.2019
2070 Clear 17 1019 31 10000 1.5 160 16:42 12.09.2019
2071 Clear 17 1019 31 10000 1.5 160 16:22 12.09.2019
2072 Clear 13 1019 50 10000 1.46 120.559 15:55 12.09.2019
2073 -273 0 0 0 0 0 15:55 12.09.2019
2074 Clear 13 1019 50 10000 1.46 120.559 15:36 12.09.2019
2075 Clear 10 1019 50 10000 1.3 85.729 15:18 12.09.2019
2076 Haze 9 1020 75 10000 1.3 85.729 14:41 12.09.2019
2077 Haze 6 1020 75 10000 1.3 85.729 14:21 12.09.2019
2078 Mist 7 1020 65 10000 2.1 40 13:40 12.09.2019
2079 Mist 5 1020 65 10000 2.1 40 13:22 12.09.2019
2080 Clear 6 1020 80 8000 3.1 20 12:49 12.09.2019
2081 Clear 7 1020 81 8000 1.5 0 12:20 12.09.2019
2082 Clear 7 1020 81 8000 1.5 0 12:00 12.09.2019
2083 Clear 7 1020 81 8000 1.5 0 11:41 12.09.2019
2084 Clear 7 1020 81 8000 1.5 0 11:21 12.09.2019
2085 Clear 7 1021 87 8000 1.6 80.013 10:57 12.09.2019
2086 Clear 7 1021 87 8000 1.6 80.013 10:39 12.09.2019
2087 Clear 7 1021 87 8000 1.6 80.013 10:20 12.09.2019
2088 Smoke 7 1021 81 8000 1.5 20 09:43 12.09.2019
2089 Smoke 7 1021 81 8000 1.5 20 09:20 12.09.2019
2090 Clear 8 1022 75 10000 3.1 20 08:45 12.09.2019
2091 Clear 9 1022 75 10000 3.1 20 08:25 12.09.2019
2092 Clear 8 1022 81 10000 1.5 350 07:56 12.09.2019
2093 Clear 8 1022 81 10000 1.5 350 07:38 12.09.2019
2094 Clear 8 1023 87 10000 2.6 30 07:18 12.09.2019
2095 Clear 8 1023 87 10000 2.6 30 06:46 12.09.2019
2096 Clear 10 1023 71 10000 2.1 320 06:19 12.09.2019
2097 Clear 10 1023 71 10000 2.1 320 05:47 12.09.2019
2098 Clear 10 1023 71 10000 2.1 320 05:27 12.09.2019
2099 Clear 10 1024 66 10000 1 0 04:31 12.09.2019
2100 Clear 15 1023 51 10000 4.1 220 01:47 12.09.2019
2101 Clear 16 1023 51 10000 4.1 220 01:28 12.09.2019
2102 Clouds 18 1023 33 10000 1.5 210 00:50 12.09.2019
2103 Clouds 18 1023 33 10000 1.5 210 00:31 12.09.2019
2104 Clouds 18 1023 55 10000 2.1 250 23:55 11.09.2019
2105 Clouds 18 1023 55 10000 2.1 250 23:36 11.09.2019
2106 Clouds 18 1023 33 10000 2.1 180 23:18 11.09.2019
2107 Clouds 18 1023 33 10000 2.1 180 22:55 11.09.2019
2108 Clouds 18 1023 33 10000 2.1 180 22:36 11.09.2019
2109 Clouds 18 1023 33 10000 2.1 180 22:18 11.09.2019
2110 Clouds 18 1024 36 10000 2.1 270 21:41 11.09.2019
2111 Clouds 17 1024 36 10000 2.1 270 21:22 11.09.2019
2112 Clouds 18 1024 44 10000 2.6 240 20:56 11.09.2019
2113 Clouds 17 1024 44 10000 2.6 240 20:38 11.09.2019
2114 Clouds 16 1024 44 10000 2.6 240 20:19 11.09.2019
2115 Clouds 17 1025 50 10000 2.1 0 19:56 11.09.2019
2116 Clouds 17 1025 50 10000 2.1 0 19:37 11.09.2019
2117 Clouds 17 1024 51 10000 1.5 0 19:19 11.09.2019
2118 Clouds 16 1025 54 10000 1 210 18:44 11.09.2019
2119 Clouds 14 1025 54 10000 1 210 18:26 11.09.2019
2120 Clouds 13 1025 66 10000 1.5 350 18:00 11.09.2019
2121 Clouds 12 1025 66 10000 1.5 350 17:41 11.09.2019
2122 Clouds 12 1025 66 10000 1.5 350 17:41 11.09.2019
2123 Clouds 12 1025 66 10000 1.5 350 17:22 11.09.2019
2124 Clouds 12 1025 71 10000 1.5 270 16:57 11.09.2019
2125 Clouds 13 1025 71 10000 1.5 270 16:39 11.09.2019
2126 Clouds 13 1025 71 10000 1.5 270 16:20 11.09.2019
2127 Clouds 13 1026 76 10000 1 330 15:47 11.09.2019
2128 Clouds 13 1026 76 10000 1 330 15:47 11.09.2019
2129 Clouds 9 1026 76 10000 1 330 15:24 11.09.2019
2130 Clouds 8 1024 93 8000 1 0 14:59 11.09.2019
2131 Clouds 8 1024 93 8000 1 0 14:40 11.09.2019
2132 Fog 7 1024 100 7000 1.5 200 14:20 11.09.2019
2133 Fog 7 1024 100 7000 1.5 200 14:20 11.09.2019
2134 Fog 8 1024 100 7000 1.5 200 13:58 11.09.2019
2135 Fog 7 1024 100 7000 1.5 200 13:37 11.09.2019
2136 Fog 7 1024 100 7000 1.5 200 13:18 11.09.2019
2137 Clouds 7 1022 93 8000 1 0 12:42 11.09.2019
2138 Clouds 7 1022 93 8000 1 0 12:21 11.09.2019
2139 Clouds 7 1022 87 8000 0.5 0 11:58 11.09.2019
2140 Clouds 7 1022 87 8000 0.5 0 11:37 11.09.2019
2141 Clouds 7 1022 87 8000 0.5 0 11:18 11.09.2019
2142 Clouds 7 1022 93 10000 1.5 200 10:41 11.09.2019
2143 Clouds 8 1022 93 10000 1.5 200 10:22 11.09.2019
2144 Clouds 8 1021 87 10000 2.1 240 09:57 11.09.2019
2145 Clouds 8 1021 87 10000 2.1 240 09:37 11.09.2019
2146 Clouds 8 1021 87 10000 2.1 240 09:18 11.09.2019
2147 Clouds 8 1021 87 10000 2.1 240 09:18 11.09.2019
2148 Clouds 8 1022 87 10000 4.6 150 08:40 11.09.2019
2149 Clouds 9 1022 87 10000 4.6 150 08:21 11.09.2019
2150 Rain 9 1022 87 10000 6.2 190 07:49 11.09.2019
2151 Rain 9 1022 87 10000 6.2 190 07:23 11.09.2019
2152 Thunderstorm 9 1022 81 8000 2.1 0 06:56 11.09.2019
2153 Thunderstorm 9 1022 81 8000 2.1 0 06:36 11.09.2019
2154 Rain 10 1021 71 10000 3.1 180 05:50 11.09.2019
2155 Rain 11 1021 71 10000 3.1 180 05:30 11.09.2019
2156 Clouds 11 1021 71 10000 4.1 150 04:52 11.09.2019
2157 Clouds 12 1020 66 10000 5.1 140 03:40 11.09.2019
2158 Clouds 12 1020 66 10000 5.1 140 03:40 11.09.2019
2159 Clouds 12 1020 66 10000 5.1 140 03:20 11.09.2019
2160 Clouds 12 1019 66 10000 5.1 190 02:28 11.09.2019
2161 Clouds 13 1018 62 10000 6.7 20 01:21 11.09.2019
2162 Rain 13 1018 47 8000 2.6 250 00:31 11.09.2019
2163 Clouds 14 1017 44 8000 4.1 230 23:58 10.09.2019
2164 Clouds 15 1017 44 8000 4.1 230 23:39 10.09.2019
2165 Clouds 15 1017 44 8000 4.1 230 23:21 10.09.2019
2166 Clouds 16 1017 38 7000 3.1 260 22:42 10.09.2019
2167 Clouds 16 1017 38 7000 3.1 260 22:21 10.09.2019
2168 Clouds 17 1017 41 8000 2.6 270 21:57 10.09.2019
2169 Clouds 17 1017 41 8000 2.6 270 21:38 10.09.2019
2170 Clouds 17 1017 41 8000 2.6 270 21:38 10.09.2019
2171 Clouds 17 1017 41 8000 2.6 270 21:20 10.09.2019
2172 Clouds 17 1017 41 8000 2.6 270 21:20 10.09.2019
2173 Clouds 16 1017 44 6000 2.6 270 20:59 10.09.2019
2174 Clouds 16 1017 44 6000 2.6 270 20:40 10.09.2019
2175 Clouds 16 1017 44 6000 2.6 270 20:22 10.09.2019
2176 Clouds 16 1017 50 6000 1.5 330 19:58 10.09.2019
2177 Clouds 16 1017 50 6000 1.5 330 19:38 10.09.2019
2178 Clouds 16 1018 54 10000 2.1 300 19:20 10.09.2019
2179 Clouds 14 1018 54 10000 2.1 300 18:58 10.09.2019
2180 Clouds 15 1018 54 10000 2.1 300 18:40 10.09.2019
2181 Clouds 14 1018 54 10000 2.1 300 18:21 10.09.2019
2182 Clouds 13 1018 71 10000 1.5 200 17:55 10.09.2019
2183 Clouds 13 1018 71 10000 1.5 200 17:37 10.09.2019
2184 Clouds 12 1018 71 10000 1.5 200 17:18 10.09.2019
2185 Clouds 17 1017 44 0 0.69 164.993 16:55 10.09.2019
2186 Clouds 19 1017 44 0 0.69 164.993 16:55 10.09.2019
2187 Clouds 19 1017 44 0 0.69 164.993 16:55 10.09.2019
2188 -273 0 0 0 0 0 16:55 10.09.2019
2189 Clouds 17 1017 44 0 0.69 164.993 16:55 10.09.2019
2190 Clouds 19 1017 45 0 0.69 164.993 16:36 10.09.2019
2191 Mist 12 1019 93 10000 0.5 90 16:18 10.09.2019
2192 Mist 12 1019 93 10000 0.5 90 16:18 10.09.2019
2193 Mist 12 1019 93 10000 0.5 90 15:42 10.09.2019
2194 Mist 7 1019 93 10000 0.5 90 15:21 10.09.2019
2195 Mist 7 1019 93 10000 0.52 36.519 14:43 10.09.2019
2196 Mist 7 1019 93 10000 0.52 36.519 14:43 10.09.2019
2197 Mist 7 1019 93 10000 0.52 36.519 14:25 10.09.2019
2198 Fog 6 1019 75 10000 0.52 36.519 13:59 10.09.2019
2199 Fog 6 1019 75 10000 0.52 36.519 13:40 10.09.2019
2200 Fog 5 1019 75 10000 0.25 51.52 13:22 10.09.2019
2201 Mist 5 1018 100 4000 0.25 51.52 12:50 10.09.2019
2202 Mist 5 1018 100 4000 0.25 51.52 12:28 10.09.2019
2203 Mist 5 1018 100 4000 0.56 336.627 11:58 10.09.2019
2204 Fog 5 1018 100 5000 1.5 350 11:39 10.09.2019
2205 Mist 6 1018 93 3000 2.6 360 11:21 10.09.2019
2206 Mist 6 1018 93 3000 2.6 360 10:42 10.09.2019
2207 Fog 5 1018 100 3000 2.6 10 10:20 10.09.2019
2208 Fog 5 1018 100 3000 2.6 10 09:57 10.09.2019
2209 Fog 5 1018 100 3000 2.6 10 09:39 10.09.2019
2210 Mist 6 1018 93 8000 2.6 360 09:19 10.09.2019
2211 Mist 6 1018 93 8000 2.6 360 08:45 10.09.2019
2212 Mist 6 1018 93 8000 2.6 360 08:27 10.09.2019
2213 Clouds 7 1019 93 10000 0.5 0 07:46 10.09.2019
2214 Clouds 7 1019 93 10000 0.5 0 07:46 10.09.2019
2215 Clouds 7 1019 93 10000 0.5 0 07:27 10.09.2019
2216 Clouds 7 1019 93 10000 1 250 06:56 10.09.2019
2217 Clouds 7 1019 93 10000 1 250 06:36 10.09.2019
2218 Clouds 8 1019 87 10000 2.1 240 05:48 10.09.2019
2219 Clouds 10 1020 81 10000 2.1 140 03:58 10.09.2019
2220 Clouds 10 1020 81 10000 2.1 140 03:58 10.09.2019
2221 Clouds 10 1019 81 10000 2.1 180 02:38 10.09.2019
2222 Clouds 10 1019 81 10000 3.1 200 02:19 10.09.2019
2223 Clouds 10 1019 81 10000 3.1 200 01:45 10.09.2019
2224 Clouds 11 1019 81 10000 3.1 200 01:21 10.09.2019
2225 Clouds 11 1019 81 10000 3.1 200 01:21 10.09.2019
2226 Clouds 11 1019 71 7000 0.45 113.401 00:29 10.09.2019
2227 Rain 12 1019 81 6000 2.1 150 23:48 09.09.2019
2228 Rain 12 1019 71 5000 2.1 90 23:20 09.09.2019
2229 Rain 12 1019 71 5000 2.1 90 22:58 09.09.2019
2230 Rain 12 1019 71 5000 2.1 90 22:39 09.09.2019
2231 Rain 12 1020 76 5000 1.5 200 22:21 09.09.2019
2232 Rain 11 1020 76 5000 1.5 200 21:58 09.09.2019
2233 Rain 11 1020 76 5000 1.5 200 21:40 09.09.2019
2234 Rain 12 1020 66 6000 2.1 210 21:21 09.09.2019
2235 Rain 12 1020 66 6000 2.1 210 20:57 09.09.2019
2236 Rain 12 1020 66 6000 2.1 210 20:38 09.09.2019
2237 Clouds 13 1020 47 9000 1.5 230 20:19 09.09.2019
2238 Clouds 12 1020 47 9000 1.5 230 19:59 09.09.2019
2239 Clouds 13 1020 47 9000 1.5 230 19:39 09.09.2019
2240 Clouds 13 1020 47 9000 1.5 230 19:20 09.09.2019
2241 Clouds 14 1021 44 9000 2.1 170 18:58 09.09.2019
2242 Clouds 15 1021 44 9000 2.1 170 18:40 09.09.2019
2243 Clouds 13 1021 54 9000 2.6 210 18:21 09.09.2019
2244 Clouds 13 1021 54 9000 2.6 210 17:59 09.09.2019
2245 Clouds 13 1021 54 9000 2.6 210 17:59 09.09.2019
2246 Clouds 13 1021 54 9000 2.6 210 17:40 09.09.2019
2247 Clouds 13 1022 54 10000 1.5 200 17:21 09.09.2019
2248 Clouds 13 1022 54 10000 1.5 200 17:21 09.09.2019
2249 Clouds 13 1022 54 10000 1.5 200 16:57 09.09.2019
2250 Clouds 12 1022 54 10000 1.5 200 16:38 09.09.2019
2251 Clouds 11 1021 58 10000 1 200 16:20 09.09.2019
2252 Clouds 11 1021 58 10000 1 200 15:56 09.09.2019
2253 Clouds 11 1021 58 10000 1 200 15:37 09.09.2019
2254 Clouds 11 1021 58 10000 1 200 15:37 09.09.2019
2255 Clouds 10 1021 66 10000 1 100 15:18 09.09.2019
2256 Clouds 10 1021 66 10000 1 100 14:55 09.09.2019
2257 Clouds 10 1021 66 10000 1 100 14:37 09.09.2019
2258 Rain 9 1021 75 10000 1.5 180 14:19 09.09.2019
2259 Rain 8 1021 75 10000 1.5 180 13:44 09.09.2019
2260 Clouds 8 1021 75 10000 1.5 50 13:20 09.09.2019
2261 Clouds 8 1021 75 10000 1.5 50 12:58 09.09.2019
2262 Clouds 8 1021 75 10000 1.5 50 12:38 09.09.2019
2263 Clouds 8 1021 70 10000 1 40.651 12:20 09.09.2019
2264 Clouds 8 1021 70 10000 1 40.651 12:20 09.09.2019
2265 Clouds 8 1021 70 10000 1 40.651 11:47 09.09.2019
2266 Clouds 8 1021 70 10000 1 40.651 11:23 09.09.2019
2267 Clouds 9 1021 66 10000 1.5 30 10:58 09.09.2019
2268 Clouds 9 1021 66 10000 1.5 30 10:40 09.09.2019
2269 Clouds 8 1022 75 10000 1 290 10:20 09.09.2019
2270 Clouds 8 1022 75 10000 1 290 09:56 09.09.2019
2271 Clouds 8 1022 75 10000 1 290 09:37 09.09.2019
2272 Clouds 8 1022 75 10000 1 290 09:37 09.09.2019
2273 Rain 8 1022 70 10000 2.6 40 09:19 09.09.2019
2274 Rain 9 1022 70 10000 2.6 40 08:38 09.09.2019
2275 Clouds 9 1022 66 10000 3.1 140 08:20 09.09.2019
2276 Clouds 9 1022 66 10000 3.1 140 07:46 09.09.2019
2277 Clouds 8 1022 66 10000 3.1 140 07:22 09.09.2019
2278 Clouds 9 1022 66 10000 3.1 140 06:56 09.09.2019
2279 Clouds 9 1022 66 10000 3.6 160 06:32 09.09.2019
2280 Clouds 9 1021 66 10000 4.1 120 04:55 09.09.2019
2281 Clouds 8 1021 66 10000 4.1 120 04:55 09.09.2019
2282 Clouds 8 1021 66 10000 4.1 120 04:55 09.09.2019
2283 Clouds 9 1018 66 10000 8.7 210 02:43 09.09.2019
2284 Clear 10 1017 57 10000 7.7 210 02:19 09.09.2019
2285 Clouds 13 1017 54 7000 3.1 240 00:41 09.09.2019
2286 Clear 14 1015 54 10000 7.7 210 00:21 09.09.2019
2287 Clouds 15 1016 51 6000 4.6 240 23:44 08.09.2019
2288 Clouds 16 1016 51 6000 4.6 240 23:23 08.09.2019
2289 Haze 16 1015 48 10000 7.2 210 22:56 08.09.2019
2290 Haze 16 1015 51 5000 3.6 230 22:37 08.09.2019
2291 Clear 17 1015 51 10000 7.7 210 22:19 08.09.2019
2292 Clouds 17 1016 51 6000 3.1 230 21:42 08.09.2019
2293 Clouds 17 1016 51 6000 3.1 230 21:42 08.09.2019
2294 Clouds 17 1016 51 6000 3.1 230 21:23 08.09.2019
2295 Haze 17 1015 48 10000 5.1 170 20:58 08.09.2019
2296 Haze 17 1017 51 5000 3.1 240 20:39 08.09.2019
2297 Haze 17 1016 51 10000 6.7 210 20:20 08.09.2019
2298 Haze 18 1016 51 10000 6.7 210 19:58 08.09.2019
2299 Haze 17 1017 48 5000 2.6 210 19:38 08.09.2019
2300 Haze 18 1017 54 10000 5.1 0 19:19 08.09.2019
2301 Haze 17 1017 51 5000 2.1 210 18:57 08.09.2019
2302 Haze 17 1017 51 5000 2.1 210 18:38 08.09.2019
2303 Haze 13 1017 58 10000 2.1 0 18:18 08.09.2019
2304 Haze 13 1018 62 3000 2.44 239.056 17:54 08.09.2019
2305 Haze 14 1018 62 3000 2.44 239.056 17:36 08.09.2019
2306 Haze 12 1019 76 2000 2.44 239.056 17:18 08.09.2019
2307 Haze 12 1019 76 2000 2.44 239.056 17:18 08.09.2019
2308 Haze 12 1019 76 2000 2.44 239.056 16:43 08.09.2019
2309 Mist 12 1019 76 8000 3.1 170 16:22 08.09.2019
2310 Mist 11 1019 76 8000 3.1 170 15:58 08.09.2019
2311 Mist 11 1020 76 2000 2.44 239.056 15:40 08.09.2019
2312 Mist 10 1020 76 2000 0.41 192.085 15:21 08.09.2019
2313 Mist 10 1020 87 2000 0.41 192.085 14:55 08.09.2019
2314 Mist 9 1020 87 2000 0.41 192.085 14:36 08.09.2019
2315 Mist 9 1019 81 10000 2.6 150 14:18 08.09.2019
2316 Mist 10 1020 76 1000 0.41 192.085 13:55 08.09.2019
2317 Mist 9 1020 76 1000 0.41 192.085 13:36 08.09.2019
2318 Clouds 9 1019 81 10000 3.6 150 13:18 08.09.2019
2319 Clouds 8 1018 87 10000 1.5 160 12:41 08.09.2019
2320 Clouds 9 1018 81 10000 1.5 170 12:23 08.09.2019
2321 Clouds 9 1018 81 10000 1.5 170 11:58 08.09.2019
2322 Clouds 9 1018 81 10000 1.5 170 11:38 08.09.2019
2323 Clouds 9 1018 81 10000 1.5 170 11:38 08.09.2019
2324 Clouds 9 1018 81 10000 1.5 170 11:38 08.09.2019
2325 Clouds 10 1018 76 10000 1.5 170 11:20 08.09.2019
2326 Clouds 10 1018 76 10000 1.5 170 10:56 08.09.2019
2327 Clouds 10 1018 76 10000 1.5 170 10:38 08.09.2019
2328 Clouds 10 1018 76 10000 1.5 170 10:38 08.09.2019
2329 Clouds 10 1018 76 10000 2.6 160 10:19 08.09.2019
2330 Clouds 10 1018 76 10000 2.6 160 09:38 08.09.2019
2331 Clouds 10 1019 76 10000 3.1 170 09:20 08.09.2019
2332 Clouds 10 1019 76 10000 3.1 170 08:56 08.09.2019
2333 Clouds 10 1019 76 10000 3.1 170 08:37 08.09.2019
2334 Clouds 10 1019 76 10000 3.1 160 08:18 08.09.2019
2335 Clouds 10 1019 76 10000 3.1 160 07:39 08.09.2019
2336 Clouds 10 1019 76 10000 3.1 160 07:20 08.09.2019
2337 Clouds 10 1019 76 10000 4.6 160 06:49 08.09.2019
2338 Clouds 10 1019 76 10000 4.6 160 06:18 08.09.2019
2339 Clouds 10 1020 81 10000 4.1 150 05:36 08.09.2019
2340 Clouds 11 1019 76 10000 3.6 150 03:53 08.09.2019
2341 -273 0 0 0 0 0 02:55 08.09.2019
2342 Clouds 11 1019 71 10000 5.1 200 02:26 08.09.2019
2343 Clouds 12 1019 71 10000 5.7 210 01:39 08.09.2019
2344 Clouds 13 1019 71 10000 5.7 210 01:18 08.09.2019
2345 Clouds 14 1019 51 9000 3.1 220 00:42 08.09.2019
2346 Clouds 14 1019 51 9000 3.1 220 00:23 08.09.2019
2347 Clouds 15 1019 51 9000 3.1 230 23:38 07.09.2019
2348 Clouds 16 1019 51 8000 3.6 220 23:19 07.09.2019
2349 Clouds 16 1019 51 8000 3.6 220 22:57 07.09.2019
2350 Clouds 16 1019 51 8000 3.6 220 22:38 07.09.2019
2351 Clouds 16 1019 54 8000 2.6 220 22:19 07.09.2019
2352 Clouds 16 1019 54 8000 2.6 220 21:41 07.09.2019
2353 Clouds 16 1019 54 8000 2.6 220 21:23 07.09.2019
2354 Clouds 15 1020 54 8000 1 220 20:54 07.09.2019
2355 Clouds 16 1020 54 8000 1 220 20:36 07.09.2019
2356 Clouds 15 1020 58 8000 2.1 210 20:18 07.09.2019
2357 Clouds 15 1020 58 8000 2.1 210 19:54 07.09.2019
2358 Clouds 15 1020 58 8000 2.1 210 19:36 07.09.2019
2359 Clouds 15 1020 54 10000 2.6 180 19:18 07.09.2019
2360 Clouds 15 1020 54 10000 2.6 180 18:54 07.09.2019
2361 Clouds 14 1020 62 8000 1.5 0 18:36 07.09.2019
2362 Clouds 13 1019 43 8000 1.63 221.899 18:18 07.09.2019
2363 Clouds 14 1019 43 8000 1.63 221.899 17:41 07.09.2019
2364 Clouds 12 1020 50 8000 1.5 110 17:19 07.09.2019
2365 Clouds 13 1020 50 8000 1.5 110 16:59 07.09.2019
2366 Clouds 13 1020 50 8000 1.5 110 16:41 07.09.2019
2367 Clouds 11 1021 76 8000 1.5 230 16:20 07.09.2019
2368 Clouds 11 1021 76 8000 1.5 230 15:48 07.09.2019
2369 Clouds 11 1021 76 8000 1.5 230 15:26 07.09.2019
2370 Clouds 11 1020 66 8000 0.55 302.137 14:58 07.09.2019
2371 Clouds 11 1020 66 8000 0.55 302.137 14:37 07.09.2019
2372 Clouds 11 1019 76 10000 0.55 302.137 14:19 07.09.2019
2373 Clouds 10 1019 76 10000 0.55 302.137 13:58 07.09.2019
2374 Clouds 10 1019 76 10000 0.55 302.137 13:58 07.09.2019
2375 Clouds 10 1019 76 10000 0.55 302.137 13:39 07.09.2019
2376 Clouds 10 1019 76 10000 0.61 247.869 13:21 07.09.2019
2377 Clouds 10 1018 81 10000 1.5 140 12:44 07.09.2019
2378 Clouds 10 1018 81 10000 1.5 140 12:25 07.09.2019
2379 Clouds 10 1018 81 10000 1.5 140 11:57 07.09.2019
2380 Clouds 10 1018 81 10000 3.6 170 11:39 07.09.2019
2381 Clouds 10 1018 81 10000 2.1 170 11:19 07.09.2019
2382 Clouds 10 1018 81 10000 2.1 170 10:40 07.09.2019
2383 Clouds 10 1018 81 10000 2.1 170 10:21 07.09.2019
2384 Clouds 11 1018 81 10000 2.6 210 09:45 07.09.2019
2385 Clouds 11 1018 81 10000 2.6 210 09:27 07.09.2019
2386 Clouds 11 1018 76 10000 3.6 160 08:59 07.09.2019
2387 Clouds 11 1018 76 10000 3.6 160 08:41 07.09.2019
2388 Clouds 11 1018 76 10000 3.6 160 08:41 07.09.2019
2389 Clouds 11 1018 76 10000 3.6 160 08:23 07.09.2019
2390 Clouds 11 1018 76 10000 3.1 140 07:45 07.09.2019
2391 Clouds 11 1018 76 10000 3.1 140 07:26 07.09.2019
2392 Clouds 11 1018 71 10000 2.1 150 06:47 07.09.2019
2393 Clouds 11 1018 71 10000 2.1 150 06:20 07.09.2019
2394 Clouds 11 1017 76 10000 3.1 150 04:49 07.09.2019
2395 Clouds 12 1017 71 10000 5.1 200 04:20 07.09.2019
2396 Clouds 12 1016 66 10000 5.1 210 02:48 07.09.2019
2397 Clouds 13 1016 58 10000 5.7 210 01:53 07.09.2019
2398 Clouds 14 1016 58 10000 5.7 210 01:21 07.09.2019
2399 Clouds 15 1016 47 7000 3.6 250 00:40 07.09.2019
2400 Clouds 15 1016 58 10000 5.7 190 00:19 07.09.2019
2401 Clouds 16 1016 41 7000 1 220 23:40 06.09.2019
2402 Clouds 16 1016 41 7000 2.6 210 23:21 06.09.2019
2403 Clouds 16 1016 41 7000 2.6 210 22:58 06.09.2019
2404 Clouds 16 1016 41 7000 2.6 210 22:38 06.09.2019
2405 Haze 16 1015 51 10000 3.6 130 22:19 06.09.2019
2406 Haze 16 1015 51 10000 3.6 130 21:57 06.09.2019
2407 Haze 17 1016 44 5000 3.1 240 21:39 06.09.2019
2408 Haze 16 1016 51 5000 1.5 110 21:20 06.09.2019
2409 Haze 16 1016 51 5000 1.5 110 20:57 06.09.2019
2410 Haze 16 1016 51 5000 1.5 110 20:38 06.09.2019
2411 Clouds 15 1016 54 10000 4.1 160 20:18 06.09.2019
2412 Clouds 16 1017 54 6000 2.1 230 19:54 06.09.2019
2413 Clouds 16 1017 54 6000 2.1 230 19:36 06.09.2019
2414 Clouds 16 1016 62 10000 2.1 140 19:18 06.09.2019
2415 Clouds 15 1017 62 6000 1.5 190 18:41 06.09.2019
2416 Clouds 12 1016 66 10000 2.1 50 18:23 06.09.2019
2417 Clouds 12 1016 66 10000 2.1 50 17:57 06.09.2019
2418 Clouds 11 1017 66 8000 0.5 280 17:37 06.09.2019
2419 Clouds 11 1016 71 10000 2.1 30 17:19 06.09.2019
2420 Clouds 13 1017 71 8000 1.5 320 16:39 06.09.2019
2421 Clouds 13 1016 71 10000 3.6 20 16:19 06.09.2019
2422 Clouds 12 1017 76 8000 1 0 15:42 06.09.2019
2423 Clouds 12 1017 76 8000 1 0 15:42 06.09.2019
2424 Clouds 12 1017 76 8000 1 0 15:42 06.09.2019
2425 Clouds 10 1017 71 8000 1 190 15:23 06.09.2019
2426 Clouds 10 1017 71 8000 1 190 14:55 06.09.2019
2427 Clouds 10 1017 71 8000 1 190 14:55 06.09.2019
2428 Clouds 10 1017 71 8000 1 190 14:37 06.09.2019
2429 Clouds 9 1016 81 10000 2.6 140 14:18 06.09.2019
2430 Clouds 9 1016 81 10000 2.6 140 13:41 06.09.2019
2431 Clouds 9 1016 81 10000 2.6 140 13:20 06.09.2019
2432 Clouds 9 1015 76 10000 2.6 150 12:38 06.09.2019
2433 Clouds 9 1015 76 10000 2.6 150 12:38 06.09.2019
2434 Clouds 9 1015 76 10000 2.6 150 12:19 06.09.2019
2435 Clouds 9 1015 76 10000 2.6 150 11:54 06.09.2019
2436 Clouds 9 1014 76 10000 3.6 140 11:36 06.09.2019
2437 Clouds 10 1014 76 10000 3.6 180 11:18 06.09.2019
2438 Clouds 9 1014 76 10000 3.6 180 10:40 06.09.2019
2439 Clouds 10 1014 76 10000 3.6 180 10:21 06.09.2019
2440 Clouds 10 1014 76 10000 3.1 160 09:57 06.09.2019
2441 Clouds 10 1014 76 10000 3.1 160 09:36 06.09.2019
2442 Clouds 10 1014 76 10000 3.1 150 09:18 06.09.2019
2443 Clouds 10 1014 76 10000 3.1 150 08:42 06.09.2019
2444 Clouds 10 1014 76 10000 3.1 150 08:42 06.09.2019
2445 Clouds 10 1014 76 10000 3.1 150 08:24 06.09.2019
2446 Clouds 10 1014 71 10000 2.6 180 07:47 06.09.2019
2447 Clouds 10 1014 71 10000 2.6 180 07:27 06.09.2019
2448 Clouds 11 1014 71 10000 2.6 180 06:57 06.09.2019
2449 Clouds 11 1014 66 10000 3.6 200 06:26 06.09.2019
2450 Clouds 11 1014 66 10000 3.6 200 05:43 06.09.2019
2451 Clouds 12 1015 62 10000 4.6 210 04:49 06.09.2019
2452 Clouds 12 1015 58 10000 3.6 180 03:53 06.09.2019
2453 Haze 14 1017 48 5000 1.45 285.193 02:23 06.09.2019
2454 Clouds 14 1017 51 10000 1.15 264.041 00:45 06.09.2019
2455 Clouds 15 1017 48 8000 1.5 270 23:56 05.09.2019
2456 Clouds 15 1017 48 8000 1.5 270 23:38 05.09.2019
2457 Clouds 15 1018 42 8000 2.1 300 23:19 05.09.2019
2458 Clouds 15 1018 42 8000 2.1 300 22:43 05.09.2019
2459 Clouds 15 1018 42 8000 2.1 300 22:24 05.09.2019
2460 Clouds 14 1017 51 10000 1 180 21:56 05.09.2019
2461 Clouds 15 1017 51 10000 1 180 21:38 05.09.2019
2462 Clear 15 1017 51 10000 2.6 0 21:19 05.09.2019
2463 Clear 15 1017 51 10000 2.6 0 20:57 05.09.2019
2464 Clouds 15 1018 48 10000 1.3 201.193 20:37 05.09.2019
2465 Clouds 14 1019 54 10000 1.5 300 20:19 05.09.2019
2466 Clouds 15 1019 54 10000 1.5 300 19:55 05.09.2019
2467 Clouds 15 1019 54 10000 1.5 300 19:37 05.09.2019
2468 Clouds 15 1019 54 10000 1.5 300 19:18 05.09.2019
2469 Clouds 15 1020 58 9000 1.5 30 18:40 05.09.2019
2470 Clouds 12 1019 58 10000 1.5 0 18:21 05.09.2019
2471 Clouds 12 1019 58 10000 1.5 0 17:56 05.09.2019
2472 Clouds 12 1020 71 8000 1.5 160 17:38 05.09.2019
2473 Drizzle 11 1020 76 10000 2.1 210 17:20 05.09.2019
2474 Drizzle 11 1020 76 10000 2.1 210 16:42 05.09.2019
2475 Clouds 11 1019 71 10000 3.1 140 16:21 05.09.2019
2476 Clouds 10 1019 71 10000 3.1 140 15:58 05.09.2019
2477 Clouds 10 1020 81 8000 1 170 15:39 05.09.2019
2478 Clouds 9 1019 93 7000 0.5 255.105 15:19 05.09.2019
2479 Clouds 9 1019 93 7000 0.5 255.105 14:44 05.09.2019
2480 Clouds 9 1019 93 7000 0.5 255.105 14:23 05.09.2019
2481 Clouds 10 1018 76 10000 2.1 150 13:59 05.09.2019
2482 Clouds 10 1018 76 10000 2.1 150 13:39 05.09.2019
2483 Clouds 10 1018 76 10000 2.1 150 13:18 05.09.2019
2484 Clouds 10 1017 76 10000 2.6 150 12:42 05.09.2019
2485 Clouds 10 1017 76 10000 2.6 150 12:23 05.09.2019
2486 Clouds 10 1016 76 10000 3.6 150 11:45 05.09.2019
2487 Clouds 10 1016 76 10000 3.6 150 11:20 05.09.2019
2488 Clouds 10 1016 76 10000 3.6 150 10:59 05.09.2019
2489 Clouds 10 1016 76 10000 3.1 150 10:37 05.09.2019
2490 Clouds 10 1016 76 10000 3.1 150 10:37 05.09.2019
2491 Clouds 10 1016 76 10000 3.1 160 10:19 05.09.2019
2492 Clouds 10 1016 76 10000 3.1 160 09:41 05.09.2019
2493 Clouds 10 1016 81 10000 3.6 160 09:22 05.09.2019
2494 Clouds 10 1016 81 10000 3.6 160 08:56 05.09.2019
2495 Clouds 10 1016 81 10000 3.6 160 08:38 05.09.2019
2496 Clouds 10 1016 81 10000 3.6 160 08:19 05.09.2019
2497 Clouds 10 1015 81 10000 3.6 150 07:44 05.09.2019
2498 Clouds 10 1015 81 10000 3.6 150 07:24 05.09.2019
2499 Clouds 10 1015 81 10000 4.1 150 06:46 05.09.2019
2500 Clouds 10 1015 81 10000 4.1 150 06:26 05.09.2019
2501 Clouds 11 1014 81 10000 4.1 160 05:46 05.09.2019
2502 Clouds 11 1014 81 10000 4.1 160 05:27 05.09.2019
2503 Clouds 12 1013 76 10000 5.7 170 04:30 05.09.2019
2504 Clouds 12 1013 76 10000 4.6 160 03:52 05.09.2019
2505 Clouds 13 1013 76 10000 4.6 160 02:58 05.09.2019
2506 Clouds 14 1012 66 10000 4.1 170 02:38 05.09.2019
2507 Clouds 15 1011 62 10000 4.6 210 02:18 05.09.2019
2508 Clouds 16 1011 62 10000 4.6 210 00:58 05.09.2019
2509 Clouds 16 1012 42 8000 2.6 250 00:39 05.09.2019
2510 Clouds 18 1011 55 10000 5.7 160 00:19 05.09.2019
2511 Clouds 19 1012 24 7000 3.1 240 23:41 04.09.2019
2512 Clouds 20 1012 21 10000 2.6 200 23:22 04.09.2019
2513 Clouds 21 1012 21 10000 2.6 200 22:49 04.09.2019
2514 Clouds 22 1009 39 0 2.95 239.906 22:21 04.09.2019
2515 Clouds 22 1009 40 0 2.95 239.906 21:57 04.09.2019
2516 Clouds 22 1009 38 0 3.32 244.695 21:38 04.09.2019
2517 Clouds 22 1009 37 0 3.32 244.695 21:38 04.09.2019
2518 Clouds 23 1009 36 0 2.75 234.68 21:19 04.09.2019
2519 Clouds 23 1009 34 0 2.75 234.68 20:55 04.09.2019
2520 Clouds 23 1009 34 0 2.75 234.68 20:55 04.09.2019
2521 Clouds 22 1009 30 0 2.75 234.68 20:36 04.09.2019
2522 Clouds 22 1009 40 0 2.75 234.68 20:18 04.09.2019
2523 Clouds 24 1009 41 0 2.75 234.68 19:40 04.09.2019
2524 Clouds 23 1009 41 0 2.75 234.68 19:21 04.09.2019
2525 Clouds 23 1010 40 0 2.75 234.68 18:55 04.09.2019
2526 Clouds 23 1010 40 0 2.75 234.68 18:36 04.09.2019
2527 Clear 19 1013 22 10000 2.1 170 18:18 04.09.2019
2528 Clear 20 1013 22 10000 2.1 170 17:41 04.09.2019
2529 Clear 19 1013 22 10000 2.1 170 17:22 04.09.2019
2530 Clouds 18 1013 21 10000 2.1 230 16:56 04.09.2019
2531 Clouds 18 1013 21 10000 2.1 230 16:38 04.09.2019
2532 Clouds 17 1014 33 10000 1.46 238.909 16:19 04.09.2019
2533 Clouds 16 1014 33 10000 1.46 238.909 15:41 04.09.2019
2534 Clouds 15 1014 33 10000 0.91 260.288 15:22 04.09.2019
2535 Clouds 15 1014 33 10000 0.91 260.288 15:22 04.09.2019
2536 Clouds 13 1013 37 10000 0.91 260.288 14:58 04.09.2019
2537 Clouds 12 1013 37 10000 0.91 260.288 14:38 04.09.2019
2538 Clouds 13 1012 45 7000 1 0 14:20 04.09.2019
2539 Clouds 13 1012 45 7000 1 0 13:58 04.09.2019
2540 Clouds 12 1011 49 8000 0.91 260.288 13:39 04.09.2019
2541 Clouds 12 1011 49 8000 0.95 259.473 13:21 04.09.2019
2542 Clouds 12 1011 45 10000 0.95 259.473 12:44 04.09.2019
2543 Clouds 9 1011 45 10000 0.48 281.73 12:26 04.09.2019
2544 Clouds 9 1011 45 10000 0.48 281.73 11:58 04.09.2019
2545 Clear 10 1011 39 10000 1.5 70 11:38 04.09.2019
2546 Clear 10 1011 43 10000 0.5 0 11:20 04.09.2019
2547 Clear 10 1011 43 10000 0.5 0 10:56 04.09.2019
2548 Clear 12 1011 43 10000 0.5 0 10:36 04.09.2019
2549 Clear 12 1011 43 10000 0.5 0 10:18 04.09.2019
2550 Clear 12 1012 43 10000 1 0 09:44 04.09.2019
2551 Clear 12 1012 43 10000 1 0 09:20 04.09.2019
2552 Clear 13 1013 32 10000 2.1 60 08:42 04.09.2019
2553 Clear 14 1013 32 10000 2.1 60 08:24 04.09.2019
2554 Clear 13 1013 40 10000 1.5 320 07:58 04.09.2019
2555 Clear 13 1013 40 10000 1.5 320 07:35 04.09.2019
2556 Clear 11 1013 37 10000 0.15 203.051 06:53 04.09.2019
2557 Clear 13 1013 37 10000 0.15 203.051 06:32 04.09.2019
2558 Clear 15 1013 28 10000 1.5 150 04:54 04.09.2019
2559 Clear 15 1013 28 10000 1.5 150 04:22 04.09.2019
2560 Clear 18 1013 22 10000 4.1 140 02:36 04.09.2019
2561 Clear 21 1012 20 10000 3.1 180 00:58 04.09.2019
2562 Clouds 22 1013 11 10000 1.5 260 00:39 04.09.2019
2563 Clear 22 1012 12 10000 3.6 160 00:18 04.09.2019
2564 Clear 23 1013 10 10000 2.6 0 23:48 03.09.2019
2565 Clear 23 1013 10 10000 2.6 0 23:26 03.09.2019
2566 Clear 23 1014 11 10000 3.1 220 22:41 03.09.2019
2567 Clear 23 1012 10 10000 3.1 150 22:22 03.09.2019
2568 Clear 23 1012 10 10000 3.1 150 21:57 03.09.2019
2569 Clear 23 1014 9 10000 2.6 260 21:38 03.09.2019
2570 Clear 23 1013 10 10000 3.1 190 21:20 03.09.2019
2571 Clear 23 1014 11 10000 2.6 250 20:55 03.09.2019
2572 Clear 23 1014 11 10000 2.6 250 20:36 03.09.2019
2573 Clear 23 1013 11 10000 3.6 190 20:18 03.09.2019
2574 Clear 22 1015 15 10000 2.6 0 19:43 03.09.2019
2575 Clear 22 1015 15 10000 2.6 0 19:20 03.09.2019
2576 Clear 20 1015 38 10000 1.5 230 18:57 03.09.2019
2577 Clear 20 1015 38 10000 1.5 230 18:57 03.09.2019
2578 Clear 20 1015 38 10000 1.5 230 18:38 03.09.2019
2579 Clear 20 1015 39 10000 1.5 230 18:19 03.09.2019
2580 Clear 19 1015 20 10000 1.5 0 17:55 03.09.2019
2581 Clear 19 1015 20 10000 1.5 0 17:55 03.09.2019
2582 Clear 19 1015 20 10000 1.5 0 17:55 03.09.2019
2583 Clear 19 1015 20 10000 1.5 0 17:36 03.09.2019
2584 Clear 17 1015 24 10000 1.5 200 17:18 03.09.2019
2585 Clear 16 1015 24 10000 1.5 200 16:42 03.09.2019
2586 Clear 16 1015 24 10000 1.5 200 16:22 03.09.2019
2587 Clear 16 1015 24 10000 1.5 200 16:22 03.09.2019
2588 Clear 15 1015 30 10000 0.96 189.886 15:55 03.09.2019
2589 Clear 15 1015 30 10000 0.96 189.886 15:37 03.09.2019
2590 Clear 8 1015 39 10000 1.5 100 15:19 03.09.2019
2591 Clear 11 1015 39 10000 1.5 100 14:55 03.09.2019
2592 Clear 9 1015 42 10000 1 60 14:36 03.09.2019
2593 Clear 3 1015 59 10000 1 0 14:18 03.09.2019
2594 Clear 8 1015 59 10000 1 0 13:55 03.09.2019
2595 Clear 6 1015 55 10000 1.5 350 13:36 03.09.2019
2596 Clear 5 1015 55 10000 1.5 350 13:18 03.09.2019
2597 Clear 5 1015 59 10000 1 0 12:45 03.09.2019
2598 Clear 5 1015 59 10000 1 0 12:26 03.09.2019
2599 Clear 6 1015 55 10000 0.5 0 11:43 03.09.2019
2600 Clear 6 1015 55 10000 0.5 0 11:23 03.09.2019
2601 Clear 6 1015 55 10000 0.5 0 10:58 03.09.2019
2602 Clear 7 1015 56 10000 2.6 30 10:39 03.09.2019
2603 Clear 6 1015 56 10000 2.6 30 10:21 03.09.2019
2604 Clear 5 1015 59 10000 1.5 360 09:49 03.09.2019
2605 Clear 5 1015 59 10000 1.5 360 09:31 03.09.2019
2606 Clear 6 1015 59 10000 1.5 360 08:57 03.09.2019
2607 Clear 7 1016 48 10000 0.7 68.395 08:37 03.09.2019
2608 Clear 8 1016 48 10000 0.7 68.395 08:19 03.09.2019
2609 Clear 8 1016 48 10000 0.5 300 07:42 03.09.2019
2610 Clear 8 1016 48 10000 0.5 300 07:24 03.09.2019
2611 Clear 9 1017 49 10000 1 0 06:45 03.09.2019
2612 Clear 9 1017 49 10000 1 0 06:27 03.09.2019
2613 Clear 12 1016 32 10000 3.1 150 03:44 03.09.2019
2614 Clear 14 1016 26 10000 3.6 140 02:47 03.09.2019
2615 Clear 15 1016 26 10000 3.6 140 02:26 03.09.2019
2616 Clear 17 1015 21 10000 5.7 210 01:52 03.09.2019
2617 Clear 19 1015 21 10000 5.7 210 01:33 03.09.2019
2618 Clear 19 1016 20 10000 2.6 240 00:56 03.09.2019
2619 Clear 19 1016 20 10000 2.6 240 00:26 03.09.2019
2620 Clear 22 1015 10 10000 2.1 240 23:40 02.09.2019
2621 Clear 22 1015 10 10000 2.1 240 23:40 02.09.2019
2622 Clear 22 1015 12 10000 3.1 230 23:20 02.09.2019
2623 Clear 22 1015 12 10000 3.1 230 22:57 02.09.2019
2624 Clear 22 1015 12 10000 3.1 230 22:57 02.09.2019
2625 Clear 22 1015 12 10000 3.1 230 22:39 02.09.2019
2626 Clear 22 1014 10 10000 4.6 180 22:20 02.09.2019
2627 Clear 22 1014 10 10000 4.6 180 21:58 02.09.2019
2628 Clear 22 1015 14 10000 1.5 240 21:40 02.09.2019
2629 Clear 22 1014 10 10000 4.6 160 21:20 02.09.2019
2630 Clear 22 1014 10 10000 4.6 160 20:59 02.09.2019
2631 Clear 21 1016 15 10000 1.5 310 20:40 02.09.2019
2632 Clear 21 1015 16 10000 3.6 170 20:19 02.09.2019
2633 Clear 21 1015 16 10000 3.6 170 19:56 02.09.2019
2634 Clear 20 1016 19 10000 1.5 250 19:38 02.09.2019
2635 Clear 20 1016 19 10000 1.5 250 19:38 02.09.2019
2636 Clear 20 1016 19 10000 1.5 250 19:19 02.09.2019
2637 Clear 19 1017 22 10000 1 240 18:40 02.09.2019
2638 Clear 19 1017 22 10000 1 240 18:22 02.09.2019
2639 Clear 19 1017 22 10000 1 240 17:58 02.09.2019
2640 Clear 18 1017 26 10000 3.1 240 17:39 02.09.2019
2641 Clear 15 1016 25 10000 1.11 194.036 17:20 02.09.2019
2642 Clear 16 1016 25 10000 1.11 194.036 16:54 02.09.2019
2643 Clear 15 1016 25 10000 1.11 194.036 16:36 02.09.2019
2644 Clear 13 1016 40 10000 2.1 340 16:18 02.09.2019
2645 Clear 11 1016 40 10000 1.5 30 15:44 02.09.2019
2646 Clear 10 1016 52 10000 1 0 15:22 02.09.2019
2647 Clear 10 1016 52 10000 1 0 15:22 02.09.2019
2648 Clear 8 1016 52 10000 1 90 14:56 02.09.2019
2649 Clear 8 1016 52 10000 1 90 14:37 02.09.2019
2650 Clear 9 1016 64 10000 1 0 14:19 02.09.2019
2651 Clear 6 1015 64 10000 2.1 150 13:45 02.09.2019
2652 Clear 6 1015 64 10000 2.1 150 13:25 02.09.2019
2653 Clear 6 1015 64 10000 2.1 150 12:59 02.09.2019
2654 Clear 6 1014 60 10000 1 0 12:40 02.09.2019
2655 Clear 6 1014 60 10000 1 0 12:40 02.09.2019
2656 Clear 5 1014 64 10000 3.1 40 12:22 02.09.2019
2657 Clear 6 1014 64 10000 3.1 40 11:56 02.09.2019
2658 Clear 6 1014 64 10000 3.1 40 11:37 02.09.2019
2659 Clear 6 1015 69 10000 1.5 10 11:19 02.09.2019
2660 Clear 6 1015 69 10000 1.5 10 10:42 02.09.2019
2661 Clear 7 1015 56 10000 1 88.913 10:22 02.09.2019
2662 Clear 7 1015 56 10000 1 88.913 09:58 02.09.2019
2663 Clear 8 1015 56 10000 1.06 81.472 09:39 02.09.2019
2664 Clear 8 1015 56 10000 0.5 0 09:20 02.09.2019
2665 Clear 8 1015 56 10000 0.5 0 08:43 02.09.2019
2666 Clear 9 1015 42 10000 2.1 160 08:22 02.09.2019
2667 Clear 10 1015 42 10000 2.1 160 07:57 02.09.2019
2668 Clear 10 1015 42 10000 2.1 160 07:37 02.09.2019
2669 Clear 10 1015 42 10000 2.1 160 07:19 02.09.2019
2670 Clear 10 1015 69 10000 0.5 0 06:42 02.09.2019
2671 Clear 11 1016 43 10000 0.67 52.515 05:54 02.09.2019
2672 Clear 11 1016 43 10000 0.67 52.515 05:54 02.09.2019
2673 Clear 11 1016 43 10000 0.67 52.515 05:25 02.09.2019
2674 Clear 12 1016 35 10000 1 0 04:48 02.09.2019
2675 Clear 15 1015 38 10000 3.1 180 02:29 02.09.2019
2676 Clear 18 1015 31 10000 4.1 210 01:37 02.09.2019
2677 Clear 20 1016 19 10000 3.6 210 00:42 02.09.2019
2678 Clear 20 1016 19 10000 3.6 210 00:20 02.09.2019
2679 Clear 22 1015 17 10000 3.1 230 23:39 01.09.2019
2680 Clear 22 1014 15 10000 6.7 180 23:19 01.09.2019
2681 Clear 22 1014 15 10000 6.7 180 22:56 01.09.2019
2682 Clear 22 1015 15 10000 2.6 220 22:38 01.09.2019
2683 Clear 22 1015 15 10000 2.6 220 22:38 01.09.2019
2684 Clear 23 1014 18 10000 6.2 170 22:18 01.09.2019
2685 Clear 23 1016 17 10000 2.6 190 21:43 01.09.2019
2686 Clear 23 1014 15 10000 5.7 170 21:23 01.09.2019
2687 Clear 23 1014 15 10000 5.7 170 20:58 01.09.2019
2688 Clear 22 1016 17 10000 2.1 220 20:39 01.09.2019
2689 Clear 22 1015 14 10000 4.6 160 20:19 01.09.2019
2690 Clear 22 1015 14 10000 4.6 160 19:59 01.09.2019
2691 Clear 22 1017 21 10000 2.1 240 19:40 01.09.2019
2692 Clear 22 1017 21 10000 2.1 240 19:21 01.09.2019
2693 Clear 21 1017 24 10000 2.1 240 18:48 01.09.2019
2694 Clear 20 1017 24 10000 2.1 240 18:30 01.09.2019
2695 Clear 19 1018 27 10000 1.5 190 17:59 01.09.2019
2696 Clear 19 1018 27 10000 1.5 190 17:39 01.09.2019
2697 Clear 18 1017 33 10000 1 0 17:21 01.09.2019
2698 Clear 17 1018 30 10000 1 0 16:41 01.09.2019
2699 Clear 17 1018 30 10000 1 0 16:41 01.09.2019
2700 Clear 17 1018 30 10000 1 0 16:41 01.09.2019
2701 Clear 14 1017 37 10000 1 0 16:21 01.09.2019
2702 Clear 14 1017 37 10000 1 0 15:59 01.09.2019
2703 Clear 12 1018 40 10000 1 210 15:41 01.09.2019
2704 Clear 10 1018 52 10000 1 0 15:22 01.09.2019
2705 Clear 9 1018 65 10000 1 60 14:44 01.09.2019
2706 Clear 4 1018 65 10000 1 60 14:26 01.09.2019
2707 Clear 8 1017 64 10000 1.31 75.751 13:59 01.09.2019
2708 Clear 7 1017 64 10000 1.31 75.751 13:40 01.09.2019
2709 Clear 6 1017 64 10000 1.31 78.63 13:21 01.09.2019
2710 Clear 7 1017 60 10000 1.5 90 12:43 01.09.2019
2711 Clouds 7 1017 60 10000 0.32 103.772 12:25 01.09.2019
2712 Clouds 7 1017 60 10000 0.32 103.772 12:25 01.09.2019
2713 Clouds 7 1017 60 10000 0.32 103.772 11:56 01.09.2019
2714 Clouds 7 1017 60 10000 0.32 103.772 11:38 01.09.2019
2715 Clouds 7 1017 60 10000 0.32 103.772 11:18 01.09.2019
2716 Clouds 6 1018 65 10000 1.5 20 10:44 01.09.2019
2717 Clouds 6 1018 65 10000 1.5 20 10:44 01.09.2019
2718 Clouds 7 1018 65 10000 1.5 20 10:23 01.09.2019
2719 Clear 7 1018 65 10000 0.5 0 09:47 01.09.2019
2720 Clear 7 1018 65 10000 0.5 0 09:26 01.09.2019
2721 Clear 7 1018 65 10000 0.5 0 08:56 01.09.2019
2722 Clear 8 1018 65 10000 0.55 115.592 08:37 01.09.2019
2723 Clear 9 1019 52 10000 1.5 190 08:19 01.09.2019
2724 Clear 9 1019 52 10000 1.5 190 07:41 01.09.2019
2725 Clear 9 1019 52 10000 1.5 190 07:41 01.09.2019
2726 Clear 10 1019 52 10000 1.5 190 07:19 01.09.2019
2727 Clear 9 1019 52 10000 0.5 0 06:38 01.09.2019
2728 Clear 11 1019 70 10000 1 0 05:58 01.09.2019
2729 Clear 10 1019 52 10000 0.5 0 05:58 01.09.2019
2730 Clear 11 1019 50 10000 1 0 04:40 01.09.2019
2731 Clear 13 1019 35 10000 2.1 170 03:44 01.09.2019
2732 Clear 13 1019 35 10000 2.1 170 03:19 01.09.2019
2733 Clear 15 1019 70 10000 1.5 160 02:30 01.09.2019
2734 Clear 17 1018 70 10000 5.1 220 01:58 01.09.2019
2735 Clear 19 1018 69 10000 5.1 220 01:26 01.09.2019
2736 Clear 19 1019 24 10000 3.1 230 00:47 01.09.2019
2737 Clear 20 1017 48 10000 5.7 210 00:23 01.09.2019
2738 Clear 20 1017 48 10000 5.7 210 23:59 31.08.2019
2739 Clouds 21 1018 15 10000 2.6 220 23:39 31.08.2019
2740 Clouds 22 1018 15 10000 3.1 230 23:19 31.08.2019
2741 Clouds 22 1018 15 10000 3.1 230 23:19 31.08.2019
2742 Clouds 22 1018 15 10000 3.1 230 22:54 31.08.2019
2743 Clouds 22 1018 15 10000 3.1 230 22:36 31.08.2019
2744 Clear 22 1018 18 10000 2.6 270 22:18 31.08.2019
2745 Clear 22 1018 18 10000 2.6 270 21:41 31.08.2019
2746 Clouds 22 1019 21 8000 2.6 270 21:21 31.08.2019
2747 Clouds 22 1019 21 8000 2.6 270 20:50 31.08.2019
2748 Clouds 22 1019 21 8000 2.6 270 20:31 31.08.2019
2749 Clear 21 1018 16 10000 4.6 170 19:59 31.08.2019
2750 Clouds 21 1020 39 9000 1.5 200 19:40 31.08.2019
2751 Clouds 21 1020 39 9000 1.5 200 19:21 31.08.2019
2752 Clear 20 1020 27 10000 1.5 200 18:41 31.08.2019
2753 Clear 18 1019 41 10000 1 0 18:21 31.08.2019
2754 Clear 18 1019 41 10000 1 0 17:58 31.08.2019
2755 Clear 17 1020 33 10000 1 320 17:37 31.08.2019
2756 Clear 17 1020 33 10000 1 320 17:37 31.08.2019
2757 Clear 14 1020 41 10000 1 190 17:19 31.08.2019
2758 Clear 14 1020 41 10000 1 190 16:59 31.08.2019
2759 Clear 14 1020 41 10000 1 190 16:41 31.08.2019
2760 Clear 9 1020 53 10000 1.22 174.984 16:21 31.08.2019
2761 Clear 11 1020 53 10000 1.22 174.984 15:59 31.08.2019
2762 Clear 11 1020 53 10000 1.22 174.984 15:38 31.08.2019
2763 Clear 8 1020 68 10000 1 50 15:18 31.08.2019
2764 Clear 7 1020 68 10000 1 50 14:42 31.08.2019
2765 Clear 7 1020 68 10000 1 50 14:23 31.08.2019
2766 Clouds 6 1019 68 8000 1 0 13:43 31.08.2019
2767 Clouds 7 1019 69 8000 1 0 13:23 31.08.2019
2768 Clouds 6 1019 69 8000 1 0 12:59 31.08.2019
2769 Clear 7 1019 69 10000 1.16 93.398 12:41 31.08.2019
2770 Clear 7 1019 79 10000 0.52 103.094 12:21 31.08.2019
2771 Clear 7 1019 79 10000 0.52 103.094 12:21 31.08.2019
2772 Clear 8 1019 79 10000 0.52 103.094 11:58 31.08.2019
2773 Clear 7 1018 79 10000 0.52 103.094 11:40 31.08.2019
2774 Clear 7 1018 79 10000 0.52 103.094 11:22 31.08.2019
2775 Clear 7 1018 79 10000 0.52 103.094 10:43 31.08.2019
2776 Clear 8 1018 79 10000 0.52 103.094 10:19 31.08.2019
2777 Clear 8 1018 79 10000 0.52 103.094 10:00 31.08.2019
2778 Clear 7 1018 80 10000 0.5 0 09:39 31.08.2019
2779 Clear 7 1018 80 10000 0.5 0 09:21 31.08.2019
2780 Clear 8 1019 80 10000 1 0 08:44 31.08.2019
2781 Clear 8 1019 80 10000 1 0 08:26 31.08.2019
2782 Clear 9 1019 57 10000 2.1 360 07:42 31.08.2019
2783 Clear 9 1019 57 10000 2.1 360 07:23 31.08.2019
2784 Clear 10 1020 80 10000 1.5 0 06:56 31.08.2019
2785 Clear 11 1020 81 10000 4.1 150 06:21 31.08.2019
2786 Clear 11 1020 81 10000 4.1 150 05:34 31.08.2019
2787 Clear 11 1020 40 10000 4.6 170 04:39 31.08.2019
2788 Clear 13 1019 35 10000 5.7 190 03:50 31.08.2019
2789 Clear 14 1019 35 10000 5.7 190 02:59 31.08.2019
2790 Clear 16 1019 38 10000 4.1 210 01:59 31.08.2019
2791 Clear 16 1019 38 10000 4.1 210 01:41 31.08.2019
2792 Clear 16 1019 38 10000 4.1 210 01:41 31.08.2019
2793 Clear 19 1020 22 10000 2.6 220 01:22 31.08.2019
2794 Clear 19 1020 22 10000 2.6 220 00:42 31.08.2019
2795 Clear 19 1020 22 10000 2.6 220 00:42 31.08.2019
2796 Clear 19 1020 22 10000 2.6 220 00:24 31.08.2019
2797 Clear 20 1020 24 10000 2.1 210 23:47 30.08.2019
2798 Clear 20 1020 30 10000 2.6 240 23:18 30.08.2019
2799 Clear 20 1020 30 10000 2.6 240 22:55 30.08.2019
2800 Clear 20 1020 30 10000 2.6 240 22:55 30.08.2019
2801 Clear 20 1020 30 10000 2.6 240 22:37 30.08.2019
2802 Clear 20 1019 34 10000 5.7 180 22:18 30.08.2019
2803 Clear 20 1019 34 10000 5.7 180 21:54 30.08.2019
2804 Clear 20 1020 40 8000 3.1 200 21:36 30.08.2019
2805 Clouds 20 1020 39 6000 3.1 220 21:18 30.08.2019
2806 Clouds 20 1020 39 6000 3.1 220 20:42 30.08.2019
2807 Haze 20 1019 42 10000 6.2 170 20:22 30.08.2019
2808 Haze 20 1019 42 10000 6.2 170 19:59 30.08.2019
2809 Haze 20 1020 39 5000 2.6 210 19:40 30.08.2019
2810 Haze 19 1020 39 5000 2.6 210 19:21 30.08.2019
2811 Haze 19 1020 51 5000 1.5 270 18:58 30.08.2019
2812 Haze 19 1020 51 5000 1.5 270 18:39 30.08.2019
2813 Haze 18 1020 51 5000 1.5 270 18:20 30.08.2019
2814 Haze 15 1021 62 5000 2.1 300 17:56 30.08.2019
2815 Haze 15 1021 62 5000 2.1 300 17:56 30.08.2019
2816 Haze 15 1021 62 5000 2.1 300 17:37 30.08.2019
2817 Haze 15 1021 62 5000 2.1 300 17:37 30.08.2019
2818 Haze 15 1021 62 5000 2.1 300 17:37 30.08.2019
2819 Haze 14 1021 66 5000 1.5 240 17:18 30.08.2019
2820 Haze 14 1021 66 5000 1.5 240 16:43 30.08.2019
2821 Haze 12 1021 71 5000 1 250 16:25 30.08.2019
2822 Haze 12 1021 71 5000 1 250 15:54 30.08.2019
2823 Haze 12 1021 71 5000 1 250 15:36 30.08.2019
2824 Haze 10 1020 76 5000 0.12 86.248 15:18 30.08.2019
2825 Haze 10 1020 76 5000 0.12 86.248 14:42 30.08.2019
2826 Haze 10 1020 76 5000 0.12 86.248 14:23 30.08.2019
2827 Clouds 10 1020 87 10000 3.1 160 13:45 30.08.2019
2828 Clouds 10 1020 87 10000 3.1 160 13:23 30.08.2019
2829 Clouds 10 1019 81 10000 3.1 160 12:59 30.08.2019
2830 Clouds 10 1019 81 10000 3.1 160 12:41 30.08.2019
2831 Clear 9 1019 93 10000 1.5 190 12:22 30.08.2019
2832 Clear 9 1019 93 10000 1.5 190 11:43 30.08.2019
2833 Clear 9 1019 93 10000 1.5 190 11:24 30.08.2019
2834 Clear 10 1019 93 10000 1.5 190 10:57 30.08.2019
2835 Clouds 12 933 99 0 0.39 174.699 10:36 30.08.2019
2836 Clear 10 1019 87 10000 1 0 10:18 30.08.2019
2837 Clear 10 1019 87 10000 1 0 09:42 30.08.2019
2838 Clear 10 1019 87 10000 1 0 09:20 30.08.2019
2839 Clear 10 1019 87 10000 1 0 08:57 30.08.2019
2840 Clear 10 1019 87 10000 1 0 08:57 30.08.2019
2841 Clear 11 1019 87 10000 1 0 08:38 30.08.2019
2842 Clear 9 1019 87 10000 1 0 08:20 30.08.2019
2843 Clear 12 1019 81 10000 0.69 55.289 07:42 30.08.2019
2844 Clouds 12 1019 81 10000 4.6 140 07:23 30.08.2019
2845 Clouds 12 1019 81 10000 4.6 140 06:47 30.08.2019
2846 Clouds 12 1019 81 10000 4.6 140 06:29 30.08.2019
2847 Clouds 12 1019 76 10000 4.1 170 05:46 30.08.2019
2848 Clear 13 1018 76 10000 4.1 160 04:20 30.08.2019
2849 Clear 13 1018 76 10000 4.1 160 04:20 30.08.2019
2850 Clear 13 1018 76 10000 4.1 160 03:38 30.08.2019
2851 Clear 13 1018 76 10000 4.1 160 03:38 30.08.2019
2852 Clear 13 1018 76 10000 4.1 160 03:38 30.08.2019
2853 Clear 13 1018 76 10000 4.1 160 03:18 30.08.2019
2854 Clear 14 1018 76 10000 4.1 160 03:18 30.08.2019
2855 Clear 15 1018 67 10000 4.1 190 02:29 30.08.2019
2856 Clouds 18 1017 63 8000 6.2 200 01:30 30.08.2019
2857 Clear 18 1018 48 10000 2.6 0 00:45 30.08.2019
2858 Clouds 19 1017 59 8000 7.2 210 00:18 30.08.2019
2859 Clear 20 1019 40 10000 3.6 230 23:41 29.08.2019
2860 Clear 21 1018 37 10000 3.1 200 23:21 29.08.2019
2861 Clear 21 1018 37 10000 3.1 200 23:21 29.08.2019
2862 Clear 21 1018 37 10000 3.1 200 22:44 29.08.2019
2863 Clear 21 1018 37 10000 3.1 200 22:26 29.08.2019
2864 Clear 21 1017 45 10000 5.1 180 21:57 29.08.2019
2865 Clear 21 1018 35 10000 3.6 220 21:38 29.08.2019
2866 Clear 21 1017 45 10000 5.7 170 21:20 29.08.2019
2867 Clear 21 1018 40 10000 3.6 240 20:54 29.08.2019
2868 Clear 21 1018 40 10000 3.6 240 20:36 29.08.2019
2869 Clear 21 1018 40 10000 3.6 240 20:18 29.08.2019
2870 Clear 21 1019 45 10000 2.6 220 19:46 29.08.2019
2871 Clear 21 1019 45 10000 2.6 220 19:25 29.08.2019
2872 Clear 19 1019 48 10000 2.6 0 18:45 29.08.2019
2873 Clear 19 1019 48 10000 2.6 0 18:21 29.08.2019
2874 Clear 17 1019 51 10000 1.5 260 17:58 29.08.2019
2875 Clear 17 1019 51 10000 1.5 260 17:39 29.08.2019
2876 Clear 17 1019 51 10000 1.5 260 17:20 29.08.2019
2877 Clear 17 1019 51 10000 1.5 260 17:20 29.08.2019
2878 Clouds 16 1019 51 10000 1 70 16:59 29.08.2019
2879 Clear 16 1019 71 10000 2.1 190 16:40 29.08.2019
2880 Clear 14 1019 71 10000 2.1 190 16:22 29.08.2019
2881 Clear 14 1019 71 10000 2.1 190 16:22 29.08.2019
2882 Clear 14 1019 71 10000 2.1 190 16:22 29.08.2019
2883 Clouds 14 1020 62 10000 1.5 220 15:40 29.08.2019
2884 Clouds 12 1019 58 10000 1.04 254.077 15:21 29.08.2019
2885 Clouds 12 1019 58 10000 1.04 254.077 14:57 29.08.2019
2886 Clouds 12 1019 58 10000 1.04 254.077 14:37 29.08.2019
2887 Clouds 11 1018 81 10000 1.5 0 14:19 29.08.2019
2888 Clouds 10 1018 81 10000 1.5 0 13:55 29.08.2019
2889 Clouds 10 1018 81 10000 1.5 0 13:37 29.08.2019
2890 Clouds 10 1018 81 10000 1.5 0 13:18 29.08.2019
2891 Clouds 10 1018 81 10000 1.5 0 12:55 29.08.2019
2892 Clear 10 1018 76 10000 2.6 20 12:36 29.08.2019
2893 Clear 10 1018 76 10000 2.6 20 12:18 29.08.2019
2894 Clear 10 1018 76 10000 2.1 330 11:41 29.08.2019
2895 Clear 10 1018 76 10000 2.1 330 11:20 29.08.2019
2896 Clear 10 1018 76 10000 2.1 330 10:56 29.08.2019
2897 Clear 11 1018 76 10000 1.5 0 10:38 29.08.2019
2898 Clear 11 1018 76 10000 1.5 0 10:19 29.08.2019
2899 Clouds 13 1019 62 10000 4.1 140 09:41 29.08.2019
2900 Clouds 14 1019 62 10000 4.1 140 09:19 29.08.2019
2901 Clouds 14 1019 62 10000 3.1 150 08:45 29.08.2019
2902 Clouds 14 1019 62 10000 3.1 150 08:25 29.08.2019
2903 Clouds 14 1019 62 10000 3.1 150 07:54 29.08.2019
2904 Clouds 14 1019 62 10000 3.6 150 07:34 29.08.2019
2905 Clouds 14 1019 62 10000 3.6 150 06:59 29.08.2019
2906 Clouds 14 1019 62 10000 4.6 160 06:38 29.08.2019
2907 Clear 16 1019 44 10000 4.1 170 05:52 29.08.2019
2908 Clear 16 1019 44 10000 4.1 170 05:29 29.08.2019
2909 Clear 17 1019 33 10000 3.6 150 04:48 29.08.2019
2910 Clear 17 1019 33 10000 3.6 150 04:28 29.08.2019
2911 Clear 21 1017 26 10000 6.2 180 01:55 29.08.2019
2912 Clear 22 1017 26 10000 6.2 180 01:35 29.08.2019
2913 Clear 24 1018 33 10000 3.1 190 00:47 29.08.2019
2914 Clear 23 1017 33 10000 3.1 220 00:23 29.08.2019
2915 Clear 24 1017 33 10000 3.1 220 23:59 28.08.2019
2916 Clear 24 1017 33 10000 3.1 220 23:39 28.08.2019
2917 Clear 25 1017 29 10000 4.6 220 23:21 28.08.2019
2918 Clear 25 1017 29 10000 4.6 220 22:56 28.08.2019
2919 Clear 25 1017 29 10000 4.6 220 22:38 28.08.2019
2920 Clear 25 1015 34 10000 8.2 210 22:18 28.08.2019
2921 Clouds 25 1017 23 8000 3.6 230 21:41 28.08.2019
2922 Clouds 26 1017 23 8000 3.6 230 21:23 28.08.2019
2923 Clear 25 1015 26 10000 5.7 180 20:57 28.08.2019
2924 Clouds 26 1017 22 8000 3.1 220 20:38 28.08.2019
2925 Clear 26 1017 22 10000 1.5 300 20:20 28.08.2019
2926 Clear 27 1017 22 10000 1.5 300 19:42 28.08.2019
2927 Clear 27 1017 22 10000 1.5 300 19:22 28.08.2019
2928 Clear 25 1018 23 10000 3.67 244.594 18:58 28.08.2019
2929 Clear 25 1018 23 10000 3.67 244.594 18:37 28.08.2019
2930 Clear 22 1018 30 10000 1.5 240 18:19 28.08.2019
2931 Clear 22 1018 30 10000 1.5 240 17:38 28.08.2019
2932 Clear 19 1018 37 10000 1.5 210 17:19 28.08.2019
2933 Clear 19 1018 37 10000 1.5 210 16:45 28.08.2019
2934 Clear 16 1018 45 10000 2.08 235.584 16:23 28.08.2019
2935 Clear 18 1018 45 10000 2.08 235.584 15:59 28.08.2019
2936 Clear 18 1018 45 10000 2.08 235.584 15:38 28.08.2019
2937 Clouds 14 1017 58 10000 0.26 17.086 15:20 28.08.2019
2938 Clouds 14 1017 58 10000 0.26 17.086 14:57 28.08.2019
2939 Clouds 15 1017 58 10000 0.26 17.086 14:38 28.08.2019
2940 Clear 9 1016 76 10000 1.5 0 14:20 28.08.2019
2941 Clear 12 1016 76 10000 1.5 0 13:58 28.08.2019
2942 Clear 13 1016 76 10000 1.5 0 13:38 28.08.2019
2943 Clear 13 1016 76 10000 1.5 0 13:19 28.08.2019
2944 Clear 13 1015 62 10000 2.1 190 12:42 28.08.2019
2945 Clear 13 1015 62 10000 0.5 0 12:23 28.08.2019
2946 Clear 14 1015 62 10000 0.5 0 11:57 28.08.2019
2947 Clear 14 1015 62 10000 0.5 0 11:38 28.08.2019
2948 Clear 9 1015 76 10000 1.5 20 11:20 28.08.2019
2949 -273 0 0 0 0 0 10:55 28.08.2019
2950 Clear 12 1015 76 10000 1.5 20 10:37 28.08.2019
2951 Clear 12 1016 76 10000 1 330 10:18 28.08.2019
2952 Clear 13 1016 76 10000 1 330 09:41 28.08.2019
2953 Clear 14 1016 66 10000 1 0 09:20 28.08.2019
2954 Clear 14 1016 66 10000 1 0 08:39 28.08.2019
2955 Clear 15 1015 62 10000 1 0 08:21 28.08.2019
2956 Clear 15 1015 62 10000 1 0 07:45 28.08.2019
2957 Clear 15 1015 62 10000 1 0 07:25 28.08.2019
2958 Clear 14 1016 62 10000 2.6 40 06:59 28.08.2019
2959 Clear 15 1016 62 10000 2.6 40 06:40 28.08.2019
2960 Clear 17 1016 58 10000 2.1 330 05:44 28.08.2019
2961 Clear 20 1016 42 10000 3.6 150 03:32 28.08.2019
2962 Clear 21 1015 37 10000 3.1 200 01:50 28.08.2019
2963 Clear 23 1015 37 10000 3.1 200 01:29 28.08.2019
2964 Clear 24 1016 27 10000 1.5 210 00:41 28.08.2019
2965 Clear 24 1015 31 10000 4.1 210 23:59 27.08.2019
2966 Clear 25 1016 24 10000 2.6 210 23:40 27.08.2019
2967 Clear 25 1016 24 10000 2.6 210 23:40 27.08.2019
2968 Clear 26 1015 27 10000 6.2 180 23:21 27.08.2019
2969 Clear 26 1015 27 10000 6.2 180 22:56 27.08.2019
2970 Clouds 26 1016 18 6000 1.5 290 22:38 27.08.2019
2971 Clear 26 1015 22 10000 5.1 160 22:19 27.08.2019
2972 Clear 26 1015 22 10000 5.1 160 21:55 27.08.2019
2973 Clear 26 1015 22 10000 5.1 160 21:55 27.08.2019
2974 Clouds 26 1016 19 7000 2.6 230 21:36 27.08.2019
2975 Clear 26 1014 18 10000 3.1 180 21:18 27.08.2019
2976 Clouds 26 1017 24 8000 1.5 250 20:41 27.08.2019
2977 Clear 25 1015 22 10000 1.5 180 20:21 27.08.2019
2978 Clear 24 1015 22 10000 1.5 180 19:58 27.08.2019
2979 Clouds 26 1018 27 6000 1.5 250 19:40 27.08.2019
2980 Clouds 25 1018 27 6000 1.5 250 19:22 27.08.2019
2981 Clear 23 1018 30 10000 0.68 164.656 18:43 27.08.2019
2982 Clear 22 1018 30 10000 1.61 89.822 18:19 27.08.2019
2983 Clear 23 1018 30 10000 1.61 89.822 17:59 27.08.2019
2984 Clear 20 1019 37 10000 1 270 17:41 27.08.2019
2985 Clear 21 1019 37 10000 1 270 17:22 27.08.2019
2986 Clear 19 1019 36 10000 1.61 89.822 16:47 27.08.2019
2987 Clear 19 1019 36 10000 1.61 89.822 16:28 27.08.2019
2988 Clouds 18 1018 54 7000 1.5 360 15:58 27.08.2019
2989 Clear 17 1019 39 10000 1.61 89.822 15:40 27.08.2019
2990 Clear 12 1019 66 7000 1.5 0 15:21 27.08.2019
2991 Clear 14 1019 66 7000 1.5 0 14:57 27.08.2019
2992 Clear 13 1020 54 10000 1.5 30 14:37 27.08.2019
2993 Clear 7 1019 75 8000 1 0 14:18 27.08.2019
2994 Clear 10 1019 75 8000 1 0 13:41 27.08.2019
2995 Clear 10 1019 75 8000 1 0 13:21 27.08.2019
2996 Clear 9 1018 81 8000 2.1 0 12:42 27.08.2019
2997 Clear 10 1018 81 8000 2.1 0 12:21 27.08.2019
2998 Clear 10 1018 81 8000 2.1 0 11:58 27.08.2019
2999 Clear 10 1018 76 8000 3.1 30 11:40 27.08.2019
3000 Clear 10 1018 76 8000 3.1 30 11:21 27.08.2019
3001 Clear 10 1018 70 10000 1.5 0 10:41 27.08.2019
3002 Clear 11 1019 66 10000 2.11 75.898 10:20 27.08.2019
3003 Clear 11 1019 66 10000 2.11 75.898 09:57 27.08.2019
3004 Clear 11 1019 66 10000 2.11 75.898 09:37 27.08.2019
3005 Clear 12 1019 66 10000 1.06 77.689 09:19 27.08.2019
3006 Clear 11 1019 70 10000 1 0 08:46 27.08.2019
3007 Clear 9 1019 70 10000 1 0 08:24 27.08.2019
3008 Clear 9 1019 70 10000 1 0 07:55 27.08.2019
3009 Clear 12 1019 62 10000 1 0 07:37 27.08.2019
3010 Clear 12 1019 62 10000 1 0 07:18 27.08.2019
3011 Clear 12 1020 66 10000 1 0 06:45 27.08.2019
3012 Clear 12 1020 66 10000 1 0 06:19 27.08.2019
3013 Clear 13 1020 62 10000 1 0 05:28 27.08.2019
3014 Clear 15 1020 48 10000 0.5 0 03:44 27.08.2019
3015 Clear 18 1020 45 10000 1.5 200 02:55 27.08.2019
3016 Clouds 19 1019 42 10000 3.1 150 01:46 27.08.2019
3017 Clouds 21 1019 42 10000 3.1 150 01:25 27.08.2019
3018 Clouds 21 1021 28 9000 2.1 240 00:49 27.08.2019
3019 Clear 21 1019 37 10000 5.1 160 00:28 27.08.2019
3020 Clouds 22 1020 28 10000 2.1 210 23:44 26.08.2019
3021 Clouds 22 1020 28 10000 2.1 210 23:25 26.08.2019
3022 Clouds 22 1020 28 10000 2.1 190 22:59 26.08.2019
3023 Clouds 22 1020 28 10000 2.1 190 22:37 26.08.2019
3024 Clouds 22 1020 28 10000 2.1 190 22:18 26.08.2019
3025 Clouds 22 1021 30 8000 2.1 230 21:40 26.08.2019
3026 Clouds 23 1021 30 8000 2.1 230 21:22 26.08.2019
3027 Clouds 22 1022 35 6000 2.6 240 20:59 26.08.2019
3028 Clouds 22 1022 35 6000 2.6 240 20:40 26.08.2019
3029 Clouds 22 1022 35 6000 2.6 240 20:20 26.08.2019
3030 Clouds 21 1022 47 8000 2.1 220 19:58 26.08.2019
3031 Clouds 21 1022 47 8000 2.1 220 19:39 26.08.2019
3032 Clouds 21 1022 47 8000 2.1 220 19:19 26.08.2019
3033 Clouds 20 1022 47 10000 1 220 18:39 26.08.2019
3034 Clouds 19 1022 63 10000 1 220 18:21 26.08.2019
3035 Clouds 18 1023 63 10000 1.5 210 17:59 26.08.2019
3036 Clouds 18 1023 63 10000 1.5 210 17:41 26.08.2019
3037 Clouds 19 1023 63 10000 1.5 210 17:19 26.08.2019
3038 Clouds 17 1023 63 8000 1.4 205.432 16:56 26.08.2019
3039 Clouds 17 1023 63 8000 1.4 205.432 16:56 26.08.2019
3040 Clouds 17 1023 63 8000 1.4 205.432 16:38 26.08.2019
3041 Clouds 17 1023 63 8000 1.4 205.432 16:18 26.08.2019
3042 Haze 14 1022 63 9000 1.5 290 15:42 26.08.2019
3043 Haze 14 1022 83 9000 1.5 290 15:22 26.08.2019
3044 Clouds 13 1023 83 10000 1 250 14:57 26.08.2019
3045 Clouds 13 1023 83 10000 1 250 14:37 26.08.2019
3046 Clouds 12 1023 83 10000 1 250 14:19 26.08.2019
3047 Clouds 11 1022 81 8000 1.5 330 13:42 26.08.2019
3048 Clouds 11 1022 81 8000 1.5 330 13:21 26.08.2019
3049 Clouds 12 1022 71 10000 3.1 30 12:46 26.08.2019
3050 Clouds 12 1022 71 10000 3.1 30 12:28 26.08.2019
3051 Clouds 13 1021 71 10000 1.5 190 11:59 26.08.2019
3052 Clouds 13 1021 71 10000 1.5 190 11:38 26.08.2019
3053 Clouds 13 1021 71 10000 1.5 190 11:19 26.08.2019
3054 Clouds 12 1021 81 10000 2.6 0 10:55 26.08.2019
3055 Clouds 12 1021 81 10000 2.6 0 10:55 26.08.2019
3056 Clouds 12 1021 81 10000 2.6 0 10:36 26.08.2019
3057 Clouds 12 1020 76 10000 1 0 10:18 26.08.2019
3058 Clouds 12 1020 76 10000 1 0 09:41 26.08.2019
3059 Clouds 12 1020 76 10000 1 0 09:23 26.08.2019
3060 Clouds 12 1021 71 10000 0.5 0 08:56 26.08.2019
3061 Clouds 12 1021 71 10000 0.5 0 08:37 26.08.2019
3062 Clouds 12 1021 71 10000 0.5 0 08:19 26.08.2019
3063 Clouds 12 1021 71 10000 1 330 07:42 26.08.2019
3064 Clouds 13 1021 71 10000 1 330 07:24 26.08.2019
3065 Clear 14 1022 62 10000 1 210 06:50 26.08.2019
3066 Clear 14 1022 62 10000 1 210 06:25 26.08.2019
3067 Clouds 15 1022 58 10000 3.6 160 05:58 26.08.2019
3068 Clouds 15 1022 58 10000 2.6 170 04:35 26.08.2019
3069 Clouds 15 1022 55 10000 2.6 140 03:48 26.08.2019
3070 Clouds 18 1021 48 10000 2.6 180 02:19 26.08.2019
3071 Clouds 19 1020 45 10000 4.6 170 01:22 26.08.2019
3072 Clouds 20 1021 87 10000 1.5 210 00:43 26.08.2019
3073 Clouds 20 1021 70 10000 1.5 210 00:24 26.08.2019
3074 Clouds 21 1020 70 10000 2.1 190 23:44 25.08.2019
3075 Clouds 21 1020 70 10000 2.1 190 23:44 25.08.2019
3076 Clouds 21 1020 70 10000 2.1 190 23:20 25.08.2019
3077 Clouds 21 1020 70 8000 1.5 160 22:58 25.08.2019
3078 Clouds 21 1020 70 8000 1.5 160 22:39 25.08.2019
3079 Clouds 21 1020 70 8000 1.5 160 22:20 25.08.2019
3080 Clouds 20 1020 70 10000 1.5 180 21:58 25.08.2019
3081 Clouds 20 1020 67 10000 1.5 180 21:39 25.08.2019
3082 Clouds 20 1020 60 10000 1.5 180 21:18 25.08.2019
3083 Clouds 19 1020 60 8000 2.1 260 20:41 25.08.2019
3084 Clouds 19 1020 60 8000 2.1 260 20:20 25.08.2019
3085 Clouds 19 1020 60 10000 2.1 240 19:59 25.08.2019
3086 Clouds 19 1020 60 10000 2.1 240 19:39 25.08.2019
3087 Clouds 19 1020 60 10000 2.1 240 19:39 25.08.2019
3088 Clouds 19 1020 60 10000 2.1 240 19:20 25.08.2019
3089 Clouds 18 1019 60 10000 2.97 238.944 18:58 25.08.2019
3090 Clouds 18 1019 60 10000 2.97 238.944 18:40 25.08.2019
3091 Clouds 18 1020 69 7000 1.5 280 18:21 25.08.2019
3092 Clouds 18 1020 69 7000 1.5 280 17:55 25.08.2019
3093 Clouds 18 1020 69 7000 1.5 280 17:36 25.08.2019
3094 Clouds 18 1020 69 7000 1.5 280 17:18 25.08.2019
3095 Clouds 16 1019 69 10000 2.13 219.41 16:39 25.08.2019
3096 Clouds 16 1019 69 10000 2.13 219.41 16:21 25.08.2019
3097 Clouds 15 1019 69 8000 2.13 219.41 15:44 25.08.2019
3098 Clouds 14 1019 69 8000 2.13 219.41 15:26 25.08.2019
3099 -273 0 0 0 0 0 14:55 25.08.2019
3100 Clouds 13 1018 85 10000 1.14 288.403 14:55 25.08.2019
3101 Clouds 13 1018 85 10000 1.14 288.403 14:37 25.08.2019
3102 Clouds 13 1018 85 10000 1.14 288.403 14:19 25.08.2019
3103 Clouds 13 1017 71 10000 1.14 288.403 13:43 25.08.2019
3104 Clouds 13 1017 71 10000 0.77 274.086 13:20 25.08.2019
3105 Clouds 13 1017 71 10000 0.77 274.086 12:54 25.08.2019
3106 Clouds 14 1017 71 10000 0.77 274.086 12:36 25.08.2019
3107 Clouds 13 1017 71 10000 2.01 68.098 12:18 25.08.2019
3108 Clouds 13 1016 66 10000 2.1 340 11:41 25.08.2019
3109 Clouds 14 1016 66 10000 2.1 340 11:22 25.08.2019
3110 Clouds 13 1016 76 10000 1.5 0 10:59 25.08.2019
3111 Clouds 13 1016 76 10000 1.5 0 10:40 25.08.2019
3112 Clouds 13 1016 76 10000 1.5 0 10:20 25.08.2019
3113 Clouds 13 1016 76 10000 1.5 0 10:20 25.08.2019
3114 Clouds 13 1017 71 10000 1.5 330 09:55 25.08.2019
3115 Clouds 13 1017 71 10000 1.5 330 09:37 25.08.2019
3116 Clouds 13 1017 71 10000 1.5 330 09:18 25.08.2019
3117 Clouds 14 1018 66 10000 2.6 0 08:41 25.08.2019
3118 Clouds 14 1018 66 10000 2.6 0 08:20 25.08.2019
3119 Clear 14 1018 62 10000 3.6 0 07:35 25.08.2019
3120 Clear 14 1018 62 10000 2.6 160 06:46 25.08.2019
3121 Clear 14 1018 62 10000 2.6 160 06:46 25.08.2019
3122 Clouds 15 1017 58 10000 2.1 180 05:43 25.08.2019
3123 Clouds 15 1017 58 10000 1 320 04:32 25.08.2019
3124 Clouds 16 1017 51 10000 2.6 160 03:31 25.08.2019
3125 Clouds 17 1017 45 10000 3.6 150 02:39 25.08.2019
3126 Haze 20 1017 42 10000 3.1 170 01:24 25.08.2019
3127 Haze 21 1018 82 5000 2.1 230 00:39 25.08.2019
3128 Haze 20 1018 60 5000 2.1 230 00:20 25.08.2019
3129 Haze 21 1018 60 5000 3.1 220 23:50 24.08.2019
3130 Haze 21 1018 60 5000 3.1 220 23:22 24.08.2019
3131 Haze 23 1017 60 5000 3.1 0 22:55 24.08.2019
3132 Haze 23 1017 60 5000 3.1 0 22:37 24.08.2019
3133 Haze 23 1017 60 5000 3.1 0 22:19 24.08.2019
3134 Haze 23 1017 60 5000 1.5 230 21:55 24.08.2019
3135 Haze 23 1017 60 5000 1.5 230 21:36 24.08.2019
3136 Haze 23 1017 49 5000 1.5 230 21:18 24.08.2019
3137 Clouds 23 1018 49 7000 1.5 180 20:42 24.08.2019
3138 Clouds 23 1018 49 7000 1.5 180 20:20 24.08.2019
3139 Clouds 22 1019 49 7000 1 270 19:59 24.08.2019
3140 Clouds 24 1019 49 7000 1 270 19:41 24.08.2019
3141 Clouds 23 1019 49 7000 1 270 19:22 24.08.2019
3142 Clouds 22 1019 49 10000 1.5 200 18:59 24.08.2019
3143 Clouds 21 1019 49 10000 1.5 200 18:38 24.08.2019
3144 Clouds 20 1019 61 10000 1.5 200 18:19 24.08.2019
3145 Clouds 20 1020 61 10000 1 310 17:43 24.08.2019
3146 Clouds 19 1020 61 10000 1 310 17:24 24.08.2019
3147 Clouds 18 1020 61 8000 1 160 16:48 24.08.2019
3148 Clouds 16 1020 61 8000 1 160 16:20 24.08.2019
3149 Clouds 16 1020 61 8000 0.81 176.03 15:58 24.08.2019
3150 Clouds 15 1020 61 8000 0.81 176.03 15:40 24.08.2019
3151 Clouds 15 1020 80 8000 1.34 72.671 15:21 24.08.2019
3152 Clouds 14 1019 80 8000 1 70 14:42 24.08.2019
3153 Clouds 13 1019 80 8000 1 70 14:22 24.08.2019
3154 Clouds 13 1018 66 8000 2.6 330 13:56 24.08.2019
3155 Clouds 14 1018 66 8000 2.6 330 13:37 24.08.2019
3156 Clouds 14 1018 66 8000 2.6 330 13:18 24.08.2019
3157 Clouds 14 1018 54 8000 2.1 40 12:42 24.08.2019
3158 Clouds 14 1018 54 8000 2.1 40 12:24 24.08.2019
3159 Clouds 14 1017 54 8000 2.1 40 11:57 24.08.2019
3160 Clouds 14 1017 54 8000 2.1 40 11:38 24.08.2019
3161 Clouds 15 1017 54 8000 2.1 40 11:19 24.08.2019
3162 Clouds 13 1017 66 8000 1.5 330 10:43 24.08.2019
3163 Clouds 14 1017 66 8000 1.5 330 10:23 24.08.2019
3164 Clouds 13 1018 66 10000 1 0 09:44 24.08.2019
3165 Clouds 14 1018 66 10000 1 0 09:20 24.08.2019
3166 Clear 14 1017 62 10000 2.1 200 08:56 24.08.2019
3167 Clear 14 1017 62 10000 2.1 200 08:37 24.08.2019
3168 Clear 14 1017 62 10000 2.1 200 08:18 24.08.2019
3169 Clear 16 1017 51 10000 1.5 40 07:44 24.08.2019
3170 Clear 16 1017 51 10000 1.5 40 07:24 24.08.2019
3171 Clear 15 1018 58 10000 0.3 72.484 06:24 24.08.2019
3172 Clear 16 1018 58 10000 2.1 340 05:40 24.08.2019
3173 Clear 17 1018 48 10000 1.5 160 03:56 24.08.2019
3174 Clear 17 1018 48 10000 1.5 160 03:35 24.08.2019
3175 Clear 18 1018 42 10000 3.1 160 02:25 24.08.2019
3176 Clear 22 1017 26 10000 4.1 150 01:31 24.08.2019
3177 Clear 23 1018 83 10000 2.1 230 00:52 24.08.2019
3178 Clear 22 1018 69 10000 2.1 230 00:25 24.08.2019
3179 Clouds 24 1017 69 8000 3.1 240 23:57 23.08.2019
3180 Clouds 24 1017 69 8000 3.1 240 23:37 23.08.2019
3181 Clouds 24 1017 69 8000 3.1 240 23:18 23.08.2019
3182 Clouds 25 1017 69 8000 3.1 240 22:42 23.08.2019
3183 Clouds 25 1017 69 8000 3.1 240 22:23 23.08.2019
3184 Clear 25 1017 65 10000 1 250 21:40 23.08.2019
3185 Clear 25 1017 44 10000 1 250 21:21 23.08.2019
3186 Clear 25 1017 44 10000 1 170 20:56 23.08.2019
3187 Clear 25 1017 44 10000 1 170 20:38 23.08.2019
3188 Clear 25 1017 44 10000 1 170 20:19 23.08.2019
3189 Clouds 25 1018 44 8000 1 180 19:43 23.08.2019
3190 Clouds 24 1017 25 10000 2.6 140 19:18 23.08.2019
3191 Clouds 24 1018 44 8000 1.5 240 18:46 23.08.2019
3192 Clouds 22 1018 48 8000 1.5 240 18:28 23.08.2019
3193 Clear 20 1018 48 10000 2.1 250 17:56 23.08.2019
3194 Clear 20 1018 48 10000 2.1 250 17:38 23.08.2019
3195 Clear 20 1018 48 10000 2.1 250 17:20 23.08.2019
3196 Clear 19 1018 52 10000 1.06 169.072 16:47 23.08.2019
3197 Clear 19 1018 52 10000 1.06 169.072 16:29 23.08.2019
3198 Clear 15 1018 62 10000 1.06 169.072 15:56 23.08.2019
3199 Clear 15 1018 62 10000 1.06 169.072 15:37 23.08.2019
3200 Clear 11 1018 62 10000 1.93 68.171 15:19 23.08.2019
3201 Clear 12 1019 76 10000 1 30 14:41 23.08.2019
3202 Clear 11 1019 76 10000 1 30 14:21 23.08.2019
3203 Clear 12 1017 70 10000 1 0 13:57 23.08.2019
3204 Clear 11 1017 70 10000 1 0 13:39 23.08.2019
3205 Clear 12 1017 70 10000 1 0 13:20 23.08.2019
3206 Clear 11 1017 70 10000 1.5 0 12:57 23.08.2019
3207 Clear 12 1017 70 10000 1.5 0 12:38 23.08.2019
3208 Clear 12 1017 70 10000 1.5 0 12:20 23.08.2019
3209 Clear 13 1017 62 10000 2.1 0 11:55 23.08.2019
3210 Clear 13 1017 62 10000 2.1 0 11:55 23.08.2019
3211 Clear 13 1017 62 10000 2.1 0 11:36 23.08.2019
3212 Clear 13 1017 62 10000 2.1 0 11:18 23.08.2019
3213 Clear 12 1017 65 10000 1.5 0 10:42 23.08.2019
3214 Clear 12 1017 65 10000 1.5 0 10:21 23.08.2019
3215 Clear 13 1017 66 10000 1 330 09:56 23.08.2019
3216 Clear 12 1017 66 10000 1 330 09:38 23.08.2019
3217 Clear 13 1017 66 10000 1 330 09:18 23.08.2019
3218 Clear 12 1018 66 10000 1.5 40 08:40 23.08.2019
3219 Clear 13 1018 66 10000 1.5 40 08:19 23.08.2019
3220 Clear 15 1018 58 10000 1.5 0 07:43 23.08.2019
3221 Clear 14 1018 58 10000 1.5 0 07:24 23.08.2019
3222 Clear 15 1018 58 10000 1 0 06:57 23.08.2019
3223 Clear 15 1018 58 10000 1 0 06:38 23.08.2019
3224 Clear 16 1018 58 10000 1 0 06:20 23.08.2019
3225 Clear 17 1018 44 10000 1 0 05:34 23.08.2019
3226 Clear 18 1017 42 10000 1 0 04:45 23.08.2019
3227 Clear 21 1016 35 10000 3.1 160 02:58 23.08.2019
3228 Clear 21 1016 35 10000 3.1 160 02:23 23.08.2019
3229 Clear 24 1015 29 10000 4.6 200 01:40 23.08.2019
3230 Clear 24 1016 16 10000 1 240 00:45 23.08.2019
3231 Clear 25 1016 16 10000 1 240 00:19 23.08.2019
3232 Clouds 26 1016 18 7000 2.6 250 23:47 22.08.2019
3233 Clouds 28 1016 18 7000 2.6 250 23:25 22.08.2019
3234 Clouds 27 1016 18 7000 1 240 22:56 22.08.2019
3235 Clouds 27 1016 18 7000 1 240 22:38 22.08.2019
3236 Clouds 26 1016 18 7000 1 240 22:19 22.08.2019
3237 Clouds 26 1017 54 9000 1.5 240 21:55 22.08.2019
3238 Clouds 26 1017 54 9000 1.5 240 21:37 22.08.2019
3239 Clouds 26 1017 54 9000 1.5 240 21:19 22.08.2019
3240 Clear 25 1018 28 10000 1 240 20:56 22.08.2019
3241 Clear 25 1018 28 10000 1 240 20:38 22.08.2019
3242 Clear 24 1016 22 10000 1.5 0 20:18 22.08.2019
3243 Clear 25 1019 28 10000 2.1 170 19:40 22.08.2019
3244 Clear 25 1019 28 10000 2.1 170 19:22 22.08.2019
3245 Clear 23 1020 28 10000 1 190 18:59 22.08.2019
3246 Clear 23 1020 28 10000 1 190 18:41 22.08.2019
3247 Clear 20 1019 34 8000 1 0 18:20 22.08.2019
3248 Clear 20 1019 34 8000 1 0 17:59 22.08.2019
3249 Clear 18 1021 37 10000 2.9 82.116 17:41 22.08.2019
3250 Clear 15 1020 54 10000 1 130 17:20 22.08.2019
3251 Clear 17 1020 54 10000 1 130 16:57 22.08.2019
3252 Clear 17 1020 54 10000 1 130 16:38 22.08.2019
3253 Clear 13 1020 54 10000 1 130 16:20 22.08.2019
3254 Clear 13 1020 54 10000 1 130 16:20 22.08.2019
3255 Clear 13 1020 54 10000 1 130 16:20 22.08.2019
3256 Clear 13 1020 54 10000 1 130 16:20 22.08.2019
3257 Clear 10 1020 66 6000 4.1 20 15:56 22.08.2019
3258 Clear 10 1020 66 6000 4.1 20 15:56 22.08.2019
3259 Smoke 13 1020 66 10000 1 270 15:37 22.08.2019
3260 Smoke 12 1020 66 10000 1 270 15:18 22.08.2019
3261 Smoke 12 1020 66 10000 1 270 15:18 22.08.2019
3262 Smoke 12 1020 66 10000 1 270 15:18 22.08.2019
3263 Smoke 12 1020 66 10000 1 270 15:18 22.08.2019
3264 Mist 10 1021 75 10000 1 30 14:41 22.08.2019
3265 Mist 9 1021 75 10000 1 30 14:22 22.08.2019
3266 Mist 10 1020 86 5000 1.5 0 13:59 22.08.2019
3267 Mist 9 1021 86 5000 1.5 190 13:41 22.08.2019
3268 Mist 9 1021 86 5000 1.5 190 13:21 22.08.2019
3269 Mist 8 1020 93 5000 1 0 12:57 22.08.2019
3270 Mist 8 1020 93 5000 1 0 12:38 22.08.2019
3271 Mist 8 1020 93 5000 1 0 12:19 22.08.2019
3272 Haze 9 1020 87 5000 2.6 30 11:42 22.08.2019
3273 Haze 9 1020 87 5000 2.6 30 11:21 22.08.2019
3274 Mist 8 1021 86 4000 2.1 0 10:58 22.08.2019
3275 Mist 8 1021 86 4000 2.1 0 10:40 22.08.2019
3276 Mist 8 1021 86 4000 2.1 0 10:22 22.08.2019
3277 Haze 9 1022 87 5000 2.1 30 09:57 22.08.2019
3278 Haze 9 1022 87 5000 2.1 30 09:39 22.08.2019
3279 Haze 10 1022 87 5000 2.1 30 09:20 22.08.2019
3280 Clouds 9 1022 87 7000 2.1 0 08:54 22.08.2019
3281 Clouds 10 1022 87 7000 2.1 0 08:36 22.08.2019
3282 Clouds 10 1022 87 7000 2.1 0 08:18 22.08.2019
3283 Clouds 11 1022 81 8000 1.5 170 07:39 22.08.2019
3284 Clouds 11 1022 76 7000 3.1 170 07:19 22.08.2019
3285 Clouds 11 1022 76 7000 3.1 170 06:48 22.08.2019
3286 Clouds 11 1022 76 7000 1 0 06:23 22.08.2019
3287 Clouds 12 1022 76 7000 1 0 05:40 22.08.2019
3288 Clouds 12 1022 76 8000 2.1 40 04:28 22.08.2019
3289 Clouds 14 1022 66 10000 1 0 02:47 22.08.2019
3290 Clouds 14 1022 66 10000 1 0 02:29 22.08.2019
3291 Haze 14 1021 62 10000 2.1 180 01:22 22.08.2019
3292 Haze 14 1021 67 4000 2.1 320 00:44 22.08.2019
3293 Haze 15 1021 67 4000 2.1 320 00:25 22.08.2019
3294 Haze 15 1021 67 5000 1.43 82.556 23:50 21.08.2019
3295 Haze 16 1021 67 5000 1.43 82.556 23:30 21.08.2019
3296 Haze 16 1022 62 5000 2.6 200 22:59 21.08.2019
3297 Haze 15 1022 62 5000 2.6 200 22:41 21.08.2019
3298 Haze 15 1022 62 5000 2.6 200 22:41 21.08.2019
3299 Haze 15 1022 62 5000 2.6 200 22:21 21.08.2019
3300 Clouds 17 1021 23 6000 2.1 240 21:58 21.08.2019
3301 Clouds 17 1021 23 6000 2.1 240 21:38 21.08.2019
3302 Clouds 17 1021 23 6000 2.1 240 21:20 21.08.2019
3303 Clouds 17 1021 54 6000 3.44 248.078 20:58 21.08.2019
3304 Clouds 17 1021 54 6000 3.44 248.078 20:39 21.08.2019
3305 Clouds 17 1021 54 6000 3.44 248.078 20:39 21.08.2019
3306 Clouds 17 1021 54 6000 3.44 248.078 20:21 21.08.2019
3307 Clouds 17 1021 54 7000 2.1 200 19:44 21.08.2019
3308 Clouds 17 1021 54 7000 2.1 200 19:25 21.08.2019
3309 Clouds 17 1021 58 7000 3.44 248.078 18:59 21.08.2019
3310 Clouds 17 1021 58 7000 3.44 248.078 18:59 21.08.2019
3311 Clouds 16 1021 58 7000 3.44 248.078 18:40 21.08.2019
3312 Clouds 16 1021 58 7000 0.72 222.759 18:22 21.08.2019
3313 Clouds 16 1021 54 7000 0.72 222.759 17:45 21.08.2019
3314 Clouds 16 1021 54 7000 0.72 222.759 17:25 21.08.2019
3315 Clouds 14 1020 62 10000 0.72 222.759 16:59 21.08.2019
3316 Clouds 14 1020 62 10000 0.72 222.759 16:40 21.08.2019
3317 Clouds 14 1020 62 10000 0.72 222.759 16:21 21.08.2019
3318 Clouds 12 1019 57 10000 0.72 222.759 15:58 21.08.2019
3319 Clouds 12 1019 57 10000 0.72 222.759 15:39 21.08.2019
3320 Clouds 12 1019 57 10000 0.99 221.049 15:20 21.08.2019
3321 Clouds 11 1019 61 10000 0.99 221.049 14:57 21.08.2019
3322 Clouds 11 1019 61 10000 0.99 221.049 14:38 21.08.2019
3323 Clouds 11 1019 61 10000 0.99 221.049 14:19 21.08.2019
3324 Clear 11 1018 65 10000 0.99 221.049 13:44 21.08.2019
3325 Clear 11 1018 65 10000 0.94 221.209 13:21 21.08.2019
3326 Clear 10 1017 70 10000 2.1 210 12:59 21.08.2019
3327 Clear 10 1017 70 10000 2.1 210 12:59 21.08.2019
3328 Clear 10 1017 70 10000 2.1 210 12:40 21.08.2019
3329 Clear 10 1017 70 10000 2.1 210 12:21 21.08.2019
3330 Clear 11 1017 65 10000 1.5 0 11:57 21.08.2019
3331 Clear 11 1017 65 10000 1.5 0 11:39 21.08.2019
3332 Clear 11 1017 65 10000 1.5 0 11:20 21.08.2019
3333 Clear 11 1017 65 10000 1.5 340 10:56 21.08.2019
3334 Clear 11 1017 65 10000 1.5 340 10:37 21.08.2019
3335 Clear 11 1017 65 10000 1.5 340 10:19 21.08.2019
3336 Clear 11 1018 65 10000 1.5 0 09:42 21.08.2019
3337 Clear 11 1018 65 10000 1.5 0 09:23 21.08.2019
3338 Clear 12 1018 74 10000 3.1 150 08:58 21.08.2019
3339 Clear 13 1018 74 10000 3.1 150 08:39 21.08.2019
3340 Clear 13 1018 74 10000 3.1 150 08:20 21.08.2019
3341 Clear 13 1018 47 10000 3.6 140 07:40 21.08.2019
3342 Clear 14 1018 50 10000 5.1 160 07:20 21.08.2019
3343 Clear 13 1018 50 10000 5.1 160 06:48 21.08.2019
3344 Clear 14 1018 50 10000 5.1 160 06:21 21.08.2019
3345 Clear 15 1018 51 10000 4.1 150 05:42 21.08.2019
3346 Clear 16 1018 51 10000 4.1 150 05:23 21.08.2019
3347 Clear 17 1016 42 10000 3.1 140 03:38 21.08.2019
3348 Clear 21 1015 32 10000 5.7 210 01:47 21.08.2019
3349 Clouds 24 1016 18 8000 1 280 00:46 21.08.2019
3350 Clouds 22 1016 18 8000 1 280 00:24 21.08.2019
3351 Clouds 24 1015 17 7000 1.5 320 23:57 20.08.2019
3352 Clouds 24 1015 17 7000 1.5 320 23:38 20.08.2019
3353 Clouds 24 1015 17 7000 1.5 320 23:18 20.08.2019
3354 Clouds 24 1016 17 7000 2.1 250 22:56 20.08.2019
3355 Clouds 25 1016 17 7000 2.1 250 22:37 20.08.2019
3356 Clouds 25 1016 17 7000 2.1 250 22:18 20.08.2019
3357 Clouds 24 1016 17 7000 1.5 280 21:57 20.08.2019
3358 Clouds 24 1016 17 7000 1.5 280 21:37 20.08.2019
3359 Clouds 24 1016 17 7000 1.5 280 21:19 20.08.2019
3360 Clear 24 1017 17 10000 2.1 200 20:43 20.08.2019
3361 Clear 24 1017 17 10000 2.1 200 20:24 20.08.2019
3362 Clouds 24 1017 17 10000 1.5 230 19:56 20.08.2019
3363 Clouds 24 1017 17 10000 1.5 230 19:38 20.08.2019
3364 Clouds 23 1018 18 10000 1 350 19:20 20.08.2019
3365 Clouds 22 1018 18 10000 1 350 18:55 20.08.2019
3366 Clouds 24 1016 48 0 2.67 235.173 18:37 20.08.2019
3367 Clouds 19 1019 22 10000 1 200 18:18 20.08.2019
3368 Clouds 19 1019 22 10000 1 200 17:39 20.08.2019
3369 Clouds 17 1018 33 10000 1 50 17:20 20.08.2019
3370 Clouds 17 1018 33 10000 1 50 16:58 20.08.2019
3371 Clouds 16 1018 33 10000 1 50 16:40 20.08.2019
3372 Haze 13 1018 71 10000 1 200 16:22 20.08.2019
3373 Haze 15 1018 71 10000 1 200 15:41 20.08.2019
3374 Haze 11 1018 93 10000 0.16 90 15:18 20.08.2019
3375 Haze 12 1018 93 10000 0.16 90 14:56 20.08.2019
3376 Haze 11 1018 93 10000 0.16 90 14:37 20.08.2019
3377 Haze 11 1018 93 10000 0.16 90 14:37 20.08.2019
3378 Clouds 11 1017 75 7000 1.5 0 14:18 20.08.2019
3379 Clouds 11 1017 75 7000 1.5 0 14:18 20.08.2019
3380 Clouds 12 1017 75 7000 1.5 0 13:54 20.08.2019
3381 Clouds 11 1017 75 7000 1.5 0 13:36 20.08.2019
3382 Clouds 11 1017 81 6000 2.6 0 13:18 20.08.2019
3383 Clouds 11 1017 81 6000 2.6 0 12:44 20.08.2019
3384 Clouds 11 1017 81 6000 2.6 0 12:23 20.08.2019
3385 Clouds 11 1017 81 6000 1.5 40 11:55 20.08.2019
3386 Clouds 11 1017 81 6000 1.5 40 11:37 20.08.2019
3387 Haze 11 1017 87 5000 2.6 20 11:18 20.08.2019
3388 Haze 11 1017 87 5000 2.6 20 10:55 20.08.2019
3389 Haze 11 1017 87 5000 2.6 20 10:37 20.08.2019
3390 Clouds 10 1018 81 6000 0.92 73.568 10:18 20.08.2019
3391 Clouds 12 1018 81 6000 0.92 73.568 09:40 20.08.2019
3392 Clouds 12 1018 81 6000 1 250 09:21 20.08.2019
3393 Clouds 12 1018 81 6000 1 250 08:42 20.08.2019
3394 Clouds 12 1018 81 6000 1 250 08:24 20.08.2019
3395 Clouds 12 1018 71 8000 1.5 210 07:58 20.08.2019
3396 Clouds 12 1018 71 8000 1.5 210 07:39 20.08.2019
3397 Clouds 12 1018 71 8000 1.5 210 07:20 20.08.2019
3398 Clouds 12 1018 71 8000 0.5 0 06:46 20.08.2019
3399 Clouds 12 1018 71 8000 0.5 0 06:46 20.08.2019
3400 Clouds 12 1019 71 8000 2.6 40 06:21 20.08.2019
3401 Clouds 12 1019 71 8000 2.6 40 05:47 20.08.2019
3402 Clouds 12 1019 76 7000 1.5 360 04:30 20.08.2019
3403 Haze 11 1019 71 5000 1.5 0 02:51 20.08.2019
3404 Haze 11 1019 71 5000 4.1 360 01:58 20.08.2019
3405 Haze 12 1019 71 5000 4.1 360 01:21 20.08.2019
3406 Haze 12 1020 76 7000 3.1 150 00:45 20.08.2019
3407 Haze 13 1019 66 5000 2.1 340 00:25 20.08.2019
3408 Clouds 13 1019 71 10000 1.5 330 23:50 19.08.2019
3409 Clouds 13 1019 66 7000 1.98 241.568 23:19 19.08.2019
3410 Clouds 13 1019 66 7000 1.98 241.568 22:59 19.08.2019
3411 Clouds 13 1019 66 7000 1.98 241.568 22:41 19.08.2019
3412 Clouds 13 1019 58 6000 1 0 22:21 19.08.2019
3413 Clouds 13 1019 58 6000 1 0 21:57 19.08.2019
3414 Clouds 13 1019 58 6000 1 0 21:57 19.08.2019
3415 Clouds 13 1019 58 10000 1 180 21:38 19.08.2019
3416 Clouds 13 1019 58 6000 1.5 150 21:19 19.08.2019
3417 -273 0 0 0 0 0 20:55 19.08.2019
3418 Clouds 13 1019 58 10000 2.1 300 20:37 19.08.2019
3419 Haze 12 1020 58 10000 2.1 210 20:19 19.08.2019
3420 Haze 13 1020 58 10000 2.1 210 19:54 19.08.2019
3421 Haze 13 1020 58 10000 2.1 210 19:36 19.08.2019
3422 Haze 13 1020 58 10000 2.1 210 19:18 19.08.2019
3423 Haze 13 1021 58 10000 1 30 18:41 19.08.2019
3424 Haze 12 1021 76 7000 1 240 18:22 19.08.2019
3425 Haze 12 1021 76 7000 1 240 17:56 19.08.2019
3426 Haze 11 1021 76 7000 1 240 17:38 19.08.2019
3427 Haze 10 1020 75 5000 1 0 17:19 19.08.2019
3428 Haze 9 1020 75 5000 1 0 16:54 19.08.2019
3429 Haze 9 1020 76 7000 2.1 80 16:36 19.08.2019
3430 Haze 10 1020 76 7000 2.1 80 16:18 19.08.2019
3431 Haze 9 1021 87 5000 1.5 90 15:44 19.08.2019
3432 Haze 8 1021 87 5000 1.5 90 15:19 19.08.2019
3433 Haze 8 1020 87 5000 1.5 310 14:44 19.08.2019
3434 Haze 8 1020 87 5000 1.5 310 14:24 19.08.2019
3435 Clouds 7 1020 87 8000 2.1 0 13:59 19.08.2019
3436 Clouds 8 1020 87 8000 2.1 0 13:40 19.08.2019
3437 Clouds 7 1020 87 8000 2.1 0 13:20 19.08.2019
3438 Clouds 7 1020 93 6000 1.5 200 12:58 19.08.2019
3439 Clouds 6 1020 93 6000 1.5 200 12:40 19.08.2019
3440 Clouds 9 1020 93 6000 1.5 200 12:20 19.08.2019
3441 Clouds 9 1020 81 6000 2.6 30 11:42 19.08.2019
3442 Clouds 9 1020 81 6000 2.6 30 11:24 19.08.2019
3443 Clouds 8 1020 87 7000 2.1 360 10:59 19.08.2019
3444 Clouds 8 1020 87 7000 2.1 360 10:39 19.08.2019
3445 Clouds 8 1020 87 7000 2.1 360 10:19 19.08.2019
3446 Clouds 7 1020 93 7000 1 0 09:54 19.08.2019
3447 Clouds 7 1020 93 7000 1 0 09:36 19.08.2019
3448 Clouds 7 1020 93 7000 1 0 09:18 19.08.2019
3449 Clouds 8 1021 93 8000 2.1 0 08:41 19.08.2019
3450 Clouds 8 1021 93 8000 2.1 0 08:21 19.08.2019
3451 Clouds 9 1021 87 10000 1.5 170 07:52 19.08.2019
3452 Clouds 9 1021 87 10000 1.5 170 07:34 19.08.2019
3453 Clouds 10 1021 87 10000 2.1 140 06:59 19.08.2019
3454 Clouds 10 1021 87 10000 2.1 140 06:36 19.08.2019
3455 Clouds 10 1020 81 10000 3.6 170 05:26 19.08.2019
3456 Clouds 10 1019 81 10000 3.6 160 04:33 19.08.2019
3457 Clouds 11 1019 71 10000 2.6 150 03:25 19.08.2019
3458 Clouds 11 1018 66 10000 3.6 220 02:30 19.08.2019
3459 Clouds 12 1018 66 10000 2.6 40 01:37 19.08.2019
3460 Clouds 12 1019 66 7000 1.47 287.02 00:46 19.08.2019
3461 Clouds 12 1019 66 7000 0.83 250.956 00:23 19.08.2019
3462 Clouds 12 1018 62 10000 2.6 0 23:43 18.08.2019
3463 Clouds 12 1018 62 10000 2.6 0 23:22 18.08.2019
3464 Clouds 13 1018 71 7000 4.1 150 22:59 18.08.2019
3465 Clouds 13 1018 71 7000 4.1 150 22:40 18.08.2019
3466 Clouds 13 1018 71 7000 4.1 150 22:21 18.08.2019
3467 Clouds 13 1017 66 10000 9.3 150 21:57 18.08.2019
3468 Clouds 13 1020 66 8000 2.1 230 21:38 18.08.2019
3469 Clouds 13 1020 66 8000 2.1 230 21:20 18.08.2019
3470 Clouds 13 1018 66 9000 2.6 200 20:45 18.08.2019
3471 Clouds 13 1018 66 9000 2.6 200 20:45 18.08.2019
3472 Clouds 13 1018 66 9000 2.6 200 20:26 18.08.2019
3473 Clouds 12 1020 66 9000 1 250 19:59 18.08.2019
3474 Clouds 12 1020 66 9000 1 250 19:40 18.08.2019
3475 Clouds 12 1020 66 9000 1 250 19:22 18.08.2019
3476 Clouds 11 1020 66 10000 1 240 18:56 18.08.2019
3477 Clouds 11 1020 66 10000 1 240 18:38 18.08.2019
3478 Clouds 11 1020 66 10000 1 240 18:19 18.08.2019
3479 Clouds 10 1020 71 10000 1 270 17:43 18.08.2019
3480 Clouds 10 1020 71 10000 1 270 17:19 18.08.2019
3481 Clouds 10 1020 71 10000 1 270 17:19 18.08.2019
3482 Clouds 10 1020 71 10000 1 270 17:19 18.08.2019
3483 Clouds 9 1020 87 10000 1 20 16:59 18.08.2019
3484 Clouds 9 1020 87 10000 1 20 16:41 18.08.2019
3485 Clouds 9 1020 87 10000 1 20 16:21 18.08.2019
3486 Clouds 8 1020 81 10000 1 250 15:59 18.08.2019
3487 Clouds 8 1020 81 10000 1 250 15:39 18.08.2019
3488 Clouds 8 1020 81 10000 1 250 15:20 18.08.2019
3489 Clouds 7 1019 87 10000 0.9 219.374 14:56 18.08.2019
3490 Clouds 7 1019 87 10000 0.9 219.374 14:37 18.08.2019
3491 Clouds 7 1019 87 10000 0.9 219.374 14:19 18.08.2019
3492 Clouds 7 1019 87 7000 1 0 13:55 18.08.2019
3493 Clouds 7 1019 87 7000 1 0 13:36 18.08.2019
3494 Clouds 6 1019 87 7000 1 0 13:18 18.08.2019
3495 Clouds 7 1019 87 7000 0.5 0 12:41 18.08.2019
3496 Clouds 7 1019 87 7000 0.5 0 12:22 18.08.2019
3497 Clouds 6 1019 87 7000 1 0 11:55 18.08.2019
3498 Clouds 6 1019 87 7000 1 0 11:36 18.08.2019
3499 Clouds 6 1019 87 7000 1 0 11:18 18.08.2019
3500 Clouds 6 1019 87 8000 1.26 80.455 10:41 18.08.2019
3501 Clouds 6 1020 87 8000 2.1 40 10:19 18.08.2019
3502 Clouds 6 1020 87 8000 2.1 40 09:50 18.08.2019
3503 Clouds 6 1020 87 8000 2.1 40 09:22 18.08.2019
3504 Clear 7 1020 93 10000 1.5 320 08:54 18.08.2019
3505 Clear 7 1020 93 10000 1.5 320 08:36 18.08.2019
3506 Clear 7 1020 93 10000 1.5 320 08:18 18.08.2019
3507 Clouds 8 1020 93 10000 2.1 170 07:44 18.08.2019
3508 Clouds 8 1020 93 10000 2.1 170 07:25 18.08.2019
3509 Clouds 9 1020 76 10000 0.68 287.577 05:48 18.08.2019
3510 Clouds 11 1020 76 10000 1.5 210 04:53 18.08.2019
3511 Clouds 12 1020 71 10000 3.1 150 03:41 18.08.2019
3512 Clouds 12 1020 66 10000 3.1 150 02:46 18.08.2019
3513 Clouds 12 1020 66 10000 3.1 150 02:23 18.08.2019
3514 Clouds 14 1019 62 10000 1.5 180 01:31 18.08.2019
3515 Clouds 14 1020 44 10000 0.5 210 00:59 18.08.2019
3516 Clouds 14 1020 44 10000 0.5 210 00:38 18.08.2019
3517 Clouds 14 1019 58 10000 3.6 210 00:18 18.08.2019
3518 Clouds 15 1020 44 10000 1.5 210 23:56 17.08.2019
3519 Clouds 15 1020 44 10000 1.5 210 23:37 17.08.2019
3520 Clouds 15 1020 44 10000 1.5 210 23:18 17.08.2019
3521 Clear 16 1020 64 10000 1.5 240 22:42 17.08.2019
3522 Clear 16 1020 64 10000 1.5 240 22:23 17.08.2019
3523 Clear 16 1019 64 10000 1.5 210 21:59 17.08.2019
3524 Clear 16 1019 64 10000 1.5 210 21:40 17.08.2019
3525 Clear 16 1019 47 10000 1.5 210 21:22 17.08.2019
3526 Clear 16 1020 30 10000 1.5 270 20:40 17.08.2019
3527 Clear 16 1020 30 10000 1.5 270 20:21 17.08.2019
3528 Clear 16 1020 38 10000 2.1 210 19:58 17.08.2019
3529 Clear 16 1020 38 10000 2.1 210 19:39 17.08.2019
3530 Clear 16 1020 38 10000 2.1 210 19:20 17.08.2019
3531 Clear 14 1021 41 10000 1 250 18:41 17.08.2019
3532 Clear 11 1022 54 10000 1 190 18:19 17.08.2019
3533 Clear 11 1022 54 10000 1 190 17:59 17.08.2019
3534 Clear 11 1022 54 10000 1 190 17:41 17.08.2019
3535 Clear 11 1022 54 10000 1 190 17:21 17.08.2019
3536 Clear 11 1022 54 10000 1 190 17:21 17.08.2019
3537 Haze 10 1022 66 10000 1 180 16:55 17.08.2019
3538 Haze 10 1022 66 10000 1 180 16:36 17.08.2019
3539 Haze 10 1022 66 10000 1 180 16:18 17.08.2019
3540 Mist 6 1022 80 10000 0.99 176.17 15:41 17.08.2019
3541 Mist 6 1022 80 10000 0.38 29.632 15:21 17.08.2019
3542 Fog 5 1022 100 1200 1.5 0 14:56 17.08.2019
3543 Fog 3 1021 74 10000 0.5 30 14:36 17.08.2019
3544 Fog 2 1021 74 10000 0.5 30 14:18 17.08.2019
3545 Fog 2 1021 100 3000 3.1 30 13:42 17.08.2019
3546 Fog 3 1021 100 3000 3.1 30 13:19 17.08.2019
3547 Fog 2 1021 100 3000 2.1 20 12:42 17.08.2019
3548 Mist 4 1020 93 4500 1.5 0 12:19 17.08.2019
3549 Mist 3 1020 93 4500 1.5 0 11:57 17.08.2019
3550 Mist 4 1020 93 4500 1.5 0 11:37 17.08.2019
3551 Mist 4 1020 93 4500 1.5 0 11:19 17.08.2019
3552 Mist 4 1020 93 5000 1.5 0 10:39 17.08.2019
3553 Mist 4 1020 93 5000 1.5 0 10:20 17.08.2019
3554 Mist 5 1021 93 5000 2.6 20 09:52 17.08.2019
3555 Mist 5 1021 93 5000 2.6 20 09:32 17.08.2019
3556 Clear 6 1021 87 7000 0.29 25.937 08:57 17.08.2019
3557 Clear 5 1021 87 7000 0.29 25.937 08:28 17.08.2019
3558 Clouds 7 1021 81 7000 1 0 07:55 17.08.2019
3559 Clouds 7 1021 81 7000 1 0 07:36 17.08.2019
3560 Clouds 6 1021 81 7000 1 0 07:18 17.08.2019
3561 Clouds 7 1021 81 10000 2.1 0 05:57 17.08.2019
3562 Clouds 9 1020 81 10000 2.6 150 04:31 17.08.2019
3563 Clouds 10 1021 81 10000 3.1 150 03:36 17.08.2019
3564 Clouds 10 1019 76 10000 6.7 180 01:59 17.08.2019
3565 Clouds 10 1019 76 10000 6.7 180 01:36 17.08.2019
3566 Clouds 11 1018 71 7000 2.6 200 01:18 17.08.2019
3567 Clouds 11 1018 71 7000 2.6 200 00:31 17.08.2019
3568 Haze 12 1018 62 3000 3.6 220 23:57 16.08.2019
3569 Haze 12 1018 62 3000 3.6 220 23:37 16.08.2019
3570 Haze 13 1018 62 3000 3.6 220 23:18 16.08.2019
3571 Haze 14 1017 58 3000 1.5 330 22:40 16.08.2019
3572 Haze 15 1017 58 3000 1.5 330 22:19 16.08.2019
3573 Haze 14 1018 66 3000 1 80 21:42 16.08.2019
3574 Haze 13 1018 66 3000 1 80 21:21 16.08.2019
3575 Haze 12 1019 76 2000 2.1 250 20:58 16.08.2019
3576 Haze 12 1019 76 2000 2.1 250 20:39 16.08.2019
3577 Haze 11 1019 76 2000 2.1 250 20:19 16.08.2019
3578 Haze 11 1019 81 1000 3.1 240 19:44 16.08.2019
3579 Haze 11 1019 81 1000 3.1 240 19:23 16.08.2019
3580 Haze 10 1018 81 5000 2.1 150 18:59 16.08.2019
3581 Haze 9 1018 71 2000 2.1 310 18:41 16.08.2019
3582 Haze 10 1018 71 2000 2.1 310 18:22 16.08.2019
3583 Haze 9 1018 81 1000 1 60 17:44 16.08.2019
3584 Haze 9 1018 81 1000 1 60 17:25 16.08.2019
3585 Mist 8 1018 81 1000 2.1 160 16:56 16.08.2019
3586 Mist 8 1018 81 1000 2.1 160 16:38 16.08.2019
3587 Mist 8 1018 81 1000 2.1 160 16:18 16.08.2019
3588 Mist 8 1017 87 1000 2.1 90 15:41 16.08.2019
3589 Mist 7 1017 87 1000 2.1 90 15:22 16.08.2019
3590 Mist 7 1017 87 1000 1 0 14:58 16.08.2019
3591 Mist 7 1017 87 1000 1 0 14:40 16.08.2019
3592 Mist 7 1017 87 1000 1 0 14:19 16.08.2019
3593 Mist 7 1016 93 4000 2.1 140 13:58 16.08.2019
3594 Mist 7 1016 93 4000 2.1 140 13:38 16.08.2019
3595 Mist 7 1016 93 4000 2.1 140 13:19 16.08.2019
3596 Mist 7 1016 93 4000 0.78 242.906 12:39 16.08.2019
3597 Mist 7 1016 93 4000 1.11 224.491 12:20 16.08.2019
3598 Mist 7 1016 93 4000 1 0 11:42 16.08.2019
3599 Mist 7 1016 93 4000 1 0 11:24 16.08.2019
3600 Mist 7 1016 93 4000 1 0 11:24 16.08.2019
3601 Mist 8 1016 93 4000 2.1 360 10:54 16.08.2019
3602 Mist 8 1016 93 4000 2.1 360 10:36 16.08.2019
3603 Mist 8 1016 93 4000 2.1 360 10:36 16.08.2019
3604 Mist 8 1016 93 4000 2.1 360 10:36 16.08.2019
3605 Mist 8 1016 93 4000 2.1 360 10:18 16.08.2019
3606 Mist 8 1017 93 5000 2.6 330 09:38 16.08.2019
3607 Mist 8 1017 93 5000 2.6 330 09:18 16.08.2019
3608 Mist 7 1018 93 5000 2.1 0 08:56 16.08.2019
3609 Mist 8 1018 93 5000 2.1 0 08:37 16.08.2019
3610 Mist 8 1018 93 5000 2.1 0 08:18 16.08.2019
3611 Mist 8 1018 93 5000 2.6 160 07:42 16.08.2019
3612 Mist 8 1018 93 5000 2.6 160 07:24 16.08.2019
3613 Mist 7 1018 93 5000 3.6 150 06:34 16.08.2019
3614 Mist 8 1018 93 5000 2.6 160 05:58 16.08.2019
3615 Mist 9 1018 93 5000 2.6 160 05:32 16.08.2019
3616 Clouds 10 1017 81 7000 4.6 160 03:19 16.08.2019
3617 Clouds 12 1017 81 8000 5.1 150 01:44 16.08.2019
3618 Haze 13 1017 81 8000 5.1 150 01:24 16.08.2019
3619 Haze 14 1017 72 5000 2.1 260 00:43 16.08.2019
3620 Haze 15 1017 72 5000 2.1 260 00:22 16.08.2019
3621 Haze 16 1017 59 5000 2.1 240 23:46 15.08.2019
3622 Haze 17 1017 59 5000 2.1 240 23:24 15.08.2019
3623 Haze 18 1017 59 4000 2.1 210 22:59 15.08.2019
3624 Haze 18 1017 59 4000 2.1 210 22:40 15.08.2019
3625 Haze 18 1017 59 4000 2.1 210 22:21 15.08.2019
3626 Clouds 18 1016 62 8000 4.6 150 21:56 15.08.2019
3627 Clouds 18 1016 62 8000 4.6 150 21:38 15.08.2019
3628 Haze 17 1016 62 8000 4.6 150 21:18 15.08.2019
3629 Haze 18 1017 67 4000 2.1 240 20:43 15.08.2019
3630 Haze 17 1017 67 4000 2.1 240 20:22 15.08.2019
3631 Haze 16 1019 67 4000 1.5 220 19:58 15.08.2019
3632 Haze 16 1019 67 4000 1.5 220 19:39 15.08.2019
3633 Haze 16 1019 67 4000 1.5 220 19:21 15.08.2019
3634 Haze 14 1019 76 4000 2.6 240 18:47 15.08.2019
3635 Haze 14 1019 76 4000 2.6 240 18:23 15.08.2019
3636 Haze 13 1019 76 5000 1 220 17:58 15.08.2019
3637 Haze 13 1019 76 5000 1 220 17:38 15.08.2019
3638 Haze 13 1019 76 5000 1 220 17:19 15.08.2019
3639 Mist 12 1019 100 2000 3.6 160 16:57 15.08.2019
3640 Mist 12 1019 100 2000 3.6 160 16:57 15.08.2019
3641 Fog 12 1019 81 7000 1 240 16:38 15.08.2019
3642 Fog 12 1019 81 7000 1 240 16:20 15.08.2019
3643 Fog 10 1019 81 8000 1.5 220 15:38 15.08.2019
3644 Fog 10 1019 81 8000 1.5 220 15:20 15.08.2019
3645 Fog 9 1018 87 10000 0.67 275.148 14:56 15.08.2019
3646 Fog 8 1018 87 10000 0.67 275.148 14:37 15.08.2019
3647 Fog 8 1018 87 10000 0.67 275.148 14:18 15.08.2019
3648 Fog 6 1017 100 800 3.1 170 13:55 15.08.2019
3649 Fog 6 1017 100 800 3.1 170 13:37 15.08.2019
3650 Fog 6 1017 93 2000 2.1 190 13:19 15.08.2019
3651 Fog 6 1017 93 2000 2.1 190 13:19 15.08.2019
3652 Fog 6 1017 93 2000 2.1 190 12:40 15.08.2019
3653 Fog 6 1017 93 2000 2.1 190 12:20 15.08.2019
3654 Clouds 6 1016 93 7000 0.33 62.413 11:58 15.08.2019
3655 Clouds 6 1016 93 7000 0.33 62.413 11:38 15.08.2019
3656 Clouds 6 1016 93 7000 0.33 62.413 11:38 15.08.2019
3657 Clouds 6 1016 93 7000 0.33 62.413 11:20 15.08.2019
3658 Clouds 6 1016 100 8000 1 0 10:58 15.08.2019
3659 Clouds 6 1016 100 8000 1 0 10:37 15.08.2019
3660 Clouds 6 1016 100 8000 1 0 10:18 15.08.2019
3661 Clouds 10 1016 93 8000 1 0 09:44 15.08.2019
3662 Clouds 10 1016 93 8000 1 0 09:22 15.08.2019
3663 Clouds 9 1016 93 8000 1.5 0 08:39 15.08.2019
3664 Clouds 9 1016 93 8000 1.5 0 08:21 15.08.2019
3665 Clear 10 1016 87 10000 2.6 160 07:59 15.08.2019
3666 Clear 11 1016 87 10000 2.6 160 07:40 15.08.2019
3667 Clear 11 1016 87 10000 2.6 160 07:21 15.08.2019
3668 Clouds 10 1016 87 8000 1.5 40 06:48 15.08.2019
3669 Clouds 11 1016 87 8000 1.5 40 06:26 15.08.2019
3670 Clear 11 1016 81 10000 3.1 340 05:31 15.08.2019
3671 Clear 11 1016 81 10000 2.1 10 04:58 15.08.2019
3672 Clear 11 1016 81 10000 2.1 10 04:19 15.08.2019
3673 Clear 12 1016 81 10000 2.1 140 03:26 15.08.2019
3674 Clear 13 1016 71 10000 3.1 170 02:35 15.08.2019
3675 Clear 15 1015 71 10000 5.7 150 01:45 15.08.2019
3676 Clear 16 1016 45 10000 2.6 230 00:59 15.08.2019
3677 Clear 16 1016 45 10000 2.6 230 00:37 15.08.2019
3678 Clear 20 1014 30 10000 2.6 240 00:19 15.08.2019
3679 Clear 20 1014 30 10000 2.6 240 00:19 15.08.2019
3680 Clear 20 1014 30 10000 2.6 240 23:56 14.08.2019
3681 Clear 21 1014 30 10000 2.6 240 23:37 14.08.2019
3682 Clear 21 1014 30 10000 2.6 240 23:19 14.08.2019
3683 Clear 24 1014 20 10000 3.1 250 22:42 14.08.2019
3684 Clear 23 1014 20 10000 3.1 250 22:23 14.08.2019
3685 Clear 25 1014 15 10000 3.1 240 21:57 14.08.2019
3686 Clear 25 1014 15 10000 3.1 240 21:39 14.08.2019
3687 Clear 25 1014 15 10000 3.1 240 21:21 14.08.2019
3688 Clear 27 1014 13 10000 2.6 250 20:57 14.08.2019
3689 Clear 27 1014 13 10000 2.6 250 20:39 14.08.2019
3690 Clouds 27 1014 13 8000 1 270 20:19 14.08.2019
3691 Clouds 28 1014 13 8000 1 270 19:54 14.08.2019
3692 Clouds 27 1014 13 8000 1 270 19:36 14.08.2019
3693 Clear 25 1015 15 10000 2.1 200 19:18 14.08.2019
3694 Clear 25 1015 15 10000 2.1 200 19:18 14.08.2019
3695 Clear 25 1015 15 10000 2.1 200 18:43 14.08.2019
3696 Clear 25 1015 15 10000 2.1 200 18:24 14.08.2019
3697 Clear 22 1015 17 10000 1 270 17:59 14.08.2019
3698 Clear 22 1015 17 10000 1 270 17:40 14.08.2019
3699 Clear 22 1015 17 10000 1 270 17:22 14.08.2019
3700 Clear 22 1015 17 10000 1 270 17:22 14.08.2019
3701 Clear 17 1015 32 10000 1 20 16:57 14.08.2019
3702 Clear 17 1015 32 10000 1 20 16:57 14.08.2019
3703 Clear 17 1015 32 10000 1 20 16:39 14.08.2019
3704 Clear 10 1014 40 10000 2.92 256.016 16:19 14.08.2019
3705 Clear 10 1014 40 10000 2.92 256.016 15:43 14.08.2019
3706 Clear 10 1014 40 10000 2.92 256.016 15:43 14.08.2019
3707 Clear 10 1014 40 10000 0.79 297.92 15:19 14.08.2019
3708 Clear 10 1014 40 10000 0.79 297.92 15:19 14.08.2019
3709 Clear 7 1013 40 10000 1.5 50 14:57 14.08.2019
3710 Clear 7 1013 40 10000 1.5 50 14:39 14.08.2019
3711 Clear 7 1013 40 10000 1.5 50 14:19 14.08.2019
3712 Clouds 6 1011 56 8000 0.5 0 13:44 14.08.2019
3713 Clouds 6 1011 56 8000 0.5 0 13:25 14.08.2019
3714 Clouds 4 1011 64 8000 1 0 12:59 14.08.2019
3715 Clouds 4 1011 64 8000 1 0 12:40 14.08.2019
3716 Clouds 4 1011 64 8000 1 0 12:22 14.08.2019
3717 Clouds 5 1011 65 8000 1.5 330 11:57 14.08.2019
3718 Clouds 5 1011 65 8000 1.5 330 11:57 14.08.2019
3719 Clouds 5 1011 65 8000 1.5 330 11:39 14.08.2019
3720 Clouds 5 1011 65 8000 1.5 330 11:21 14.08.2019
3721 Clouds 6 1010 60 8000 0.68 50.711 10:45 14.08.2019
3722 Clouds 6 1010 60 8000 0.68 50.711 10:25 14.08.2019
3723 Clouds 6 1010 60 8000 0.68 50.711 09:58 14.08.2019
3724 Clouds 6 1010 60 8000 0.68 50.711 09:39 14.08.2019
3725 Clouds 6 1010 60 8000 2.02 68.267 09:19 14.08.2019
3726 Clouds 7 1011 56 8000 2.02 68.267 08:40 14.08.2019
3727 Clouds 7 1011 56 8000 2.02 68.267 08:21 14.08.2019
3728 Clouds 8 1011 20 8000 1 320 07:53 14.08.2019
3729 Clouds 8 1011 20 8000 1 320 07:33 14.08.2019
3730 Clouds 8 1011 20 8000 2.1 30 06:47 14.08.2019
3731 Clouds 10 1011 46 8000 2.15 66.717 06:18 14.08.2019
3732 Clouds 10 1011 46 8000 2.15 66.717 05:28 14.08.2019
3733 Clear 15 1012 33 10000 1 0 03:38 14.08.2019
3734 Clear 17 1012 25 10000 1.5 0 02:34 14.08.2019
3735 Clear 18 1012 22 10000 1 10 01:54 14.08.2019
3736 Clear 20 1012 22 10000 1 10 01:19 14.08.2019
3737 Clouds 25 1013 15 7000 1 250 23:55 13.08.2019
3738 Clouds 25 1013 15 7000 1 250 23:37 13.08.2019
3739 Clouds 25 1013 15 7000 1 250 23:18 13.08.2019
3740 Clouds 25 1013 15 8000 1 230 22:42 13.08.2019
3741 Clouds 25 1013 15 8000 1 230 22:24 13.08.2019
3742 Clouds 24 1013 14 8000 1 220 21:59 13.08.2019
3743 Clouds 24 1013 14 8000 1 220 21:39 13.08.2019
3744 Clouds 25 1013 14 8000 1 220 21:19 13.08.2019
3745 Clouds 24 1014 16 8000 1.5 230 20:57 13.08.2019
3746 Clouds 24 1014 16 8000 1.5 230 20:37 13.08.2019
3747 Clear 22 1015 18 10000 1 250 20:18 13.08.2019
3748 Clear 22 1015 18 10000 1 250 19:43 13.08.2019
3749 Clear 22 1015 18 10000 1 250 19:22 13.08.2019
3750 Clear 21 1016 18 10000 1.5 200 18:59 13.08.2019
3751 Clear 21 1016 18 10000 1.5 200 18:41 13.08.2019
3752 Clear 18 1016 18 10000 1.5 200 18:20 13.08.2019
3753 Clear 18 1016 27 10000 1 320 17:43 13.08.2019
3754 Clear 18 1016 27 10000 1 320 17:22 13.08.2019
3755 Clear 15 1017 32 10000 2.45 85.582 16:58 13.08.2019
3756 Clear 15 1017 32 10000 2.45 85.582 16:40 13.08.2019
3757 Clear 14 1017 32 10000 2.45 85.582 16:21 13.08.2019
3758 Clear 11 1017 56 10000 2.45 85.582 15:59 13.08.2019
3759 Clear 10 1017 56 10000 2.45 85.582 15:38 13.08.2019
3760 Clear 10 1017 56 10000 2.86 73.412 15:19 13.08.2019
3761 Clear 10 1017 56 10000 2.86 73.412 15:19 13.08.2019
3762 Clear 7 1017 74 10000 1.5 60 14:42 13.08.2019
3763 Clear 1 1017 74 10000 1.5 60 14:20 13.08.2019
3764 Clouds 6 1017 69 7000 0.5 0 13:57 13.08.2019
3765 Clouds 6 1017 69 7000 0.5 0 13:38 13.08.2019
3766 Clouds 6 1017 69 7000 0.5 0 13:18 13.08.2019
3767 Clouds 4 1017 74 7000 1.5 200 12:56 13.08.2019
3768 Clouds 4 1017 74 7000 1.5 200 12:37 13.08.2019
3769 Clouds 4 1017 74 7000 1.5 200 12:18 13.08.2019
3770 Clouds 4 1018 69 7000 3.1 40 11:40 13.08.2019
3771 Clouds 4 1018 69 7000 3.1 40 11:21 13.08.2019
3772 Clouds 3 1019 32 7000 3.1 30 10:57 13.08.2019
3773 Clouds 3 1019 32 7000 3.1 30 10:38 13.08.2019
3774 Clouds 3 1019 32 7000 3.1 30 10:19 13.08.2019
3775 Clouds 3 1020 74 7000 1 0 09:45 13.08.2019
3776 Clear 4 1020 74 7000 1 0 09:24 13.08.2019
3777 Clear 5 1020 64 7000 1.5 200 08:57 13.08.2019
3778 Clear 5 1020 64 7000 1.5 200 08:39 13.08.2019
3779 Clear 5 1020 64 7000 1.5 200 08:19 13.08.2019
3780 Clear 7 1020 65 7000 1.5 170 07:40 13.08.2019
3781 Clear 7 1020 65 7000 1.5 170 07:20 13.08.2019
3782 Clear 7 1020 60 8000 2.13 73.265 06:43 13.08.2019
3783 Clear 8 1021 56 8000 2.05 75.849 05:46 13.08.2019
3784 Clear 9 1021 45 10000 0.5 0 03:46 13.08.2019
3785 Clear 11 1022 37 10000 1.51 72.872 02:22 13.08.2019
3786 Clear 14 1022 30 10000 2.1 210 01:26 13.08.2019
3787 Clear 16 1023 25 10000 1.5 220 00:47 13.08.2019
3788 Clear 15 1023 25 10000 1.5 220 00:19 13.08.2019
3789 Clear 17 1023 25 10000 1.5 250 23:43 12.08.2019
3790 Clear 17 1023 25 10000 1.5 250 23:21 12.08.2019
3791 Clear 17 1023 29 10000 1 250 22:40 12.08.2019
3792 Clear 17 1023 29 10000 1 250 22:20 12.08.2019
3793 Clear 17 1023 53 10000 1.5 200 21:57 12.08.2019
3794 Clear 17 1023 53 10000 1.5 200 21:38 12.08.2019
3795 Clear 17 1023 35 10000 1.5 200 21:19 12.08.2019
3796 Clear 15 1024 41 10000 1 210 20:58 12.08.2019
3797 Clear 15 1024 41 10000 1 210 20:58 12.08.2019
3798 Clear 15 1024 41 10000 1 210 20:39 12.08.2019
3799 Clear 16 1024 41 10000 1 210 20:20 12.08.2019
3800 Clear 15 1025 50 10000 1.5 250 19:57 12.08.2019
3801 Clear 15 1025 50 10000 1.5 250 19:39 12.08.2019
3802 Clear 15 1025 50 10000 1.5 250 19:20 12.08.2019
3803 Clear 13 1026 54 10000 1 300 18:56 12.08.2019
3804 Clear 13 1026 54 10000 1 300 18:38 12.08.2019
3805 Clear 13 1026 54 10000 1 300 18:19 12.08.2019
3806 Clear 11 1027 66 10000 0.5 210 17:48 12.08.2019
3807 Clear 11 1027 66 10000 0.5 210 17:29 12.08.2019
3808 Clear 9 1027 81 10000 0.5 240 16:58 12.08.2019
3809 Clear 9 1027 81 10000 0.5 240 16:39 12.08.2019
3810 Clear 9 1027 81 10000 0.5 240 16:20 12.08.2019
3811 Mist 6 1027 93 10000 1.74 102.044 15:59 12.08.2019
3812 Mist 6 1027 93 10000 1.74 102.044 15:41 12.08.2019
3813 Mist 4 1027 93 10000 1.76 70.276 15:21 12.08.2019
3814 Clear 3 1027 86 10000 1.76 70.276 14:58 12.08.2019
3815 Clear 2 1027 86 10000 1.76 70.276 14:39 12.08.2019
3816 Clear 2 1027 86 10000 1.76 70.276 14:39 12.08.2019
3817 Clear 2 1027 86 10000 1.76 70.276 14:20 12.08.2019
3818 Clear 2 1027 86 10000 1.76 70.276 14:20 12.08.2019
3819 Clear 2 1027 100 8000 1 0 13:47 12.08.2019
3820 Clear 3 1027 100 8000 1 0 13:25 12.08.2019
3821 Clear 3 1026 93 8000 1.5 10 12:59 12.08.2019
3822 Clear 3 1026 93 8000 1.5 10 12:41 12.08.2019
3823 Clear 3 1026 93 8000 1.5 10 12:19 12.08.2019
3824 Clear 3 1026 93 8000 1.5 0 11:43 12.08.2019
3825 -273 0 0 0 0 0 11:42 12.08.2019
3826 Clear 3 1026 93 8000 1.5 0 11:23 12.08.2019
3827 Clear 3 1026 93 10000 1.5 20 10:43 12.08.2019
3828 Clear 3 1026 93 10000 1.5 20 10:23 12.08.2019
3829 Clouds 5 1026 86 10000 2.1 200 09:57 12.08.2019
3830 Clouds 5 1026 86 10000 2.1 200 09:38 12.08.2019
3831 Clouds 5 1026 86 10000 2.1 200 09:20 12.08.2019
3832 Clear 4 1026 86 10000 2.6 20 08:58 12.08.2019
3833 Clear 4 1026 86 10000 2.6 20 08:39 12.08.2019
3834 Clear 4 1026 86 10000 2.6 20 08:20 12.08.2019
3835 Clear 4 1026 86 10000 2.6 20 08:20 12.08.2019
3836 Clear 5 1026 87 10000 0.06 331.314 07:52 12.08.2019
3837 Clear 5 1026 87 10000 0.06 331.314 07:28 12.08.2019
3838 Clouds 6 1026 81 10000 1.5 160 06:52 12.08.2019
3839 Clouds 6 1026 75 10000 2.1 140 05:41 12.08.2019
3840 Clear 9 1024 71 10000 4.6 190 02:45 12.08.2019
3841 Clear 11 1023 62 10000 4.1 200 01:55 12.08.2019
3842 Clear 12 1023 62 10000 4.1 200 01:22 12.08.2019
3843 Clear 12 1023 50 10000 2.6 250 00:58 12.08.2019
3844 Clear 13 1023 50 10000 2.6 250 00:39 12.08.2019
3845 Clear 13 1023 50 10000 2.6 250 00:20 12.08.2019
3846 Clouds 13 1023 44 10000 3.1 210 23:56 11.08.2019
3847 Clouds 14 1023 44 10000 3.1 210 23:37 11.08.2019
3848 Clouds 14 1022 50 10000 4.6 200 23:18 11.08.2019
3849 Clear 15 1023 41 10000 3.6 240 22:40 11.08.2019
3850 Clear 15 1023 41 10000 3.6 240 22:20 11.08.2019
3851 Clear 15 1023 63 10000 3.1 240 21:59 11.08.2019
3852 Clear 15 1023 63 10000 3.1 240 21:41 11.08.2019
3853 Clear 15 1023 56 10000 3.1 240 21:22 11.08.2019
3854 Clear 15 1022 55 10000 2.6 240 20:58 11.08.2019
3855 Clear 15 1022 55 10000 2.6 240 20:40 11.08.2019
3856 Clear 15 1022 55 10000 2.6 240 20:22 11.08.2019
3857 Clear 14 1023 41 8000 2.6 250 19:45 11.08.2019
3858 Clear 14 1023 41 8000 2.6 250 19:20 11.08.2019
3859 Clear 13 1023 54 8000 2.1 0 18:54 11.08.2019
3860 Clear 13 1023 54 8000 2.1 0 18:36 11.08.2019
3861 Clear 13 1023 54 8000 2.1 0 18:18 11.08.2019
3862 Clear 11 1023 61 8000 1.5 210 17:41 11.08.2019
3863 Clear 10 1023 70 8000 1 240 17:20 11.08.2019
3864 Clear 10 1023 70 8000 1 240 16:57 11.08.2019
3865 Clear 10 1023 70 8000 1 240 16:38 11.08.2019
3866 Clear 10 1023 70 8000 1 240 16:20 11.08.2019
3867 Clear 7 1023 86 8000 1.3 236.322 15:44 11.08.2019
3868 Clear 7 1023 86 8000 1.3 236.322 15:44 11.08.2019
3869 Clear 5 1023 86 8000 0.36 12.719 15:25 11.08.2019
3870 Clear 5 1022 87 10000 1 60 14:59 11.08.2019
3871 Clear 5 1022 87 10000 1 60 14:40 11.08.2019
3872 Clear 4 1022 87 10000 1 60 14:21 11.08.2019
3873 Clear 4 1022 93 8000 1.5 330 13:46 11.08.2019
3874 Clouds 4 1022 93 8000 1.5 330 13:26 11.08.2019
3875 Clear 5 1021 81 10000 2.1 140 12:58 11.08.2019
3876 Clear 5 1021 81 10000 2.1 140 12:38 11.08.2019
3877 Clear 6 1021 81 10000 2.1 140 12:19 11.08.2019
3878 Clear 6 1021 81 10000 3.1 150 11:40 11.08.2019
3879 Clear 6 1021 81 10000 3.1 150 11:40 11.08.2019
3880 Clear 6 1021 81 10000 3.1 150 11:22 11.08.2019
3881 Clear 6 1020 81 10000 1.5 170 10:56 11.08.2019
3882 Clear 6 1020 81 10000 1.5 170 10:56 11.08.2019
3883 Clear 7 1020 81 10000 1.5 170 10:37 11.08.2019
3884 Clear 7 1020 81 10000 1.5 170 10:19 11.08.2019
3885 Clouds 7 1019 75 10000 3.1 180 09:43 11.08.2019
3886 Clouds 7 1019 75 10000 3.1 180 09:24 11.08.2019
3887 Clouds 9 1019 66 10000 3.6 150 08:56 11.08.2019
3888 Clouds 9 1019 66 10000 3.6 150 08:38 11.08.2019
3889 Clouds 10 1019 66 10000 3.6 150 08:20 11.08.2019
3890 Clouds 11 1019 57 10000 1.5 0 07:32 11.08.2019
3891 Clouds 10 1019 66 10000 2.1 330 06:52 11.08.2019
3892 Clouds 10 1019 66 10000 2.1 330 06:31 11.08.2019
3893 Clouds 11 1020 57 10000 2.1 170 04:46 11.08.2019
3894 Clouds 12 1019 54 10000 2.1 0 02:53 11.08.2019
3895 Clouds 13 1018 47 10000 3.6 160 01:58 11.08.2019
3896 Haze 13 1018 47 10000 3.6 160 01:32 11.08.2019
3897 Haze 14 1019 35 5000 1 0 00:56 11.08.2019
3898 Haze 14 1019 35 5000 1 0 00:36 11.08.2019
3899 Haze 15 1018 30 5000 2.6 190 23:56 10.08.2019
3900 Haze 15 1018 30 5000 2.6 190 23:37 10.08.2019
3901 Haze 15 1018 30 5000 2.6 190 23:18 10.08.2019
3902 Haze 16 1017 29 5000 2.1 230 22:38 10.08.2019
3903 Haze 17 1017 29 5000 2.1 230 22:20 10.08.2019
3904 Haze 18 1017 27 5000 2.6 350 21:41 10.08.2019
3905 Haze 18 1017 27 5000 2.6 350 21:22 10.08.2019
3906 Haze 18 1017 27 5000 2.6 350 21:22 10.08.2019
3907 Clouds 19 1017 23 8000 2.1 210 20:59 10.08.2019
3908 Clouds 19 1017 23 8000 2.1 210 20:41 10.08.2019
3909 Clouds 19 1017 23 8000 2.1 210 20:20 10.08.2019
3910 Clear 17 1018 29 10000 1.5 200 19:56 10.08.2019
3911 Clear 17 1018 29 10000 1.5 200 19:37 10.08.2019
3912 Clear 17 1018 29 10000 1.5 200 19:18 10.08.2019
3913 Clear 16 1019 33 10000 1.5 230 18:39 10.08.2019
3914 Haze 13 1020 34 10000 1 0 18:20 10.08.2019
3915 Haze 13 1020 34 10000 1 0 17:41 10.08.2019
3916 Haze 13 1020 34 10000 1 0 17:23 10.08.2019
3917 Haze 10 1020 49 10000 1.5 360 16:45 10.08.2019
3918 Haze 7 1020 49 10000 1.5 360 16:26 10.08.2019
3919 Haze 7 1020 46 10000 1.5 20 15:53 10.08.2019
3920 Haze 6 1020 73 10000 1.5 20 15:24 10.08.2019
3921 Haze 3 1021 73 10000 1.08 95.605 14:45 10.08.2019
3922 Haze 3 1021 73 10000 1.08 95.605 14:21 10.08.2019
3923 Clouds 2 1021 80 6000 2.6 30 13:42 10.08.2019
3924 Clouds 2 1021 80 6000 2.6 30 13:21 10.08.2019
3925 Clouds 2 1021 86 7000 1.5 340 12:58 10.08.2019
3926 Clouds 2 1021 86 7000 1.5 340 12:39 10.08.2019
3927 Clear 2 1021 86 7000 1.5 340 12:21 10.08.2019
3928 Clear 3 1021 74 7000 1.5 0 11:42 10.08.2019
3929 Clear 3 1021 74 7000 1.5 0 11:23 10.08.2019
3930 Clear 3 1021 79 7000 3.1 160 10:59 10.08.2019
3931 Clear 3 1021 79 7000 3.1 160 10:38 10.08.2019
3932 Clear 3 1021 79 7000 3.1 160 10:19 10.08.2019
3933 Clear 5 1021 65 8000 1.5 20 09:43 10.08.2019
3934 Clear 5 1021 65 8000 1.5 20 09:24 10.08.2019
3935 Clear 5 1022 80 8000 3.6 10 08:56 10.08.2019
3936 Clear 5 1022 80 8000 3.6 10 08:38 10.08.2019
3937 Clear 4 1023 80 6000 4.1 20 08:18 10.08.2019
3938 Clear 5 1023 80 6000 4.1 20 07:46 10.08.2019
3939 Clear 4 1023 80 6000 4.1 20 07:24 10.08.2019
3940 Clear 5 1024 75 8000 2.1 0 06:47 10.08.2019
3941 Clear 6 1025 70 10000 3.1 140 05:52 10.08.2019
3942 Clear 6 1025 70 10000 3.1 140 05:21 10.08.2019
3943 Clear 7 1024 81 10000 1.5 30 03:55 10.08.2019
3944 Clear 9 1024 53 10000 2.1 330 02:50 10.08.2019
3945 Clear 10 1024 50 10000 1 0 01:57 10.08.2019
3946 Clear 10 1024 50 10000 1 0 01:37 10.08.2019
3947 Clear 11 1024 50 10000 1 0 01:19 10.08.2019
3948 Clear 13 1025 83 8000 2.1 250 00:42 10.08.2019
3949 Clear 13 1025 65 8000 2.1 250 00:19 10.08.2019
3950 Clear 14 1025 33 8000 2.1 220 23:41 09.08.2019
3951 Clear 14 1025 33 8000 2.1 220 23:21 09.08.2019
3952 Clear 15 1025 30 7000 2.1 0 22:56 09.08.2019
3953 Clear 15 1025 30 7000 2.1 0 22:37 09.08.2019
3954 Clear 15 1025 30 7000 2.1 0 22:19 09.08.2019
3955 Haze 14 1025 35 5000 2.6 210 21:41 09.08.2019
3956 Haze 14 1025 35 5000 2.6 210 21:22 09.08.2019
3957 Haze 13 1026 37 5000 2.6 210 20:58 09.08.2019
3958 Haze 14 1026 37 5000 2.6 210 20:39 09.08.2019
3959 Haze 14 1026 37 5000 2.6 210 20:20 09.08.2019
3960 Clear 15 1026 60 6000 1.5 0 19:43 09.08.2019
3961 Clear 15 1026 60 6000 1.5 0 19:23 09.08.2019
3962 Clear 14 1026 60 6000 1.5 0 18:59 09.08.2019
3963 Clear 11 1026 60 6000 1.5 0 18:39 09.08.2019
3964 Clear 10 1026 66 7000 1 210 18:20 09.08.2019
3965 Clear 10 1026 66 7000 1 210 17:45 09.08.2019
3966 Clear 10 1026 66 7000 1 210 17:25 09.08.2019
3967 -273 0 0 0 0 0 16:56 09.08.2019
3968 Haze 7 1027 66 8000 2.1 230 16:38 09.08.2019
3969 Haze 7 1027 66 8000 2.1 230 16:20 09.08.2019
3970 Smoke 4 1026 66 9000 1.5 70 15:42 09.08.2019
3971 Smoke 4 1026 66 9000 1.5 70 15:42 09.08.2019
3972 Smoke 5 1026 92 9000 1.5 70 15:22 09.08.2019
3973 -273 0 0 0 0 0 14:58 09.08.2019
3974 Mist 2 1026 92 10000 0.06 128.333 14:40 09.08.2019
3975 Mist 1 1026 92 10000 0.06 128.333 14:21 09.08.2019
3976 Clear 1 1026 92 8000 2.1 330 13:46 09.08.2019
3977 Clear 1 1026 92 8000 2.1 330 13:23 09.08.2019
3978 Clear 2 1025 86 8000 1 0 12:58 09.08.2019
3979 Clear 2 1025 86 8000 1 0 12:40 09.08.2019
3980 Clear 1 1025 86 8000 1 0 12:21 09.08.2019
3981 Clear 2 1024 92 8000 1 0 11:41 09.08.2019
3982 Clear 2 1024 92 8000 1 0 11:21 09.08.2019
3983 Clear 1 1024 92 8000 1.5 0 10:57 09.08.2019
3984 Clear 2 1024 92 8000 1.5 0 10:38 09.08.2019
3985 Clear 2 1024 92 8000 1.5 0 10:20 09.08.2019
3986 Clear 2 1024 92 8000 0.56 62.606 09:41 09.08.2019
3987 Clouds 2 1024 93 8000 0.36 316.48 09:19 09.08.2019
3988 Clear 3 1024 93 10000 0.5 0 08:45 09.08.2019
3989 Clear 3 1024 94 10000 0.5 0 08:25 09.08.2019
3990 Clear 4 1023 86 10000 0.31 304 07:58 09.08.2019
3991 Clear 4 1023 86 10000 0.31 304 07:40 09.08.2019
3992 Clear 4 1023 86 10000 0.31 304 07:40 09.08.2019
3993 Clear 4 1023 86 10000 0.31 304 07:20 09.08.2019
3994 Clear 4 1023 80 10000 1 0 06:44 09.08.2019
3995 Clear 4 1023 80 10000 1 0 06:21 09.08.2019
3996 Clear 6 1023 75 10000 3.1 170 05:37 09.08.2019
3997 Clear 8 1022 61 10000 3.1 200 02:29 09.08.2019
3998 Clear 10 1022 57 10000 3.6 190 01:26 09.08.2019
3999 Clear 10 1022 92 10000 2.6 250 00:42 09.08.2019
4000 Clear 11 1022 69 10000 2.6 250 00:23 09.08.2019
4001 Clear 12 1022 40 10000 3.1 230 23:57 08.08.2019
4002 Clear 12 1022 40 10000 3.1 230 23:37 08.08.2019
4003 Clear 12 1022 40 10000 3.1 230 23:19 08.08.2019
4004 Clear 13 1022 34 10000 1.5 230 22:55 08.08.2019
4005 Clear 13 1022 34 10000 1.5 230 22:36 08.08.2019
4006 Clear 13 1022 34 10000 1.5 230 22:18 08.08.2019
4007 Clouds 13 1022 69 8000 2.6 220 21:43 08.08.2019
4008 Clear 13 1022 65 8000 2.6 220 21:24 08.08.2019
4009 Clear 13 1022 43 8000 2.6 240 20:58 08.08.2019
4010 Clear 13 1022 43 8000 2.6 240 20:40 08.08.2019
4011 Clear 13 1022 43 8000 2.6 240 20:20 08.08.2019
4012 Clear 12 1022 43 7000 2.6 230 19:49 08.08.2019
4013 Clear 12 1022 43 7000 2.6 230 19:29 08.08.2019
4014 Clear 11 1022 53 8000 2.1 270 18:59 08.08.2019
4015 Clear 11 1022 53 8000 2.1 270 18:40 08.08.2019
4016 Clear 11 1022 53 8000 2.1 270 18:19 08.08.2019
4017 Clear 10 1022 57 8000 2.1 180 17:42 08.08.2019
4018 Clear 10 1022 57 8000 2.1 180 17:24 08.08.2019
4019 Clear 8 1022 70 8000 1 150 16:59 08.08.2019
4020 Clear 8 1022 70 8000 1 150 16:41 08.08.2019
4021 Clear 8 1022 70 8000 1 150 16:23 08.08.2019
4022 Clear 5 1022 86 8000 1 120 15:57 08.08.2019
4023 Clear 5 1022 86 8000 1 120 15:38 08.08.2019
4024 Clear 4 1022 86 8000 1 120 15:20 08.08.2019
4025 Clear 3 1022 86 8000 1 180 14:40 08.08.2019
4026 Clear 2 1022 86 8000 1 180 14:21 08.08.2019
4027 Clear 2 1022 87 8000 1 0 13:43 08.08.2019
4028 Clear 2 1022 86 8000 1 0 13:25 08.08.2019
4029 Clear 1 1021 86 8000 0.24 79.38 12:58 08.08.2019
4030 Clear 2 1021 86 8000 0.24 79.38 12:38 08.08.2019
4031 Clear 2 1021 86 10000 2.6 350 12:18 08.08.2019
4032 Clear 2 1021 86 10000 2.6 350 11:43 08.08.2019
4033 -273 0 0 0 0 0 11:25 08.08.2019
4034 Clear 2 1021 80 10000 1.5 20 10:56 08.08.2019
4035 Clear 2 1021 80 10000 1.5 20 10:37 08.08.2019
4036 Clear 2 1021 80 10000 1.5 20 10:19 08.08.2019
4037 Clear 2 1021 80 10000 2.1 30 09:40 08.08.2019
4038 Clear 2 1021 80 10000 2.1 30 09:20 08.08.2019
4039 Clear 2 1021 80 10000 1 0 08:42 08.08.2019
4040 Clear 2 1021 80 10000 1 0 08:22 08.08.2019
4041 Clear 5 1022 65 10000 2.6 160 07:58 08.08.2019
4042 Clear 4 1022 65 10000 2.6 160 07:39 08.08.2019
4043 Clear 4 1022 65 10000 2.6 160 07:18 08.08.2019
4044 Clear 5 1022 60 10000 1.5 210 06:44 08.08.2019
4045 Clear 6 1022 56 10000 5.1 170 05:58 08.08.2019
4046 Clear 6 1022 56 10000 5.1 170 05:39 08.08.2019
4047 Clear 6 1022 60 10000 4.1 170 04:18 08.08.2019
4048 Clear 6 1022 56 10000 4.1 160 03:41 08.08.2019
4049 Clear 9 1021 53 10000 4.6 180 01:47 08.08.2019
4050 Clear 11 1021 40 10000 3.1 210 00:59 08.08.2019
4051 Clear 11 1021 40 10000 3.1 210 00:22 08.08.2019
4052 Clear 13 1021 35 10000 2.6 200 23:38 07.08.2019
4053 Clear 13 1021 35 10000 2.6 200 23:18 07.08.2019
4054 Clear 14 1020 41 10000 5.1 160 22:41 07.08.2019
4055 Clear 14 1020 41 10000 5.1 160 22:21 07.08.2019
4056 Clouds 14 1021 37 8000 2.6 210 21:58 07.08.2019
4057 Clouds 14 1021 37 8000 2.6 210 21:40 07.08.2019
4058 Clouds 14 1021 37 8000 2.6 210 21:21 07.08.2019
4059 Clouds 14 1021 37 8000 2.6 210 21:21 07.08.2019
4060 Clouds 13 1021 46 7000 1.5 140 20:59 07.08.2019
4061 Clouds 13 1021 46 7000 1.5 140 20:41 07.08.2019
4062 Clouds 13 1021 46 7000 1.5 140 20:20 07.08.2019
4063 Haze 12 1022 53 5000 2.1 240 19:56 07.08.2019
4064 Haze 12 1022 53 5000 2.1 240 19:36 07.08.2019
4065 Haze 12 1022 53 5000 2.1 240 19:36 07.08.2019
4066 Haze 12 1022 53 5000 2.1 240 19:36 07.08.2019
4067 Haze 12 1022 53 5000 2.1 240 19:18 07.08.2019
4068 Haze 11 1022 61 5000 1.5 320 18:40 07.08.2019
4069 Haze 11 1022 61 5000 1.5 320 18:20 07.08.2019
4070 Haze 10 1023 70 5000 1.31 215.989 17:56 07.08.2019
4071 Haze 10 1023 70 5000 1.31 215.989 17:38 07.08.2019
4072 Haze 9 1023 70 5000 1.31 215.989 17:19 07.08.2019
4073 Haze 8 1023 81 5000 1.31 215.989 16:56 07.08.2019
4074 Haze 8 1023 81 5000 1.31 215.989 16:38 07.08.2019
4075 Haze 8 1023 81 5000 1.31 215.989 16:19 07.08.2019
4076 Mist 6 1023 93 4000 1.31 215.989 15:43 07.08.2019
4077 Mist 6 1023 93 4000 0.25 226.92 15:21 07.08.2019
4078 Mist 5 1023 93 4000 0.25 226.92 14:57 07.08.2019
4079 Mist 5 1023 93 4000 0.25 226.92 14:38 07.08.2019
4080 Mist 5 1023 93 4000 0.25 226.92 14:20 07.08.2019
4081 Clouds 7 1022 75 10000 1.5 0 13:40 07.08.2019
4082 Clouds 6 1022 75 10000 1.5 0 13:19 07.08.2019
4083 Clouds 7 1022 80 10000 2.6 170 12:57 07.08.2019
4084 Clouds 7 1022 80 10000 2.6 170 12:38 07.08.2019
4085 Clouds 7 1022 80 10000 2.6 170 12:19 07.08.2019
4086 Clouds 6 1022 80 10000 3.6 170 11:58 07.08.2019
4087 Clouds 6 1022 80 10000 3.6 170 11:40 07.08.2019
4088 Clouds 7 1022 75 10000 3.6 160 11:18 07.08.2019
4089 Clouds 7 1022 75 10000 3.6 160 10:41 07.08.2019
4090 Clouds 7 1022 75 10000 3.6 160 10:20 07.08.2019
4091 Clouds 8 1022 75 10000 2.6 160 09:59 07.08.2019
4092 Clouds 8 1022 75 10000 2.6 160 09:39 07.08.2019
4093 Clouds 8 1022 75 10000 2.6 160 09:18 07.08.2019
4094 Clouds 8 1022 75 10000 4.1 180 08:45 07.08.2019
4095 Clouds 8 1022 75 10000 4.1 180 08:25 07.08.2019
4096 Clouds 9 1023 70 10000 4.6 190 07:51 07.08.2019
4097 Clouds 9 1023 70 10000 4.6 190 07:30 07.08.2019
4098 Clouds 9 1023 66 10000 4.6 190 06:47 07.08.2019
4099 Clouds 9 1023 66 10000 4.6 190 06:22 07.08.2019
4100 Clouds 9 1023 76 10000 5.7 170 05:42 07.08.2019
4101 Clouds 9 1023 76 10000 5.1 160 04:40 07.08.2019
4102 Clouds 10 1023 66 10000 3.6 160 02:58 07.08.2019
4103 Clouds 10 1023 66 10000 3.6 160 02:38 07.08.2019
4104 Clouds 11 1022 66 10000 3.6 170 01:52 07.08.2019
4105 Clouds 10 1022 66 10000 3.6 170 01:22 07.08.2019
4106 Clouds 11 1023 71 6000 2.6 220 00:24 07.08.2019
4107 Haze 12 1022 62 5000 1.5 260 23:59 06.08.2019
4108 Haze 12 1022 62 5000 1.5 260 23:38 06.08.2019
4109 Haze 12 1022 62 5000 1.5 260 23:20 06.08.2019
4110 Haze 11 1022 66 4000 2.1 230 22:41 06.08.2019
4111 Haze 11 1022 66 4000 2.1 230 22:22 06.08.2019
4112 Haze 12 1022 62 4000 2.1 270 21:57 06.08.2019
4113 Haze 12 1022 62 4000 2.1 270 21:39 06.08.2019
4114 Haze 12 1022 62 4000 2.1 270 21:19 06.08.2019
4115 Haze 12 1022 62 4000 2.1 270 21:19 06.08.2019
4116 Haze 12 1022 62 4000 2.1 270 21:19 06.08.2019
4117 Haze 11 1022 58 4000 2.6 260 20:46 06.08.2019
4118 Haze 11 1022 58 4000 2.6 260 20:28 06.08.2019
4119 Haze 11 1022 62 4000 1.5 310 19:57 06.08.2019
4120 Haze 11 1022 62 4000 1.5 310 19:38 06.08.2019
4121 Haze 11 1022 62 4000 1.5 310 19:19 06.08.2019
4122 Haze 10 1023 70 4000 1 360 18:43 06.08.2019
4123 Haze 10 1023 70 4000 1 360 18:25 06.08.2019
4124 Haze 9 1023 75 3000 1.5 250 17:58 06.08.2019
4125 Haze 9 1023 75 3000 1.5 250 17:38 06.08.2019
4126 Haze 9 1023 75 3000 1.5 250 17:19 06.08.2019
4127 Haze 8 1023 81 3000 1.5 240 16:54 06.08.2019
4128 Haze 8 1023 81 3000 1.5 240 16:36 06.08.2019
4129 Mist 8 1022 87 3000 1 210 16:18 06.08.2019
4130 Mist 8 1022 87 3000 1 210 15:55 06.08.2019
4131 Mist 8 1022 87 3000 1 210 15:36 06.08.2019
4132 Mist 8 1022 87 3000 1 210 15:18 06.08.2019
4133 Mist 7 1022 87 3000 0.54 287.801 14:40 06.08.2019
4134 Mist 7 1022 87 3000 0.54 287.801 14:40 06.08.2019
4135 Mist 7 1022 87 3000 0.54 287.801 14:21 06.08.2019
4136 Mist 6 1021 93 5000 1 0 13:55 06.08.2019
4137 Mist 6 1021 93 5000 1 0 13:37 06.08.2019
4138 Mist 6 1021 93 5000 1 0 13:18 06.08.2019
4139 Mist 6 1020 100 4000 1 320 12:41 06.08.2019
4140 Mist 6 1020 100 4000 1 320 12:22 06.08.2019
4141 Mist 7 1020 93 5000 2.1 0 11:46 06.08.2019
4142 Mist 7 1020 93 5000 2.1 0 11:22 06.08.2019
4143 Mist 8 1020 87 5000 2.6 210 10:59 06.08.2019
4144 Mist 8 1020 87 5000 2.6 210 10:40 06.08.2019
4145 Mist 8 1020 87 5000 2.6 210 10:22 06.08.2019
4146 Mist 7 1020 93 4500 2.6 220 09:43 06.08.2019
4147 Mist 7 1020 93 4500 2.6 220 09:23 06.08.2019
4148 Mist 7 1020 93 4000 2.1 200 08:55 06.08.2019
4149 Mist 7 1020 93 4000 2.1 200 08:36 06.08.2019
4150 Mist 7 1020 93 4000 2.1 200 08:18 06.08.2019
4151 Mist 6 1020 93 4000 2.1 0 07:31 06.08.2019
4152 Mist 7 1020 93 5000 3.6 160 06:45 06.08.2019
4153 Mist 7 1020 93 5000 3.6 160 06:24 06.08.2019
4154 Mist 8 1020 87 5000 4.6 150 05:46 06.08.2019
4155 Clear 11 1018 81 10000 5.1 150 02:58 06.08.2019
4156 Clear 13 1017 76 10000 5.1 150 01:26 06.08.2019
4157 Clear 14 1017 67 8000 1.5 230 00:55 06.08.2019
4158 Clear 14 1017 67 8000 1.5 230 00:23 06.08.2019
4159 Clear 17 1017 55 7000 2.1 230 23:21 05.08.2019
4160 Haze 19 1017 42 5000 3.1 220 22:58 05.08.2019
4161 Haze 19 1017 42 5000 3.1 220 22:39 05.08.2019
4162 Haze 20 1017 42 5000 3.1 220 22:21 05.08.2019
4163 Haze 20 1016 40 5000 2.6 230 21:42 05.08.2019
4164 Haze 21 1016 40 5000 2.6 230 21:21 05.08.2019
4165 Haze 21 1016 35 5000 1.94 234.129 20:58 05.08.2019
4166 Haze 22 1016 35 5000 1.94 234.129 20:39 05.08.2019
4167 Haze 22 1016 35 5000 1.94 234.129 20:21 05.08.2019
4168 Clear 21 1017 34 6000 1.5 270 19:57 05.08.2019
4169 Clear 21 1017 34 6000 1.5 270 19:38 05.08.2019
4170 Clear 22 1017 34 6000 1.5 270 19:19 05.08.2019
4171 Clear 20 1017 39 8000 1 230 18:42 05.08.2019
4172 Clear 17 1017 39 8000 1 230 18:21 05.08.2019
4173 Clear 15 1018 38 8000 1 270 17:51 05.08.2019
4174 Clear 15 1018 38 8000 1 270 17:30 05.08.2019
4175 Clear 12 1019 54 8000 1 250 16:59 05.08.2019
4176 Clear 14 1019 54 8000 1 250 16:41 05.08.2019
4177 Clear 12 1019 54 8000 1 250 16:23 05.08.2019
4178 Clear 7 1018 75 10000 2.08 241.992 15:43 05.08.2019
4179 Clear 7 1018 75 10000 0.96 278.942 15:20 05.08.2019
4180 Clear 8 1018 75 10000 1 50 14:42 05.08.2019
4181 Clear 8 1018 75 10000 1 50 14:42 05.08.2019
4182 Clear 7 1018 75 10000 1 50 14:22 05.08.2019
4183 Clear 6 1017 74 10000 2.1 30 13:50 05.08.2019
4184 Clear 6 1017 74 10000 2.1 30 13:50 05.08.2019
4185 Clear 7 1017 74 10000 2.1 30 13:24 05.08.2019
4186 Clear 8 1017 82 10000 1 0 12:59 05.08.2019
4187 Clear 8 1017 82 10000 1 0 12:41 05.08.2019
4188 Clear 8 1017 75 10000 1 0 12:18 05.08.2019
4189 Clear 9 1016 75 10000 2.1 190 11:43 05.08.2019
4190 Clear 6 1016 75 10000 2.1 190 11:25 05.08.2019
4191 Clear 6 1016 75 10000 1 0 10:47 05.08.2019
4192 Clear 6 1016 75 10000 1 0 10:28 05.08.2019
4193 Clear 8 1016 75 10000 1 0 09:56 05.08.2019
4194 Clear 8 1016 75 10000 1 0 09:56 05.08.2019
4195 Clear 8 1016 75 10000 1 0 09:56 05.08.2019
4196 Clear 8 1016 75 10000 1 0 09:37 05.08.2019
4197 Clear 10 1016 76 10000 1 0 09:19 05.08.2019
4198 Clear 10 1016 76 10000 1.5 30 08:43 05.08.2019
4199 Clear 10 1016 76 10000 1.5 30 08:23 05.08.2019
4200 Clear 11 1016 76 10000 0.66 303.642 07:47 05.08.2019
4201 Clear 11 1016 76 10000 0.66 303.642 07:27 05.08.2019
4202 Clear 12 1016 46 10000 1 0 06:51 05.08.2019
4203 Clear 9 1016 57 10000 0.5 40.862 05:53 05.08.2019
4204 Clear 12 1016 57 10000 0.5 40.862 05:23 05.08.2019
4205 Clear 11 1016 50 10000 1 0 04:35 05.08.2019
4206 Clear 16 1016 38 10000 1.5 140 03:47 05.08.2019
4207 Clear 19 1015 32 10000 2.6 150 02:37 05.08.2019
4208 Clear 21 1015 70 10000 1.5 170 01:40 05.08.2019
4209 Clear 23 1016 16 10000 1.5 270 00:56 05.08.2019
4210 Clear 23 1016 16 10000 1.5 270 00:37 05.08.2019
4211 Clear 23 1016 16 10000 1.5 270 00:18 05.08.2019
4212 Clear 25 1016 14 10000 1.24 226.991 23:41 04.08.2019
4213 Clear 25 1016 14 10000 1.24 226.991 23:21 04.08.2019
4214 Clear 27 1016 15 10000 2.1 260 22:57 04.08.2019
4215 Clear 27 1016 15 10000 2.1 260 22:37 04.08.2019
4216 Clear 27 1016 15 10000 2.1 260 22:19 04.08.2019
4217 Clear 26 1015 16 10000 2.1 240 21:45 04.08.2019
4218 Clear 26 1015 16 10000 2.1 240 21:23 04.08.2019
4219 Clear 25 1016 16 10000 2.6 210 20:56 04.08.2019
4220 Clear 25 1016 16 10000 2.6 210 20:37 04.08.2019
4221 Clear 24 1016 16 10000 2.6 210 20:18 04.08.2019
4222 Clear 25 1016 17 10000 1.17 187.624 19:43 04.08.2019
4223 Clear 25 1016 17 10000 1.17 187.624 19:24 04.08.2019
4224 Clear 23 1017 28 10000 1.17 187.624 18:42 04.08.2019
4225 Clear 19 1017 30 10000 1.5 92.181 18:21 04.08.2019
4226 Clear 16 1018 31 10000 1.5 92.181 17:58 04.08.2019
4227 Clear 16 1018 31 10000 1.5 92.181 17:40 04.08.2019
4228 Clear 16 1018 31 10000 1.5 92.181 17:20 04.08.2019
4229 Clear 18 1018 36 10000 1.5 92.181 16:42 04.08.2019
4230 Clear 17 1018 36 10000 1.5 92.181 16:24 04.08.2019
4231 Clear 12 1018 65 10000 1.5 40 15:45 04.08.2019
4232 Clear 7 1018 65 10000 1.5 40 15:23 04.08.2019
4233 Clear 9 1017 38 10000 1.53 74.26 14:55 04.08.2019
4234 Clear 8 1017 38 10000 1.53 74.26 14:37 04.08.2019
4235 Clear 3 1017 38 10000 1.53 74.26 14:19 04.08.2019
4236 Clear 8 1016 74 10000 0.5 0 13:42 04.08.2019
4237 Clear 8 1016 74 10000 0.5 0 13:22 04.08.2019
4238 Clear 3 1015 69 10000 1 0 12:45 04.08.2019
4239 Clear 9 1015 69 10000 1 0 12:27 04.08.2019
4240 Clear 8 1015 69 10000 0.5 0 11:57 04.08.2019
4241 Clear 9 1015 69 10000 0.5 0 11:37 04.08.2019
4242 Clear 9 1015 69 10000 0.5 0 11:19 04.08.2019
4243 Clear 9 1015 60 10000 1.67 74.678 10:41 04.08.2019
4244 Clear 9 1015 60 10000 1.67 74.678 10:20 04.08.2019
4245 Clear 8 1015 41 10000 1.67 74.678 09:45 04.08.2019
4246 Clear 8 1015 44 10000 2.05 78.63 09:22 04.08.2019
4247 Clear 9 1016 41 10000 2.2 77.689 08:47 04.08.2019
4248 Clear 10 1016 41 10000 2.2 77.689 08:26 04.08.2019
4249 Clear 10 1016 65 10000 2.1 40 07:52 04.08.2019
4250 Clear 10 1016 65 10000 2.1 40 07:20 04.08.2019
4251 Clear 10 1016 41 10000 1 0 06:28 04.08.2019
4252 Clear 13 1016 53 10000 1 0 04:29 04.08.2019
4253 Clear 17 1016 36 10000 0.92 76.4 02:43 04.08.2019
4254 Clear 18 1016 31 10000 3.1 180 01:39 04.08.2019
4255 Clear 19 1016 31 10000 3.1 180 01:18 04.08.2019
4256 Clear 21 1018 22 10000 0.84 80.751 00:41 04.08.2019
4257 Clear 20 1018 22 10000 0.74 179.689 00:19 04.08.2019
4258 Clear 23 1018 15 10000 2.1 240 23:41 03.08.2019
4259 Clear 24 1018 15 10000 2.1 240 23:18 03.08.2019
4260 Clear 24 1018 15 10000 2.1 240 23:18 03.08.2019
4261 Clear 24 1018 13 10000 1.5 0 22:45 03.08.2019
4262 Clear 24 1018 13 10000 1.5 0 22:22 03.08.2019
4263 Clear 24 1019 15 10000 2.1 270 21:59 03.08.2019
4264 Clear 24 1019 15 10000 2.1 270 21:37 03.08.2019
4265 Clear 23 1019 17 10000 2.1 260 21:19 03.08.2019
4266 Clear 23 1019 17 10000 2.1 260 20:42 03.08.2019
4267 Clear 22 1019 17 10000 2.1 260 20:22 03.08.2019
4268 Clear 23 1020 18 10000 1.5 200 19:42 03.08.2019
4269 Clear 23 1020 18 10000 1.5 200 19:24 03.08.2019
4270 Clear 21 1021 24 10000 0.5 240 18:56 03.08.2019
4271 Clear 17 1021 24 10000 0.5 240 18:27 03.08.2019
4272 Clear 13 1021 26 10000 0.5 250 17:50 03.08.2019
4273 Clear 17 1021 26 10000 0.5 250 17:22 03.08.2019
4274 Clear 14 1021 40 10000 0.5 230 16:57 03.08.2019
4275 Clear 10 1021 40 10000 0.5 230 16:37 03.08.2019
4276 Clear 14 1021 40 10000 0.5 230 16:19 03.08.2019
4277 Clear 10 1021 32 10000 1 40 15:43 03.08.2019
4278 Clear 5 1021 34 10000 1 40 15:23 03.08.2019
4279 Clear 6 1021 74 10000 1.5 50 14:42 03.08.2019
4280 Clear 1 1021 74 10000 1.5 50 14:21 03.08.2019
4281 Clouds 5 1020 80 8000 1.94 74.477 13:52 03.08.2019
4282 Clouds 5 1020 80 8000 1.94 74.477 13:52 03.08.2019
4283 Clouds 5 1020 80 8000 1.83 79.72 13:25 03.08.2019
4284 Clouds 5 1021 74 8000 2.1 20 12:58 03.08.2019
4285 Clouds 5 1021 74 8000 2.1 20 12:40 03.08.2019
4286 Clouds 6 1021 74 8000 2.1 20 12:21 03.08.2019
4287 Clouds 5 1021 74 8000 0.5 0 11:49 03.08.2019
4288 Clouds 4 1021 74 8000 0.5 0 11:28 03.08.2019
4289 Clouds 5 1021 74 8000 1 20 10:42 03.08.2019
4290 Clouds 5 1021 74 8000 1 20 10:24 03.08.2019
4291 Clouds 5 1021 64 8000 2.6 30 09:44 03.08.2019
4292 Clouds 6 1021 64 8000 2.6 30 09:23 03.08.2019
4293 Clouds 6 1022 69 8000 1.57 86.13 08:54 03.08.2019
4294 Clouds 7 1022 69 8000 1.57 86.13 08:18 03.08.2019
4295 Clouds 7 1022 65 8000 1 0 07:36 03.08.2019
4296 Clouds 6 1022 60 8000 1.5 0 06:39 03.08.2019
4297 Clear 9 1022 43 10000 3.1 30 04:56 03.08.2019
4298 Clear 10 1023 39 10000 1.46 80.564 02:40 03.08.2019
4299 Clear 13 1022 28 10000 3.6 190 01:50 03.08.2019
4300 Clear 13 1022 28 10000 3.6 190 01:50 03.08.2019
4301 Clear 16 1022 25 10000 1.5 240 00:50 03.08.2019
4302 Clear 16 1022 25 10000 1.5 240 00:28 03.08.2019
4303 Clear 18 1022 22 10000 1.5 250 23:41 02.08.2019
4304 Clear 18 1022 22 10000 1.5 250 23:19 02.08.2019
4305 Clear 18 1022 23 10000 1 220 22:57 02.08.2019
4306 Clear 18 1022 23 10000 1 220 22:38 02.08.2019
4307 Clear 18 1022 23 10000 1 220 22:20 02.08.2019
4308 Clear 18 1023 25 10000 1.5 210 21:44 02.08.2019
4309 Clear 18 1023 25 10000 1.5 210 21:25 02.08.2019
4310 Clear 17 1023 26 10000 2.1 230 20:59 02.08.2019
4311 Clear 17 1023 26 10000 2.1 230 20:41 02.08.2019
4312 Clear 17 1023 26 10000 2.1 230 20:20 02.08.2019
4313 Clear 16 1023 28 10000 1 210 19:48 02.08.2019
4314 Clear 16 1023 28 10000 1 210 19:28 02.08.2019
4315 Clear 14 1025 34 10000 1.5 240 18:45 02.08.2019
4316 Clear 14 1025 34 10000 1.5 240 18:26 02.08.2019
4317 Clear 12 1025 43 10000 1.7 122.743 17:48 02.08.2019
4318 Clear 12 1025 43 10000 1.7 122.743 17:25 02.08.2019
4319 Clear 8 1025 38 10000 1.7 122.743 16:59 02.08.2019
4320 Clear 8 1025 38 10000 1.7 122.743 16:38 02.08.2019
4321 Clear 8 1025 38 10000 1.7 122.743 16:19 02.08.2019
4322 Clear 5 1026 80 10000 1.5 50 15:40 02.08.2019
4323 Clear 2 1026 80 10000 1.5 50 15:20 02.08.2019
4324 Clear 2 1026 92 10000 1 90 14:46 02.08.2019
4325 Clear 1 1026 92 10000 1 90 14:19 02.08.2019
4326 Clear 1 1026 64 7000 2.72 78.591 13:50 02.08.2019
4327 Clear 1 1026 62 7000 2.87 80.4 13:28 02.08.2019
4328 Clear 1 1025 62 8000 0.5 0 12:47 02.08.2019
4329 Clear 1 1025 74 8000 0.5 0 12:23 02.08.2019
4330 Clear 2 1025 74 10000 1.5 20 11:56 02.08.2019
4331 Clear 2 1025 74 10000 1.5 20 11:37 02.08.2019
4332 Clear 2 1025 74 10000 1.5 20 11:18 02.08.2019
4333 Clear 3 1025 74 10000 2.6 50 10:42 02.08.2019
4334 Clear 3 1025 74 10000 2.6 50 10:23 02.08.2019
4335 Clear 2 1026 74 10000 1 0 09:52 02.08.2019
4336 Clear 2 1026 74 10000 1 0 09:28 02.08.2019
4337 Clear 4 1026 79 10000 1.5 0 08:52 02.08.2019
4338 Clear 4 1026 79 10000 1.5 0 08:23 02.08.2019
4339 Clear 4 1027 80 10000 1.5 360 07:52 02.08.2019
4340 Clear 4 1027 80 10000 1.5 360 07:32 02.08.2019
4341 Clear 5 1027 75 10000 1.45 80.207 06:54 02.08.2019
4342 Clear 5 1027 75 10000 0.67 72.132 06:26 02.08.2019
4343 Clear 6 1027 75 10000 2.6 220 05:37 02.08.2019
4344 Clear 8 1027 53 10000 4.6 200 03:31 02.08.2019
4345 Clear 9 1026 43 10000 4.1 200 02:35 02.08.2019
4346 Clear 11 1026 32 10000 2.6 240 00:47 02.08.2019
4347 Clear 11 1026 32 10000 2.6 240 00:20 02.08.2019
4348 Clear 12 1025 34 10000 3.1 240 23:43 01.08.2019
4349 Clear 12 1025 34 10000 3.1 240 23:19 01.08.2019
4350 Clouds 13 1025 32 10000 3.6 230 22:41 01.08.2019
4351 Clouds 13 1025 32 10000 3.6 230 22:21 01.08.2019
4352 Clouds 13 1025 40 10000 2.1 290 21:54 01.08.2019
4353 Clouds 13 1025 40 10000 2.1 290 21:36 01.08.2019
4354 Clouds 13 1025 40 10000 2.1 290 21:18 01.08.2019
4355 Clouds 12 1026 46 10000 2.6 260 20:41 01.08.2019
4356 Clouds 12 1026 46 10000 2.6 260 20:22 01.08.2019
4357 Clouds 11 1027 61 8000 2.09 225.31 19:44 01.08.2019
4358 Clouds 12 1027 61 8000 2.09 225.31 19:22 01.08.2019
4359 Clouds 11 1028 66 10000 2.09 225.31 18:46 01.08.2019
4360 Clouds 11 1028 66 10000 1.29 199.126 18:25 01.08.2019
4361 Clouds 10 1028 70 10000 1.29 199.126 17:57 01.08.2019
4362 Clouds 10 1028 70 10000 1.29 199.126 17:39 01.08.2019
4363 Clouds 9 1028 70 10000 1.29 199.126 17:20 01.08.2019
4364 Clouds 7 1028 81 10000 1.29 199.126 16:44 01.08.2019
4365 Clouds 7 1028 81 10000 1.29 199.126 16:21 01.08.2019
4366 Clouds 5 1027 86 10000 1.29 199.126 15:45 01.08.2019
4367 Clouds 6 1027 86 10000 0.78 95.813 15:20 01.08.2019
4368 Clouds 4 1027 86 10000 0.78 95.813 14:44 01.08.2019
4369 Clouds 4 1027 86 10000 0.78 95.813 14:21 01.08.2019
4370 Clear 4 1026 93 10000 0.5 0 13:59 01.08.2019
4371 Clear 4 1026 93 10000 0.5 0 13:40 01.08.2019
4372 Clear 5 1026 93 10000 0.5 0 13:21 01.08.2019
4373 Clear 4 1026 86 10000 1.5 250 12:49 01.08.2019
4374 Clear 4 1026 86 10000 1.5 250 12:28 01.08.2019
4375 Clear 5 1025 86 10000 1.5 0 11:58 01.08.2019
4376 Clear 5 1025 86 10000 1.5 0 11:40 01.08.2019
4377 Clear 4 1025 86 10000 1.5 0 11:22 01.08.2019
4378 Clear 6 1025 80 10000 2.1 330 10:41 01.08.2019
4379 Clear 6 1025 80 10000 2.1 330 10:23 01.08.2019
4380 Clouds 7 1025 75 10000 4.1 190 09:50 01.08.2019
4381 Clouds 8 1025 75 10000 4.1 190 09:24 01.08.2019
4382 Clouds 7 1025 75 10000 5.1 200 08:57 01.08.2019
4383 Clouds 7 1025 75 10000 5.1 200 08:39 01.08.2019
4384 Clouds 7 1025 75 10000 5.1 200 08:18 01.08.2019
4385 Clouds 9 1025 70 10000 3.1 190 07:42 01.08.2019
4386 Clouds 9 1024 66 10000 3.1 0 07:18 01.08.2019
4387 Clouds 9 1024 66 10000 3.1 0 06:39 01.08.2019
4388 Clouds 9 1024 66 10000 5.7 200 05:32 01.08.2019
4389 Clouds 10 1022 62 10000 6.2 180 02:36 01.08.2019
4390 Clouds 11 1021 71 10000 6.7 190 01:41 01.08.2019
4391 Clouds 12 1021 87 7000 2.1 240 00:27 01.08.2019
4392 Clouds 12 1021 87 7000 2.1 210 23:59 31.07.2019
4393 Clouds 12 1021 87 7000 2.1 210 23:41 31.07.2019
4394 Clouds 12 1021 87 7000 2.1 210 23:20 31.07.2019
4395 Clouds 13 1020 87 7000 2.6 240 22:45 31.07.2019
4396 Clouds 13 1020 87 7000 2.6 240 22:27 31.07.2019
4397 Clouds 13 1020 82 6000 2.6 180 21:45 31.07.2019
4398 Clouds 13 1020 82 6000 2.6 180 21:23 31.07.2019
4399 Clouds 15 1020 72 8000 3.1 210 20:51 31.07.2019
4400 Clouds 16 1020 72 8000 3.1 210 20:25 31.07.2019
4401 Clouds 16 1019 63 9000 2.6 210 19:58 31.07.2019
4402 Clouds 17 1019 63 9000 2.6 210 19:39 31.07.2019
4403 Clouds 16 1018 67 10000 6.7 170 19:19 31.07.2019
4404 Clouds 16 1019 62 9000 1 240 18:40 31.07.2019
4405 Clouds 16 1019 62 9000 1 240 18:40 31.07.2019
4406 Clouds 16 1019 62 9000 1 240 18:22 31.07.2019
4407 Clouds 15 1020 67 9000 1 180 17:45 31.07.2019
4408 Clouds 15 1020 67 9000 1 180 17:20 31.07.2019
4409 Haze 13 1020 71 8000 1.5 240 16:56 31.07.2019
4410 Haze 13 1020 71 8000 1.5 240 16:37 31.07.2019
4411 Haze 13 1020 71 8000 1.5 240 16:18 31.07.2019
4412 Haze 11 1019 81 8000 0.5 130 15:42 31.07.2019
4413 Haze 11 1019 81 8000 0.5 130 15:23 31.07.2019
4414 Clouds 9 1019 87 8000 1 360 14:42 31.07.2019
4415 Clouds 9 1019 87 8000 1 360 14:20 31.07.2019
4416 Clouds 9 1017 87 7000 0.77 326.97 13:56 31.07.2019
4417 Clouds 9 1017 87 7000 0.77 326.97 13:37 31.07.2019
4418 Clouds 9 1017 87 7000 0.65 296.684 13:19 31.07.2019
4419 Clouds 10 1017 87 7000 0.65 296.684 12:43 31.07.2019
4420 Clouds 10 1017 87 7000 1.23 275.965 12:25 31.07.2019
4421 Clouds 11 1017 76 8000 0.5 0 11:41 31.07.2019
4422 Clouds 10 1017 76 8000 0.5 0 11:23 31.07.2019
4423 Clouds 11 1017 87 8000 1.23 275.965 10:57 31.07.2019
4424 Clouds 11 1017 87 8000 1.23 275.965 10:39 31.07.2019
4425 Clouds 11 1017 87 8000 1.23 275.965 10:20 31.07.2019
4426 Clouds 11 1017 81 8000 1.23 275.965 09:43 31.07.2019
4427 Clouds 11 1017 81 8000 0.74 264.666 09:24 31.07.2019
4428 Clear 11 1018 81 10000 0.76 268.71 08:44 31.07.2019
4429 Clear 12 1018 81 10000 0.76 268.71 08:24 31.07.2019
4430 Clear 12 1018 76 10000 1 0 07:53 31.07.2019
4431 Clear 12 1018 76 10000 1 0 07:33 31.07.2019
4432 Clear 13 1018 71 10000 1.5 270 05:24 31.07.2019
4433 Clear 15 1018 63 10000 1 0 04:21 31.07.2019
4434 Clear 20 1018 35 10000 0.7 325.899 00:41 31.07.2019
4435 Clouds 22 1018 28 9000 1.5 240 23:51 30.07.2019
4436 Clouds 22 1018 28 9000 1.5 240 23:30 30.07.2019
4437 Clear 23 1017 29 10000 1.5 190 22:59 30.07.2019
4438 Clear 23 1017 29 10000 1.5 190 22:40 30.07.2019
4439 Clear 23 1017 29 10000 1.5 190 22:21 30.07.2019
4440 Clouds 22 1019 31 7000 1 280 21:38 30.07.2019
4441 Clouds 23 1019 31 7000 1 280 21:19 30.07.2019
4442 Clouds 22 1019 37 7000 1.5 0 20:57 30.07.2019
4443 Clouds 22 1019 37 7000 1.5 0 20:38 30.07.2019
4444 Clouds 22 1019 37 7000 1.5 0 20:19 30.07.2019
4445 Clouds 21 1020 42 8000 1 270 19:47 30.07.2019
4446 Clouds 21 1020 42 8000 1 270 19:29 30.07.2019
4447 Clouds 20 1021 42 9000 2.1 0 18:48 30.07.2019
4448 Clouds 20 1021 42 9000 2.1 0 18:26 30.07.2019
4449 Clear 19 1021 48 10000 1.5 0 17:58 30.07.2019
4450 Clear 18 1021 48 10000 1.5 0 17:40 30.07.2019
4451 Clear 18 1021 48 10000 1.5 0 17:18 30.07.2019
4452 Clear 16 1022 66 10000 1.64 83.896 16:46 30.07.2019
4453 Clear 16 1022 66 10000 1.64 83.896 16:46 30.07.2019
4454 Clear 16 1022 66 10000 1.64 83.896 16:19 30.07.2019
4455 Haze 13 1022 81 10000 1.64 83.896 15:40 30.07.2019
4456 Haze 10 1022 81 10000 1.53 67.38 15:22 30.07.2019
4457 Clouds 10 1022 87 10000 1.5 60 14:44 30.07.2019
4458 Clouds 9 1022 87 10000 1.5 60 14:23 30.07.2019
4459 Clouds 9 1022 93 7000 0.5 0 13:56 30.07.2019
4460 Clouds 9 1022 93 7000 0.5 0 13:37 30.07.2019
4461 Clouds 9 1022 93 7000 0.5 0 13:19 30.07.2019
4462 Clouds 10 1021 87 6000 1 0 12:44 30.07.2019
4463 Clouds 10 1021 87 6000 1 0 12:25 30.07.2019
4464 Clouds 11 1021 81 7000 1 0 11:47 30.07.2019
4465 Clouds 11 1021 81 7000 1 0 11:29 30.07.2019
4466 Clouds 9 1021 93 8000 1 30 10:57 30.07.2019
4467 Clouds 9 1021 93 8000 1 30 10:38 30.07.2019
4468 Clouds 9 1021 93 8000 1 30 10:38 30.07.2019
4469 Clouds 9 1021 93 8000 1 30 10:20 30.07.2019
4470 Clouds 9 1021 93 8000 1 30 10:20 30.07.2019
4471 Clouds 11 1022 87 8000 1.5 360 09:48 30.07.2019
4472 Clouds 11 1022 87 8000 1.5 360 09:28 30.07.2019
4473 Clouds 11 1023 87 10000 1 50 08:42 30.07.2019
4474 Clouds 12 1023 87 10000 1 50 08:19 30.07.2019
4475 Clouds 13 1023 81 10000 1 300 07:43 30.07.2019
4476 Clouds 13 1023 81 10000 1 300 07:23 30.07.2019
4477 Clouds 14 1024 67 10000 2.1 150 06:45 30.07.2019
4478 Clouds 14 1024 76 10000 1.41 254.133 05:36 30.07.2019
4479 Clouds 15 1024 67 10000 1.5 210 04:59 30.07.2019
4480 Clouds 16 1022 55 10000 1.5 200 01:38 30.07.2019
4481 Clouds 18 1023 55 8000 0.31 240.186 00:36 30.07.2019
4482 Clouds 19 1022 52 10000 1.5 210 00:18 30.07.2019
4483 Clouds 19 1022 52 10000 1.5 210 23:43 29.07.2019
4484 Clouds 19 1022 52 10000 1.5 210 23:24 29.07.2019
4485 Clouds 20 1022 39 6000 1.5 240 22:57 29.07.2019
4486 Clouds 20 1022 39 6000 1.5 240 22:38 29.07.2019
4487 Clouds 20 1022 39 6000 1.5 240 22:18 29.07.2019
4488 Haze 20 1023 39 5000 3.1 240 21:43 29.07.2019
4489 Haze 20 1023 39 5000 3.1 240 21:24 29.07.2019
4490 Clouds 19 1023 45 10000 1.5 230 20:58 29.07.2019
4491 Clouds 19 1023 45 10000 1.5 230 20:39 29.07.2019
4492 Clouds 19 1023 45 10000 1.5 230 20:20 29.07.2019
4493 Clouds 19 1024 51 10000 1.08 183.726 19:50 29.07.2019
4494 Clouds 19 1024 51 10000 1.08 183.726 19:24 29.07.2019
4495 Clouds 18 1025 58 10000 1.08 183.726 18:58 29.07.2019
4496 Clouds 18 1025 58 10000 1.08 183.726 18:40 29.07.2019
4497 Clouds 16 1025 58 10000 1.81 83.893 18:20 29.07.2019
4498 Haze 14 1025 67 10000 1.81 83.893 17:48 29.07.2019
4499 Haze 15 1025 67 10000 1.81 83.893 17:29 29.07.2019
4500 Haze 15 1025 71 5000 1.5 260 16:55 29.07.2019
4501 Haze 15 1025 71 5000 1.5 260 16:37 29.07.2019
4502 Haze 15 1025 71 5000 1.5 260 16:18 29.07.2019
4503 Mist 13 1025 93 7000 1.5 350 15:45 29.07.2019
4504 Mist 13 1025 93 7000 1.5 350 15:27 29.07.2019
4505 Mist 9 1025 87 6000 1.8 66.584 14:42 29.07.2019
4506 Mist 8 1025 87 6000 1.8 66.584 14:21 29.07.2019
4507 Mist 9 1024 93 5000 2.6 50 13:48 29.07.2019
4508 Mist 9 1024 93 5000 2.6 50 13:24 29.07.2019
4509 Rain 10 1024 87 6000 0.5 0 12:57 29.07.2019
4510 Rain 10 1024 87 6000 0.5 0 12:38 29.07.2019
4511 Rain 10 1024 87 6000 0.5 0 12:20 29.07.2019
4512 Rain 10 1023 87 6000 2.6 260 11:41 29.07.2019
4513 Rain 10 1023 87 6000 2.6 260 11:19 29.07.2019
4514 Clouds 10 1024 87 6000 2.6 50 10:43 29.07.2019
4515 Clouds 11 1024 87 6000 2.6 50 10:21 29.07.2019
4516 Clouds 10 1023 93 7000 1 0 09:44 29.07.2019
4517 Clouds 11 1023 93 7000 1 0 09:21 29.07.2019
4518 Clouds 11 1023 93 7000 2.6 280 08:47 29.07.2019
4519 -273 0 0 0 0 0 08:26 29.07.2019
4520 Clouds 11 1024 93 8000 2.6 350 07:46 29.07.2019
4521 Clouds 11 1024 93 8000 2.6 350 07:27 29.07.2019
4522 Clouds 11 1024 81 8000 3.6 270 06:40 29.07.2019
4523 Clouds 12 1023 87 8000 3.6 140 05:36 29.07.2019
4524 Rain 12 1023 76 8000 1.5 0 02:54 29.07.2019
4525 Clouds 13 1022 66 10000 4.1 150 01:50 29.07.2019
4526 Haze 13 1022 66 10000 4.1 150 01:31 29.07.2019
4527 Haze 14 1022 44 4000 1.5 200 00:57 29.07.2019
4528 Haze 14 1022 44 4000 1.5 200 00:24 29.07.2019
4529 Haze 15 1021 44 4000 1.5 270 23:42 28.07.2019
4530 Haze 15 1021 44 4000 1.5 270 23:24 28.07.2019
4531 Haze 16 1021 50 4000 1.5 180 22:43 28.07.2019
4532 Haze 16 1021 50 4000 1.5 180 22:25 28.07.2019
4533 Clouds 17 1020 44 7000 3.1 130 21:51 28.07.2019
4534 Haze 16 1020 44 7000 3.1 130 21:20 28.07.2019
4535 Haze 16 1021 44 4000 3.1 230 20:49 28.07.2019
4536 Haze 16 1021 44 4000 3.1 230 20:31 28.07.2019
4537 Haze 15 1021 33 7000 1 270 19:58 28.07.2019
4538 Haze 15 1021 33 7000 1 270 19:40 28.07.2019
4539 Haze 15 1021 33 7000 1 270 19:20 28.07.2019
4540 Haze 15 1021 33 7000 1 270 19:20 28.07.2019
4541 Haze 15 1022 61 7000 1 350 18:46 28.07.2019
4542 Haze 14 1022 65 7000 1 350 18:26 28.07.2019
4543 Haze 14 1022 65 8000 1.09 96.935 17:56 28.07.2019
4544 Haze 13 1022 65 8000 1.09 96.935 17:37 28.07.2019
4545 Haze 13 1022 65 8000 1.09 96.935 17:19 28.07.2019
4546 Haze 13 1022 65 8000 1.09 96.935 17:19 28.07.2019
4547 Haze 15 1021 75 4000 2.1 40 16:42 28.07.2019
4548 Haze 11 1021 75 4000 2.1 40 16:23 28.07.2019
4549 Mist 11 1021 81 10000 1.5 60 15:46 28.07.2019
4550 Mist 8 1021 81 10000 1.5 60 15:26 28.07.2019
4551 Mist 6 1022 80 10000 1.5 20 14:40 28.07.2019
4552 Mist 3 1022 80 10000 1.5 20 14:20 28.07.2019
4553 Mist 6 1020 86 4000 0.69 65.886 13:56 28.07.2019
4554 Mist 6 1020 86 4000 0.69 65.886 13:38 28.07.2019
4555 Mist 7 1020 86 4000 0.61 72.277 13:19 28.07.2019
4556 Mist 5 1019 93 4000 1.5 360 12:42 28.07.2019
4557 Mist 6 1019 93 4000 1.5 360 12:24 28.07.2019
4558 Mist 5 1019 93 4000 2.1 30 11:50 28.07.2019
4559 Mist 5 1019 93 4000 2.1 30 11:28 28.07.2019
4560 Mist 6 1019 86 5000 0.86 64.422 10:56 28.07.2019
4561 Mist 7 1019 86 5000 0.86 64.422 10:37 28.07.2019
4562 Haze 7 1019 87 5000 1 0 10:18 28.07.2019
4563 Haze 6 1019 87 5000 1 0 09:40 28.07.2019
4564 Haze 8 1019 87 5000 1 0 09:20 28.07.2019
4565 Haze 7 1019 81 5000 0.99 264.748 08:41 28.07.2019
4566 Haze 8 1019 81 5000 0.99 264.748 08:21 28.07.2019
4567 Haze 10 1019 71 5000 2.1 40 07:40 28.07.2019
4568 Haze 10 1019 71 5000 2.1 40 07:21 28.07.2019
4569 Clouds 9 1019 81 6000 0.99 264.748 06:33 28.07.2019
4570 Clouds 10 1019 71 6000 2.1 310 05:19 28.07.2019
4571 Clouds 12 1018 66 8000 3.1 160 02:37 28.07.2019
4572 Clouds 13 1018 58 8000 3.6 150 01:40 28.07.2019
4573 Haze 14 1018 38 5000 1.5 260 00:54 28.07.2019
4574 Haze 14 1018 38 5000 1.5 260 00:30 28.07.2019
4575 Haze 16 1017 65 4000 1.31 247.077 23:53 27.07.2019
4576 Haze 16 1017 65 4000 1.31 247.077 23:28 27.07.2019
4577 Haze 17 1017 36 4000 1.5 230 22:46 27.07.2019
4578 Haze 17 1017 36 4000 1.5 230 22:28 27.07.2019
4579 Haze 17 1017 65 4000 1 220 21:47 27.07.2019
4580 Haze 17 1017 49 4000 1 220 21:24 27.07.2019
4581 Haze 17 1018 49 5000 0.5 160 20:57 27.07.2019
4582 Haze 17 1018 48 5000 0.5 160 20:39 27.07.2019
4583 Haze 17 1018 48 5000 0.5 160 20:19 27.07.2019
4584 Haze 18 1018 41 5000 1 250 19:40 27.07.2019
4585 Haze 18 1018 41 5000 1 250 19:22 27.07.2019
4586 Clouds 17 1019 50 8000 2.01 237.961 18:47 27.07.2019
4587 Clouds 17 1019 50 8000 2.01 237.961 18:29 27.07.2019
4588 Haze 13 1019 62 10000 1 320 17:50 27.07.2019
4589 Haze 10 1019 62 10000 1 320 17:32 27.07.2019
4590 Haze 14 1019 71 10000 0.46 76.695 16:56 27.07.2019
4591 Haze 14 1019 71 10000 0.46 76.695 16:37 27.07.2019
4592 Haze 12 1019 81 10000 0.5 30 15:56 27.07.2019
4593 Haze 12 1019 81 10000 0.5 30 15:38 27.07.2019
4594 Haze 9 1019 81 10000 0.5 30 15:18 27.07.2019
4595 Haze 8 1018 75 10000 0.21 263.598 14:45 27.07.2019
4596 Haze 8 1018 75 10000 0.21 263.598 14:25 27.07.2019
4597 Clouds 8 1017 70 6000 1 0 13:48 27.07.2019
4598 Clouds 8 1017 70 6000 1 0 13:23 27.07.2019
4599 Clouds 8 1017 75 6000 0.5 0 12:50 27.07.2019
4600 Clouds 8 1017 75 6000 0.5 0 12:27 27.07.2019
4601 Haze 8 1017 81 5000 0.62 94.171 11:56 27.07.2019
4602 Haze 8 1017 81 5000 0.62 94.171 11:37 27.07.2019
4603 Haze 8 1017 81 5000 0.62 94.171 11:19 27.07.2019
4604 Clouds 8 1018 81 6000 0.62 94.171 10:40 27.07.2019
4605 Clouds 8 1018 81 6000 0.62 94.171 10:21 27.07.2019
4606 Haze 8 1018 75 5000 0.62 94.171 09:41 27.07.2019
4607 Haze 8 1018 75 5000 1.29 86.791 09:22 27.07.2019
4608 Haze 8 1019 81 5000 1.31 87.461 08:49 27.07.2019
4609 Haze 9 1019 81 5000 1.31 87.461 08:29 27.07.2019
4610 Haze 9 1019 75 5000 1.31 87.461 07:54 27.07.2019
4611 Haze 9 1019 75 5000 1.31 87.461 07:29 27.07.2019
4612 Smoke 8 1020 81 5000 1.31 87.461 06:56 27.07.2019
4613 Smoke 9 1020 81 5000 1.31 87.461 06:31 27.07.2019
4614 Clouds 9 1020 75 6000 1 0 05:51 27.07.2019
4615 Clouds 9 1020 75 6000 1 0 05:24 27.07.2019
4616 Clouds 9 1020 61 7000 1.5 10 04:31 27.07.2019
4617 Clear 11 1021 66 8000 0.65 75.921 02:58 27.07.2019
4618 Clear 11 1021 66 8000 0.65 75.921 02:32 27.07.2019
4619 Clear 12 1020 58 8000 1.5 170 01:47 27.07.2019
4620 Clear 15 1020 58 8000 1.5 170 01:21 27.07.2019
4621 Clear 15 1021 29 10000 1 220 00:32 27.07.2019
4622 Clear 16 1021 29 6000 1 230 23:54 26.07.2019
4623 Clear 17 1021 29 6000 1 230 23:33 26.07.2019
4624 Haze 17 1021 59 5000 1 260 22:57 26.07.2019
4625 Haze 17 1021 59 5000 1 260 22:38 26.07.2019
4626 Haze 18 1021 59 5000 1 260 22:20 26.07.2019
4627 Haze 17 1021 29 5000 1.5 180 21:49 26.07.2019
4628 Haze 17 1021 29 5000 1.5 180 21:20 26.07.2019
4629 Haze 16 1022 37 5000 2.1 260 20:43 26.07.2019
4630 Haze 16 1022 37 5000 2.1 260 20:24 26.07.2019
4631 Haze 17 1023 38 7000 2.1 270 19:44 26.07.2019
4632 Haze 17 1023 38 7000 2.1 270 19:25 26.07.2019
4633 Haze 15 1024 50 5000 1.21 167.147 18:58 26.07.2019
4634 Haze 15 1024 50 5000 1.21 167.147 18:38 26.07.2019
4635 Haze 11 1024 50 5000 1.63 91.933 18:19 26.07.2019
4636 Haze 11 1025 61 5000 1.63 91.933 17:46 26.07.2019
4637 Haze 11 1025 61 5000 1.63 91.933 17:19 26.07.2019
4638 Haze 9 1025 75 5000 1 150 16:57 26.07.2019
4639 Haze 9 1025 75 5000 1 150 16:39 26.07.2019
4640 Haze 8 1025 75 5000 1 150 16:20 26.07.2019
4641 Haze 6 1025 86 5000 1.63 91.933 15:56 26.07.2019
4642 Haze 6 1025 86 5000 1.63 91.933 15:38 26.07.2019
4643 Haze 6 1025 86 5000 0.76 84.184 15:18 26.07.2019
4644 Haze 5 1025 80 5000 2.1 300 14:42 26.07.2019
4645 Haze 5 1025 80 5000 2.1 300 14:22 26.07.2019
4646 Mist 5 1025 93 3000 0.5 0 13:44 26.07.2019
4647 Mist 4 1025 93 3000 0.5 0 13:26 26.07.2019
4648 Mist 6 1024 86 3000 1 0 12:49 26.07.2019
4649 Mist 6 1024 86 3000 1 0 12:22 26.07.2019
4650 Mist 4 1024 100 3000 1 0 11:48 26.07.2019
4651 Mist 5 1024 100 3000 1 0 11:22 26.07.2019
4652 Mist 4 1025 93 4000 1.5 20 10:58 26.07.2019
4653 Mist 5 1025 93 4000 1.5 20 10:39 26.07.2019
4654 Mist 5 1025 93 5000 1.5 270 10:18 26.07.2019
4655 Mist 5 1025 93 5000 1.5 270 09:42 26.07.2019
4656 Mist 5 1025 93 5000 1.5 270 09:24 26.07.2019
4657 Mist 5 1025 93 5000 0.82 75.624 08:40 26.07.2019
4658 Mist 6 1025 93 5000 0.82 75.624 08:20 26.07.2019
4659 Mist 6 1025 93 5000 0.82 75.624 08:20 26.07.2019
4660 Clouds 5 1025 86 6000 0.82 75.624 07:39 26.07.2019
4661 Clouds 5 1025 86 7000 0.82 75.624 07:18 26.07.2019
4662 Clouds 6 1025 86 7000 0.65 254.395 06:21 26.07.2019
4663 Clouds 7 1026 81 8000 2.6 140 04:30 26.07.2019
4664 Clouds 7 1025 75 8000 2.6 150 03:50 26.07.2019
4665 Clouds 11 1025 66 8000 3.6 200 01:45 26.07.2019
4666 Haze 13 1025 54 5000 1.5 210 01:18 26.07.2019
4667 Haze 12 1025 54 5000 1.5 210 00:28 26.07.2019
4668 Haze 13 1025 43 5000 2.1 210 23:44 25.07.2019
4669 Haze 13 1025 43 5000 2.1 210 23:20 25.07.2019
4670 Haze 14 1025 41 5000 1 210 22:41 25.07.2019
4671 Haze 14 1025 41 5000 1 210 22:21 25.07.2019
4672 Haze 13 1025 41 5000 1.5 310 21:48 25.07.2019
4673 Haze 14 1025 41 5000 1.5 310 21:23 25.07.2019
4674 Haze 14 1026 46 5000 1.5 240 20:57 25.07.2019
4675 Haze 14 1026 46 5000 1.5 240 20:38 25.07.2019
4676 Haze 13 1026 50 4000 2.1 270 20:18 25.07.2019
4677 Haze 13 1026 50 4000 2.1 270 19:40 25.07.2019
4678 Haze 12 1026 50 4000 2.1 270 19:21 25.07.2019
4679 Haze 12 1027 53 4000 1.5 270 18:42 25.07.2019
4680 Haze 11 1027 53 4000 1.5 270 18:23 25.07.2019
4681 Haze 10 1027 71 5000 1.5 360 17:50 25.07.2019
4682 Haze 10 1027 71 5000 1.5 360 17:31 25.07.2019
4683 Haze 9 1027 70 4000 1 30 16:57 25.07.2019
4684 Haze 9 1027 70 4000 1 30 16:38 25.07.2019
4685 Haze 9 1027 70 4000 1 30 16:19 25.07.2019
4686 Haze 7 1027 81 4000 1.28 221.43 15:43 25.07.2019
4687 Haze 7 1027 81 4000 1.21 239.925 15:19 25.07.2019
4688 Haze 6 1027 81 4000 1.21 239.925 14:42 25.07.2019
4689 Haze 6 1027 81 4000 1.21 239.925 14:23 25.07.2019
4690 Haze 6 1026 93 5000 0.5 0 13:45 25.07.2019
4691 Haze 6 1026 93 5000 0.5 0 13:26 25.07.2019
4692 Mist 6 1025 93 5000 0.83 253.387 12:58 25.07.2019
4693 Mist 6 1025 93 5000 0.83 253.387 12:29 25.07.2019
4694 Mist 6 1025 93 5000 1 0 11:47 25.07.2019
4695 Mist 6 1025 93 5000 1 0 11:25 25.07.2019
4696 Mist 5 1025 100 5000 1.5 30 10:59 25.07.2019
4697 Mist 5 1025 100 5000 1.5 30 10:37 25.07.2019
4698 Mist 5 1025 93 4000 1 0 10:18 25.07.2019
4699 Mist 5 1025 93 4000 1 0 09:42 25.07.2019
4700 Mist 5 1025 93 4000 1 0 09:24 25.07.2019
4701 Mist 5 1025 100 2000 1.5 290 08:42 25.07.2019
4702 Fog 5 1025 100 2000 1.5 290 07:56 25.07.2019
4703 Fog 5 1024 100 2000 1 0 07:34 25.07.2019
4704 Fog 5 1023 93 5000 1.5 150 06:43 25.07.2019
4705 Clear 6 1023 93 6000 3.1 150 05:46 25.07.2019
4706 Clear 6 1023 93 6000 3.1 150 05:28 25.07.2019
4707 Clear 7 1022 93 7000 3.6 160 04:37 25.07.2019
4708 Clear 10 1020 76 10000 2.6 150 01:46 25.07.2019
4709 Clear 11 1020 76 10000 2.6 150 01:18 25.07.2019
4710 Clear 13 1020 41 10000 1 250 00:20 25.07.2019
4711 Clear 15 1019 29 10000 2.1 240 23:47 24.07.2019
4712 Clear 15 1019 29 10000 2.1 240 23:29 24.07.2019
4713 Clear 16 1018 21 10000 2.6 230 22:56 24.07.2019
4714 Clear 16 1018 21 10000 2.6 230 22:36 24.07.2019
4715 Clear 16 1018 21 10000 2.6 230 22:18 24.07.2019
4716 Clear 17 1017 36 10000 3.6 180 21:43 24.07.2019
4717 Clear 16 1017 36 10000 3.6 180 21:22 24.07.2019
4718 Clear 16 1018 25 10000 1.5 240 20:56 24.07.2019
4719 Clear 16 1018 25 10000 1.5 240 20:37 24.07.2019
4720 Clear 16 1018 25 10000 1.5 240 20:19 24.07.2019
4721 Clear 17 1018 28 10000 2.1 210 19:42 24.07.2019
4722 Clear 17 1018 28 10000 2.1 210 19:22 24.07.2019
4723 Clear 15 1019 32 10000 2.1 240 18:58 24.07.2019
4724 Clear 16 1019 32 10000 2.1 240 18:37 24.07.2019
4725 Clear 8 1019 43 10000 0.49 97.038 18:19 24.07.2019
4726 Clear 8 1019 43 10000 0.49 97.038 17:42 24.07.2019
4727 Clear 8 1019 43 10000 0.49 97.038 17:19 24.07.2019
4728 Haze 11 1019 41 10000 0.49 97.038 16:41 24.07.2019
4729 Haze 11 1019 41 10000 0.49 97.038 16:21 24.07.2019
4730 Haze 9 1019 86 10000 1 80 15:40 24.07.2019
4731 Haze 2 1019 86 10000 1 80 15:21 24.07.2019
4732 Mist 2 1018 86 10000 1.25 84.267 14:50 24.07.2019
4733 Mist -2 1018 86 10000 1.25 84.267 14:24 24.07.2019
4734 Mist 2 1018 92 5000 1 0 13:59 24.07.2019
4735 Clear 2 1018 60 6000 1 0 13:36 24.07.2019
4736 Clear 2 1018 60 6000 1 0 13:18 24.07.2019
4737 Mist 2 1018 60 5000 1.69 77.036 12:46 24.07.2019
4738 Mist 2 1018 68 5000 1.92 75.211 12:24 24.07.2019
4739 Haze 3 1018 68 5000 1 0 11:38 24.07.2019
4740 Haze 3 1018 68 5000 1 0 11:19 24.07.2019
4741 Mist 3 1019 68 5000 1.5 290 10:43 24.07.2019
4742 Mist 3 1019 68 5000 1.5 290 10:24 24.07.2019
4743 Clear 3 1020 68 6000 1.5 10 09:45 24.07.2019
4744 Clear 3 1020 78 6000 1.5 10 09:24 24.07.2019
4745 Mist 2 1021 78 5000 1 0 08:56 24.07.2019
4746 Mist 3 1021 74 5000 1 0 08:30 24.07.2019
4747 Clear 3 1022 74 7000 1 350 07:51 24.07.2019
4748 Clear 3 1022 74 7000 1 350 07:24 24.07.2019
4749 Clear 4 1022 86 8000 1.99 68.606 06:29 24.07.2019
4750 Clear 4 1022 86 8000 0.38 154.31 05:40 24.07.2019
4751 Clear 7 1022 70 10000 0.34 326.451 02:45 24.07.2019
4752 Clear 9 1022 70 10000 2.1 170 01:29 24.07.2019
4753 Clear 10 1022 46 6000 0.53 25.264 00:57 24.07.2019
4754 Clear 10 1022 46 6000 0.53 25.264 00:57 24.07.2019
4755 Clear 10 1022 46 6000 0.53 25.264 00:57 24.07.2019
4756 Clear 10 1022 46 6000 1.51 228.771 00:22 24.07.2019
4757 Clear 11 1022 40 6000 1.5 210 23:42 23.07.2019
4758 Clear 11 1022 40 6000 1.5 210 23:23 23.07.2019
4759 Clear 12 1022 66 6000 1.5 290 22:40 23.07.2019
4760 Clear 12 1022 66 6000 1.5 290 22:20 23.07.2019
4761 Haze 12 1022 66 5000 2.1 240 21:58 23.07.2019
4762 Haze 12 1022 66 5000 2.1 240 21:40 23.07.2019
4763 Haze 12 1022 54 5000 2.1 240 21:21 23.07.2019
4764 Clear 13 1022 43 8000 1.44 218.274 20:47 23.07.2019
4765 Clear 12 1022 43 8000 1.44 218.274 20:21 23.07.2019
4766 Clear 13 1022 46 10000 1.5 280 19:42 23.07.2019
4767 Clear 11 1022 46 10000 1.5 280 19:19 23.07.2019
4768 Clear 10 1022 49 10000 1.5 60 18:52 23.07.2019
4769 Clear 9 1022 49 10000 1.5 60 18:24 23.07.2019
4770 Clear 8 1022 59 10000 0.57 143.01 17:45 23.07.2019
4771 Clear 8 1022 59 10000 0.57 143.01 17:27 23.07.2019
4772 Haze 9 1022 80 10000 0.57 143.01 16:58 23.07.2019
4773 Haze 8 1022 80 10000 0.57 143.01 16:40 23.07.2019
4774 Haze 7 1022 80 10000 0.57 143.01 16:19 23.07.2019
4775 Fog 7 1021 59 2000 1 0 15:46 23.07.2019
4776 Fog 4 1021 85 2000 1 0 15:24 23.07.2019
4777 Fog 2 1021 92 2000 1.5 300 14:40 23.07.2019
4778 Fog 2 1021 92 2000 1.5 300 14:21 23.07.2019
4779 Mist 1 1021 100 3000 0.69 83.213 13:58 23.07.2019
4780 Mist 2 1021 85 4000 1 0 13:39 23.07.2019
4781 Mist 2 1021 84 4000 1 0 13:20 23.07.2019
4782 Fog 1 1020 84 3000 1.04 68.556 12:48 23.07.2019
4783 Fog 1 1020 85 3000 0.7 74.301 12:26 23.07.2019
4784 Mist 2 1020 100 4000 0.5 0 11:50 23.07.2019
4785 Mist 2 1020 100 4000 0.5 0 11:32 23.07.2019
4786 Mist 2 1020 85 3000 2.1 20 10:59 23.07.2019
4787 Mist 2 1020 85 3000 2.1 20 10:40 23.07.2019
4788 Mist 2 1020 85 3000 2.1 20 10:20 23.07.2019
4789 Mist 4 1020 93 4000 0.5 0 09:41 23.07.2019
4790 Mist 4 1020 93 4000 0.5 0 09:19 23.07.2019
4791 Mist 0 1020 85 5000 1.04 67.779 08:43 23.07.2019
4792 Mist 3 1020 85 5000 1.04 67.779 08:19 23.07.2019
4793 Clear 3 1020 85 10000 1.5 20 07:55 23.07.2019
4794 Clear 1 1020 85 10000 1.5 20 07:36 23.07.2019
4795 Clear 2 1020 85 10000 2.1 300 06:46 23.07.2019
4796 Clear 2 1020 85 10000 2.1 300 06:28 23.07.2019
4797 Clear 6 1020 81 10000 2.6 190 02:57 23.07.2019
4798 Clear 9 1020 70 10000 2.6 220 01:32 23.07.2019
4799 Clouds 8 1020 42 10000 2.6 230 00:31 23.07.2019
4800 Clouds 10 1020 46 8000 1.5 0 23:43 22.07.2019
4801 Clouds 10 1020 46 8000 1.5 0 23:22 22.07.2019
4802 Clouds 10 1019 65 7000 1.5 0 22:59 22.07.2019
4803 Clouds 10 1019 65 7000 1.5 0 22:41 22.07.2019
4804 Clouds 10 1019 65 7000 1.5 0 22:20 22.07.2019
4805 Clouds 10 1020 57 7000 1 150 21:43 22.07.2019
4806 Clouds 10 1020 57 7000 1 150 21:22 22.07.2019
4807 Clouds 8 1020 70 6000 1 120 20:49 22.07.2019
4808 Clouds 8 1020 70 6000 1 120 20:31 22.07.2019
4809 Clouds 7 1021 70 6000 1.5 0 19:57 22.07.2019
4810 Clouds 8 1021 70 6000 1.5 0 19:37 22.07.2019
4811 Haze 6 1021 80 5000 1 40 19:18 22.07.2019
4812 Haze 6 1021 80 5000 1 40 18:44 22.07.2019
4813 Haze 6 1021 80 5000 1 40 18:26 22.07.2019
4814 Haze 6 1021 80 5000 0.62 182.757 17:44 22.07.2019
4815 -273 0 0 0 0 0 17:26 22.07.2019
4816 Haze 5 1022 100 4000 0.62 182.757 16:59 22.07.2019
4817 Haze 5 1021 86 5000 0.62 182.757 16:38 22.07.2019
4818 Haze 5 1021 86 5000 0.62 182.757 16:38 22.07.2019
4819 Haze 5 1021 86 5000 0.62 182.757 16:20 22.07.2019
4820 Mist 4 1021 86 4000 1 190 15:44 22.07.2019
4821 Mist 2 1021 86 4000 1 190 15:19 22.07.2019
4822 Mist 2 1021 93 3000 0.3 120.12 14:44 22.07.2019
4823 Mist 3 1021 93 3000 0.3 120.12 14:22 22.07.2019
4824 Fog 2 1021 100 500 2.1 260 13:50 22.07.2019
4825 Fog 3 1021 100 2000 2.1 30 13:30 22.07.2019
4826 Mist 3 1021 100 5000 2.6 30 12:51 22.07.2019
4827 Mist 3 1021 100 5000 2.6 30 12:31 22.07.2019
4828 Mist 3 1021 100 5000 2.6 330 11:55 22.07.2019
4829 Mist 3 1021 100 5000 2.6 330 11:36 22.07.2019
4830 Mist 4 1022 93 5000 1.5 260 11:18 22.07.2019
4831 Mist 3 1022 93 5000 1.5 260 10:34 22.07.2019
4832 Mist 3 1022 93 4000 1 0 09:46 22.07.2019
4833 Mist 3 1022 93 4000 1 0 09:26 22.07.2019
4834 Mist 3 1022 100 4000 2.1 180 08:59 22.07.2019
4835 Mist 3 1022 100 4000 2.1 180 08:38 22.07.2019
4836 Mist 3 1022 100 4000 2.1 180 08:19 22.07.2019
4837 Mist 3 1022 100 4000 2.6 170 07:47 22.07.2019
4838 Mist 4 1022 100 4000 2.6 170 07:27 22.07.2019
4839 Clear 5 1022 93 10000 2.6 30 05:20 22.07.2019
4840 Clouds 5 1023 93 10000 2.1 330 03:44 22.07.2019
4841 Rain 5 1022 87 10000 2.6 130 01:25 22.07.2019
4842 Rain 5 1022 86 3000 1.5 10 00:42 22.07.2019
4843 Rain 5 1022 86 3000 1.5 10 00:20 22.07.2019
4844 Rain 5 1021 86 2000 1.5 130 23:46 21.07.2019
4845 Rain 5 1020 86 2000 3.1 180 22:58 21.07.2019
4846 Rain 6 1020 86 2000 3.1 180 22:39 21.07.2019
4847 Rain 6 1020 86 2000 3.1 180 22:20 21.07.2019
4848 Rain 6 1020 93 3000 3.6 140 21:49 21.07.2019
4849 Rain 6 1020 93 3000 3.6 140 21:26 21.07.2019
4850 Rain 6 1019 87 2000 3.1 210 20:59 21.07.2019
4851 Rain 7 1019 87 2000 3.1 210 20:41 21.07.2019
4852 Rain 7 1019 87 2000 3.1 210 20:22 21.07.2019
4853 Rain 7 1018 87 7000 2.1 210 19:49 21.07.2019
4854 Rain 7 1018 87 7000 2.1 210 19:29 21.07.2019
4855 Rain 7 1018 87 7000 1.5 240 18:51 21.07.2019
4856 Rain 7 1018 87 7000 1.5 240 18:28 21.07.2019
4857 Rain 8 1018 93 5000 2.6 240 17:56 21.07.2019
4858 Rain 8 1018 93 5000 2.6 240 17:38 21.07.2019
4859 Rain 8 1018 93 5000 2.6 240 17:18 21.07.2019
4860 Rain 8 1017 93 10000 6.2 200 16:41 21.07.2019
4861 Rain 8 1017 93 10000 6.2 200 16:22 21.07.2019
4862 Rain 8 1016 93 10000 3.1 140 15:41 21.07.2019
4863 Rain 8 1016 93 10000 3.1 140 15:21 21.07.2019
4864 Rain 8 1016 93 10000 3.1 140 15:21 21.07.2019
4865 Clouds 8 1016 87 7000 1 260 14:44 21.07.2019
4866 Clouds 8 1016 87 7000 1 260 14:25 21.07.2019
4867 Clouds 8 1015 81 8000 3.1 170 13:53 21.07.2019
4868 Clouds 8 1015 81 8000 3.1 170 13:34 21.07.2019
4869 Rain 10 929 95 0 2.49 254.916 12:57 21.07.2019
4870 Rain 9 928 95 0 2.49 254.916 12:39 21.07.2019
4871 Clouds 11 927 92 0 0.43 310.096 12:20 21.07.2019
4872 Clouds 8 1014 81 10000 0.43 310.096 11:45 21.07.2019
4873 Clouds 8 1014 81 10000 0.43 310.096 11:25 21.07.2019
4874 Clear 10 1014 87 10000 3.1 280 10:43 21.07.2019
4875 Clear 6 1014 87 10000 3.1 280 10:24 21.07.2019
4876 Clear 9 1014 75 10000 3.6 140 09:52 21.07.2019
4877 Clear 8 1014 75 10000 3.6 140 09:32 21.07.2019
4878 Clear 9 1014 75 10000 2.6 110 08:47 21.07.2019
4879 Clear 9 1014 75 10000 2.6 110 08:27 21.07.2019
4880 Clear 10 1013 75 10000 3.1 120 07:39 21.07.2019
4881 Clear 8 1013 65 10000 1 0 06:59 21.07.2019
4882 Clear 10 1013 61 10000 0.5 0 05:54 21.07.2019
4883 Clouds 11 1012 62 10000 4.1 160 02:59 21.07.2019
4884 Clouds 13 1011 50 10000 3.6 160 01:33 21.07.2019
4885 Clouds 13 1012 30 6000 1.65 260.064 00:42 21.07.2019
4886 Clouds 14 1012 30 6000 2.16 238.494 00:19 21.07.2019
4887 Haze 16 1012 26 4000 1.5 210 23:43 20.07.2019
4888 Haze 16 1012 26 4000 1.5 210 23:21 20.07.2019
4889 Haze 17 1012 25 4000 1 250 22:48 20.07.2019
4890 Haze 18 1012 25 4000 1 250 22:23 20.07.2019
4891 Haze 18 1012 21 5000 1.5 240 21:57 20.07.2019
4892 Haze 18 1012 21 5000 1.5 240 21:39 20.07.2019
4893 Haze 18 1012 21 5000 1.5 240 21:20 20.07.2019
4894 Haze 18 1013 29 5000 1.5 250 20:41 20.07.2019
4895 Haze 18 1013 29 5000 1.5 250 20:19 20.07.2019
4896 Haze 17 1014 38 5000 1 330 19:46 20.07.2019
4897 Haze 17 1014 38 5000 1 330 19:21 20.07.2019
4898 Haze 16 1014 47 5000 2.81 243.115 18:44 20.07.2019
4899 Haze 15 1014 47 5000 0.99 223.479 18:22 20.07.2019
4900 Clouds 15 1015 43 6000 0.99 223.479 17:55 20.07.2019
4901 Clouds 14 1015 43 6000 0.99 223.479 17:25 20.07.2019
4902 Clouds 13 1014 57 6000 1 280 16:45 20.07.2019
4903 Clouds 13 1014 57 6000 1 280 16:27 20.07.2019
4904 Haze 11 1014 75 8000 1 170 15:58 20.07.2019
4905 Haze 10 1014 75 8000 1 170 15:40 20.07.2019
4906 Haze 8 1014 75 8000 1 170 15:20 20.07.2019
4907 Haze 9 1013 81 10000 1 20 14:48 20.07.2019
4908 Haze 8 1013 81 10000 1 20 14:29 20.07.2019
4909 Clouds 10 1012 80 6000 2.1 290 13:54 20.07.2019
4910 Clouds 10 1012 80 6000 2.1 290 13:36 20.07.2019
4911 Clouds 10 1012 80 6000 2.1 290 13:36 20.07.2019
4912 Clouds 10 1012 80 6000 2.1 290 13:18 20.07.2019
4913 Haze 11 1013 75 5000 3.1 170 12:38 20.07.2019
4914 Haze 11 1013 75 5000 3.1 170 12:18 20.07.2019
4915 Haze 10 1012 70 5000 1.5 80 11:40 20.07.2019
4916 Haze 10 1012 70 5000 1.5 80 11:19 20.07.2019
4917 Haze 10 1013 80 5000 1.5 320 10:37 20.07.2019
4918 Haze 8 1013 80 5000 1.5 320 10:19 20.07.2019
4919 Haze 11 1014 75 5000 0.9 66.575 09:46 20.07.2019
4920 Haze 11 1014 75 5000 0.56 191.35 09:24 20.07.2019
4921 Haze 10 1014 81 5000 0.5 148.937 08:48 20.07.2019
4922 Haze 10 1014 81 5000 0.5 148.937 08:21 20.07.2019
4923 Haze 11 1015 75 5000 2.1 30 07:28 20.07.2019
4924 Smoke 9 1016 75 5000 0.5 148.937 06:43 20.07.2019
4925 Clouds 11 1016 75 6000 1 290 05:21 20.07.2019
4926 Clouds 10 1016 66 7000 2.1 30 04:30 20.07.2019
4927 Haze 13 1017 50 7000 2.6 160 01:22 20.07.2019
4928 Haze 14 1018 54 5000 0.37 255.888 00:49 20.07.2019
4929 Haze 15 1018 54 5000 0.37 255.888 00:26 20.07.2019
4930 Clouds 16 1018 44 6000 1.45 261.652 23:50 19.07.2019
4931 Clouds 17 1018 44 6000 1.45 261.652 23:29 19.07.2019
4932 Haze 16 1018 44 5000 1.45 261.652 22:59 19.07.2019
4933 Haze 17 1018 44 5000 1.45 261.652 22:40 19.07.2019
4934 Haze 17 1018 44 5000 1.45 261.652 22:19 19.07.2019
4935 Haze 17 1019 42 5000 2.6 240 21:43 19.07.2019
4936 Haze 17 1019 42 5000 2.6 240 21:24 19.07.2019
4937 Haze 18 1018 42 5000 2.72 228.86 20:43 19.07.2019
4938 Haze 18 1018 42 5000 2.72 228.86 20:25 19.07.2019
4939 Haze 17 1020 48 5000 1.5 200 19:39 19.07.2019
4940 Haze 18 1020 48 5000 1.5 200 19:18 19.07.2019
4941 Haze 17 1020 51 7000 1.5 230 18:40 19.07.2019
4942 Haze 16 1020 51 7000 1.5 230 18:19 19.07.2019
4943 Haze 14 1021 54 10000 0.91 180.949 17:45 19.07.2019
4944 Haze 14 1021 54 10000 0.91 180.949 17:25 19.07.2019
4945 Haze 13 1021 71 10000 0.91 180.949 16:48 19.07.2019
4946 Haze 11 1021 71 10000 0.91 180.949 16:25 19.07.2019
4947 Mist 10 1022 87 10000 0.91 180.949 15:48 19.07.2019
4948 Mist 9 1022 87 10000 0.91 180.949 15:29 19.07.2019
4949 Mist 8 1021 81 10000 1.48 81.843 14:56 19.07.2019
4950 Mist 8 1021 81 10000 1.48 81.843 14:56 19.07.2019
4951 Mist 8 1021 81 10000 1.48 81.843 14:38 19.07.2019
4952 Mist 6 1021 81 10000 1.48 81.843 14:19 19.07.2019
4953 Smoke 8 1020 86 5000 0.5 0 13:43 19.07.2019
4954 Smoke 7 1020 86 5000 0.5 0 13:22 19.07.2019
4955 Smoke 9 1020 86 5000 2.6 50 12:49 19.07.2019
4956 Smoke 9 1020 86 5000 2.6 50 12:30 19.07.2019
4957 Smoke 8 1020 86 5000 0.97 79.474 11:47 19.07.2019
4958 Clouds 9 1020 81 6000 1.5 60 11:20 19.07.2019
4959 Clouds 9 1020 81 6000 1.5 60 10:58 19.07.2019
4960 Clouds 9 1020 81 6000 1.5 60 10:39 19.07.2019
4961 Clouds 9 1020 81 6000 1.5 60 10:20 19.07.2019
4962 Clouds 9 1020 87 6000 0.97 79.474 09:44 19.07.2019
4963 Clouds 9 1020 87 6000 0.19 103.309 09:22 19.07.2019
4964 Clouds 9 1020 87 6000 0.19 103.309 09:22 19.07.2019
4965 Clouds 7 1020 86 6000 1 0 08:50 19.07.2019
4966 Clouds 8 1020 86 6000 1 0 08:32 19.07.2019
4967 Clouds 11 1021 81 6000 2.1 170 07:34 19.07.2019
4968 Clouds 8 1020 81 6000 1.5 60 06:47 19.07.2019
4969 Clouds 9 1022 75 8000 0.08 127.02 05:26 19.07.2019
4970 Clear 13 1021 54 8000 1.5 200 01:45 19.07.2019
4971 Clear 15 1022 41 10000 1 240 00:58 19.07.2019
4972 Clear 15 1022 41 10000 1 240 00:21 19.07.2019
4973 Haze 17 1021 42 5000 1.5 0 23:41 18.07.2019
4974 Haze 18 1021 42 5000 1.5 0 23:23 18.07.2019
4975 Haze 18 1021 39 4000 1 270 22:55 18.07.2019
4976 Haze 18 1021 39 4000 1 270 22:36 18.07.2019
4977 Haze 18 1022 36 5000 1.5 280 22:18 18.07.2019
4978 Haze 18 1022 36 5000 1.5 280 21:39 18.07.2019
4979 Haze 17 1022 42 5000 2.1 0 21:19 18.07.2019
4980 Haze 17 1022 42 5000 2.1 0 20:46 18.07.2019
4981 Haze 17 1022 42 5000 2.1 0 20:25 18.07.2019
4982 Haze 18 1022 48 5000 1 350 19:50 18.07.2019
4983 Haze 18 1022 48 5000 1 350 19:27 18.07.2019
4984 Haze 16 1024 66 4000 1.24 217.761 18:52 18.07.2019
4985 Haze 14 1024 66 4000 1.76 223.803 18:23 18.07.2019
4986 Haze 13 1024 81 3000 1 200 17:57 18.07.2019
4987 Haze 13 1024 81 3000 1 200 17:38 18.07.2019
4988 Haze 11 1024 81 3000 1 200 17:19 18.07.2019
4989 Haze 11 1023 76 4000 4.1 200 16:49 18.07.2019
4990 Haze 11 1023 76 4000 4.1 200 16:25 18.07.2019
4991 Haze 10 1023 71 5000 3.6 360 15:57 18.07.2019
4992 Haze 10 1023 71 5000 3.6 360 15:36 18.07.2019
4993 Haze 9 1024 81 4000 3.1 340 14:56 18.07.2019
4994 Haze 8 1024 81 4000 3.1 340 14:38 18.07.2019
4995 Mist 8 1022 87 4000 1.5 160 14:19 18.07.2019
4996 Mist 8 1022 87 4000 1.5 160 13:38 18.07.2019
4997 Mist 8 1022 87 4000 1.5 160 13:19 18.07.2019
4998 Mist 7 1021 87 4000 1.27 36.807 12:45 18.07.2019
4999 Mist 8 1021 93 4000 1 0 12:21 18.07.2019
5000 Mist 8 1021 93 4000 1 0 11:51 18.07.2019
5001 Mist 8 1021 93 4000 1 0 11:33 18.07.2019
5002 Mist 8 1021 87 4000 2.6 50 10:52 18.07.2019
5003 Mist 8 1021 87 4000 2.6 50 10:23 18.07.2019
5004 Mist 7 1022 93 5000 2.1 50 09:45 18.07.2019
5005 Mist 7 1022 93 5000 2.1 50 09:23 18.07.2019
5006 Mist 6 1022 93 5000 3.1 310 08:47 18.07.2019
5007 Clouds 8 1022 87 6000 3.6 120 08:20 18.07.2019
5008 Clouds 8 1022 87 6000 3.6 120 07:39 18.07.2019
5009 Clouds 8 1022 87 6000 3.6 120 07:20 18.07.2019
5010 Clouds 8 1022 87 6000 2.6 160 06:37 18.07.2019
5011 Clouds 8 1021 87 6000 2.1 170 05:33 18.07.2019
5012 Clouds 9 1021 81 8000 3.6 130 02:55 18.07.2019
5013 Clouds 11 1021 76 8000 3.1 150 01:50 18.07.2019
5014 Haze 13 1021 71 4000 1 170 00:35 18.07.2019
5015 Haze 15 1021 58 4000 2.53 231.9 23:49 17.07.2019
5016 Clouds 16 934 71 0 2.53 231.9 23:20 17.07.2019
5017 Clouds 17 934 66 0 2.53 231.9 22:56 17.07.2019
5018 Clouds 18 934 58 0 2.53 231.9 22:38 17.07.2019
5019 Haze 16 1021 51 4000 1.5 270 22:18 17.07.2019
5020 Haze 16 1021 51 4000 1.5 270 21:43 17.07.2019
5021 Haze 16 1021 51 4000 1.5 270 21:25 17.07.2019
5022 Haze 16 1020 54 8000 4.6 180 20:58 17.07.2019
5023 Haze 16 1021 54 4000 1.5 220 20:39 17.07.2019
5024 Haze 16 1020 54 7000 3.6 170 20:20 17.07.2019
5025 Haze 18 1021 54 4000 2.6 270 19:44 17.07.2019
5026 Haze 18 1021 54 4000 2.6 270 19:22 17.07.2019
5027 Haze 16 1022 54 5000 3.1 240 18:59 17.07.2019
5028 Haze 16 1022 54 5000 3.1 240 18:40 17.07.2019
5029 Haze 16 1022 54 5000 3.1 240 18:40 17.07.2019
5030 Haze 13 1021 62 5000 0.5 240 18:20 17.07.2019
5031 Haze 13 1021 62 5000 0.5 240 17:49 17.07.2019
5032 Haze 13 1021 62 5000 0.5 240 17:25 17.07.2019
5033 Haze 13 1022 66 6000 0.56 241.015 16:45 17.07.2019
5034 Haze 13 1022 66 6000 0.56 241.015 16:23 17.07.2019
5035 Haze 13 1021 75 3500 3.1 270 15:52 17.07.2019
5036 Haze 13 1021 70 6000 2.1 260 15:32 17.07.2019
5037 Haze 13 1021 70 6000 2.1 260 15:32 17.07.2019
5038 Haze 8 1021 75 6000 1.5 60 14:59 17.07.2019
5039 Haze 7 1021 75 6000 1.5 60 14:41 17.07.2019
5040 Haze 6 1020 86 4500 1.5 280 14:21 17.07.2019
5041 Haze 6 1020 86 4500 1.5 280 13:59 17.07.2019
5042 Haze 6 1020 86 4500 1.5 280 13:40 17.07.2019
5043 Haze 6 1019 86 4500 2.4 249.935 13:19 17.07.2019
5044 Haze 6 1019 86 4500 2.4 249.935 12:39 17.07.2019
5045 Haze 7 1019 75 4500 0.62 100.239 12:20 17.07.2019
5046 Haze 7 1019 75 4500 0.62 100.239 11:44 17.07.2019
5047 Haze 7 1019 75 4500 0.62 100.239 11:21 17.07.2019
5048 Haze 6 1019 86 4500 2.1 30 10:50 17.07.2019
5049 Haze 6 1019 86 4500 2.1 30 10:29 17.07.2019
5050 Haze 6 1019 86 5000 0.62 100.239 09:55 17.07.2019
5051 Haze 6 1019 86 5000 0.62 100.239 09:55 17.07.2019
5052 Haze 6 1019 86 5000 0.62 100.239 09:55 17.07.2019
5053 Haze 6 1019 86 5000 0.62 100.239 09:37 17.07.2019
5054 Haze 6 1020 86 5000 1 0 09:18 17.07.2019
5055 Haze 6 1020 86 5000 1 0 08:41 17.07.2019
5056 Haze 6 1020 86 5000 1 0 08:21 17.07.2019
5057 Clear 8 1020 81 6000 0.5 0 07:47 17.07.2019
5058 Clear 8 1020 81 6000 0.5 0 07:23 17.07.2019
5059 Clear 8 1020 81 6000 0.5 0 07:23 17.07.2019
5060 Clear 8 1020 75 6000 1.03 68.209 06:46 17.07.2019
5061 Clear 8 1020 75 6000 1.03 68.209 06:46 17.07.2019
5062 Clear 9 1020 75 6000 0.36 50.914 06:28 17.07.2019
5063 Clear 9 1020 75 7000 0.36 50.914 05:43 17.07.2019
5064 Clear 10 1020 75 7000 0.36 50.914 05:23 17.07.2019
5065 Clear 9 1020 75 7000 0.36 50.914 04:32 17.07.2019
5066 Clear 12 1020 62 10000 2.1 160 02:52 17.07.2019
5067 Clear 13 1019 54 10000 3.6 170 01:59 17.07.2019
5068 Haze 15 1019 54 10000 3.6 170 01:24 17.07.2019
5069 Haze 16 1019 36 4000 0.76 273.009 00:44 17.07.2019
5070 Haze 19 1019 28 5000 1.5 270 00:23 17.07.2019
5071 Haze 19 1019 28 5000 1.5 270 23:55 16.07.2019
5072 Haze 20 1019 28 5000 1.5 270 23:29 16.07.2019
5073 Haze 21 1019 28 4000 1 180 22:58 16.07.2019
5074 Haze 21 1019 28 4000 1 180 22:39 16.07.2019
5075 Haze 21 1019 30 5000 1.78 241.233 22:19 16.07.2019
5076 Haze 21 1019 30 5000 1.78 241.233 21:45 16.07.2019
5077 Haze 21 1019 30 5000 1.79 232.007 21:21 16.07.2019
5078 Haze 20 1019 32 5000 0.5 110 20:58 16.07.2019
5079 Haze 20 1019 32 5000 0.5 110 20:38 16.07.2019
5080 Clouds 19 1019 31 6000 2.6 210 20:20 16.07.2019
5081 Clouds 19 1019 31 6000 2.6 210 19:46 16.07.2019
5082 Clouds 20 1019 31 6000 2.6 210 19:27 16.07.2019
5083 Clouds 18 1020 48 8000 2.6 240 18:46 16.07.2019
5084 Clear 13 1019 36 10000 1.5 330 18:21 16.07.2019
5085 Clear 13 1019 36 10000 1.5 330 17:58 16.07.2019
5086 Clear 13 1019 36 10000 1.5 330 17:58 16.07.2019
5087 Clear 13 1019 36 10000 1.5 330 17:39 16.07.2019
5088 Clear 8 1019 50 10000 0.5 270 17:20 16.07.2019
5089 Clear 14 1019 50 10000 0.5 270 16:42 16.07.2019
5090 Haze 11 1019 80 10000 1.5 60 16:20 16.07.2019
5091 Haze 12 1019 80 10000 1.5 60 15:41 16.07.2019
5092 Haze 3 1018 74 5000 0.21 116.689 15:21 16.07.2019
5093 Haze 7 1018 74 5000 0.21 116.689 14:58 16.07.2019
5094 Haze 6 1018 74 10000 1.5 60 14:40 16.07.2019
5095 Haze 6 1018 74 10000 1.5 60 14:22 16.07.2019
5096 Haze 5 1017 74 5000 0.21 116.689 13:45 16.07.2019
5097 Haze 6 1017 74 5000 1 0 13:24 16.07.2019
5098 Haze 5 1017 74 5000 1 0 12:55 16.07.2019
5099 Haze 6 1017 74 5000 1 0 12:37 16.07.2019
5100 Haze 5 1016 80 5000 1 0 12:19 16.07.2019
5101 Haze 5 1016 80 5000 1 0 11:43 16.07.2019
5102 Haze 5 1016 80 5000 1 0 11:23 16.07.2019
5103 Haze 5 1016 68 5000 1 0 10:55 16.07.2019
5104 Haze 6 1016 68 5000 1 0 10:37 16.07.2019
5105 Haze 6 1016 74 5000 0.77 249.915 10:18 16.07.2019
5106 Haze 7 1016 74 5000 0.77 249.915 09:42 16.07.2019
5107 Haze 7 1015 67 5000 0.8 251.679 09:19 16.07.2019
5108 Haze 8 1015 66 5000 0.54 249.197 08:43 16.07.2019
5109 Haze 8 1015 75 5000 0.54 249.197 08:22 16.07.2019
5110 Haze 9 1015 75 5000 0.54 249.197 07:48 16.07.2019
5111 Haze 9 1015 75 5000 0.54 249.197 07:30 16.07.2019
5112 Haze 9 1015 65 5000 1 0 06:49 16.07.2019
5113 Haze 9 1015 65 5000 1 0 06:31 16.07.2019
5114 Haze 10 1015 65 5000 0.21 194.368 05:42 16.07.2019
5115 Haze 10 1015 65 5000 0.21 194.368 05:24 16.07.2019
5116 Clear 12 1015 46 7000 1 0 04:23 16.07.2019
5117 Clear 12 1015 46 7000 1 0 03:28 16.07.2019
5118 Clear 12 1016 53 7000 0.49 96.866 02:31 16.07.2019
5119 Clear 14 1015 44 7000 0.49 96.866 01:49 16.07.2019
5120 Clear 16 1016 23 7000 0.49 96.866 00:53 16.07.2019
5121 Clear 18 1016 23 7000 0.7 209.532 00:22 16.07.2019
5122 Clear 20 1016 24 6000 1.5 270 23:54 15.07.2019
5123 Clear 20 1016 24 6000 1.5 270 23:36 15.07.2019
5124 Clear 21 1016 21 6000 1 230 22:56 15.07.2019
5125 Clear 21 1016 21 6000 1 230 22:37 15.07.2019
5126 Clear 20 1017 19 6000 0.7 209.532 22:18 15.07.2019
5127 Clear 20 1017 19 6000 0.7 209.532 21:42 15.07.2019
5128 Clear 19 1017 29 8000 1.5 270 21:21 15.07.2019
5129 Clear 19 1017 29 8000 1.5 270 20:58 15.07.2019
5130 Clear 19 1017 29 8000 1.5 270 20:39 15.07.2019
5131 Haze 19 1018 29 10000 1.5 250 20:21 15.07.2019
5132 Haze 19 1018 29 10000 1.5 250 19:45 15.07.2019
5133 Haze 19 1018 29 10000 1.5 250 19:22 15.07.2019
5134 Haze 17 1019 33 10000 1.5 240 18:57 15.07.2019
5135 Haze 17 1019 33 10000 1.5 240 18:38 15.07.2019
5136 Haze 14 1020 44 10000 0.5 300 18:19 15.07.2019
5137 Haze 14 1020 44 10000 0.5 300 17:55 15.07.2019
5138 Haze 14 1020 44 10000 0.5 300 17:37 15.07.2019
5139 Haze 10 1020 61 10000 0.5 60 17:18 15.07.2019
5140 Haze 13 1020 61 10000 0.5 60 16:39 15.07.2019
5141 Haze 13 1020 61 10000 0.5 60 16:39 15.07.2019
5142 Haze 12 1020 61 10000 0.5 60 16:21 15.07.2019
5143 Haze 10 1020 80 10000 1 90 15:57 15.07.2019
5144 Haze 10 1020 80 10000 1 90 15:37 15.07.2019
5145 Mist 4 1020 80 10000 1 50 15:19 15.07.2019
5146 Mist 3 1020 80 10000 1 50 14:45 15.07.2019
5147 Mist 3 1020 80 10000 1 50 14:25 15.07.2019
5148 Smoke 3 1020 86 4000 1.5 60 13:55 15.07.2019
5149 Smoke 3 1020 86 4000 1.5 60 13:36 15.07.2019
5150 Smoke 3 1019 86 4500 1.88 79.109 13:18 15.07.2019
5151 Smoke 3 1019 86 4500 1.88 79.109 12:41 15.07.2019
5152 Smoke 3 1019 86 4000 1 0 12:21 15.07.2019
5153 Smoke 3 1019 86 4000 1 0 11:43 15.07.2019
5154 Smoke 4 1019 86 4000 1 0 11:25 15.07.2019
5155 Mist 3 1020 68 3500 1.5 50 10:47 15.07.2019
5156 Mist 3 1020 68 3500 1.5 50 10:28 15.07.2019
5157 Mist 4 1021 68 4000 1 0 09:48 15.07.2019
5158 Mist 4 1021 68 4000 1 0 09:28 15.07.2019
5159 Mist 5 1021 93 5000 2.1 50 08:59 15.07.2019
5160 Mist 5 1021 93 5000 2.1 50 08:41 15.07.2019
5161 Mist 5 1021 93 5000 2.1 50 08:23 15.07.2019
5162 Haze 6 1022 75 5000 2.05 74.377 07:39 15.07.2019
5163 Haze 5 1022 80 5000 2.05 74.377 07:19 15.07.2019
5164 Haze 5 1022 80 5000 2.05 74.377 06:39 15.07.2019
5165 Haze 6 1022 75 5000 1 130 05:47 15.07.2019
5166 Haze 7 1022 75 5000 1 130 05:27 15.07.2019
5167 Clear 7 1021 70 7000 0.5 0 04:42 15.07.2019
5168 Clear 7 1022 70 7000 1.41 62.16 03:48 15.07.2019
5169 Clouds 10 1022 57 8000 1 0 02:45 15.07.2019
5170 Clouds 10 1021 53 8000 0.5 0 01:44 15.07.2019
5171 Clouds 12 1021 53 8000 0.5 0 01:26 15.07.2019
5172 Clear 12 1022 35 10000 0.5 115.996 00:51 15.07.2019
5173 Clouds 13 1021 47 8000 2.6 170 00:20 15.07.2019
5174 Clouds 14 1021 47 8000 2.6 170 23:55 14.07.2019
5175 Clouds 15 1022 33 7000 2.1 280 23:36 14.07.2019
5176 Haze 16 1021 38 8000 3.1 180 23:18 14.07.2019
5177 Haze 16 1021 72 4000 2.1 250 22:41 14.07.2019
5178 Haze 16 1021 72 4000 2.1 250 22:41 14.07.2019
5179 Haze 16 1021 72 4000 2.1 250 22:22 14.07.2019
5180 Haze 15 1021 36 7000 1.5 180 21:59 14.07.2019
5181 Haze 15 1021 72 5000 1.5 240 21:41 14.07.2019
5182 Haze 15 1022 52 5000 1 140 21:18 14.07.2019
5183 Haze 15 1022 52 5000 1 140 20:55 14.07.2019
5184 Haze 15 1022 52 5000 1 140 20:55 14.07.2019
5185 Haze 15 1022 52 5000 1 140 20:36 14.07.2019
5186 Haze 14 1022 44 6000 1.5 220 20:18 14.07.2019
5187 Haze 16 1023 52 5000 1.63 191.965 19:43 14.07.2019
5188 Haze 16 1023 52 5000 1.63 191.965 19:24 14.07.2019
5189 Haze 15 1023 52 5000 1.5 280 18:57 14.07.2019
5190 Haze 15 1023 52 5000 1.5 280 18:38 14.07.2019
5191 Haze 11 1023 57 5000 0.83 152.135 18:18 14.07.2019
5192 Haze 10 1024 57 5000 1.5 240 17:47 14.07.2019
5193 Haze 7 1024 80 5000 0.83 152.135 17:20 14.07.2019
5194 Haze 8 1024 80 5000 0.83 152.135 16:46 14.07.2019
5195 Haze 7 1024 80 5000 0.83 152.135 16:24 14.07.2019
5196 Mist 6 1023 86 2500 0.83 152.135 15:54 14.07.2019
5197 Mist 5 1023 86 7000 1 40 15:29 14.07.2019
5198 Mist 3 1023 80 7000 1 80 14:50 14.07.2019
5199 Mist 3 1023 80 7000 1 80 14:22 14.07.2019
5200 Mist 4 1022 80 4000 0.53 44.924 13:49 14.07.2019
5201 Mist 3 1022 80 4000 0.49 40.614 13:27 14.07.2019
5202 Mist 3 1022 86 4000 2.1 40 12:59 14.07.2019
5203 Mist 3 1022 86 4000 2.1 40 12:41 14.07.2019
5204 Mist 3 1022 86 3000 2.6 310 12:21 14.07.2019
5205 Mist 2 1022 86 3000 2.6 310 11:52 14.07.2019
5206 Mist 3 1022 86 3000 2.6 310 11:27 14.07.2019
5207 Mist 3 1022 86 3000 0.54 250.346 10:58 14.07.2019
5208 Mist 3 1022 86 3000 0.54 250.346 10:40 14.07.2019
5209 Mist 4 1021 93 3000 0.54 250.346 10:19 14.07.2019
5210 Mist 4 1021 93 3000 0.54 250.346 09:42 14.07.2019
5211 Haze 4 1022 93 4000 1 0 09:23 14.07.2019
5212 Haze 4 1022 93 4000 1 0 08:41 14.07.2019
5213 Haze 4 1022 93 4000 1 0 07:57 14.07.2019
5214 Haze 5 1022 86 5000 0.53 297.784 07:35 14.07.2019
5215 Haze 5 1022 86 5000 2.1 0 06:40 14.07.2019
5216 Haze 6 1022 80 5000 0.83 258.649 05:44 14.07.2019
5217 Clear 9 1021 66 8000 1 0 03:46 14.07.2019
5218 Clear 8 1021 66 8000 1 0 03:28 14.07.2019
5219 Clear 9 1020 66 8000 0.96 287.645 02:39 14.07.2019
5220 Clear 10 1020 62 8000 2.6 210 02:20 14.07.2019
5221 Haze 11 1020 62 8000 2.6 210 01:31 14.07.2019
5222 Haze 11 1020 46 5000 1.5 220 00:55 14.07.2019
5223 Haze 11 1020 46 5000 1.5 220 00:37 14.07.2019
5224 Haze 12 1019 58 8000 3.6 180 00:19 14.07.2019
5225 Haze 14 1020 47 5000 1.5 270 23:43 13.07.2019
5226 Haze 14 1020 47 5000 1.5 270 23:23 13.07.2019
5227 Haze 15 1019 33 4000 1.5 200 22:43 13.07.2019
5228 Haze 15 1019 60 4000 1.5 220 22:22 13.07.2019
5229 Haze 16 1019 60 4000 1.5 220 21:54 13.07.2019
5230 Haze 16 1019 57 4000 1.5 220 21:23 13.07.2019
5231 Haze 15 1020 44 4000 1.5 230 20:59 13.07.2019
5232 Haze 15 1020 44 4000 1.5 230 20:39 13.07.2019
5233 Haze 15 1020 44 4000 1.5 230 20:21 13.07.2019
5234 Haze 15 1020 50 4000 1.5 200 19:41 13.07.2019
5235 Haze 16 1020 50 4000 1.5 200 19:23 13.07.2019
5236 Haze 15 1021 54 4000 1 180 18:40 13.07.2019
5237 Haze 10 1022 61 4000 1.5 220 18:19 13.07.2019
5238 Haze 10 1022 61 4000 1.5 220 17:38 13.07.2019
5239 Haze 10 1022 61 4000 1.5 220 17:38 13.07.2019
5240 Haze 8 1021 75 4000 0.53 147.479 17:19 13.07.2019
5241 Haze 8 1021 75 4000 0.53 147.479 16:45 13.07.2019
5242 Haze 7 1021 75 4000 0.53 147.479 16:26 13.07.2019
5243 Haze 5 1021 86 4000 1 50 15:50 13.07.2019
5244 Haze 5 1021 86 4000 1 50 15:50 13.07.2019
5245 Haze 4 1021 86 4000 1 50 15:25 13.07.2019
5246 Haze 3 1021 100 1200 1 20 14:59 13.07.2019
5247 Haze 3 1021 90 4000 1 90 14:41 13.07.2019
5248 Haze 3 1021 90 4000 1 90 14:20 13.07.2019
5249 Fog 3 1020 100 2000 1 0 13:44 13.07.2019
5250 Fog 3 1020 100 3000 0.49 220.779 13:19 13.07.2019
5251 Fog 4 1020 100 3000 0.49 220.779 12:42 13.07.2019
5252 Fog 4 1020 100 3000 0.58 62.864 12:23 13.07.2019
5253 Fog 4 1020 100 3000 0.58 62.864 11:58 13.07.2019
5254 Fog 4 1019 93 2000 1 0 11:37 13.07.2019
5255 Fog 3 1019 100 2000 0.58 62.864 11:18 13.07.2019
5256 Fog 4 1019 100 2000 0.58 62.864 10:41 13.07.2019
5257 Fog 4 1019 100 2000 0.58 62.864 10:23 13.07.2019
5258 Mist 4 1019 93 3000 1 0 09:48 13.07.2019
5259 Mist 4 1019 93 3000 1 0 09:28 13.07.2019
5260 Mist 4 1019 93 3000 1 0 08:56 13.07.2019
5261 Mist 5 1019 93 3000 0.5 0 08:28 13.07.2019
5262 Mist 5 1019 93 3000 0.5 0 08:28 13.07.2019
5263 Mist 5 1020 93 5000 1.5 0 07:53 13.07.2019
5264 Mist 5 1020 93 5000 1.5 0 07:25 13.07.2019
5265 Haze 6 1020 86 5000 2.1 270 06:31 13.07.2019
5266 Clear 7 1019 87 6000 0.67 298.762 05:48 13.07.2019
5267 Clear 7 1019 87 6000 1.5 160 04:40 13.07.2019
5268 Clear 8 1019 81 6000 1.5 170 04:20 13.07.2019
5269 Clear 8 1019 81 6000 1.5 170 03:41 13.07.2019
5270 Clear 9 1018 71 6000 1 110 03:18 13.07.2019
5271 Clear 10 1018 66 6000 3.6 220 01:53 13.07.2019
5272 Haze 12 1018 50 5000 1.12 266.974 01:21 13.07.2019
5273 Haze 11 1018 50 5000 1.12 266.974 00:59 13.07.2019
5274 Haze 13 1018 41 4000 1.5 230 00:21 13.07.2019
5275 Haze 13 1018 41 4000 1.5 230 23:55 12.07.2019
5276 Haze 14 1018 41 4000 1.5 230 23:34 12.07.2019
5277 Haze 14 1017 73 3000 2.6 240 22:59 12.07.2019
5278 Haze 14 1017 73 3000 2.6 240 22:40 12.07.2019
5279 Haze 14 1017 73 3000 2.6 240 22:22 12.07.2019
5280 Haze 14 1017 44 3000 1.5 240 21:42 12.07.2019
5281 Haze 14 1017 44 3000 1.5 240 21:42 12.07.2019
5282 Haze 14 1017 44 3000 1.5 240 21:21 12.07.2019
5283 Haze 14 1018 50 3000 2.1 240 20:53 12.07.2019
5284 Haze 14 1018 50 3000 2.1 240 20:24 12.07.2019
5285 Haze 13 1018 54 3000 1.5 240 19:45 12.07.2019
5286 Haze 13 1018 54 3000 1.5 240 19:26 12.07.2019
5287 Haze 12 1019 61 3000 0.5 170 18:59 12.07.2019
5288 Haze 12 1019 61 3000 0.5 170 18:38 12.07.2019
5289 Haze 10 1020 70 3000 1.5 120 18:19 12.07.2019
5290 Haze 10 1020 70 3000 1.5 120 17:47 12.07.2019
5291 Haze 10 1020 70 3000 1.5 120 17:27 12.07.2019
5292 Haze 8 1020 87 4000 0.41 134.802 16:43 12.07.2019
5293 Haze 7 1020 87 4000 0.41 134.802 16:20 12.07.2019
5294 Haze 5 1020 86 4000 0.41 134.802 15:41 12.07.2019
5295 Haze 5 1020 86 4000 0.63 78.833 15:21 12.07.2019
5296 Haze 4 1020 94 4000 1.5 50 14:56 12.07.2019
5297 Haze 4 1020 94 4000 1.5 50 14:38 12.07.2019
5298 Mist 5 1020 100 3000 0.63 78.833 14:19 12.07.2019
5299 Mist 4 1020 100 3000 0.63 78.833 13:39 12.07.2019
5300 Mist 5 1020 93 1500 1.5 0 12:58 12.07.2019
5301 Mist 5 1020 93 1500 1.5 0 12:38 12.07.2019
5302 Fog 6 1020 93 1000 0.65 74.613 12:20 12.07.2019
5303 Fog 6 1020 93 1000 0.65 74.613 11:44 12.07.2019
5304 Fog 5 1020 100 500 1.5 40 11:20 12.07.2019
5305 Fog 5 1020 100 500 1.5 40 10:44 12.07.2019
5306 Mist 5 1021 100 2000 1 0 10:24 12.07.2019
5307 Mist 5 1021 100 2000 1 0 09:54 12.07.2019
5308 Mist 5 1021 100 2000 1 0 09:30 12.07.2019
5309 Mist 5 1021 100 2000 1 0 09:30 12.07.2019
5310 Mist 5 1021 100 2000 1 0 09:30 12.07.2019
5311 Mist 5 1021 100 1500 1 0 08:59 12.07.2019
5312 Fog 5 1021 94 300 1 0 08:39 12.07.2019
5313 Fog 5 1021 100 300 1.5 250 08:18 12.07.2019
5314 Fog 5 1021 100 500 1.5 260 07:44 12.07.2019
5315 Fog 5 1021 100 500 1.5 260 07:26 12.07.2019
5316 Mist 7 1021 93 4000 1.5 150 06:29 12.07.2019
5317 Mist 7 1021 87 4000 1.5 220 05:47 12.07.2019
5318 Haze 8 1020 87 5000 2.1 150 03:22 12.07.2019
5319 Clouds 10 1019 71 8000 2.6 160 01:43 12.07.2019
5320 Haze 11 1019 71 8000 2.6 160 00:58 12.07.2019
5321 Haze 13 1019 47 5000 2.6 230 00:20 12.07.2019
5322 Haze 13 1019 47 5000 2.6 230 23:49 11.07.2019
5323 Haze 13 1019 47 5000 2.6 230 23:26 11.07.2019
5324 Haze 14 1019 74 5000 2.6 220 22:58 11.07.2019
5325 Haze 14 1019 74 5000 2.6 220 22:39 11.07.2019
5326 Haze 15 1019 38 4000 1 240 22:20 11.07.2019
5327 Haze 14 1019 38 4000 1 240 21:41 11.07.2019
5328 Haze 14 1019 47 4000 0.5 270 21:19 11.07.2019
5329 Haze 14 1019 47 4000 0.5 270 20:55 11.07.2019
5330 Haze 14 1019 47 4000 0.5 270 20:36 11.07.2019
5331 Haze 13 1019 43 5000 2.1 260 20:18 11.07.2019
5332 Haze 13 1019 43 5000 2.1 260 19:43 11.07.2019
5333 Haze 11 1020 57 5000 1 130 19:23 11.07.2019
5334 Haze 11 1020 57 5000 1 130 18:44 11.07.2019
5335 Haze 11 1020 57 5000 1 130 18:26 11.07.2019
5336 Haze 10 1019 71 4000 1 0 17:54 11.07.2019
5337 Haze 8 1019 66 5000 1.5 190 17:36 11.07.2019
5338 Haze 8 1018 75 5000 1.5 290 17:18 11.07.2019
5339 Haze 8 1018 75 5000 1.5 290 16:42 11.07.2019
5340 Haze 8 1018 75 5000 1.5 290 16:42 11.07.2019
5341 Haze 6 1018 80 5000 1 60 16:21 11.07.2019
5342 Haze 6 1018 80 5000 1 60 15:44 11.07.2019
5343 Haze 6 1018 80 5000 1 60 15:24 11.07.2019
5344 Haze 5 1018 86 5000 0.35 29.214 14:58 11.07.2019
5345 Haze 5 1018 86 5000 0.35 29.214 14:38 11.07.2019
5346 Mist 5 1017 93 4000 2.1 40 14:19 11.07.2019
5347 Mist 5 1017 93 4000 2.1 40 13:42 11.07.2019
5348 Mist 6 1017 93 4000 2.1 40 13:23 11.07.2019
5349 Mist 5 1017 100 3000 0.55 246.406 12:39 11.07.2019
5350 Mist 5 1017 100 3000 0.26 269.78 12:19 11.07.2019
5351 Mist 5 1016 100 2500 1 0 11:50 11.07.2019
5352 Mist 5 1016 100 2500 1 0 11:30 11.07.2019
5353 Mist 5 1016 100 3000 0.26 269.78 10:54 11.07.2019
5354 Fog 6 1016 93 3000 0.26 269.78 10:20 11.07.2019
5355 Fog 6 1016 93 3000 0.26 269.78 10:20 11.07.2019
5356 Fog 6 1016 93 3000 0.26 269.78 09:57 11.07.2019
5357 Fog 7 1016 93 3000 0.26 269.78 09:39 11.07.2019
5358 Mist 6 1017 100 2000 0.51 286.409 09:20 11.07.2019
5359 Mist 6 1017 100 2000 0.38 327.346 08:42 11.07.2019
5360 Mist 6 1017 100 3000 0.38 327.346 08:20 11.07.2019
5361 Mist 6 1017 100 3000 0.38 327.346 07:45 11.07.2019
5362 Mist 6 1017 100 3000 0.38 327.346 07:25 11.07.2019
5363 Mist 6 1018 93 3000 1 0 06:21 11.07.2019
5364 Mist 7 1018 93 3000 0.36 3.171 05:43 11.07.2019
5365 Mist 7 1018 93 3000 0.36 3.171 05:24 11.07.2019
5366 Haze 9 1018 81 3000 1 160 03:59 11.07.2019
5367 Haze 9 1018 87 4000 1 150 02:34 11.07.2019
5368 Haze 11 1018 71 3000 1.03 262.442 00:48 11.07.2019
5369 Haze 13 1018 54 4000 1 220 23:53 10.07.2019
5370 Haze 13 1018 54 4000 1 220 23:31 10.07.2019
5371 Haze 14 1019 47 4000 1.5 310 22:58 10.07.2019
5372 Haze 14 1019 47 4000 1.5 310 22:37 10.07.2019
5373 Haze 14 1019 50 4000 1 250 22:18 10.07.2019
5374 Haze 14 1019 50 4000 1 250 21:43 10.07.2019
5375 Haze 14 1019 50 4000 1 250 21:25 10.07.2019
5376 Haze 13 1019 58 4000 1.23 213.198 20:48 10.07.2019
5377 Haze 13 1019 58 4000 1.23 213.198 20:28 10.07.2019
5378 Haze 13 1020 66 4000 1.23 213.198 20:00 10.07.2019
5379 Haze 13 1020 66 4000 1.23 213.198 19:41 10.07.2019
5380 Haze 11 1021 66 4000 1.5 200 19:21 10.07.2019
5381 Haze 11 1021 66 4000 1.5 200 18:47 10.07.2019
5382 Haze 11 1021 66 4000 1.5 200 18:25 10.07.2019
5383 Haze 10 1021 70 4000 1 270 17:51 10.07.2019
5384 Haze 10 1021 70 4000 1 270 17:30 10.07.2019
5385 Haze 8 1020 81 5000 1.25 237.708 16:58 10.07.2019
5386 Haze 8 1020 81 5000 1.25 237.708 16:22 10.07.2019
5387 Haze 5 1020 86 5000 1.25 237.708 15:54 10.07.2019
5388 Haze 5 1020 86 5000 1.25 237.708 15:36 10.07.2019
5389 Haze 5 1020 86 4000 0.54 73.598 15:18 10.07.2019
5390 Haze 4 1020 86 4000 0.54 73.598 14:39 10.07.2019
5391 Fog 5 1020 100 1500 1.5 40 14:19 10.07.2019
5392 Fog 5 1020 100 1500 1.5 40 13:41 10.07.2019
5393 Fog 4 1020 100 1200 1 0 13:18 10.07.2019
5394 Fog 4 1020 100 1200 1 0 12:41 10.07.2019
5395 Mist 5 1020 93 2500 0.36 71.264 12:22 10.07.2019
5396 Mist 6 1020 93 2500 0.36 71.264 11:51 10.07.2019
5397 Mist 5 1020 93 2500 0.36 71.264 11:22 10.07.2019
5398 Fog 5 1020 100 2000 0.36 71.264 10:58 10.07.2019
5399 Fog 5 1020 100 2000 0.36 71.264 10:58 10.07.2019
5400 Fog 5 1020 100 2000 0.36 71.264 10:36 10.07.2019
5401 Mist 5 1020 100 2500 1 200 10:18 10.07.2019
5402 Fog 5 1020 100 2000 1.5 10 09:41 10.07.2019
5403 Fog 5 1020 100 2000 1.5 10 09:20 10.07.2019
5404 Fog 5 1020 100 1500 1 0 08:49 10.07.2019
5405 Fog 5 1020 100 1500 1 0 08:27 10.07.2019
5406 Mist 6 1021 100 2500 1 0 07:53 10.07.2019
5407 Mist 5 1021 100 2500 2.1 290 07:24 10.07.2019
5408 Mist 7 1021 100 2500 2.1 290 06:41 10.07.2019
5409 Mist 7 1021 100 3000 0.41 14.103 05:42 10.07.2019
5410 Mist 8 1021 93 3000 1.5 240 04:33 10.07.2019
5411 Clear 10 1020 81 6000 1 0 02:38 10.07.2019
5412 Haze 12 1020 58 4000 1.63 268.526 00:44 10.07.2019
5413 Haze 13 1019 71 6000 3.6 170 23:57 09.07.2019
5414 Haze 14 1020 47 4000 2.1 240 23:37 09.07.2019
5415 Haze 15 1019 41 4000 1.5 240 23:19 09.07.2019
5416 Haze 16 1019 41 4000 1.5 240 22:40 09.07.2019
5417 Haze 16 1019 41 4000 1.5 240 22:21 09.07.2019
5418 Haze 16 1018 54 4000 1 240 21:47 09.07.2019
5419 Haze 16 1018 54 4000 1 240 21:27 09.07.2019
5420 Haze 14 1018 62 3000 2.6 210 20:57 09.07.2019
5421 Haze 14 1018 62 3000 2.6 210 20:39 09.07.2019
5422 Haze 13 1018 81 3500 2.1 280 20:21 09.07.2019
5423 Haze 15 1018 66 3000 2.23 241.355 19:39 09.07.2019
5424 Haze 14 1019 71 3000 1.5 280 19:19 09.07.2019
5425 Haze 14 1019 71 3000 1.5 280 18:40 09.07.2019
5426 Haze 9 1020 81 3000 0.72 136.132 18:22 09.07.2019
5427 Haze 9 1020 81 3000 0.72 136.132 17:44 09.07.2019
5428 Haze 8 1020 87 2000 0.72 136.132 17:22 09.07.2019
5429 Haze 8 1020 87 2000 0.72 136.132 16:59 09.07.2019
5430 Haze 13 1020 87 2000 0.72 136.132 16:41 09.07.2019
5431 Haze 12 1019 87 3000 1.5 280 16:22 09.07.2019
5432 Haze 12 1019 87 3000 0.72 136.132 15:44 09.07.2019
5433 Haze 7 1019 87 3000 1.52 68.142 15:25 09.07.2019
5434 Haze 6 1019 86 3000 1.52 68.142 14:45 09.07.2019
5435 Haze 6 1019 86 3000 1.52 68.142 14:24 09.07.2019
5436 Mist 6 1018 93 4000 1.5 320 13:57 09.07.2019
5437 Mist 6 1018 93 4000 1.5 320 13:39 09.07.2019
5438 Mist 7 1018 93 4000 1 0 13:20 09.07.2019
5439 Mist 7 1018 93 4000 1 0 12:39 09.07.2019
5440 Mist 7 1019 93 4000 1 0 12:19 09.07.2019
5441 Mist 7 1019 93 4000 1 0 11:56 09.07.2019
5442 Mist 7 1019 93 4000 1 0 11:37 09.07.2019
5443 Mist 8 1019 93 4000 1.5 10 11:19 09.07.2019
5444 Mist 8 1019 93 4000 1.5 10 10:47 09.07.2019
5445 Mist 8 1019 93 4000 1.5 10 10:26 09.07.2019
5446 Mist 8 1020 93 5000 1.5 360 09:39 09.07.2019
5447 Mist 8 1020 100 5000 1 280 09:20 09.07.2019
5448 Mist 8 1020 100 5000 1 280 08:45 09.07.2019
5449 Mist 8 1020 100 5000 1 280 08:45 09.07.2019
5450 Mist 9 1020 93 5000 0.5 0 08:21 09.07.2019
5451 Clear 8 1018 70 10000 1.5 170 03:52 05.07.2019
5452 Clear 9 1018 70 10000 1.5 170 03:24 05.07.2019
5453 Clear 10 1018 61 10000 3.1 150 02:53 05.07.2019
5454 Clear 10 1018 61 10000 3.1 150 02:34 05.07.2019
5455 Clear 12 1018 58 10000 3.6 170 01:37 05.07.2019
5456 Clear 13 1019 47 8000 1 250 00:52 05.07.2019
5457 Clear 13 1019 47 8000 1 250 00:32 05.07.2019
5458 Clear 14 1018 41 6000 1.5 210 23:47 04.07.2019
5459 Haze 16 1018 33 4000 0.5 250 23:19 04.07.2019
5460 Haze 17 1018 33 4000 0.5 250 22:43 04.07.2019
5461 Haze 17 1018 33 4000 0.5 250 22:24 04.07.2019
5462 Haze 16 1018 36 4000 2.1 240 21:45 04.07.2019
5463 Haze 16 1018 36 4000 2.1 240 21:26 04.07.2019
5464 Haze 16 1018 36 4000 1 220 20:59 04.07.2019
5465 Haze 16 1018 36 4000 1 220 20:38 04.07.2019
5466 Clear 16 1017 47 8000 0.5 0 20:20 04.07.2019
5467 Clear 17 1019 45 6000 1.5 210 19:42 04.07.2019
5468 Clear 16 1018 54 7000 1 0 19:22 04.07.2019
5469 Clear 16 1019 45 6000 1.5 210 19:22 04.07.2019
5470 Clear 16 1018 54 7000 1 0 18:56 04.07.2019
5471 Clear 15 1019 45 10000 1 330 18:37 04.07.2019
5472 Clear 12 1019 57 6000 1 0 18:18 04.07.2019
5473 Haze 11 1020 53 10000 0.5 210 17:43 04.07.2019
5474 Mist 8 1020 70 10000 1.5 190 17:19 04.07.2019
5475 Mist 5 1019 86 10000 1.14 116.205 15:57 04.07.2019
5476 Mist 6 1019 86 10000 1.14 116.205 15:39 04.07.2019
5477 Mist 5 1019 73 3000 0.5 0 15:19 04.07.2019
5478 Mist 3 1019 73 10000 1.5 40 14:44 04.07.2019
5479 Mist 3 1019 73 10000 1.5 40 14:25 04.07.2019
5480 Mist 3 1018 73 5000 0.72 65.53 13:58 04.07.2019
5481 Mist 3 1018 73 5000 0.72 65.53 13:40 04.07.2019
5482 Mist 2 1018 74 5000 1.15 73.596 13:22 04.07.2019
5483 Haze 3 1017 93 5000 2.1 300 12:40 04.07.2019
5484 Haze 4 1017 93 5000 2.1 300 12:21 04.07.2019
5485 Clear 5 1018 80 7000 2.1 70 11:57 04.07.2019
5486 Clear 5 1018 80 7000 2.1 70 11:37 04.07.2019
5487 Mist 2 1018 71 5000 2.1 50 11:19 04.07.2019
5488 Mist 3 1018 71 5000 2.1 50 10:40 04.07.2019
5489 Clear 3 1018 93 7000 0.52 98.662 10:19 04.07.2019
5490 Clear 5 1018 93 7000 0.52 98.662 09:41 04.07.2019
5491 Clear 4 1018 80 8000 1.16 77.659 09:21 04.07.2019
5492 Clear 5 1018 80 8000 1.44 64.59 08:56 04.07.2019
5493 Clear 5 1018 80 8000 1.44 64.59 08:56 04.07.2019
5494 Clear 5 1018 80 8000 2.1 220 08:22 04.07.2019
5495 Clear 6 1018 80 8000 2.1 220 07:43 04.07.2019
5496 Clear 6 1018 80 8000 2.1 220 07:22 04.07.2019
5497 Clear 6 1018 75 10000 1.5 30 06:45 04.07.2019
5498 Clear 6 1018 75 10000 1.5 310 05:51 04.07.2019
5499 Clear 6 1018 75 10000 1.5 310 05:32 04.07.2019
5500 Clear 9 1017 53 10000 3.6 170 02:42 04.07.2019
5501 Clouds 11 1017 58 10000 3.1 150 01:41 04.07.2019
5502 Clouds 12 1018 71 8000 1.5 210 01:21 04.07.2019
5503 Clouds 15 1018 64 6000 1 220 23:56 03.07.2019
5504 Clouds 15 1018 64 6000 1 220 23:37 03.07.2019
5505 Haze 16 1018 64 4000 1.5 210 23:18 03.07.2019
5506 Haze 16 1018 64 4000 1.5 210 22:42 03.07.2019
5507 Haze 16 1018 64 4000 1.5 210 22:24 03.07.2019
5508 Haze 16 1017 36 4000 2.6 260 21:59 03.07.2019
5509 Haze 16 1017 36 4000 2.6 260 21:39 03.07.2019
5510 Haze 16 1018 41 5000 2.6 230 21:20 03.07.2019
5511 Haze 16 1018 41 5000 2.6 230 20:43 03.07.2019
5512 Haze 16 1018 41 5000 2.6 230 20:23 03.07.2019
5513 Clouds 16 1018 41 8000 1.5 320 19:50 03.07.2019
5514 Clouds 16 1018 41 8000 1.5 320 19:50 03.07.2019
5515 Clouds 16 1018 41 8000 1.5 320 19:32 03.07.2019
5516 Clouds 13 1020 43 8000 1 50 18:48 03.07.2019
5517 Clouds 13 1020 43 8000 1 50 18:29 03.07.2019
5518 Haze 10 1020 48 8000 1.5 250 17:57 03.07.2019
5519 Haze 10 1020 48 8000 1.5 250 17:37 03.07.2019
5520 Haze 8 1020 48 10000 0.5 150 17:18 03.07.2019
5521 Haze 8 1020 48 10000 0.5 150 16:43 03.07.2019
5522 Haze 6 1020 48 10000 1.35 168.415 16:21 03.07.2019
5523 Haze 5 1020 48 10000 1.35 168.415 15:49 03.07.2019
5524 Haze 6 1020 48 10000 1.35 168.415 15:31 03.07.2019
5525 Mist 3 1020 73 10000 1.5 70 14:56 03.07.2019
5526 Mist 3 1020 73 10000 1.5 70 14:37 03.07.2019
5527 Mist 2 1020 73 5000 0.89 165.744 14:18 03.07.2019
5528 Mist 3 1020 73 5000 0.71 134.372 13:35 03.07.2019
5529 Mist 3 1020 73 5000 0.71 134.372 12:55 03.07.2019
5530 Haze 3 1020 79 5000 0.83 18.786 12:22 03.07.2019
5531 Haze 3 1020 79 5000 0.83 18.786 11:59 03.07.2019
5532 Haze 3 1020 86 5000 3.1 50 11:40 03.07.2019
5533 Haze 2 1020 86 5000 1.5 20 11:21 03.07.2019
5534 Haze 3 1020 86 5000 1.5 20 10:42 03.07.2019
5535 Haze 3 1020 86 5000 1.5 20 10:23 03.07.2019
5536 Clear 3 1020 79 6000 1.5 250 09:43 03.07.2019
5537 Clear 4 1020 76 6000 1.5 250 09:22 03.07.2019
5538 Clear 4 1020 76 6000 1.5 250 08:57 03.07.2019
5539 Clear 5 1019 80 6000 3.1 120 08:38 03.07.2019
5540 Clear 5 1019 80 6000 3.1 120 08:18 03.07.2019
5541 Clear 4 1019 86 6000 1.5 360 07:37 03.07.2019
5542 Clear 4 1020 86 7000 1.5 10 06:56 03.07.2019
5543 Clear 5 1020 86 7000 1.5 10 05:57 03.07.2019
5544 Clear 6 1020 80 7000 2.1 20 05:27 03.07.2019
5545 Clear 8 1020 65 10000 2.6 180 03:58 03.07.2019
5546 Clouds 8 1019 70 8000 3.1 150 02:55 03.07.2019
5547 Clear 10 1019 70 10000 0.59 4.265 01:39 03.07.2019
5548 Clear 10 1019 70 10000 0.59 4.265 01:21 03.07.2019
5549 Clouds 10 1019 53 10000 0.59 4.265 00:40 03.07.2019
5550 Clouds 13 1019 33 8000 1.68 240.285 23:55 02.07.2019
5551 Clouds 13 1019 33 8000 1.68 240.285 23:37 02.07.2019
5552 Clouds 13 1019 33 8000 1.68 240.285 23:18 02.07.2019
5553 Clouds 16 1018 29 7000 1 300 22:41 02.07.2019
5554 Clouds 16 1018 29 7000 1 300 22:23 02.07.2019
5555 Clouds 16 1019 65 6000 2.1 220 21:58 02.07.2019
5556 Clouds 16 1019 65 6000 2.1 220 21:39 02.07.2019
5557 Clouds 17 1019 44 6000 2.1 220 21:20 02.07.2019
5558 Clouds 16 1019 45 6000 1.5 190 20:42 02.07.2019
5559 Clouds 14 1019 45 6000 1.5 190 20:24 02.07.2019
5560 Clouds 15 1020 43 8000 1.5 240 19:59 02.07.2019
5561 Clouds 14 1020 43 8000 1.5 240 19:40 02.07.2019
5562 Clouds 12 1020 45 9000 1.5 0 19:21 02.07.2019
5563 Clouds 12 1020 45 9000 1.5 0 18:45 02.07.2019
5564 Clouds 12 1020 57 9000 1.5 0 18:18 02.07.2019
5565 Clouds 11 1020 43 10000 1.5 240 17:41 02.07.2019
5566 Clouds 8 1021 57 10000 0.97 204.341 17:22 02.07.2019
5567 Clouds 9 1021 57 10000 0.97 204.341 16:49 02.07.2019
5568 Clouds 9 1021 57 10000 0.97 204.341 16:31 02.07.2019
5569 Mist 5 1021 80 10000 0.97 204.341 15:45 02.07.2019
5570 Mist 4 1021 86 5000 1 0 15:25 02.07.2019
5571 Mist 4 1021 86 5000 1 0 15:25 02.07.2019
5572 Mist 3 1020 80 10000 0.18 265.263 14:54 02.07.2019
5573 Mist 3 1020 80 10000 0.18 265.263 14:36 02.07.2019
5574 Mist 2 1019 73 4500 1.5 280 13:56 02.07.2019
5575 Mist 3 1019 70 4500 1.5 280 13:36 02.07.2019
5576 Mist 3 1019 70 4500 1.5 280 13:18 02.07.2019
5577 Haze 4 1019 93 5000 2.1 90 12:43 02.07.2019
5578 Haze 4 1019 93 5000 2.1 90 12:21 02.07.2019
5579 Mist 4 1018 86 5000 1 0 11:42 02.07.2019
5580 Mist 4 1018 86 5000 1 0 11:22 02.07.2019
5581 Mist 4 1019 86 5000 1 0 10:48 02.07.2019
5582 Mist 4 1019 86 5000 1 0 10:26 02.07.2019
5583 Mist 4 1019 86 5000 0.13 72.962 09:49 02.07.2019
5584 Mist 3 1019 93 5000 2.1 260 09:22 02.07.2019
5585 Mist 4 1019 93 5000 2.1 260 08:52 02.07.2019
5586 Mist 4 1019 93 5000 2.1 260 08:34 02.07.2019
5587 Clear 6 1020 75 7000 1.5 150 07:55 02.07.2019
5588 Clear 6 1020 75 7000 1.5 150 07:21 02.07.2019
5589 Clear 5 1019 86 7000 3.6 30 06:54 02.07.2019
5590 Clear 4 1019 86 7000 3.6 30 06:35 02.07.2019
5591 Clear 7 1019 75 10000 2.1 190 04:59 02.07.2019
5592 Clear 9 1018 70 10000 0.79 246.792 02:28 02.07.2019
5593 Clear 12 1020 37 10000 1.34 243.397 00:23 02.07.2019
5594 Clear 16 1020 25 10000 1 230 23:24 01.07.2019
5595 Clear 16 1020 23 10000 1.5 240 22:48 01.07.2019
5596 Clear 16 1020 23 10000 1.5 240 22:28 01.07.2019
5597 Clear 16 1020 23 10000 2.1 240 21:49 01.07.2019
5598 Clear 17 1020 23 10000 2.1 240 21:28 01.07.2019
5599 Clear 16 1021 26 10000 1.5 250 20:57 01.07.2019
5600 Clear 16 1021 26 10000 1.5 250 20:39 01.07.2019
5601 Clear 15 1020 38 10000 1.73 192.848 20:19 01.07.2019
5602 Clear 14 1021 35 10000 1.5 260 19:42 01.07.2019
5603 Clear 14 1021 35 10000 1.5 260 19:24 01.07.2019
5604 Clear 12 1022 57 10000 1.73 192.848 18:55 01.07.2019
5605 Clear 12 1022 57 10000 1.73 192.848 18:37 01.07.2019
5606 Clear 11 1021 61 10000 1 0 18:18 01.07.2019
5607 Clear 10 1022 66 10000 1 230 17:42 01.07.2019
5608 Clear 10 1022 66 10000 1 230 17:22 01.07.2019
5609 Clear 10 1022 80 10000 1.79 84.408 16:47 01.07.2019
5610 Clear 10 1022 80 10000 1.79 84.408 16:26 01.07.2019
5611 Mist 9 1021 86 10000 1 360 15:55 01.07.2019
5612 Mist 8 1021 86 10000 1 360 15:36 01.07.2019
5613 Fog -1 1022 49 10000 1 80 15:18 01.07.2019
5614 Fog 2 1022 49 10000 1 80 14:42 01.07.2019
5615 Fog 1 1022 100 2000 2.6 20 14:20 01.07.2019
5616 Fog 1 1022 100 2000 2.6 20 13:42 01.07.2019
5617 Fog 1 1022 100 2000 2.6 20 13:22 01.07.2019
5618 Fog 1 1022 100 300 1 0 12:51 01.07.2019
5619 Fog 2 1021 100 2000 1.69 93.904 12:32 01.07.2019
5620 Fog 1 1021 56 2000 1 0 11:59 01.07.2019
5621 Fog 2 1021 56 2000 1 0 11:39 01.07.2019
5622 Fog 2 1021 56 2000 1 0 11:19 01.07.2019
5623 Fog 2 1021 56 2000 1.68 82.457 10:47 01.07.2019
5624 Fog 2 1021 56 2000 1.68 82.457 10:23 01.07.2019
5625 Fog 3 1021 100 2000 1 0 09:45 01.07.2019
5626 Fog 3 1021 100 2000 1 0 09:27 01.07.2019
5627 Fog 2 1022 100 2000 0.5 0 08:59 01.07.2019
5628 Fog 2 1022 100 2000 0.5 0 08:37 01.07.2019
5629 Fog 3 1022 100 2000 1.5 30 07:39 01.07.2019
5630 Fog 4 1022 100 3000 1.5 60 06:52 01.07.2019
5631 Fog 5 1022 100 3000 1 0 05:39 01.07.2019
5632 Clear 7 1022 87 8000 2.1 340 01:28 01.07.2019
5633 Clear 9 1022 70 10000 0.62 154.433 00:46 01.07.2019
5634 Clear 10 1022 57 10000 1.5 0 00:24 01.07.2019
5635 Clear 11 1022 57 10000 1.5 0 23:40 30.06.2019
5636 Clear 11 1021 57 10000 1 250 23:20 30.06.2019
5637 Clear 12 1021 57 10000 1 250 22:43 30.06.2019
5638 Clear 11 1021 61 9000 2.1 240 22:20 30.06.2019
5639 Clear 11 1021 61 9000 2.1 240 21:42 30.06.2019
5640 Clear 11 1021 61 9000 2.1 240 21:20 30.06.2019
5641 Clear 11 1020 61 9000 1.6 217.156 20:55 30.06.2019
5642 Clear 11 1020 61 9000 1.45 205.507 20:36 30.06.2019
5643 Clouds 10 1020 81 6000 1.5 110 20:18 30.06.2019
5644 Clear 9 1021 66 10000 1.45 205.507 19:43 30.06.2019
5645 Clear 9 1021 66 10000 1.45 205.507 19:24 30.06.2019
5646 Clouds 9 1021 70 8000 2.1 280 18:26 30.06.2019
5647 Haze 7 1021 87 6000 1.5 360 17:59 30.06.2019
5648 Haze 7 1021 87 6000 1.5 360 17:38 30.06.2019
5649 Mist 6 1021 100 4000 2.1 10 17:18 30.06.2019
5650 Mist 6 1021 100 2000 1.5 350 16:46 30.06.2019
5651 Mist 6 1021 100 2000 1.5 350 16:26 30.06.2019
5652 Mist 5 1021 59 1000 2.1 60 15:38 30.06.2019
5653 Mist 4 1021 86 2000 0.66 118.715 15:19 30.06.2019
5654 Mist 4 1021 86 2000 0.66 118.715 14:53 30.06.2019
5655 Mist 3 1021 86 2000 0.66 118.715 14:35 30.06.2019
5656 Fog 4 1020 100 600 0.66 118.715 13:49 30.06.2019
5657 Fog 4 1020 100 600 0.87 105.991 13:29 30.06.2019
5658 Fog 4 1019 100 500 1.5 10 12:53 30.06.2019
5659 Fog 4 1019 100 500 1.5 10 12:31 30.06.2019
5660 Fog 4 1019 100 500 0.66 94.974 11:59 30.06.2019
5661 Fog 4 1019 100 500 0.66 94.974 11:59 30.06.2019
5662 Fog 5 1019 100 500 0.66 94.974 11:41 30.06.2019
5663 Fog 5 1019 100 500 0.66 94.974 11:20 30.06.2019
5664 Fog 5 1020 100 500 0.66 94.974 10:54 30.06.2019
5665 Fog 5 1020 100 500 0.66 94.974 10:36 30.06.2019
5666 Fog 5 1020 100 500 1 170 10:18 30.06.2019
5667 Fog 5 1020 100 500 1 170 09:42 30.06.2019
5668 Fog 5 1021 100 400 1.5 130 09:20 30.06.2019
5669 Fog 5 1021 100 400 1.5 130 08:40 30.06.2019
5670 Fog 6 1021 100 400 1.5 130 08:21 30.06.2019
5671 Fog 5 1021 100 400 1.5 290 07:50 30.06.2019
5672 Fog 6 1021 100 400 1.5 290 07:24 30.06.2019
5673 Fog 6 1022 100 2500 1 0 06:37 30.06.2019
5674 Clouds 8 1023 93 10000 0.51 37.718 03:33 30.06.2019
5675 Clouds 8 1022 93 10000 3.6 150 01:58 30.06.2019
5676 Rain 9 1023 81 7000 2.1 180 00:48 30.06.2019
5677 Rain 10 1023 81 7000 2.1 180 00:24 30.06.2019
5678 Clouds 10 1022 71 7000 1.5 240 23:53 29.06.2019
5679 Clouds 11 1022 71 7000 1.5 240 23:23 29.06.2019
5680 Rain 11 1022 76 7000 1.5 190 22:48 29.06.2019
5681 Rain 11 1022 76 7000 1.5 190 22:25 29.06.2019
5682 Clouds 12 1021 66 7000 1.5 270 21:56 29.06.2019
5683 Clouds 11 1021 66 7000 1.5 270 21:25 29.06.2019
5684 Clouds 11 1021 66 7000 1.5 270 21:25 29.06.2019
5685 Rain 11 1021 71 10000 3.6 50 20:57 29.06.2019
5686 Rain 11 1021 71 10000 3.6 50 20:36 29.06.2019
5687 Rain 12 1021 62 7000 3.1 280 20:18 29.06.2019
5688 Rain 11 1021 62 7000 3.1 280 19:42 29.06.2019
5689 Rain 11 1021 76 8000 2.1 10 19:21 29.06.2019
5690 Rain 11 1021 76 8000 2.1 10 18:47 29.06.2019
5691 Rain 10 1021 76 8000 2.1 10 18:24 29.06.2019
5692 Clouds 10 1020 76 10000 2.6 60 17:39 29.06.2019
5693 Rain 10 1020 66 9000 3.1 310 17:20 29.06.2019
5694 Rain 10 1020 66 9000 3.1 310 16:44 29.06.2019
5695 Rain 10 1020 66 9000 3.1 310 16:25 29.06.2019
5696 Rain 8 1019 75 10000 3.1 20 15:33 29.06.2019
5697 Rain 7 1018 86 10000 1.83 81.905 14:59 29.06.2019
5698 Rain 7 1018 86 10000 1.83 81.905 14:40 29.06.2019
5699 Clouds 8 1017 87 10000 4.1 20 14:21 29.06.2019
5700 Clouds 8 1017 87 10000 4.1 20 13:43 29.06.2019
5701 Clouds 8 1017 87 10000 4.1 20 13:24 29.06.2019
5702 Rain 7 1017 93 7000 4.1 20 12:42 29.06.2019
5703 Rain 7 1017 93 7000 4.1 20 12:23 29.06.2019
5704 Rain 7 1016 93 10000 4.6 10 11:48 29.06.2019
5705 Rain 7 1016 93 10000 4.6 10 11:28 29.06.2019
5706 Rain 7 1016 100 5000 3.1 60 10:52 29.06.2019
5707 Rain 7 1016 100 5000 3.1 60 10:26 29.06.2019
5708 Rain 7 1016 100 4000 3.1 60 09:58 29.06.2019
5709 Rain 7 1016 100 4000 3.1 60 09:22 29.06.2019
5710 Rain 6 1016 100 6000 3.6 290 08:37 29.06.2019
5711 Clouds 8 1015 81 10000 4.6 130 07:46 29.06.2019
5712 Clouds 7 1013 87 8000 3.1 130 07:18 29.06.2019
5713 Clouds 7 1013 87 8000 3.1 130 06:41 29.06.2019
5714 Clouds 7 1013 87 8000 3.1 130 06:20 29.06.2019
5715 Clouds 9 1012 81 8000 0.5 0 02:26 29.06.2019
5716 Clouds 9 1011 40 10000 1 150 00:57 29.06.2019
5717 Haze 9 1011 76 10000 1.5 0 23:58 28.06.2019
5718 Haze 9 1012 66 4000 4.1 70 23:23 28.06.2019
5719 Haze 9 1012 66 3000 2.1 190 22:52 28.06.2019
5720 Haze 9 1012 66 3000 2.1 190 22:27 28.06.2019
5721 Haze 10 1012 66 4000 2.1 130 21:46 28.06.2019
5722 Haze 10 1011 66 4000 2.1 330 21:20 28.06.2019
5723 Haze 10 1011 66 4000 2.1 330 20:44 28.06.2019
5724 Clouds 10 1011 57 10000 1 170 20:21 28.06.2019
5725 Clouds 11 1011 57 10000 1 170 19:45 28.06.2019
5726 Clouds 11 1011 57 10000 1 170 19:27 28.06.2019
5727 Clouds 10 1012 61 10000 2.1 30 18:44 28.06.2019
5728 Clouds 10 1012 61 10000 1.5 30 18:22 28.06.2019
5729 Clouds 10 1012 61 10000 1.5 30 17:56 28.06.2019
5730 Clouds 10 1012 61 10000 1.5 30 17:56 28.06.2019
5731 Clouds 10 1012 61 10000 1.5 30 17:29 28.06.2019
5732 Clouds 9 1013 65 10000 1 130 16:49 28.06.2019
5733 Clouds 8 1013 65 10000 1 130 16:24 28.06.2019
5734 Clouds 7 1012 75 10000 0.5 0 15:48 28.06.2019
5735 Clouds 7 1012 75 10000 0.5 0 15:22 28.06.2019
5736 Clouds 7 1012 75 10000 1.13 55.86 14:43 28.06.2019
5737 Clouds 7 1012 75 10000 1.13 55.86 14:43 28.06.2019
5738 Clouds 7 1012 75 10000 1.13 55.86 14:22 28.06.2019
5739 Haze 6 1012 86 5000 2.6 30 13:51 28.06.2019
5740 Haze 6 1012 86 5000 2.6 30 13:30 28.06.2019
5741 Haze 6 1012 81 5000 2.1 0 12:58 28.06.2019
5742 Haze 7 1012 81 5000 2.1 0 12:40 28.06.2019
5743 Haze 7 1011 81 5000 1.5 20 11:54 28.06.2019
5744 Clouds 6 1012 86 6000 0.94 66.025 11:22 28.06.2019
5745 Clouds 6 1012 86 6000 0.94 66.025 10:45 28.06.2019
5746 Clouds 6 1012 86 6000 0.94 66.025 10:21 28.06.2019
5747 Clouds 6 1012 81 6000 0.94 66.025 09:48 28.06.2019
5748 Clouds 6 1012 81 6000 0.94 66.025 09:29 28.06.2019
5749 Clouds 6 1012 81 6000 1 0 08:47 28.06.2019
5750 Clouds 7 1012 81 6000 1 0 08:26 28.06.2019
5751 Clouds 7 1012 75 8000 0.46 7.545 07:46 28.06.2019
5752 Clouds 7 1012 75 8000 0.46 7.545 06:58 28.06.2019
5753 Clouds 7 1011 75 8000 0.74 314.891 05:55 28.06.2019
5754 Clouds 9 1011 57 8000 4.1 160 01:23 28.06.2019
5755 Clouds 10 1011 70 7000 1.28 263.892 00:39 28.06.2019
5756 Clouds 10 1011 66 7000 1.15 208.876 23:49 27.06.2019
5757 Clouds 10 1011 66 7000 1.15 208.876 23:26 27.06.2019
5758 Clouds 12 1011 61 7000 1.15 208.876 22:56 27.06.2019
5759 Clouds 12 1011 61 7000 1.15 208.876 22:37 27.06.2019
5760 Clouds 12 1012 57 7000 1 360 22:18 27.06.2019
5761 Clouds 12 1012 57 7000 1 360 22:18 27.06.2019
5762 Clouds 12 1012 57 7000 1 360 21:48 27.06.2019
5763 Clouds 12 1012 57 7000 1 360 21:29 27.06.2019
5764 Clouds 11 1012 57 7000 0.53 159.7 20:55 27.06.2019
5765 Clouds 11 1012 57 7000 0.53 159.7 20:37 27.06.2019
5766 Clouds 11 1013 57 6000 0.53 159.7 20:19 27.06.2019
5767 Clouds 11 1013 57 6000 0.53 159.7 19:44 27.06.2019
5768 Clouds 11 1013 57 6000 0.53 159.7 19:24 27.06.2019
5769 Clouds 10 1014 65 6000 0.53 159.7 18:42 27.06.2019
5770 Clouds 9 1014 75 6000 0.49 31.731 18:19 27.06.2019
5771 Clouds 9 1014 75 6000 0.49 31.731 17:43 27.06.2019
5772 Clouds 9 1014 75 6000 0.49 31.731 17:22 27.06.2019
5773 Clouds 9 1014 75 6000 0.49 31.731 16:40 27.06.2019
5774 Clouds 9 1014 75 6000 0.49 31.731 16:19 27.06.2019
5775 Haze 9 1013 81 6000 0.49 31.731 15:55 27.06.2019
5776 Haze 9 1013 81 6000 0.49 31.731 15:35 27.06.2019
5777 Clouds 7 1013 81 7000 1.46 265.788 14:58 27.06.2019
5778 Clouds 8 1013 81 7000 1.46 265.788 14:38 27.06.2019
5779 Clouds 7 1013 81 7000 1.46 265.788 14:18 27.06.2019
5780 Clouds 8 1012 75 7000 1.46 265.788 13:42 27.06.2019
5781 Clouds 9 1012 75 7000 1.13 275.24 13:24 27.06.2019
5782 Clouds 8 1012 86 7000 1 330 12:48 27.06.2019
5783 Clouds 8 1012 86 7000 1 330 12:24 27.06.2019
5784 Clouds 8 1012 86 7000 2.6 40 11:47 27.06.2019
5785 Clouds 8 1012 86 7000 2.6 40 11:23 27.06.2019
5786 Clouds 8 1012 86 7000 2.6 40 11:23 27.06.2019
5787 Clouds 8 1013 81 8000 1 0 10:57 27.06.2019
5788 Clouds 8 1013 81 8000 1 0 10:37 27.06.2019
5789 Clouds 8 1013 81 8000 1 0 10:19 27.06.2019
5790 Clouds 9 1013 70 8000 1 0 09:38 27.06.2019
5791 Clouds 9 1013 70 8000 1 0 09:20 27.06.2019
5792 Clouds 9 1013 75 8000 1.5 250 08:46 27.06.2019
5793 Clouds 9 1013 75 8000 1.5 250 08:46 27.06.2019
5794 Clouds 8 1013 75 8000 1.5 250 08:46 27.06.2019
5795 Clouds 9 1013 75 8000 1.5 250 08:26 27.06.2019
5796 Clouds 8 1013 81 8000 1.5 290 07:40 27.06.2019
5797 Clouds 9 1014 70 10000 0.79 29.012 06:56 27.06.2019
5798 Clouds 9 1014 70 10000 0.79 29.012 06:30 27.06.2019
5799 Clouds 8 1014 65 10000 3.1 150 03:50 27.06.2019
5800 Clear 9 1015 57 10000 2.1 170 02:41 27.06.2019
5801 Clear 10 1015 53 10000 1.5 160 01:19 27.06.2019
5802 Clouds 10 1016 53 6000 0.42 321.858 00:48 27.06.2019
5803 Clouds 10 1016 53 6000 1.48 238.06 00:26 27.06.2019
5804 Clouds 11 1016 58 7000 1 260 23:48 26.06.2019
5805 Clouds 11 1016 58 7000 1 260 23:22 26.06.2019
5806 Clouds 11 1016 58 7000 1 260 23:22 26.06.2019
5807 Clouds 12 1016 58 8000 1.5 210 22:57 26.06.2019
5808 Clouds 12 1016 58 8000 1.5 210 22:38 26.06.2019
5809 Clouds 12 1016 58 8000 0.5 180 22:18 26.06.2019
5810 Clouds 12 1016 58 8000 0.5 180 21:41 26.06.2019
5811 Clouds 12 1016 50 8000 0.5 180 21:20 26.06.2019
5812 Clouds 12 1017 51 10000 1.5 210 20:51 26.06.2019
5813 Clouds 12 1017 51 10000 1.5 210 20:31 26.06.2019
5814 Clouds 12 1018 50 10000 1.95 242.278 20:00 26.06.2019
5815 Clouds 12 1018 50 10000 1.95 242.278 19:40 26.06.2019
5816 Clouds 10 1019 57 10000 1.95 242.278 19:22 26.06.2019
5817 Clouds 10 1019 57 10000 1.95 242.278 18:45 26.06.2019
5818 Clouds 9 1019 57 10000 0.24 135.341 18:22 26.06.2019
5819 Clouds 9 1019 81 7000 0.5 0 17:57 26.06.2019
5820 Clouds 7 1019 81 7000 0.5 0 17:27 26.06.2019
5821 Haze 8 1020 75 10000 1.5 270 16:53 26.06.2019
5822 Haze 8 1020 75 10000 1.5 270 16:30 26.06.2019
5823 Haze 7 1020 75 10000 1 30 15:58 26.06.2019
5824 Haze 7 1020 75 10000 1 30 15:30 26.06.2019
5825 Mist 6 1020 75 10000 1 270 14:58 26.06.2019
5826 Mist 5 1020 75 10000 1 270 14:37 26.06.2019
5827 Mist 5 1020 75 10000 1 270 14:37 26.06.2019
5828 Clouds 6 1020 80 6000 2.1 310 14:19 26.06.2019
5829 Clouds 6 1020 80 6000 2.1 310 13:41 26.06.2019
5830 Mist 6 1020 86 5000 0.5 0 13:19 26.06.2019
5831 Mist 6 1020 86 5000 0.5 0 12:41 26.06.2019
5832 Mist 6 1020 86 5000 0.5 0 12:41 26.06.2019
5833 Mist 6 1020 86 5000 0.5 0 12:21 26.06.2019
5834 Haze 6 1019 80 5000 1 0 11:42 26.06.2019
5835 Mist 5 1020 93 5000 1.5 20 11:19 26.06.2019
5836 Mist 5 1020 93 5000 1.5 20 10:41 26.06.2019
5837 Clouds 5 1020 93 6000 2.1 280 10:21 26.06.2019
5838 Clouds 5 1020 93 6000 2.1 280 09:37 26.06.2019
5839 Clouds 6 1020 80 6000 0.5 0 09:18 26.06.2019
5840 Clouds 6 1020 80 6000 0.5 0 08:39 26.06.2019
5841 Clouds 6 1020 86 6000 1 190 08:19 26.06.2019
5842 Clouds 6 1020 86 6000 1 190 07:43 26.06.2019
5843 Clouds 6 1021 65 6000 1 20 06:34 26.06.2019
5844 Clear 5 1021 62 10000 0.5 0 05:55 26.06.2019
5845 Clear 9 1021 49 10000 0.5 47.362 00:57 26.06.2019
5846 Clear 9 1021 45 10000 1.01 231.261 00:19 26.06.2019
5847 Clear 10 1021 45 10000 1.01 231.261 23:41 25.06.2019
5848 Clear 10 1021 45 10000 1.01 231.261 23:23 25.06.2019
5849 Clear 11 1021 46 10000 1.5 210 22:55 25.06.2019
5850 Clear 11 1021 46 10000 1.5 210 22:37 25.06.2019
5851 Clear 11 1021 56 10000 1.5 240 22:18 25.06.2019
5852 Clear 11 1021 56 10000 1.5 240 21:37 25.06.2019
5853 Clear 11 1021 32 10000 1.5 240 21:19 25.06.2019
5854 Clear 10 1022 52 10000 1.5 240 20:38 25.06.2019
5855 Clear 10 1022 52 10000 1.5 240 20:38 25.06.2019
5856 Clear 10 1024 56 10000 1.5 100 20:19 25.06.2019
5857 Clear 10 1024 56 10000 1.5 100 19:45 25.06.2019
5858 Clear 10 1024 56 10000 1.5 100 19:22 25.06.2019
5859 Clear 7 1025 60 10000 0.54 172.927 18:43 25.06.2019
5860 Clear 7 1025 60 10000 0.54 172.927 18:43 25.06.2019
5861 Clear 7 1025 60 10000 0.69 126.837 18:25 25.06.2019
5862 -273 0 0 0 0 0 17:52 25.06.2019
5863 -273 0 0 0 0 0 17:52 25.06.2019
5864 -273 0 0 0 0 0 17:52 25.06.2019
5865 -273 0 0 0 0 0 17:29 25.06.2019
5866 -273 0 0 0 0 0 17:29 25.06.2019
5867 -273 0 0 0 0 0 17:29 25.06.2019
5868 -273 0 0 0 0 0 17:29 25.06.2019
5869 Mist 7 1025 93 5000 1 0 16:57 25.06.2019
5870 Mist 6 1025 80 10000 0.69 126.837 16:38 25.06.2019
5871 Mist 5 1025 80 10000 0.69 126.837 16:19 25.06.2019
5872 Mist 2 1026 86 10000 0.69 126.837 15:40 25.06.2019
5873 Mist 2 1026 86 10000 1.64 82.758 15:21 25.06.2019
5874 Fog 1 1026 86 10000 1.64 82.758 14:53 25.06.2019
5875 -273 0 0 0 0 0 14:53 25.06.2019
5876 Fog 1 1026 86 10000 1.64 82.758 14:33 25.06.2019
5877 Fog 0 1025 100 1200 1 0 13:45 25.06.2019
5878 Fog 1 1025 100 1200 1 0 13:26 25.06.2019
5879 Mist 0 1025 100 1200 1.52 86.238 12:43 25.06.2019
5880 Mist 1 1025 100 1200 0.37 152.542 12:25 25.06.2019
5881 Fog 0 1025 100 600 0.5 0 11:48 25.06.2019
5882 Fog 1 1025 100 600 0.5 0 11:26 25.06.2019
5883 Fog 1 1025 85 2000 0.5 0 10:59 25.06.2019
5884 Fog 2 1025 85 2000 0.5 0 10:39 25.06.2019
5885 Clear 2 1025 100 8000 0.37 152.542 10:21 25.06.2019
5886 Clear 2 1025 100 8000 0.37 152.542 09:40 25.06.2019
5887 Clear 2 1025 100 8000 0.72 125.195 09:22 25.06.2019
5888 Clear 2 1025 100 8000 0.5 220 09:00 25.06.2019
5889 Clear 2 1025 100 8000 0.5 220 08:32 25.06.2019
5890 Clear 3 1025 93 8000 0.17 61.928 07:58 25.06.2019
5891 Clear 3 1025 93 8000 0.17 61.928 07:36 25.06.2019
5892 Clear 3 1025 93 10000 1.5 60 06:52 25.06.2019
5893 Clear 4 1025 93 10000 1.5 60 06:25 25.06.2019
5894 Clouds 5 1024 86 10000 3.6 160 02:45 25.06.2019
5895 Clouds 5 1022 86 10000 5.7 140 01:38 25.06.2019
5896 Rain 5 1021 80 3000 2.6 130 00:35 25.06.2019
5897 Rain 6 1020 81 3000 2.6 210 23:53 24.06.2019
5898 Rain 7 1020 81 3000 2.6 210 23:33 24.06.2019
5899 Rain 8 1018 81 4000 1.5 240 22:59 24.06.2019
5900 Rain 8 1018 81 4000 1.5 240 22:38 24.06.2019
5901 Clouds 9 1018 75 6000 2.1 210 22:18 24.06.2019
5902 Clouds 9 1018 75 6000 2.1 210 21:38 24.06.2019
5903 Clouds 9 1018 70 7000 1.5 300 21:18 24.06.2019
5904 Clouds 9 1018 70 7000 1.5 300 20:54 24.06.2019
5905 Clouds 9 1018 70 7000 1.5 300 20:36 24.06.2019
5906 Clouds 10 1018 87 8000 2.1 30 20:18 24.06.2019
5907 Clouds 10 1018 87 8000 2.1 30 19:41 24.06.2019
5908 Clouds 9 1018 87 8000 2.1 30 19:21 24.06.2019
5909 Clouds 9 1019 87 6000 1.5 220 18:43 24.06.2019
5910 Haze 9 1018 81 4000 3.6 210 18:24 24.06.2019
5911 Haze 9 1018 81 4000 3.6 210 17:42 24.06.2019
5912 Haze 9 1018 81 4000 3.6 210 17:24 24.06.2019
5913 Clouds 9 1017 75 7000 2.1 180 16:45 24.06.2019
5914 Rain 9 1017 70 4000 2.1 180 16:20 24.06.2019
5915 Rain 10 1017 70 4000 2.1 180 15:46 24.06.2019
5916 Rain 10 1017 70 4000 2.1 180 15:26 24.06.2019
5917 Haze 10 1015 75 4000 2.1 320 14:39 24.06.2019
5918 Haze 10 1015 75 4000 2.1 320 14:39 24.06.2019
5919 Haze 10 1015 75 4000 2.1 320 14:21 24.06.2019
5920 Clouds 11 1014 66 8000 2.1 220 13:44 24.06.2019
5921 Clouds 10 1014 66 8000 2.1 220 13:23 24.06.2019
5922 Clouds 10 1014 70 8000 3.1 230 12:42 24.06.2019
5923 Clouds 11 1014 66 8000 2.1 60 12:21 24.06.2019
5924 Clouds 11 1014 66 8000 2.1 60 11:45 24.06.2019
5925 Clouds 11 1014 66 8000 2.1 60 11:27 24.06.2019
5926 Clouds 10 1015 66 8000 2.6 70 10:53 24.06.2019
5927 Clouds 10 1015 66 8000 2.6 70 10:53 24.06.2019
5928 Clouds 10 1015 66 8000 2.6 70 10:34 24.06.2019
5929 Clouds 9 1015 70 8000 2.6 260 09:59 24.06.2019
5930 Clouds 9 1015 70 8000 2.6 260 09:41 24.06.2019
5931 Clouds 9 1015 70 8000 2.6 260 09:19 24.06.2019
5932 Clouds 10 1015 61 8000 2.6 140 08:41 24.06.2019
5933 Clouds 11 1015 57 8000 3.6 150 07:59 24.06.2019
5934 Clouds 11 1015 57 8000 3.6 150 07:40 24.06.2019
5935 Clouds 11 1015 57 8000 3.6 150 07:21 24.06.2019
5936 Clouds 11 1015 62 8000 3.1 150 06:23 24.06.2019
5937 Clouds 11 1015 66 6000 4.6 150 05:40 24.06.2019
5938 Clouds 11 1015 66 6000 3.1 60 04:43 24.06.2019
5939 Clouds 13 1016 71 7000 4.1 360 03:48 24.06.2019
5940 Clouds 12 1017 62 8000 1 0 02:47 24.06.2019
5941 Clouds 12 1017 62 8000 1.5 90 01:55 24.06.2019
5942 Haze 12 1017 62 8000 1.5 90 01:33 24.06.2019
5943 Haze 12 1018 66 5000 0.9 49.054 00:50 24.06.2019
5944 Haze 13 1018 54 5000 0.82 237.067 00:20 24.06.2019
5945 Haze 14 1018 54 5000 0.82 237.067 23:48 23.06.2019
5946 Haze 14 1018 54 5000 0.82 237.067 23:28 23.06.2019
5947 Haze 14 1018 54 5000 0.82 237.067 23:28 23.06.2019
5948 Haze 15 1018 44 5000 1 250 22:58 23.06.2019
5949 Haze 16 1018 44 5000 1 250 22:39 23.06.2019
5950 Haze 16 1018 44 5000 0.82 237.067 22:19 23.06.2019
5951 Haze 16 1018 44 5000 0.82 237.067 21:41 23.06.2019
5952 Haze 16 1018 44 5000 1.18 203.529 21:22 23.06.2019
5953 Haze 16 1019 44 5000 1.18 203.529 20:51 23.06.2019
5954 Haze 16 1019 44 5000 1.43 208.79 20:29 23.06.2019
5955 Haze 16 1019 44 5000 1.5 210 19:54 23.06.2019
5956 Haze 16 1019 44 5000 1.5 210 19:36 23.06.2019
5957 Haze 15 1019 54 5000 0.5 0 19:18 23.06.2019
5958 Haze 14 1020 62 5000 1.43 208.79 18:41 23.06.2019
5959 Haze 12 1020 71 6000 1.3 73.934 18:19 23.06.2019
5960 Haze 13 1020 71 6000 1.3 73.934 17:41 23.06.2019
5961 Haze 13 1020 71 6000 1.3 73.934 17:21 23.06.2019
5962 Haze 12 1020 70 6000 1.3 73.934 16:44 23.06.2019
5963 Haze 12 1020 70 6000 1.3 73.934 16:44 23.06.2019
5964 Haze 11 1020 70 6000 1.3 73.934 16:24 23.06.2019
5965 Haze 10 1020 75 7000 1 340 15:43 23.06.2019
5966 Haze 9 1020 75 7000 1 340 15:24 23.06.2019
5967 Haze 8 1021 75 7000 1 30 14:59 23.06.2019
5968 Haze 8 1021 75 7000 1 30 14:37 23.06.2019
5969 Haze 8 1021 81 5000 1 0 14:19 23.06.2019
5970 Haze 8 1021 81 5000 1 0 13:42 23.06.2019
5971 Haze 9 1021 81 5000 1 0 13:20 23.06.2019
5972 Haze 8 1021 87 5000 2.1 280 12:56 23.06.2019
5973 Haze 8 1021 87 5000 2.1 280 12:37 23.06.2019
5974 Haze 9 1019 81 5000 2.1 120 12:18 23.06.2019
5975 Haze 9 1019 81 5000 2.1 120 11:44 23.06.2019
5976 Haze 9 1019 81 5000 2.1 120 11:24 23.06.2019
5977 Haze 9 1019 81 5000 0.5 0 10:47 23.06.2019
5978 Haze 9 1019 81 5000 0.5 0 10:21 23.06.2019
5979 Haze 9 1018 81 5000 1.24 280.875 09:57 23.06.2019
5980 Haze 9 1018 81 5000 0.75 228.392 09:22 23.06.2019
5981 Haze 9 1019 81 5000 0.75 228.392 08:46 23.06.2019
5982 Haze 10 1019 81 5000 0.68 230.592 08:27 23.06.2019
5983 Haze 10 1019 81 5000 0.68 230.592 07:55 23.06.2019
5984 Haze 10 1019 81 5000 0.68 230.592 07:25 23.06.2019
5985 Haze 11 1019 81 5000 0.68 230.592 06:59 23.06.2019
5986 Haze 12 1019 71 5000 0.68 230.592 06:40 23.06.2019
5987 Clouds 11 1019 71 7000 0.73 61.62 04:53 23.06.2019
5988 Clouds 13 1018 62 7000 1.08 256.581 02:32 23.06.2019
5989 Clouds 14 1017 54 8000 1.08 256.581 01:39 23.06.2019
5990 Haze 15 1018 41 3000 1.07 254.416 00:47 23.06.2019
5991 Haze 15 1018 41 3000 0.39 244.434 00:26 23.06.2019
5992 Haze 18 1018 60 4000 0.39 244.434 23:42 22.06.2019
5993 Haze 18 1018 60 4000 0.39 244.434 23:24 22.06.2019
5994 Haze 18 1017 60 3000 1.5 250 22:46 22.06.2019
5995 Haze 20 1017 60 3000 1.5 250 22:24 22.06.2019
5996 Haze 19 1017 32 4000 1 260 21:42 22.06.2019
5997 Haze 20 1017 32 4000 1 260 21:20 22.06.2019
5998 Haze 19 1017 33 4000 1.5 270 20:53 22.06.2019
5999 Haze 19 1017 33 4000 1.5 270 20:27 22.06.2019
6000 Haze 19 1018 33 8000 1.5 210 19:58 22.06.2019
6001 Haze 19 1018 33 8000 1.5 210 19:39 22.06.2019
6002 Haze 17 1018 41 10000 1 220 19:19 22.06.2019
6003 Haze 17 1018 41 10000 1 220 18:41 22.06.2019
6004 Haze 13 1019 44 10000 0.5 0 18:19 22.06.2019
6005 Haze 13 1019 44 10000 0.5 0 17:43 22.06.2019
6006 Haze 13 1019 44 10000 0.5 0 17:25 22.06.2019
6007 Haze 13 1019 53 10000 0.5 0 16:40 22.06.2019
6008 Haze 13 1019 53 10000 0.5 0 16:22 22.06.2019
6009 Mist 11 1019 45 10000 0.86 109.259 15:42 22.06.2019
6010 Mist 8 1019 64 10000 1.16 83.035 15:24 22.06.2019
6011 Mist 8 1019 65 10000 1.5 70 14:51 22.06.2019
6012 Mist 8 1019 65 10000 1.5 70 14:31 22.06.2019
6013 Mist 7 1018 86 3000 2.6 40 13:55 22.06.2019
6014 Mist 7 1018 86 3000 2.6 40 13:36 22.06.2019
6015 Mist 6 1019 93 4500 1.25 81.313 13:18 22.06.2019
6016 Mist 6 1019 93 4500 1.25 81.313 12:41 22.06.2019
6017 Mist 5 1019 93 4000 1 0 11:59 22.06.2019
6018 Mist 6 1019 93 4000 1 0 11:40 22.06.2019
6019 Mist 5 1019 93 3500 1 0 10:54 22.06.2019
6020 Mist 6 1019 93 3500 1 0 10:22 22.06.2019
6021 Mist 7 1019 93 3500 2.6 20 09:56 22.06.2019
6022 Mist 7 1019 93 3500 2.6 20 09:28 22.06.2019
6023 Mist 6 1020 100 3000 1.5 50 08:45 22.06.2019
6024 Mist 6 1020 100 3000 1.5 50 08:26 22.06.2019
6025 Mist 6 1022 93 4000 0.5 0 07:43 22.06.2019
6026 Mist 7 1022 93 4000 1.64 80.888 06:58 22.06.2019
6027 Mist 7 1022 93 4000 1.08 91.009 06:31 22.06.2019
6028 Haze 10 1020 76 5000 2.6 200 03:21 22.06.2019
6029 Haze 11 1019 76 5000 1 230 02:18 22.06.2019
6030 Haze 12 1020 62 3000 0.47 327.566 00:47 22.06.2019
6031 Haze 13 1020 62 3000 1.73 224.461 00:23 22.06.2019
6032 Haze 14 1020 51 3000 1.73 224.461 23:49 21.06.2019
6033 Haze 16 1019 54 5000 1 0 23:22 21.06.2019
6034 Haze 16 1021 44 3000 1.5 210 22:54 21.06.2019
6035 Haze 17 1021 44 3000 1.5 210 22:27 21.06.2019
6036 Haze 16 1021 44 3000 1.5 240 21:56 21.06.2019
6037 Haze 16 1021 44 3000 1.5 240 21:37 21.06.2019
6038 Haze 15 1021 48 5000 1 300 21:19 21.06.2019
6039 Haze 16 1021 48 5000 1 300 20:47 21.06.2019
6040 Haze 13 1022 62 5000 1.37 106.284 20:22 21.06.2019
6041 Haze 16 1022 62 5000 1.37 106.284 19:38 21.06.2019
6042 Haze 14 1023 66 4000 1.5 160 18:55 21.06.2019
6043 Haze 14 1023 66 4000 1.5 160 18:34 21.06.2019
6044 Haze 10 1022 87 3000 1.5 0 17:56 21.06.2019
6045 Haze 10 1023 70 4000 0.93 206.51 17:30 21.06.2019
6046 Haze 9 1022 81 4000 0.93 206.51 16:42 21.06.2019
6047 Haze 9 1022 81 4000 0.93 206.51 16:23 21.06.2019
6048 Haze 7 1022 75 4000 0.93 206.51 15:53 21.06.2019
6049 Haze 7 1022 75 4000 0.93 206.51 15:33 21.06.2019
6050 Haze 7 1021 81 4000 0.51 13.654 14:53 21.06.2019
6051 Haze 7 1021 81 4000 0.51 13.654 14:31 21.06.2019
6052 Mist 7 1021 100 3000 2.1 340 13:59 21.06.2019
6053 Mist 7 1021 100 1500 2.1 320 13:37 21.06.2019
6054 Fog 7 1021 100 1500 2.1 320 13:18 21.06.2019
6055 Fog 6 1021 100 1500 2.1 320 12:42 21.06.2019
6056 Fog 6 1021 100 1500 2.1 320 12:22 21.06.2019
6057 Fog 7 1020 100 800 1.5 280 11:48 21.06.2019
6058 Fog 7 1020 100 800 1.5 280 11:27 21.06.2019
6059 Fog 6 1019 89 800 1.5 240 10:56 21.06.2019
6060 Fog 6 1019 89 800 1.5 240 10:38 21.06.2019
6061 Fog 6 1019 89 800 1.5 240 10:20 21.06.2019
6062 Fog 7 1019 100 1500 2.6 150 09:42 21.06.2019
6063 Fog 7 1019 100 1500 2.6 150 09:21 21.06.2019
6064 Fog 7 1018 100 500 3.6 150 08:45 21.06.2019
6065 Fog 7 1018 100 500 3.6 150 08:24 21.06.2019
6066 Fog 7 1018 100 500 3.1 160 07:56 21.06.2019
6067 Fog 7 1018 100 500 3.1 160 07:38 21.06.2019
6068 Fog 8 1018 100 550 3.1 170 06:58 21.06.2019
6069 Fog 8 1018 100 3000 3.1 220 06:23 21.06.2019
6070 Clouds 9 1018 100 6000 2.1 130 05:32 21.06.2019
6071 Clouds 9 1018 93 7000 3.1 140 04:31 21.06.2019
6072 Clouds 10 1018 87 8000 4.6 180 03:35 21.06.2019
6073 Clear 12 1017 76 10000 3.1 130 02:53 21.06.2019
6074 Clear 12 1016 71 10000 2.6 150 01:56 21.06.2019
6075 Clouds 14 1017 79 10000 0.9 256.319 00:58 21.06.2019
6076 Clouds 14 1017 62 10000 1.67 248.613 00:27 21.06.2019
6077 Clear 16 1017 23 10000 1 270 23:49 20.06.2019
6078 Clear 17 1017 23 10000 1 270 23:24 20.06.2019
6079 Clear 18 1017 20 10000 1.5 260 22:58 20.06.2019
6080 Clear 18 1017 20 10000 1.5 260 22:39 20.06.2019
6081 Clear 20 1017 18 10000 3.1 200 22:21 20.06.2019
6082 Clear 20 1017 18 10000 3.1 200 21:49 20.06.2019
6083 Clear 20 1016 16 10000 4.1 210 21:19 20.06.2019
6084 Clear 20 1016 16 10000 4.1 210 20:58 20.06.2019
6085 Clear 20 1016 16 10000 4.1 210 20:39 20.06.2019
6086 -273 0 0 0 0 0 20:18 20.06.2019
6087 Clouds 20 1016 18 10000 3.1 220 19:39 20.06.2019
6088 Clouds 19 1016 24 10000 1.5 230 19:18 20.06.2019
6089 Clouds 19 1016 24 10000 1.5 230 18:43 20.06.2019
6090 Clouds 20 1016 24 10000 1.5 230 18:23 20.06.2019
6091 Clouds 19 1015 37 10000 1.89 252.706 17:57 20.06.2019
6092 Clouds 19 1015 37 10000 1.89 252.706 17:39 20.06.2019
6093 Smoke 17 1014 51 10000 1 40 16:58 20.06.2019
6094 Smoke 17 1014 51 10000 1 40 16:39 20.06.2019
6095 Smoke 17 1014 51 10000 1 40 16:39 20.06.2019
6096 Smoke 12 1013 53 10000 1 40 16:19 20.06.2019
6097 Smoke 12 1013 53 10000 1 40 16:19 20.06.2019
6098 Smoke 14 1013 53 10000 1 40 15:42 20.06.2019
6099 Smoke 8 1013 53 10000 1 40 15:23 20.06.2019
6100 Clouds 11 1012 53 10000 1.5 40 14:52 20.06.2019
6101 Clouds 8 1012 53 10000 1.5 40 14:24 20.06.2019
6102 Clouds 4 1010 86 7000 0.39 51.226 13:56 20.06.2019
6103 Clouds 4 1010 86 7000 0.39 51.226 13:37 20.06.2019
6104 Clouds 11 1010 70 6000 1.5 30 13:18 20.06.2019
6105 Clouds 7 1010 70 6000 1.5 30 12:40 20.06.2019
6106 Clouds 5 1010 86 6000 0.5 0 12:19 20.06.2019
6107 Clouds 5 1010 86 6000 0.5 0 11:40 20.06.2019
6108 Clouds 5 1010 86 6000 0.5 0 11:22 20.06.2019
6109 Clouds 5 1010 86 6000 1.13 69.783 10:43 20.06.2019
6110 Clouds 5 1010 86 6000 1.13 69.783 10:23 20.06.2019
6111 Clouds 6 1010 81 6000 0.5 0 09:41 20.06.2019
6112 Clouds 6 1010 81 6000 0.5 0 09:41 20.06.2019
6113 Clouds 6 1010 81 6000 0.5 0 09:23 20.06.2019
6114 Clouds 12 1010 81 6000 1.78 68.886 08:48 20.06.2019
6115 Clouds 12 1010 81 6000 1.78 68.886 08:28 20.06.2019
6116 Clouds 9 1011 66 6000 2.1 60 07:59 20.06.2019
6117 Clouds 9 1011 66 6000 2.1 60 07:33 20.06.2019
6118 Smoke 12 1011 75 5000 0.5 330 06:57 20.06.2019
6119 Clouds 8 1011 75 8000 2.08 75.156 06:19 20.06.2019
6120 Clear 14 1012 66 10000 2.08 75.156 03:40 20.06.2019
6121 Clear 16 1013 44 10000 2.24 76.565 00:59 20.06.2019
6122 Clear 16 1013 44 10000 2.24 76.565 00:33 20.06.2019
6123 Clear 18 1013 24 10000 1.75 73.26 23:43 19.06.2019
6124 Clear 18 1013 24 10000 1.75 73.26 23:25 19.06.2019
6125 Clear 19 1014 16 10000 1 260 22:48 19.06.2019
6126 Clear 20 1014 16 10000 1 260 22:24 19.06.2019
6127 Clear 20 1014 17 10000 1 210 21:57 19.06.2019
6128 Clear 20 1014 17 10000 1 210 21:37 19.06.2019
6129 Clear 20 1015 19 10000 1.67 91.233 21:18 19.06.2019
6130 Clear 20 1015 19 10000 1.67 91.233 20:40 19.06.2019
6131 Clear 20 1015 19 10000 1.67 91.233 20:21 19.06.2019
6132 Clouds 18 1018 23 10000 1 230 19:45 19.06.2019
6133 Clouds 18 1018 23 10000 1 230 19:26 19.06.2019
6134 Clouds 17 1017 33 10000 1.5 340 18:56 19.06.2019
6135 Clouds 15 1017 33 10000 1.5 340 18:24 19.06.2019
6136 Clouds 12 1017 46 10000 0.5 0 17:43 19.06.2019
6137 Clouds 12 1017 46 10000 0.5 0 17:25 19.06.2019
6138 Clouds 12 1018 31 10000 1.5 140 16:56 19.06.2019
6139 Clouds 12 1018 31 10000 1.5 140 16:36 19.06.2019
6140 Clouds 10 1017 31 10000 1 260 16:18 19.06.2019
6141 Clouds 9 1017 31 10000 1 260 15:42 19.06.2019
6142 Clouds 6 1017 28 10000 1 260 15:20 19.06.2019
6143 Clear 4 1017 69 10000 1.5 80 14:43 19.06.2019
6144 Clear 4 1017 69 10000 1.5 80 14:23 19.06.2019
6145 Clouds 4 1018 74 8000 2.25 69.539 13:44 19.06.2019
6146 Clouds 4 1018 74 8000 1.97 63.891 13:25 19.06.2019
6147 Clouds 4 1018 74 8000 1.97 63.891 13:25 19.06.2019
6148 Clouds 5 1017 80 8000 1.97 63.891 12:49 19.06.2019
6149 Clouds 4 1017 80 8000 2.14 79.115 12:22 19.06.2019
6150 Clouds 4 1018 86 7000 1.5 300 12:22 19.06.2019
6151 Clouds 4 1018 86 7000 1.5 300 11:58 19.06.2019
6152 Clouds 5 1018 86 7000 1.5 300 11:39 19.06.2019
6153 Clouds 5 1018 28 8000 3.1 50 11:20 19.06.2019
6154 Clouds 4 1018 28 8000 3.1 50 10:47 19.06.2019
6155 Clouds 4 1018 28 8000 3.1 50 10:28 19.06.2019
6156 Clouds 4 1020 28 7000 2.1 350 09:56 19.06.2019
6157 Clouds 4 1020 28 7000 2.1 350 09:36 19.06.2019
6158 Clear 4 1021 35 8000 2.59 67.406 09:18 19.06.2019
6159 Clear 4 1021 36 8000 2.57 85.375 08:43 19.06.2019
6160 Clear 5 1021 36 8000 2.57 85.375 08:24 19.06.2019
6161 Clear 5 1020 86 8000 2.57 85.375 07:43 19.06.2019
6162 Clear 5 1020 86 8000 2.57 85.375 07:22 19.06.2019
6163 Clear 5 1021 86 8000 2.1 30 06:36 19.06.2019
6164 Clear 6 1021 80 8000 0.5 0 06:18 19.06.2019
6165 Clear 6 1021 80 8000 0.5 0 05:27 19.06.2019
6166 Clear 7 1021 75 10000 2.1 320 03:53 19.06.2019
6167 Clear 8 1021 75 10000 0.5 0 02:40 19.06.2019
6168 Clear 10 1021 61 10000 1.5 280 01:39 19.06.2019
6169 Clear 10 1021 61 10000 1.5 280 00:55 19.06.2019
6170 Clear 11 1022 44 7000 1.52 77.34 00:36 19.06.2019
6171 Clear 12 1021 46 10000 1 0 00:18 19.06.2019
6172 Clear 13 1022 35 10000 1.5 280 23:42 18.06.2019
6173 Clear 14 1022 35 10000 1.5 280 23:23 18.06.2019
6174 Clear 14 1022 28 10000 1.5 270 22:41 18.06.2019
6175 Clear 15 1022 47 10000 1 0 22:22 18.06.2019
6176 Clear 14 1022 30 10000 1.5 340 21:44 18.06.2019
6177 Clear 13 1024 35 10000 2.07 96.334 21:22 18.06.2019
6178 Clear 13 1024 35 10000 2.07 96.334 20:59 18.06.2019
6179 Clear 14 1024 35 10000 1.99 101.952 20:40 18.06.2019
6180 Clear 11 1024 46 10000 1 280 20:21 18.06.2019
6181 Clear 13 1024 46 10000 1 280 19:39 18.06.2019
6182 Clear 13 1024 46 10000 1 280 19:21 18.06.2019
6183 Clear 11 1025 57 10000 1 240 18:51 18.06.2019
6184 Clear 11 1025 57 10000 1 240 18:25 18.06.2019
6185 Clear 10 1025 61 10000 1 120 17:48 18.06.2019
6186 -273 0 0 0 0 0 17:23 18.06.2019
6187 Mist 7 1026 87 10000 1.57 118.52 16:58 18.06.2019
6188 Mist 7 1026 87 10000 1.57 118.52 16:40 18.06.2019
6189 Mist 7 1026 87 10000 1.57 118.52 16:21 18.06.2019
6190 Fog 4 1025 46 10000 1.57 118.52 15:41 18.06.2019
6191 Fog 4 1025 79 10000 1.84 74.513 15:22 18.06.2019
6192 Fog 3 1025 86 10000 1 30 14:56 18.06.2019
6193 Fog 3 1025 86 10000 1 30 14:37 18.06.2019
6194 Mist 2 1025 100 3000 1.84 74.513 14:18 18.06.2019
6195 Fog 2 1025 100 4000 1.84 74.513 13:49 18.06.2019
6196 Fog 2 1025 100 4000 1.86 71.809 13:29 18.06.2019
6197 Fog 2 1025 100 3000 2.6 20 12:46 18.06.2019
6198 Fog 2 1025 100 3000 2.6 20 12:28 18.06.2019
6199 Clouds 4 1025 93 6000 2.1 50 11:50 18.06.2019
6200 Clouds 3 1025 93 6000 2.1 50 11:24 18.06.2019
6201 Clouds 3 1025 100 7000 1.94 71.107 10:59 18.06.2019
6202 Clouds 3 1025 100 7000 1.94 71.107 10:40 18.06.2019
6203 Clouds 3 1025 100 7000 1.94 71.107 10:21 18.06.2019
6204 Clouds 3 1025 100 7000 2.6 30 09:51 18.06.2019
6205 Clouds 3 1025 100 7000 2.6 30 09:25 18.06.2019
6206 Clear 4 1026 93 10000 1.34 67.393 08:50 18.06.2019
6207 Clear 4 1026 93 10000 1.32 65.07 08:30 18.06.2019
6208 Clouds 5 1025 87 10000 3.1 180 07:56 18.06.2019
6209 Clouds 5 1025 87 10000 3.1 180 07:26 18.06.2019
6210 Clouds 6 1025 87 10000 4.1 170 06:55 18.06.2019
6211 Clouds 8 1025 81 10000 3.6 160 05:27 18.06.2019
6212 Clouds 8 1024 87 10000 2.1 140 04:21 18.06.2019
6213 Rain 8 1023 81 10000 3.6 140 02:48 18.06.2019
6214 Haze 9 1022 66 10000 0.5 0 01:28 18.06.2019
6215 Haze 8 1021 70 10000 2.1 10 00:58 18.06.2019
6216 Haze 9 1021 70 10000 2.1 10 00:36 18.06.2019
6217 Clouds 9 1021 57 6000 2.1 280 00:18 18.06.2019
6218 Clouds 10 1021 57 6000 2.1 280 23:38 17.06.2019
6219 Clouds 10 1020 53 6000 2.1 270 23:18 17.06.2019
6220 Clouds 10 1020 53 6000 2.1 270 22:41 17.06.2019
6221 Clouds 10 1020 53 6000 2.1 270 22:21 17.06.2019
6222 Clouds 10 1019 53 6000 1.5 280 21:45 17.06.2019
6223 Clouds 10 1019 53 6000 1.5 280 21:45 17.06.2019
6224 Clouds 10 1019 53 6000 1.5 280 21:24 17.06.2019
6225 Clouds 10 1019 53 6000 1.5 280 21:24 17.06.2019
6226 Clouds 10 1020 53 7000 3.95 267.56 20:44 17.06.2019
6227 Clouds 10 1020 53 7000 3.95 267.56 20:44 17.06.2019
6228 Clouds 9 1020 53 7000 1.93 251.424 20:25 17.06.2019
6229 Clouds 9 1019 53 7000 0.5 280 19:57 17.06.2019
6230 Clouds 9 1019 53 7000 0.5 280 19:39 17.06.2019
6231 Clouds 9 1020 56 7000 1 280 19:21 17.06.2019
6232 Clouds 9 1020 56 7000 1 280 18:39 17.06.2019
6233 Haze 7 1020 61 7000 0.5 320 18:18 17.06.2019
6234 Haze 7 1020 61 7000 0.5 320 17:59 17.06.2019
6235 Haze 8 1020 61 7000 0.5 320 17:39 17.06.2019
6236 Mist 6 1020 75 7000 0.87 94.775 17:21 17.06.2019
6237 Mist 5 1020 75 7000 0.87 94.775 16:43 17.06.2019
6238 Mist 5 1020 75 7000 0.87 94.775 16:24 17.06.2019
6239 Mist 4 1019 64 6000 0.87 94.775 15:55 17.06.2019
6240 Mist 4 1019 64 6000 0.87 94.775 15:36 17.06.2019
6241 Mist 3 1019 83 6000 1 10 15:18 17.06.2019
6242 Mist 3 1019 83 6000 1 10 14:42 17.06.2019
6243 Mist 3 1018 93 5000 1 0 14:22 17.06.2019
6244 Mist 3 1018 93 5000 1 0 13:44 17.06.2019
6245 Mist 4 1018 93 4500 2.1 30 13:21 17.06.2019
6246 Mist 3 1018 93 4500 2.1 30 12:47 17.06.2019
6247 Mist 3 1018 93 4000 0.5 0 12:24 17.06.2019
6248 Mist 3 1018 93 4000 0.5 0 11:45 17.06.2019
6249 Mist 3 1018 93 4000 0.5 0 11:26 17.06.2019
6250 Mist 3 1017 100 4000 0.41 25.439 10:56 17.06.2019
6251 Mist 3 1017 100 4000 0.41 25.439 10:38 17.06.2019
6252 Mist 3 1017 100 4000 0.41 25.439 10:20 17.06.2019
6253 Mist 3 1017 93 4500 0.5 0 09:39 17.06.2019
6254 Mist 3 1017 100 7000 0.41 330.604 09:20 17.06.2019
6255 Mist 3 1017 100 7000 0.29 44.166 08:41 17.06.2019
6256 Mist 3 1017 93 7000 0.29 44.166 08:23 17.06.2019
6257 Mist 4 1017 93 7000 0.29 44.166 07:40 17.06.2019
6258 Mist 4 1017 93 7000 0.29 44.166 07:21 17.06.2019
6259 Clear 5 1017 93 10000 0.5 0 06:34 17.06.2019
6260 Clear 6 1016 87 10000 0.5 130 05:45 17.06.2019
6261 Clear 7 1016 75 10000 1.5 170 04:39 17.06.2019
6262 Clear 7 1016 70 10000 3.1 150 03:45 17.06.2019
6263 Clear 8 1017 70 10000 1.5 220 02:58 17.06.2019
6264 Clear 8 1017 70 10000 1.5 220 02:40 17.06.2019
6265 Clear 10 1017 57 10000 3.1 210 01:47 17.06.2019
6266 Clear 10 1017 57 10000 3.1 210 01:25 17.06.2019
6267 Clear 11 1017 50 10000 1 220 00:44 17.06.2019
6268 Clear 12 1016 58 10000 3.6 190 00:21 17.06.2019
6269 Clouds 12 1017 43 8000 1.5 270 23:43 16.06.2019
6270 Clear 13 1017 47 10000 2.1 150 23:22 16.06.2019
6271 Clear 13 1017 47 10000 2.1 150 22:56 16.06.2019
6272 Clouds 13 1017 64 7000 1 240 22:38 16.06.2019
6273 Clear 13 1016 47 10000 1.5 0 22:18 16.06.2019
6274 Clouds 13 1017 43 7000 1 200 21:41 16.06.2019
6275 Clear 13 1017 50 10000 2.1 230 21:23 16.06.2019
6276 Clear 13 1017 50 10000 2.1 230 20:59 16.06.2019
6277 Clear 13 1018 43 10000 1 210 20:37 16.06.2019
6278 Clear 13 1017 50 10000 1 0 20:18 16.06.2019
6279 Clear 13 1017 50 10000 1 0 20:18 16.06.2019
6280 Clear 12 1019 50 10000 1 150 19:42 16.06.2019
6281 Clouds 11 1018 62 10000 1.5 50 19:22 16.06.2019
6282 Clouds 11 1018 62 10000 1.5 50 18:59 16.06.2019
6283 Clouds 10 1020 61 10000 1.5 260 18:40 16.06.2019
6284 Clear 10 1020 61 10000 1 200 18:20 16.06.2019
6285 Clear 10 1020 61 10000 1 200 17:48 16.06.2019
6286 Clear 9 1020 75 8000 1 0 17:23 16.06.2019
6287 Clear 9 1020 75 8000 1 0 16:57 16.06.2019
6288 Clear 8 1020 75 10000 0.84 191.889 16:39 16.06.2019
6289 Clear 6 1020 87 7000 1 0 16:21 16.06.2019
6290 Clear 6 1020 59 10000 2.1 20 15:44 16.06.2019
6291 Clear 5 1020 78 10000 2.1 20 15:24 16.06.2019
6292 Mist 3 1020 78 10000 0.31 60.642 14:45 16.06.2019
6293 Mist 3 1020 78 10000 0.31 60.642 14:24 16.06.2019
6294 Mist 3 1019 93 5000 0.31 60.642 13:53 16.06.2019
6295 Mist 3 1019 93 5000 2.1 20 13:28 16.06.2019
6296 Mist 3 1019 93 5000 2.1 20 12:58 16.06.2019
6297 Mist 3 1019 93 5000 2.1 20 12:40 16.06.2019
6298 Clouds 4 1019 93 6000 1.5 40 12:20 16.06.2019
6299 Clouds 4 1019 93 6000 1.5 40 12:20 16.06.2019
6300 Clouds 3 1019 93 6000 1.5 40 11:46 16.06.2019
6301 Clouds 3 1020 100 6000 0.61 341.086 11:21 16.06.2019
6302 Clouds 3 1020 100 6000 0.61 341.086 10:56 16.06.2019
6303 Clouds 3 1020 100 6000 0.61 341.086 10:38 16.06.2019
6304 Clouds 5 1020 87 7000 0.61 341.086 10:18 16.06.2019
6305 Clouds 6 1020 87 7000 0.61 341.086 09:39 16.06.2019
6306 Clouds 6 1020 87 8000 2.1 40 09:21 16.06.2019
6307 Clouds 5 1020 87 8000 2.1 40 08:42 16.06.2019
6308 Clouds 5 1020 87 10000 3.6 30 08:19 16.06.2019
6309 Clouds 5 1020 87 10000 3.6 30 07:44 16.06.2019
6310 Clouds 6 1020 81 10000 2.1 290 07:19 16.06.2019
6311 Clouds 6 1020 81 10000 2.1 290 06:43 16.06.2019
6312 Clouds 7 1020 70 10000 2.6 150 05:51 16.06.2019
6313 Clouds 8 1020 70 10000 2.1 140 05:18 16.06.2019
6314 Clouds 9 1020 70 10000 1.5 150 03:58 16.06.2019
6315 Clouds 9 1020 70 10000 1.5 150 03:33 16.06.2019
6316 Clouds 10 1020 66 10000 3.1 210 02:36 16.06.2019
6317 Clouds 10 1019 66 10000 3.6 210 01:47 16.06.2019
6318 Clouds 10 1019 66 10000 3.6 210 01:27 16.06.2019
6319 Clouds 11 1020 53 10000 1 210 00:41 16.06.2019
6320 Clouds 12 1019 50 10000 1.5 210 00:22 16.06.2019
6321 Clouds 12 1019 50 10000 1.5 210 23:46 15.06.2019
6322 Clouds 12 1019 50 10000 1.5 210 23:25 15.06.2019
6323 Clouds 13 1019 50 10000 2.1 240 22:50 15.06.2019
6324 Clouds 13 1019 50 10000 2.1 240 22:28 15.06.2019
6325 Clouds 13 1019 50 10000 2.1 230 21:58 15.06.2019
6326 Clouds 13 1020 47 10000 1.5 250 21:40 15.06.2019
6327 Clouds 12 1020 50 10000 2.1 250 21:20 15.06.2019
6328 Clouds 12 1020 50 10000 2.1 250 20:43 15.06.2019
6329 Clouds 12 1021 54 10000 1 300 20:22 15.06.2019
6330 Clouds 12 1021 54 10000 1 300 19:46 15.06.2019
6331 Clouds 11 1020 66 10000 1.5 280 19:25 15.06.2019
6332 Clouds 10 1022 61 10000 1 240 18:42 15.06.2019
6333 Clouds 9 1022 75 10000 2.1 120 18:23 15.06.2019
6334 Clouds 9 1022 75 10000 2.1 120 17:44 15.06.2019
6335 Clouds 8 1022 81 10000 1.5 270 17:26 15.06.2019
6336 Clouds 8 1022 81 10000 1.5 270 16:49 15.06.2019
6337 Clouds 8 1022 81 10000 1.5 270 16:49 15.06.2019
6338 Clouds 7 1022 87 6000 1 0 16:21 15.06.2019
6339 Fog 7 1022 87 10000 0.5 320 15:45 15.06.2019
6340 Mist 7 1021 93 4000 2.1 250 15:24 15.06.2019
6341 Mist 6 1021 93 4000 2.1 250 14:56 15.06.2019
6342 Mist 6 1021 87 10000 0.5 250 14:37 15.06.2019
6343 Clouds 6 1021 93 8000 1.93 94.961 14:18 15.06.2019
6344 Clouds 6 1021 93 8000 1.93 94.961 13:42 15.06.2019
6345 Clouds 6 1020 93 6000 1.5 60 13:20 15.06.2019
6346 Clouds 6 1020 93 6000 1.5 60 12:52 15.06.2019
6347 Clouds 6 1020 93 6000 1.5 60 12:27 15.06.2019
6348 -273 0 0 0 0 0 12:27 15.06.2019
6349 Mist 6 1019 100 5000 2.6 30 11:54 15.06.2019
6350 Mist 7 1019 100 5000 2.6 30 11:35 15.06.2019
6351 Rain 7 1019 100 7000 2.1 10 10:55 15.06.2019
6352 Rain 7 1019 100 7000 2.1 10 10:37 15.06.2019
6353 Rain 6 1019 100 8000 2.1 10 10:19 15.06.2019
6354 Rain 6 1019 100 8000 2.1 10 09:43 15.06.2019
6355 Rain 7 1019 93 10000 1.5 340 09:23 15.06.2019
6356 Rain 7 1019 93 10000 1.5 340 08:50 15.06.2019
6357 Rain 7 1019 93 10000 1.5 340 08:31 15.06.2019
6358 Clouds 7 1019 87 10000 1.5 0 07:50 15.06.2019
6359 Clouds 7 1019 87 10000 1.5 310 07:22 15.06.2019
6360 Clouds 7 1019 87 10000 1.5 310 06:39 15.06.2019
6361 Clouds 7 1019 87 10000 1.5 310 06:18 15.06.2019
6362 Rain 7 1019 87 10000 2.6 280 05:25 15.06.2019
6363 Rain 7 1019 93 8000 1.5 290 04:44 15.06.2019
6364 Rain 7 1019 93 8000 1.5 290 04:44 15.06.2019
6365 Rain 7 1019 93 8000 1.5 290 04:44 15.06.2019
6366 Rain 7 1019 93 8000 1.5 290 04:44 15.06.2019
6367 Rain 7 1019 93 8000 1.5 290 04:44 15.06.2019
6368 Rain 7 1019 87 8000 2.1 100 03:42 15.06.2019
6369 Rain 7 1019 75 10000 3.6 130 02:56 15.06.2019
6370 Clouds 7 1019 70 10000 4.6 150 02:22 15.06.2019
6371 Clouds 7 1019 70 10000 4.6 150 01:43 15.06.2019
6372 Rain 7 1019 70 10000 4.6 150 00:56 15.06.2019
6373 Rain 8 1019 75 8000 2.6 210 00:37 15.06.2019
6374 Clouds 8 1019 81 10000 7.2 160 23:54 14.06.2019
6375 Clouds 9 1019 76 10000 3.1 170 23:25 14.06.2019
6376 Clouds 9 1019 81 8000 3.6 180 22:45 14.06.2019
6377 Clouds 9 1018 71 10000 4.1 180 22:23 14.06.2019
6378 Clouds 9 1018 71 10000 4.1 180 21:59 14.06.2019
6379 Clouds 9 1019 87 10000 3.6 190 21:40 14.06.2019
6380 Clouds 11 1018 62 10000 3.1 240 21:21 14.06.2019
6381 Clouds 12 1018 62 10000 3.1 240 20:42 14.06.2019
6382 Clouds 12 1018 81 10000 8.2 210 20:18 14.06.2019
6383 Clouds 12 1019 71 10000 2.6 240 19:53 14.06.2019
6384 Clouds 13 1018 62 10000 2.1 190 19:23 14.06.2019
6385 Clouds 13 1018 62 10000 2.1 190 18:59 14.06.2019
6386 Clouds 12 1019 47 10000 1.5 360 18:41 14.06.2019
6387 Clouds 11 1019 93 8000 1 0 18:22 14.06.2019
6388 Mist 10 1020 61 10000 0.79 265.501 17:48 14.06.2019
6389 Mist 10 1020 61 10000 0.79 265.501 17:30 14.06.2019
6390 Mist 10 1020 87 10000 1.5 50 16:58 14.06.2019
6391 Mist 10 1020 87 10000 1.5 50 16:40 14.06.2019
6392 Mist 8 1019 100 1500 1.5 210 16:19 14.06.2019
6393 Mist 7 1019 80 10000 1.5 60 15:41 14.06.2019
6394 -273 0 0 0 0 0 15:23 14.06.2019
6395 Fog 6 1019 83 10000 1 60 14:55 14.06.2019
6396 Fog 6 1019 83 10000 1 60 14:55 14.06.2019
6397 Fog 6 1019 83 10000 1 60 14:35 14.06.2019
6398 Fog 5 1019 83 10000 1 60 14:35 14.06.2019
6399 Fog 6 1019 100 400 1 0 13:57 14.06.2019
6400 Fog 6 1019 100 400 1 0 13:38 14.06.2019
6401 Fog 6 1019 100 400 1 0 13:20 14.06.2019
6402 Fog 6 1019 100 400 1 0 13:20 14.06.2019
6403 Fog 6 1019 100 400 3.6 360 12:42 14.06.2019
6404 Fog 6 1019 100 400 3.6 360 12:42 14.06.2019
6405 Fog 6 1019 100 400 3.6 360 12:23 14.06.2019
6406 Fog 6 1019 100 400 3.6 10 11:47 14.06.2019
6407 Fog 6 1019 100 400 3.6 10 11:24 14.06.2019
6408 Fog 6 1020 100 300 3.6 360 10:59 14.06.2019
6409 Fog 6 1020 100 300 3.6 360 10:40 14.06.2019
6410 Fog 6 1020 100 300 2.6 350 10:18 14.06.2019
6411 Fog 6 1020 100 300 2.6 350 09:40 14.06.2019
6412 Fog 6 1020 100 400 2.1 20 09:21 14.06.2019
6413 Fog 6 1020 100 400 2.1 20 09:21 14.06.2019
6414 Fog 6 1020 100 400 2.1 20 08:45 14.06.2019
6415 Fog 6 1021 100 400 2.1 360 08:19 14.06.2019
6416 Fog 6 1021 100 400 2.1 360 07:48 14.06.2019
6417 Fog 6 1021 100 400 1 0 07:20 14.06.2019
6418 Fog 7 1021 100 400 1 0 06:33 14.06.2019
6419 Fog 7 1021 100 5000 1.4 207.167 05:56 14.06.2019
6420 Clouds 8 1022 93 10000 1.5 260 05:19 14.06.2019
6421 Clouds 8 1022 93 10000 1.5 260 04:39 14.06.2019
6422 Clouds 9 1022 100 10000 2.1 250 03:51 14.06.2019
6423 Clouds 9 1022 100 10000 2.1 250 03:25 14.06.2019
6424 Clouds 9 1022 93 10000 2.6 180 02:49 14.06.2019
6425 Clouds 8 1022 93 10000 2.6 180 02:27 14.06.2019
6426 Rain 8 1022 81 10000 1.45 204.833 00:57 14.06.2019
6427 Rain 8 1022 87 7000 1.5 70 00:23 14.06.2019
6428 Rain 8 1022 87 7000 1.5 70 23:57 13.06.2019
6429 Rain 9 1023 87 7000 1.5 0 23:39 13.06.2019
6430 Rain 9 1023 87 7000 1.5 0 23:39 13.06.2019
6431 Rain 8 1022 81 7000 1.2 150.969 23:20 13.06.2019
6432 Rain 10 1022 81 7000 1.2 150.969 22:39 13.06.2019
6433 Rain 10 1022 87 4000 2.1 350 22:21 13.06.2019
6434 Rain 10 1022 87 4000 2.1 350 21:40 13.06.2019
6435 Rain 10 1021 87 10000 3.6 110 21:20 13.06.2019
6436 Rain 10 1021 87 10000 3.6 110 21:20 13.06.2019
6437 Rain 8 1021 87 10000 3.6 110 20:55 13.06.2019
6438 Rain 8 1022 87 4000 2.1 100 20:36 13.06.2019
6439 Rain 8 1022 81 6000 2.62 108.214 20:18 13.06.2019
6440 Rain 8 1022 81 6000 2.62 108.214 20:18 13.06.2019
6441 Rain 9 1022 81 6000 2.62 108.214 19:41 13.06.2019
6442 Rain 9 1022 72 10000 2.6 70 19:22 13.06.2019
6443 Rain 10 1022 87 6000 1 340 18:56 13.06.2019
6444 Rain 9 1022 87 6000 1 340 18:38 13.06.2019
6445 Rain 8 1022 87 6000 2.33 119.959 18:20 13.06.2019
6446 Rain 8 1022 87 6000 2.33 119.959 17:41 13.06.2019
6447 Rain 8 1022 87 5000 1 230 17:20 13.06.2019
6448 Rain 8 1022 87 5000 1 230 16:48 13.06.2019
6449 Rain 8 1020 87 4000 1.5 330 16:22 13.06.2019
6450 -273 0 0 0 0 0 15:57 13.06.2019
6451 Rain 9 1020 87 4000 1.5 330 15:38 13.06.2019
6452 Rain 9 1020 87 6000 2.6 80 15:18 13.06.2019
6453 Rain 9 1020 87 6000 2.6 80 14:44 13.06.2019
6454 Rain 8 1020 87 6000 2.6 80 14:25 13.06.2019
6455 Rain 8 1019 93 10000 1.5 160 13:46 13.06.2019
6456 Rain 8 1019 93 10000 1.5 160 13:21 13.06.2019
6457 Rain 8 1019 100 10000 3.6 130 12:44 13.06.2019
6458 Rain 9 1019 100 10000 3.6 130 12:24 13.06.2019
6459 Rain 10 1019 100 8000 4.1 140 11:59 13.06.2019
6460 Rain 8 1019 100 8000 4.1 140 11:41 13.06.2019
6461 Rain 10 1019 93 8000 4.6 130 11:22 13.06.2019
6462 Rain 10 1019 93 8000 4.6 130 10:46 13.06.2019
6463 Rain 10 1019 93 8000 4.6 130 10:27 13.06.2019
6464 Rain 10 1019 93 8000 4.6 130 10:27 13.06.2019
6465 Rain 10 1019 93 8000 4.6 130 10:27 13.06.2019
6466 Rain 11 1018 93 8000 3.1 150 09:45 13.06.2019
6467 Rain 11 1018 93 8000 3.1 150 09:25 13.06.2019
6468 Rain 9 1018 87 10000 4.6 180 08:50 13.06.2019
6469 Rain 11 1018 87 10000 4.6 180 08:29 13.06.2019
6470 Clouds 11 1017 87 10000 2.6 180 07:59 13.06.2019
6471 Clouds 11 1017 87 10000 2.6 180 07:31 13.06.2019
6472 Clouds 11 1017 87 10000 4.1 180 06:52 13.06.2019
6473 Clouds 11 1017 87 10000 4.1 180 06:24 13.06.2019
6474 Clouds 12 1017 81 10000 4.6 160 05:57 13.06.2019
6475 Clouds 12 1017 81 10000 4.6 160 05:37 13.06.2019
6476 Clouds 12 1017 71 10000 5.7 150 05:18 13.06.2019
6477 Clouds 11 1016 66 10000 3.1 150 03:36 13.06.2019
6478 Clouds 13 1015 54 10000 1.5 0 01:43 13.06.2019
6479 Clouds 14 1016 47 8000 1.5 90 00:29 13.06.2019
6480 Clouds 16 1014 44 10000 5.7 150 23:26 12.06.2019
6481 Clouds 17 1015 29 10000 2.6 270 22:58 12.06.2019
6482 Clouds 17 1015 29 10000 2.6 270 22:39 12.06.2019
6483 Clouds 17 1015 31 10000 2.6 350 22:21 12.06.2019
6484 Clouds 18 1015 31 10000 2.6 350 21:42 12.06.2019
6485 Clouds 16 1015 71 10000 2.1 150 21:22 12.06.2019
6486 Clouds 16 1015 71 10000 2.1 150 20:48 12.06.2019
6487 Clouds 16 1015 71 10000 2.1 150 20:29 12.06.2019
6488 Clouds 15 1016 66 10000 1.5 270 19:57 12.06.2019
6489 Clouds 15 1016 66 10000 1.5 270 19:38 12.06.2019
6490 Clouds 14 1017 62 10000 1.5 180 19:19 12.06.2019
6491 Clouds 14 1017 62 10000 1.5 180 18:44 12.06.2019
6492 Clouds 14 1017 62 10000 1.5 180 18:24 12.06.2019
6493 Clouds 12 1016 76 10000 2.6 230 17:46 12.06.2019
6494 Clouds 12 1016 76 10000 2.6 230 17:23 12.06.2019
6495 Haze 10 1016 75 10000 1 320 16:43 12.06.2019
6496 Haze 9 1016 75 10000 1 320 16:25 12.06.2019
6497 Haze 8 1016 86 4000 1.5 320 15:58 12.06.2019
6498 Mist 6 1017 80 10000 1.5 350 15:33 12.06.2019
6499 -273 0 0 0 0 0 14:58 12.06.2019
6500 Mist 4 1016 86 10000 2.1 20 14:33 12.06.2019
6501 Mist 4 1015 93 3000 1.25 228.53 13:58 12.06.2019
6502 Mist 4 1015 93 3000 1.25 228.53 13:58 12.06.2019
6503 -273 0 0 0 0 0 13:39 12.06.2019
6504 Mist 3 1015 93 4000 2.1 60 13:19 12.06.2019
6505 Mist 4 1015 93 4000 2.1 60 12:44 12.06.2019
6506 Mist 4 1015 93 4000 2.1 60 12:21 12.06.2019
6507 Mist 4 1015 93 4000 2.1 60 11:55 12.06.2019
6508 Mist 4 1015 93 4000 1 0 11:37 12.06.2019
6509 Mist 4 1015 100 4000 2.1 290 11:19 12.06.2019
6510 Mist 4 1015 100 4000 2.1 290 10:43 12.06.2019
6511 Mist 4 1015 93 4000 2.1 40 10:19 12.06.2019
6512 Mist 4 1015 93 4000 2.1 40 09:41 12.06.2019
6513 Mist 4 1015 100 4000 1 0 09:22 12.06.2019
6514 Mist 4 1015 100 4000 1 0 08:37 12.06.2019
6515 Mist 4 1015 100 4000 1 0 08:18 12.06.2019
6516 Smoke 5 1016 93 4500 1 0 07:20 12.06.2019
6517 Smoke 6 1016 93 5000 1.91 239.273 06:40 12.06.2019
6518 Clouds 5 1016 93 8000 1.95 224.543 05:25 12.06.2019
6519 Clouds 8 1016 81 10000 3.1 140 03:41 12.06.2019
6520 Clouds 10 1015 76 7000 1.5 210 00:47 12.06.2019
6521 Clouds 11 1015 66 10000 3.6 160 00:20 12.06.2019
6522 Clouds 12 1015 71 7000 1.5 170 23:43 11.06.2019
6523 Clouds 13 1015 62 10000 5.1 170 23:24 11.06.2019
6524 Clouds 13 1015 76 7000 2.1 210 22:43 11.06.2019
6525 Clouds 14 1015 76 7000 3.1 180 22:18 11.06.2019
6526 Clouds 14 1015 76 7000 3.1 180 21:56 11.06.2019
6527 Clouds 14 1015 76 7000 3.1 180 21:37 11.06.2019
6528 Clouds 14 1014 71 7000 4.1 180 21:19 11.06.2019
6529 Clouds 15 1014 71 7000 4.1 180 20:46 11.06.2019
6530 Haze 14 1013 54 10000 5.7 210 20:23 11.06.2019
6531 Haze 14 1013 54 3000 2.6 240 19:53 11.06.2019
6532 Haze 14 1013 54 3000 2.6 240 19:29 11.06.2019
6533 Haze 14 1013 54 4000 2.1 240 18:54 11.06.2019
6534 Haze 15 1013 54 4000 2.1 240 18:21 11.06.2019
6535 Clouds 14 1013 62 6000 1 340 17:42 11.06.2019
6536 Haze 12 1013 66 6000 1 210 17:22 11.06.2019
6537 Haze 12 1013 66 6000 1 210 16:56 11.06.2019
6538 Haze 12 1013 66 6000 1 210 16:37 11.06.2019
6539 Haze 11 1012 49 5000 1 0 16:19 11.06.2019
6540 Haze 10 1012 66 6000 1.5 30 15:41 11.06.2019
6541 Haze 10 1013 70 5000 2.41 270.595 15:20 11.06.2019
6542 Haze 9 1013 70 5000 2.41 270.595 14:44 11.06.2019
6543 Clouds 10 1012 52 7000 2.1 30 14:21 11.06.2019
6544 Clouds 9 1011 58 6000 2.1 360 13:50 11.06.2019
6545 Clouds 9 1011 61 6000 1.5 240 13:23 11.06.2019
6546 Clouds 9 1011 61 6000 1.5 240 12:44 11.06.2019
6547 Clouds 9 1011 45 7000 0.5 0 12:23 11.06.2019
6548 Clouds 9 1011 45 7000 0.5 0 11:58 11.06.2019
6549 Clouds 9 1011 45 7000 0.5 0 11:38 11.06.2019
6550 Clouds 9 1011 45 7000 1.96 274.851 11:19 11.06.2019
6551 Clouds 9 1011 45 7000 1.96 274.851 10:43 11.06.2019
6552 Clouds 9 1011 45 7000 1.96 274.851 10:24 11.06.2019
6553 Clouds 9 1012 45 7000 1.5 50 09:46 11.06.2019
6554 Clouds 9 1013 61 7000 2.1 260 09:23 11.06.2019
6555 Clouds 9 1013 61 7000 2.1 260 08:42 11.06.2019
6556 Clouds 9 1013 61 7000 2.1 260 08:23 11.06.2019
6557 Clouds 9 1013 65 7000 2.1 50 07:37 11.06.2019
6558 Clouds 10 1014 57 8000 1.5 270 06:55 11.06.2019
6559 Clouds 10 1015 61 8000 1.55 279.965 06:25 11.06.2019
6560 Clouds 12 1015 54 8000 2.6 150 04:52 11.06.2019
6561 Clouds 13 1015 47 8000 2.1 150 02:49 11.06.2019
6562 Haze 13 1014 38 7000 1 180 01:23 11.06.2019
6563 Haze 15 1015 40 5000 1 50 00:45 11.06.2019
6564 Haze 15 1015 31 5000 1 280 23:47 10.06.2019
6565 Haze 18 1014 25 8000 3.6 150 23:21 10.06.2019
6566 Haze 19 1014 25 8000 3.6 150 22:55 10.06.2019
6567 Haze 19 1015 30 5000 1.5 270 22:36 10.06.2019
6568 Haze 19 1016 31 5000 2.6 260 22:18 10.06.2019
6569 Haze 19 1016 31 5000 2.6 260 21:39 10.06.2019
6570 Haze 19 1017 34 5000 2.6 210 21:21 10.06.2019
6571 Haze 19 1017 34 5000 2.6 210 20:45 10.06.2019
6572 Clouds 16 1018 21 6000 2.92 248.301 20:23 10.06.2019
6573 Clouds 17 1018 21 6000 2.92 248.301 19:53 10.06.2019
6574 Clouds 16 1017 21 7000 4.1 20 19:27 10.06.2019
6575 Clouds 16 1017 21 7000 4.1 20 18:59 10.06.2019
6576 Clouds 15 1018 21 10000 2.1 290 18:40 10.06.2019
6577 Clouds 14 1018 25 10000 1 270 18:20 10.06.2019
6578 Clouds 13 1018 25 10000 1 270 17:54 10.06.2019
6579 Clouds 13 1018 25 10000 1 270 17:36 10.06.2019
6580 Haze 11 1018 57 10000 1 280 17:18 10.06.2019
6581 Haze 11 1018 57 10000 1 280 16:42 10.06.2019
6582 Haze 11 1017 65 10000 1 350 16:22 10.06.2019
6583 Haze 10 1017 65 10000 1 350 15:41 10.06.2019
6584 Haze 11 1017 65 10000 1 350 15:23 10.06.2019
6585 Haze 9 1017 70 10000 1.79 280.633 14:49 10.06.2019
6586 Haze 9 1017 70 10000 1.79 280.633 14:31 10.06.2019
6587 Clouds 10 1016 60 7000 1 270 13:58 10.06.2019
6588 Clouds 10 1016 60 7000 1 270 13:39 10.06.2019
6589 Clouds 10 1016 60 7000 1 0 13:20 10.06.2019
6590 Clouds 10 1016 60 7000 1 0 12:40 10.06.2019
6591 Clouds 10 1016 60 7000 1 0 12:22 10.06.2019
6592 Clouds 9 1017 69 7000 2.6 310 11:43 10.06.2019
6593 Clouds 9 1017 64 8000 2.1 20 11:19 10.06.2019
6594 Clouds 9 1017 64 8000 2.1 20 10:42 10.06.2019
6595 Clouds 8 1017 64 8000 1.99 276.943 10:20 10.06.2019
6596 Clouds 9 1017 64 8000 1.99 276.943 09:55 10.06.2019
6597 Clouds 9 1017 64 8000 1.99 276.943 09:33 10.06.2019
6598 Clouds 9 1018 60 8000 0.5 0 08:50 10.06.2019
6599 Clouds 10 1018 60 8000 0.5 0 08:28 10.06.2019
6600 Clouds 10 1018 48 8000 1 0 07:59 10.06.2019
6601 Clouds 11 1018 46 8000 1 0 06:34 10.06.2019
6602 Clear 13 1018 50 10000 1.73 280.165 04:27 10.06.2019
6603 Clear 15 1017 35 10000 4.1 170 01:57 10.06.2019
6604 Clouds 17 1017 30 8000 2.28 272.261 01:23 10.06.2019
6605 Clouds 16 1017 30 8000 2.28 272.261 00:54 10.06.2019
6606 Clear 19 1016 22 10000 2.55 251.288 00:19 10.06.2019
6607 Clear 19 1016 22 10000 2.55 251.288 23:42 09.06.2019
6608 Clear 20 1015 22 10000 4.6 170 23:19 09.06.2019
6609 Clouds 21 1016 20 7000 2.55 251.288 22:43 09.06.2019
6610 Clouds 21 1016 20 7000 2.55 251.288 22:24 09.06.2019
6611 Clear 21 1016 22 10000 2.1 230 21:43 09.06.2019
6612 Clear 21 1016 22 10000 3.1 230 21:23 09.06.2019
6613 Clear 21 1016 22 10000 3.1 230 20:43 09.06.2019
6614 Clear 20 1017 29 10000 2.74 243.847 20:23 09.06.2019
6615 Clear 20 1017 29 10000 2.74 243.847 19:47 09.06.2019
6616 Clouds 20 1016 27 8000 1.5 310 19:19 09.06.2019
6617 Clouds 19 1016 27 8000 1.5 310 18:58 09.06.2019
6618 Clouds 19 1016 27 8000 1.5 310 18:58 09.06.2019
6619 Clear 18 1018 31 10000 1.5 210 18:40 09.06.2019
6620 Clear 18 1017 33 8000 2.22 268.141 18:22 09.06.2019
6621 Clear 16 1018 35 10000 1.5 230 17:46 09.06.2019
6622 Clear 16 1018 35 10000 1.5 230 17:27 09.06.2019
6623 Clear 13 1017 17 10000 2.22 268.141 16:54 09.06.2019
6624 Clear 13 1017 17 10000 2.22 268.141 16:36 09.06.2019
6625 Clear 11 1017 56 7000 1 0 16:18 09.06.2019
6626 Clear 10 1017 17 10000 1.5 60 15:44 09.06.2019
6627 Clear 8 1017 69 10000 1.5 40 15:24 09.06.2019
6628 Clear 8 1017 69 10000 1.5 40 14:45 09.06.2019
6629 Clear 8 1016 69 8000 1.88 288.802 14:22 09.06.2019
6630 Clear 7 1016 69 8000 1.88 288.802 13:52 09.06.2019
6631 Clear 8 1016 69 8000 1.88 288.802 13:27 09.06.2019
6632 Clear 9 1016 56 7000 1.5 80 12:42 09.06.2019
6633 Clear 9 1016 56 7000 1.5 80 12:24 09.06.2019
6634 Clear 9 1016 64 7000 1.77 285.727 11:40 09.06.2019
6635 Clear 7 1017 74 7000 1.77 285.727 11:22 09.06.2019
6636 Clear 8 1017 74 7000 1.74 282.418 10:46 09.06.2019
6637 Clear 8 1017 74 7000 1.74 282.418 10:23 09.06.2019
6638 Clear 8 1017 74 7000 1.74 282.418 10:23 09.06.2019
6639 Clear 8 1017 69 7000 1 240 09:41 09.06.2019
6640 Clear 8 1017 69 7000 1 240 09:41 09.06.2019
6641 Clear 8 1017 64 8000 1 340 09:22 09.06.2019
6642 Clear 9 1017 64 8000 1 340 08:47 09.06.2019
6643 Clear 9 1017 64 8000 1 340 08:28 09.06.2019
6644 Clear 9 1017 64 8000 2.1 30 07:21 09.06.2019
6645 Clear 10 1017 60 8000 1.28 269.42 06:30 09.06.2019
6646 Clear 12 1016 52 10000 1.5 240 04:58 09.06.2019
6647 Clear 14 1017 40 10000 1.5 300 01:39 09.06.2019
6648 Clear 15 1017 40 10000 1.5 300 01:21 09.06.2019
6649 Clear 15 1017 40 10000 1.5 300 01:21 09.06.2019
6650 Clear 15 1017 40 10000 1.5 300 00:59 09.06.2019
6651 Clear 19 1018 20 10000 2.31 242.682 23:45 08.06.2019
6652 Clear 19 1018 20 10000 2.31 242.682 23:25 08.06.2019
6653 Clear 20 1017 20 10000 2.1 210 22:58 08.06.2019
6654 Clear 20 1019 20 10000 1 260 22:40 08.06.2019
6655 Clear 20 1019 24 10000 2.1 200 22:19 08.06.2019
6656 Clear 20 1019 24 10000 2.1 200 22:19 08.06.2019
6657 Clear 20 1019 24 10000 2.1 200 22:19 08.06.2019
6658 Clear 20 1019 24 10000 2.1 200 21:51 08.06.2019
6659 Clear 20 1019 24 10000 2.1 200 21:51 08.06.2019
6660 Clear 20 1019 24 10000 2.1 200 21:27 08.06.2019
6661 Clear 20 1018 22 10000 4.1 160 20:58 08.06.2019
6662 Clear 20 1019 25 10000 2.1 280 20:40 08.06.2019
6663 Clear 20 1018 31 10000 2.1 200 20:19 08.06.2019
6664 Clear 19 1020 29 10000 1.5 240 19:40 08.06.2019
6665 Clear 19 1019 11 10000 3.1 180 19:20 08.06.2019
6666 Clear 18 1020 33 10000 1.5 250 18:56 08.06.2019
6667 Clear 18 1020 33 10000 1.5 250 18:35 08.06.2019
6668 Clear 16 1020 43 10000 2.1 100 17:57 08.06.2019
6669 Clear 16 1020 43 10000 2.1 100 17:38 08.06.2019
6670 Clear 14 1020 50 10000 2.1 240 17:18 08.06.2019
6671 Clear 12 1020 49 10000 1 200 16:38 08.06.2019
6672 Smoke 7 1019 74 10000 1.9 233.396 16:18 08.06.2019
6673 Smoke 2 1019 74 10000 1.9 233.396 15:37 08.06.2019
6674 Smoke 5 1019 86 5000 2.1 10 14:53 08.06.2019
6675 Smoke 6 1019 86 5000 2.1 10 14:31 08.06.2019
6676 Clear 6 1019 16 7000 2.1 240 13:56 08.06.2019
6677 Clear 7 1019 16 7000 2.1 240 13:24 08.06.2019
6678 Clear 7 1018 80 7000 2.1 160 12:45 08.06.2019
6679 Clear 8 1018 80 7000 2.1 160 12:19 08.06.2019
6680 Clear 7 1018 80 6000 0.2 196.645 11:40 08.06.2019
6681 Clear 8 1018 80 6000 0.2 196.645 11:21 08.06.2019
6682 Clear 7 1018 86 6000 2.1 20 10:44 08.06.2019
6683 Clear 7 1018 86 6000 2.1 20 10:22 08.06.2019
6684 Clear 8 1019 19 6000 1 0 09:43 08.06.2019
6685 Clear 9 1019 25 6000 1 0 08:59 08.06.2019
6686 Clear 8 1019 74 8000 2.6 40 08:28 08.06.2019
6687 Clear 9 1019 25 8000 2.1 290 07:47 08.06.2019
6688 Clear 9 1020 29 8000 2.6 180 06:48 08.06.2019
6689 Clear 11 1019 61 8000 1 0 04:19 08.06.2019
6690 Clear 14 1019 47 10000 2.6 160 02:21 08.06.2019
6691 Clear 15 1019 47 10000 1.43 248.362 00:45 08.06.2019
6692 Clear 15 1019 47 10000 2.81 242.147 00:24 08.06.2019
6693 Clear 17 1020 44 10000 1 230 23:39 07.06.2019
6694 Clear 17 1019 36 10000 2.1 160 23:19 07.06.2019
6695 Clear 18 1020 38 10000 2.1 230 22:35 07.06.2019
6696 Clear 18 1019 33 10000 1 0 21:57 07.06.2019
6697 Clear 18 1019 39 10000 1 280 21:39 07.06.2019
6698 Clear 17 1019 38 10000 1.5 240 21:20 07.06.2019
6699 Clear 17 1019 38 10000 1.5 240 20:53 07.06.2019
6700 Clear 17 1020 47 10000 1.5 0 20:35 07.06.2019
6701 Clear 16 1021 47 10000 2.1 0 19:46 07.06.2019
6702 Clear 16 1020 54 10000 1 0 19:20 07.06.2019
6703 Clear 16 1021 58 10000 1 30 18:47 07.06.2019
6704 Clear 15 1021 58 10000 1 30 18:28 07.06.2019
6705 Clear 14 1022 66 10000 2.1 220 17:47 07.06.2019
6706 Clear 13 1022 66 10000 2.1 220 17:24 07.06.2019
6707